<?xml version="1.0" encoding="UTF-8" standalone="no" ?>
<gpx xmlns="http://www.topografix.com/GPX/1/1" xmlns:xsi="http://www.w3.org/2001/XMLSchema-instance" xsi:schemaLocation="http://www.topografix.com/GPX/1/1 http://www.topografix.com/GPX/1/1/gpx.xsd" version="1.1" creator="VisuGPX - https://www.visugpx.com">
  <metadata>
    <name>Pornichet 05012020</name>
    <desc><![CDATA[Sortie VTT du dimanche 05 janvier 2020]]></desc>
  </metadata>
  <trk>
    <name><![CDATA[Pornichet Cyclisme]]></name>
    <trkseg>
      <trkpt lat="47.26403" lon="-2.31567">
        <ele>9.5</ele>
        <time>2020-01-05T08:04:41.000Z</time>
      </trkpt>
      <trkpt lat="47.26403" lon="-2.31585">
        <ele>9.5</ele>
        <time>2020-01-05T08:04:44.000Z</time>
      </trkpt>
      <trkpt lat="47.26404" lon="-2.31591">
        <ele>2.5999999046326</ele>
        <time>2020-01-05T08:04:45.000Z</time>
      </trkpt>
      <trkpt lat="47.26404" lon="-2.31597">
        <ele>3.7999999523163</ele>
        <time>2020-01-05T08:04:46.000Z</time>
      </trkpt>
      <trkpt lat="47.26405" lon="-2.31603">
        <ele>5</ele>
        <time>2020-01-05T08:04:47.000Z</time>
      </trkpt>
      <trkpt lat="47.26405" lon="-2.31609">
        <ele>6.4000000953674</ele>
        <time>2020-01-05T08:04:48.000Z</time>
      </trkpt>
      <trkpt lat="47.26404" lon="-2.31628">
        <ele>6.4000000953674</ele>
        <time>2020-01-05T08:04:51.000Z</time>
      </trkpt>
      <trkpt lat="47.26405" lon="-2.31635">
        <ele>6.4000000953674</ele>
        <time>2020-01-05T08:04:52.000Z</time>
      </trkpt>
      <trkpt lat="47.26407" lon="-2.31658">
        <ele>6.4000000953674</ele>
        <time>2020-01-05T08:04:56.000Z</time>
      </trkpt>
      <trkpt lat="47.26405" lon="-2.3166">
        <ele>6.4000000953674</ele>
        <time>2020-01-05T08:04:57.000Z</time>
      </trkpt>
      <trkpt lat="47.26404" lon="-2.31663">
        <ele>6.4000000953674</ele>
        <time>2020-01-05T08:04:58.000Z</time>
      </trkpt>
      <trkpt lat="47.26396" lon="-2.31669">
        <ele>6.4000000953674</ele>
        <time>2020-01-05T08:05:01.000Z</time>
      </trkpt>
      <trkpt lat="47.26393" lon="-2.31671">
        <ele>6.4000000953674</ele>
        <time>2020-01-05T08:05:02.000Z</time>
      </trkpt>
      <trkpt lat="47.26377" lon="-2.31681">
        <ele>6.4000000953674</ele>
        <time>2020-01-05T08:05:06.000Z</time>
      </trkpt>
      <trkpt lat="47.26372" lon="-2.31684">
        <ele>5</ele>
        <time>2020-01-05T08:05:07.000Z</time>
      </trkpt>
      <trkpt lat="47.26366" lon="-2.31687">
        <ele>3.5999999046326</ele>
        <time>2020-01-05T08:05:08.000Z</time>
      </trkpt>
      <trkpt lat="47.26361" lon="-2.31689">
        <ele>2</ele>
        <time>2020-01-05T08:05:09.000Z</time>
      </trkpt>
      <trkpt lat="47.26356" lon="-2.31691">
        <ele>0.60000002384186</ele>
        <time>2020-01-05T08:05:10.000Z</time>
      </trkpt>
      <trkpt lat="47.26351" lon="-2.31694">
        <ele>-0.80000001192093</ele>
        <time>2020-01-05T08:05:11.000Z</time>
      </trkpt>
      <trkpt lat="47.26345" lon="-2.31695">
        <ele>-0.80000001192093</ele>
        <time>2020-01-05T08:05:12.000Z</time>
      </trkpt>
      <trkpt lat="47.2632" lon="-2.31708">
        <ele>-0.80000001192093</ele>
        <time>2020-01-05T08:05:17.000Z</time>
      </trkpt>
      <trkpt lat="47.26315" lon="-2.31709">
        <ele>-0.80000001192093</ele>
        <time>2020-01-05T08:05:18.000Z</time>
      </trkpt>
      <trkpt lat="47.26311" lon="-2.31708">
        <ele>-1.2000000476837</ele>
        <time>2020-01-05T08:05:19.000Z</time>
      </trkpt>
      <trkpt lat="47.26306" lon="-2.31706">
        <ele>-1.6000000238419</ele>
        <time>2020-01-05T08:05:20.000Z</time>
      </trkpt>
      <trkpt lat="47.26303" lon="-2.31705">
        <ele>-2</ele>
        <time>2020-01-05T08:05:21.000Z</time>
      </trkpt>
      <trkpt lat="47.263" lon="-2.31702">
        <ele>-2.5999999046326</ele>
        <time>2020-01-05T08:05:22.000Z</time>
      </trkpt>
      <trkpt lat="47.26297" lon="-2.31697">
        <ele>-3</ele>
        <time>2020-01-05T08:05:23.000Z</time>
      </trkpt>
      <trkpt lat="47.26294" lon="-2.31692">
        <ele>-3</ele>
        <time>2020-01-05T08:05:24.000Z</time>
      </trkpt>
      <trkpt lat="47.2629" lon="-2.31687">
        <ele>-3</ele>
        <time>2020-01-05T08:05:25.000Z</time>
      </trkpt>
      <trkpt lat="47.26287" lon="-2.31682">
        <ele>-3</ele>
        <time>2020-01-05T08:05:26.000Z</time>
      </trkpt>
      <trkpt lat="47.26275" lon="-2.31662">
        <ele>-3</ele>
        <time>2020-01-05T08:05:30.000Z</time>
      </trkpt>
      <trkpt lat="47.26263" lon="-2.31637">
        <ele>-3</ele>
        <time>2020-01-05T08:05:35.000Z</time>
      </trkpt>
      <trkpt lat="47.2626" lon="-2.31632">
        <ele>-3</ele>
        <time>2020-01-05T08:05:36.000Z</time>
      </trkpt>
      <trkpt lat="47.26252" lon="-2.31622">
        <ele>-3</ele>
        <time>2020-01-05T08:05:38.000Z</time>
      </trkpt>
      <trkpt lat="47.26225" lon="-2.31597">
        <ele>-3</ele>
        <time>2020-01-05T08:05:43.000Z</time>
      </trkpt>
      <trkpt lat="47.26216" lon="-2.31592">
        <ele>-3</ele>
        <time>2020-01-05T08:05:46.000Z</time>
      </trkpt>
      <trkpt lat="47.26205" lon="-2.31593">
        <ele>-3</ele>
        <time>2020-01-05T08:05:48.000Z</time>
      </trkpt>
      <trkpt lat="47.26173" lon="-2.31602">
        <ele>-3</ele>
        <time>2020-01-05T08:05:54.000Z</time>
      </trkpt>
      <trkpt lat="47.26148" lon="-2.3161">
        <ele>-3</ele>
        <time>2020-01-05T08:05:59.000Z</time>
      </trkpt>
      <trkpt lat="47.26138" lon="-2.31612">
        <ele>-3</ele>
        <time>2020-01-05T08:06:01.000Z</time>
      </trkpt>
      <trkpt lat="47.2612" lon="-2.31615">
        <ele>-3</ele>
        <time>2020-01-05T08:06:05.000Z</time>
      </trkpt>
      <trkpt lat="47.26113" lon="-2.31622">
        <ele>-3</ele>
        <time>2020-01-05T08:06:07.000Z</time>
      </trkpt>
      <trkpt lat="47.26111" lon="-2.31637">
        <ele>-3</ele>
        <time>2020-01-05T08:06:10.000Z</time>
      </trkpt>
      <trkpt lat="47.26114" lon="-2.31648">
        <ele>-3</ele>
        <time>2020-01-05T08:06:12.000Z</time>
      </trkpt>
      <trkpt lat="47.26118" lon="-2.3166">
        <ele>-3</ele>
        <time>2020-01-05T08:06:14.000Z</time>
      </trkpt>
      <trkpt lat="47.2612" lon="-2.31667">
        <ele>-3</ele>
        <time>2020-01-05T08:06:15.000Z</time>
      </trkpt>
      <trkpt lat="47.26123" lon="-2.31696">
        <ele>-3</ele>
        <time>2020-01-05T08:06:19.000Z</time>
      </trkpt>
      <trkpt lat="47.26126" lon="-2.31717">
        <ele>-3</ele>
        <time>2020-01-05T08:06:22.000Z</time>
      </trkpt>
      <trkpt lat="47.26129" lon="-2.31739">
        <ele>-3</ele>
        <time>2020-01-05T08:06:25.000Z</time>
      </trkpt>
      <trkpt lat="47.26137" lon="-2.31798">
        <ele>-3</ele>
        <time>2020-01-05T08:06:33.000Z</time>
      </trkpt>
      <trkpt lat="47.26143" lon="-2.31851">
        <ele>-3</ele>
        <time>2020-01-05T08:06:40.000Z</time>
      </trkpt>
      <trkpt lat="47.26144" lon="-2.31858">
        <ele>-3</ele>
        <time>2020-01-05T08:06:41.000Z</time>
      </trkpt>
      <trkpt lat="47.26149" lon="-2.3188">
        <ele>-3</ele>
        <time>2020-01-05T08:06:44.000Z</time>
      </trkpt>
      <trkpt lat="47.2615" lon="-2.31887">
        <ele>-3</ele>
        <time>2020-01-05T08:06:45.000Z</time>
      </trkpt>
      <trkpt lat="47.26157" lon="-2.31948">
        <ele>-3</ele>
        <time>2020-01-05T08:06:53.000Z</time>
      </trkpt>
      <trkpt lat="47.26159" lon="-2.3197">
        <ele>-3</ele>
        <time>2020-01-05T08:06:56.000Z</time>
      </trkpt>
      <trkpt lat="47.26161" lon="-2.31984">
        <ele>-3</ele>
        <time>2020-01-05T08:06:58.000Z</time>
      </trkpt>
      <trkpt lat="47.26162" lon="-2.32006">
        <ele>-3</ele>
        <time>2020-01-05T08:07:01.000Z</time>
      </trkpt>
      <trkpt lat="47.2616" lon="-2.32027">
        <ele>-3</ele>
        <time>2020-01-05T08:07:04.000Z</time>
      </trkpt>
      <trkpt lat="47.26152" lon="-2.3207">
        <ele>-3</ele>
        <time>2020-01-05T08:07:10.000Z</time>
      </trkpt>
      <trkpt lat="47.26144" lon="-2.32097">
        <ele>-3</ele>
        <time>2020-01-05T08:07:14.000Z</time>
      </trkpt>
      <trkpt lat="47.26142" lon="-2.32104">
        <ele>-3</ele>
        <time>2020-01-05T08:07:15.000Z</time>
      </trkpt>
      <trkpt lat="47.2613" lon="-2.32146">
        <ele>-3</ele>
        <time>2020-01-05T08:07:21.000Z</time>
      </trkpt>
      <trkpt lat="47.26124" lon="-2.32159">
        <ele>-3</ele>
        <time>2020-01-05T08:07:23.000Z</time>
      </trkpt>
      <trkpt lat="47.2612" lon="-2.32166">
        <ele>-3</ele>
        <time>2020-01-05T08:07:24.000Z</time>
      </trkpt>
      <trkpt lat="47.26106" lon="-2.32198">
        <ele>-3</ele>
        <time>2020-01-05T08:07:29.000Z</time>
      </trkpt>
      <trkpt lat="47.26085" lon="-2.32231">
        <ele>-3</ele>
        <time>2020-01-05T08:07:35.000Z</time>
      </trkpt>
      <trkpt lat="47.26058" lon="-2.32261">
        <ele>-3</ele>
        <time>2020-01-05T08:07:41.000Z</time>
      </trkpt>
      <trkpt lat="47.26038" lon="-2.32281">
        <ele>-3</ele>
        <time>2020-01-05T08:07:45.000Z</time>
      </trkpt>
      <trkpt lat="47.26025" lon="-2.32295">
        <ele>-3</ele>
        <time>2020-01-05T08:07:48.000Z</time>
      </trkpt>
      <trkpt lat="47.25996" lon="-2.32332">
        <ele>-3</ele>
        <time>2020-01-05T08:07:55.000Z</time>
      </trkpt>
      <trkpt lat="47.25992" lon="-2.32337">
        <ele>-3</ele>
        <time>2020-01-05T08:07:56.000Z</time>
      </trkpt>
      <trkpt lat="47.2597" lon="-2.32362">
        <ele>-3</ele>
        <time>2020-01-05T08:08:01.000Z</time>
      </trkpt>
      <trkpt lat="47.25942" lon="-2.324">
        <ele>-3</ele>
        <time>2020-01-05T08:08:08.000Z</time>
      </trkpt>
      <trkpt lat="47.2591" lon="-2.32442">
        <ele>-3</ele>
        <time>2020-01-05T08:08:16.000Z</time>
      </trkpt>
      <trkpt lat="47.25892" lon="-2.32461">
        <ele>-3</ele>
        <time>2020-01-05T08:08:21.000Z</time>
      </trkpt>
      <trkpt lat="47.25876" lon="-2.32472">
        <ele>-3</ele>
        <time>2020-01-05T08:08:26.000Z</time>
      </trkpt>
      <trkpt lat="47.25856" lon="-2.32474">
        <ele>-3</ele>
        <time>2020-01-05T08:08:30.000Z</time>
      </trkpt>
      <trkpt lat="47.25851" lon="-2.32474">
        <ele>-3</ele>
        <time>2020-01-05T08:08:31.000Z</time>
      </trkpt>
      <trkpt lat="47.2584" lon="-2.32472">
        <ele>-3</ele>
        <time>2020-01-05T08:08:33.000Z</time>
      </trkpt>
      <trkpt lat="47.25825" lon="-2.32466">
        <ele>-3</ele>
        <time>2020-01-05T08:08:36.000Z</time>
      </trkpt>
      <trkpt lat="47.25797" lon="-2.32456">
        <ele>-3</ele>
        <time>2020-01-05T08:08:42.000Z</time>
      </trkpt>
      <trkpt lat="47.25784" lon="-2.32455">
        <ele>-3</ele>
        <time>2020-01-05T08:08:45.000Z</time>
      </trkpt>
      <trkpt lat="47.25776" lon="-2.32449">
        <ele>-3</ele>
        <time>2020-01-05T08:08:47.000Z</time>
      </trkpt>
      <trkpt lat="47.25767" lon="-2.32433">
        <ele>-3</ele>
        <time>2020-01-05T08:08:50.000Z</time>
      </trkpt>
      <trkpt lat="47.25764" lon="-2.32428">
        <ele>-3</ele>
        <time>2020-01-05T08:08:51.000Z</time>
      </trkpt>
      <trkpt lat="47.2575" lon="-2.32424">
        <ele>-3</ele>
        <time>2020-01-05T08:08:54.000Z</time>
      </trkpt>
      <trkpt lat="47.25712" lon="-2.32421">
        <ele>-3</ele>
        <time>2020-01-05T08:09:01.000Z</time>
      </trkpt>
      <trkpt lat="47.25675" lon="-2.3242">
        <ele>-3</ele>
        <time>2020-01-05T08:09:08.000Z</time>
      </trkpt>
      <trkpt lat="47.25665" lon="-2.32422">
        <ele>-3</ele>
        <time>2020-01-05T08:09:10.000Z</time>
      </trkpt>
      <trkpt lat="47.2566" lon="-2.32433">
        <ele>-3</ele>
        <time>2020-01-05T08:09:12.000Z</time>
      </trkpt>
      <trkpt lat="47.25662" lon="-2.32454">
        <ele>-3</ele>
        <time>2020-01-05T08:09:15.000Z</time>
      </trkpt>
      <trkpt lat="47.25667" lon="-2.32466">
        <ele>-2.5999999046326</ele>
        <time>2020-01-05T08:09:17.000Z</time>
      </trkpt>
      <trkpt lat="47.25669" lon="-2.32472">
        <ele>-2.2000000476837</ele>
        <time>2020-01-05T08:09:18.000Z</time>
      </trkpt>
      <trkpt lat="47.25672" lon="-2.32478">
        <ele>-1.7999999523163</ele>
        <time>2020-01-05T08:09:19.000Z</time>
      </trkpt>
      <trkpt lat="47.25674" lon="-2.32484">
        <ele>-1.3999999761581</ele>
        <time>2020-01-05T08:09:20.000Z</time>
      </trkpt>
      <trkpt lat="47.25676" lon="-2.3249">
        <ele>-0.80000001192093</ele>
        <time>2020-01-05T08:09:21.000Z</time>
      </trkpt>
      <trkpt lat="47.25689" lon="-2.32526">
        <ele>-0.80000001192093</ele>
        <time>2020-01-05T08:09:27.000Z</time>
      </trkpt>
      <trkpt lat="47.2569" lon="-2.32531">
        <ele>-0.80000001192093</ele>
        <time>2020-01-05T08:09:28.000Z</time>
      </trkpt>
      <trkpt lat="47.25692" lon="-2.32537">
        <ele>-0.80000001192093</ele>
        <time>2020-01-05T08:09:29.000Z</time>
      </trkpt>
      <trkpt lat="47.25695" lon="-2.32543">
        <ele>-0.40000000596046</ele>
        <time>2020-01-05T08:09:30.000Z</time>
      </trkpt>
      <trkpt lat="47.25697" lon="-2.32549">
        <ele>8.7</ele>
        <time>2020-01-05T08:09:31.000Z</time>
      </trkpt>
      <trkpt lat="47.25698" lon="-2.32554">
        <ele>0.40000000596046</ele>
        <time>2020-01-05T08:09:32.000Z</time>
      </trkpt>
      <trkpt lat="47.257" lon="-2.3256">
        <ele>0.80000001192093</ele>
        <time>2020-01-05T08:09:33.000Z</time>
      </trkpt>
      <trkpt lat="47.25702" lon="-2.32566">
        <ele>1.2000000476837</ele>
        <time>2020-01-05T08:09:34.000Z</time>
      </trkpt>
      <trkpt lat="47.25703" lon="-2.32572">
        <ele>1.2000000476837</ele>
        <time>2020-01-05T08:09:35.000Z</time>
      </trkpt>
      <trkpt lat="47.2571" lon="-2.32609">
        <ele>1.2000000476837</ele>
        <time>2020-01-05T08:09:41.000Z</time>
      </trkpt>
      <trkpt lat="47.25708" lon="-2.32615">
        <ele>1.2000000476837</ele>
        <time>2020-01-05T08:09:42.000Z</time>
      </trkpt>
      <trkpt lat="47.25698" lon="-2.32624">
        <ele>1.2000000476837</ele>
        <time>2020-01-05T08:09:45.000Z</time>
      </trkpt>
      <trkpt lat="47.25688" lon="-2.32628">
        <ele>1.2000000476837</ele>
        <time>2020-01-05T08:09:47.000Z</time>
      </trkpt>
      <trkpt lat="47.25684" lon="-2.32631">
        <ele>1.6000000238419</ele>
        <time>2020-01-05T08:09:48.000Z</time>
      </trkpt>
      <trkpt lat="47.25679" lon="-2.32633">
        <ele>2.2000000476837</ele>
        <time>2020-01-05T08:09:49.000Z</time>
      </trkpt>
      <trkpt lat="47.25675" lon="-2.32635">
        <ele>2.5999999046326</ele>
        <time>2020-01-05T08:09:50.000Z</time>
      </trkpt>
      <trkpt lat="47.25671" lon="-2.32637">
        <ele>3</ele>
        <time>2020-01-05T08:09:51.000Z</time>
      </trkpt>
      <trkpt lat="47.25667" lon="-2.32639">
        <ele>3.4000000953674</ele>
        <time>2020-01-05T08:09:52.000Z</time>
      </trkpt>
      <trkpt lat="47.25631" lon="-2.32653">
        <ele>3.4000000953674</ele>
        <time>2020-01-05T08:10:00.000Z</time>
      </trkpt>
      <trkpt lat="47.25618" lon="-2.32658">
        <ele>3.7999999523163</ele>
        <time>2020-01-05T08:10:03.000Z</time>
      </trkpt>
      <trkpt lat="47.25613" lon="-2.3266">
        <ele>4.1999998092651</ele>
        <time>2020-01-05T08:10:04.000Z</time>
      </trkpt>
      <trkpt lat="47.25609" lon="-2.32662">
        <ele>4.5999999046326</ele>
        <time>2020-01-05T08:10:05.000Z</time>
      </trkpt>
      <trkpt lat="47.25605" lon="-2.32664">
        <ele>5</ele>
        <time>2020-01-05T08:10:06.000Z</time>
      </trkpt>
      <trkpt lat="47.25601" lon="-2.32666">
        <ele>5.5999999046326</ele>
        <time>2020-01-05T08:10:07.000Z</time>
      </trkpt>
      <trkpt lat="47.25563" lon="-2.32682">
        <ele>5.5999999046326</ele>
        <time>2020-01-05T08:10:15.000Z</time>
      </trkpt>
      <trkpt lat="47.2552" lon="-2.32699">
        <ele>5.5999999046326</ele>
        <time>2020-01-05T08:10:24.000Z</time>
      </trkpt>
      <trkpt lat="47.25495" lon="-2.327">
        <ele>5.5999999046326</ele>
        <time>2020-01-05T08:10:29.000Z</time>
      </trkpt>
      <trkpt lat="47.25491" lon="-2.32702">
        <ele>5.5999999046326</ele>
        <time>2020-01-05T08:10:30.000Z</time>
      </trkpt>
      <trkpt lat="47.25472" lon="-2.32713">
        <ele>5.5999999046326</ele>
        <time>2020-01-05T08:10:34.000Z</time>
      </trkpt>
      <trkpt lat="47.25465" lon="-2.32721">
        <ele>5.5999999046326</ele>
        <time>2020-01-05T08:10:36.000Z</time>
      </trkpt>
      <trkpt lat="47.25446" lon="-2.32745">
        <ele>5.5999999046326</ele>
        <time>2020-01-05T08:10:41.000Z</time>
      </trkpt>
      <trkpt lat="47.25433" lon="-2.32767">
        <ele>5.5999999046326</ele>
        <time>2020-01-05T08:10:45.000Z</time>
      </trkpt>
      <trkpt lat="47.2543" lon="-2.32779">
        <ele>5.5999999046326</ele>
        <time>2020-01-05T08:10:47.000Z</time>
      </trkpt>
      <trkpt lat="47.25427" lon="-2.32785">
        <ele>5.5999999046326</ele>
        <time>2020-01-05T08:10:48.000Z</time>
      </trkpt>
      <trkpt lat="47.25416" lon="-2.32801">
        <ele>5.5999999046326</ele>
        <time>2020-01-05T08:10:51.000Z</time>
      </trkpt>
      <trkpt lat="47.25389" lon="-2.32836">
        <ele>5.5999999046326</ele>
        <time>2020-01-05T08:10:57.000Z</time>
      </trkpt>
      <trkpt lat="47.25356" lon="-2.32872">
        <ele>5.5999999046326</ele>
        <time>2020-01-05T08:11:04.000Z</time>
      </trkpt>
      <trkpt lat="47.25318" lon="-2.32906">
        <ele>5.5999999046326</ele>
        <time>2020-01-05T08:11:12.000Z</time>
      </trkpt>
      <trkpt lat="47.25314" lon="-2.32911">
        <ele>5.5999999046326</ele>
        <time>2020-01-05T08:11:13.000Z</time>
      </trkpt>
      <trkpt lat="47.2531" lon="-2.32917">
        <ele>5</ele>
        <time>2020-01-05T08:11:14.000Z</time>
      </trkpt>
      <trkpt lat="47.25307" lon="-2.32923">
        <ele>4.5999999046326</ele>
        <time>2020-01-05T08:11:15.000Z</time>
      </trkpt>
      <trkpt lat="47.25305" lon="-2.32931">
        <ele>4.1999998092651</ele>
        <time>2020-01-05T08:11:16.000Z</time>
      </trkpt>
      <trkpt lat="47.25303" lon="-2.32939">
        <ele>3.7999999523163</ele>
        <time>2020-01-05T08:11:17.000Z</time>
      </trkpt>
      <trkpt lat="47.25304" lon="-2.32948">
        <ele>3.4000000953674</ele>
        <time>2020-01-05T08:11:18.000Z</time>
      </trkpt>
      <trkpt lat="47.25306" lon="-2.32955">
        <ele>3.4000000953674</ele>
        <time>2020-01-05T08:11:19.000Z</time>
      </trkpt>
      <trkpt lat="47.25317" lon="-2.32975">
        <ele>3.4000000953674</ele>
        <time>2020-01-05T08:11:22.000Z</time>
      </trkpt>
      <trkpt lat="47.2532" lon="-2.32981">
        <ele>3.4000000953674</ele>
        <time>2020-01-05T08:11:23.000Z</time>
      </trkpt>
      <trkpt lat="47.25323" lon="-2.32987">
        <ele>3.4000000953674</ele>
        <time>2020-01-05T08:11:24.000Z</time>
      </trkpt>
      <trkpt lat="47.25341" lon="-2.33027">
        <ele>3.4000000953674</ele>
        <time>2020-01-05T08:11:31.000Z</time>
      </trkpt>
      <trkpt lat="47.2535" lon="-2.3305">
        <ele>3.4000000953674</ele>
        <time>2020-01-05T08:11:36.000Z</time>
      </trkpt>
      <trkpt lat="47.2535" lon="-2.33056">
        <ele>3.4000000953674</ele>
        <time>2020-01-05T08:11:40.000Z</time>
      </trkpt>
      <trkpt lat="47.25346" lon="-2.33045">
        <ele>3.4000000953674</ele>
        <time>2020-01-05T08:11:44.000Z</time>
      </trkpt>
      <trkpt lat="47.25342" lon="-2.33035">
        <ele>3.4000000953674</ele>
        <time>2020-01-05T08:11:47.000Z</time>
      </trkpt>
      <trkpt lat="47.2534" lon="-2.33029">
        <ele>3.4000000953674</ele>
        <time>2020-01-05T08:11:49.000Z</time>
      </trkpt>
      <trkpt lat="47.25333" lon="-2.33009">
        <ele>3.4000000953674</ele>
        <time>2020-01-05T08:11:55.000Z</time>
      </trkpt>
      <trkpt lat="47.25326" lon="-2.32994">
        <ele>3.4000000953674</ele>
        <time>2020-01-05T08:12:01.000Z</time>
      </trkpt>
      <trkpt lat="47.25321" lon="-2.3298">
        <ele>3.4000000953674</ele>
        <time>2020-01-05T08:12:06.000Z</time>
      </trkpt>
      <trkpt lat="47.25321" lon="-2.32979">
        <ele>3.4000000953674</ele>
        <time>2020-01-05T08:12:08.000Z</time>
      </trkpt>
      <trkpt lat="47.2532" lon="-2.32978">
        <ele>3.4000000953674</ele>
        <time>2020-01-05T08:12:48.000Z</time>
      </trkpt>
      <trkpt lat="47.25319" lon="-2.32975">
        <ele>3.4000000953674</ele>
        <time>2020-01-05T08:12:49.000Z</time>
      </trkpt>
      <trkpt lat="47.25313" lon="-2.32957">
        <ele>3.4000000953674</ele>
        <time>2020-01-05T08:12:53.000Z</time>
      </trkpt>
      <trkpt lat="47.25308" lon="-2.32938">
        <ele>3.4000000953674</ele>
        <time>2020-01-05T08:12:56.000Z</time>
      </trkpt>
      <trkpt lat="47.25308" lon="-2.32924">
        <ele>3.4000000953674</ele>
        <time>2020-01-05T08:12:58.000Z</time>
      </trkpt>
      <trkpt lat="47.25319" lon="-2.3291">
        <ele>3.4000000953674</ele>
        <time>2020-01-05T08:13:01.000Z</time>
      </trkpt>
      <trkpt lat="47.25322" lon="-2.32906">
        <ele>3.4000000953674</ele>
        <time>2020-01-05T08:13:02.000Z</time>
      </trkpt>
      <trkpt lat="47.25335" lon="-2.32891">
        <ele>3.4000000953674</ele>
        <time>2020-01-05T08:13:06.000Z</time>
      </trkpt>
      <trkpt lat="47.25337" lon="-2.32882">
        <ele>3.4000000953674</ele>
        <time>2020-01-05T08:13:08.000Z</time>
      </trkpt>
      <trkpt lat="47.25336" lon="-2.32877">
        <ele>3.4000000953674</ele>
        <time>2020-01-05T08:13:09.000Z</time>
      </trkpt>
      <trkpt lat="47.25325" lon="-2.32855">
        <ele>3.4000000953674</ele>
        <time>2020-01-05T08:13:13.000Z</time>
      </trkpt>
      <trkpt lat="47.25307" lon="-2.32816">
        <ele>3.4000000953674</ele>
        <time>2020-01-05T08:13:19.000Z</time>
      </trkpt>
      <trkpt lat="47.25282" lon="-2.32763">
        <ele>3.4000000953674</ele>
        <time>2020-01-05T08:13:28.000Z</time>
      </trkpt>
      <trkpt lat="47.25269" lon="-2.32743">
        <ele>3.7999999523163</ele>
        <time>2020-01-05T08:13:32.000Z</time>
      </trkpt>
      <trkpt lat="47.25266" lon="-2.32739">
        <ele>4.1999998092651</ele>
        <time>2020-01-05T08:13:33.000Z</time>
      </trkpt>
      <trkpt lat="47.25262" lon="-2.32735">
        <ele>4.5999999046326</ele>
        <time>2020-01-05T08:13:34.000Z</time>
      </trkpt>
      <trkpt lat="47.25259" lon="-2.32732">
        <ele>5</ele>
        <time>2020-01-05T08:13:35.000Z</time>
      </trkpt>
      <trkpt lat="47.25255" lon="-2.32728">
        <ele>5.4000000953674</ele>
        <time>2020-01-05T08:13:36.000Z</time>
      </trkpt>
      <trkpt lat="47.25237" lon="-2.32706">
        <ele>5.4000000953674</ele>
        <time>2020-01-05T08:13:42.000Z</time>
      </trkpt>
      <trkpt lat="47.25226" lon="-2.32695">
        <ele>5.4000000953674</ele>
        <time>2020-01-05T08:13:47.000Z</time>
      </trkpt>
      <trkpt lat="47.2522" lon="-2.32698">
        <ele>5.4000000953674</ele>
        <time>2020-01-05T08:13:51.000Z</time>
      </trkpt>
      <trkpt lat="47.25215" lon="-2.32703">
        <ele>5.4000000953674</ele>
        <time>2020-01-05T08:13:56.000Z</time>
      </trkpt>
      <trkpt lat="47.25214" lon="-2.32716">
        <ele>5.4000000953674</ele>
        <time>2020-01-05T08:13:59.000Z</time>
      </trkpt>
      <trkpt lat="47.25214" lon="-2.32721">
        <ele>5.4000000953674</ele>
        <time>2020-01-05T08:14:00.000Z</time>
      </trkpt>
      <trkpt lat="47.25208" lon="-2.32732">
        <ele>5.4000000953674</ele>
        <time>2020-01-05T08:14:03.000Z</time>
      </trkpt>
      <trkpt lat="47.25205" lon="-2.32733">
        <ele>5.4000000953674</ele>
        <time>2020-01-05T08:14:04.000Z</time>
      </trkpt>
      <trkpt lat="47.25198" lon="-2.32727">
        <ele>5.4000000953674</ele>
        <time>2020-01-05T08:14:07.000Z</time>
      </trkpt>
      <trkpt lat="47.25196" lon="-2.32725">
        <ele>5.4000000953674</ele>
        <time>2020-01-05T08:14:08.000Z</time>
      </trkpt>
      <trkpt lat="47.25186" lon="-2.32711">
        <ele>5.4000000953674</ele>
        <time>2020-01-05T08:14:12.000Z</time>
      </trkpt>
      <trkpt lat="47.25177" lon="-2.32707">
        <ele>5.4000000953674</ele>
        <time>2020-01-05T08:14:15.000Z</time>
      </trkpt>
      <trkpt lat="47.25174" lon="-2.32708">
        <ele>5.4000000953674</ele>
        <time>2020-01-05T08:14:16.000Z</time>
      </trkpt>
      <trkpt lat="47.25171" lon="-2.3271">
        <ele>5.4000000953674</ele>
        <time>2020-01-05T08:14:17.000Z</time>
      </trkpt>
      <trkpt lat="47.25165" lon="-2.32717">
        <ele>5.4000000953674</ele>
        <time>2020-01-05T08:14:19.000Z</time>
      </trkpt>
      <trkpt lat="47.2515" lon="-2.32731">
        <ele>5.4000000953674</ele>
        <time>2020-01-05T08:14:23.000Z</time>
      </trkpt>
      <trkpt lat="47.25146" lon="-2.32734">
        <ele>5.4000000953674</ele>
        <time>2020-01-05T08:14:24.000Z</time>
      </trkpt>
      <trkpt lat="47.25131" lon="-2.32741">
        <ele>5.4000000953674</ele>
        <time>2020-01-05T08:14:27.000Z</time>
      </trkpt>
      <trkpt lat="47.25122" lon="-2.32745">
        <ele>5.4000000953674</ele>
        <time>2020-01-05T08:14:29.000Z</time>
      </trkpt>
      <trkpt lat="47.25118" lon="-2.32745">
        <ele>5.4000000953674</ele>
        <time>2020-01-05T08:14:30.000Z</time>
      </trkpt>
      <trkpt lat="47.25111" lon="-2.32739">
        <ele>5.4000000953674</ele>
        <time>2020-01-05T08:14:32.000Z</time>
      </trkpt>
      <trkpt lat="47.25101" lon="-2.32718">
        <ele>5.4000000953674</ele>
        <time>2020-01-05T08:14:36.000Z</time>
      </trkpt>
      <trkpt lat="47.25092" lon="-2.32696">
        <ele>5.4000000953674</ele>
        <time>2020-01-05T08:14:41.000Z</time>
      </trkpt>
      <trkpt lat="47.25089" lon="-2.32691">
        <ele>5.4000000953674</ele>
        <time>2020-01-05T08:14:42.000Z</time>
      </trkpt>
      <trkpt lat="47.25078" lon="-2.32667">
        <ele>5.4000000953674</ele>
        <time>2020-01-05T08:14:47.000Z</time>
      </trkpt>
      <trkpt lat="47.25061" lon="-2.32635">
        <ele>5.4000000953674</ele>
        <time>2020-01-05T08:14:54.000Z</time>
      </trkpt>
      <trkpt lat="47.25047" lon="-2.32604">
        <ele>5.4000000953674</ele>
        <time>2020-01-05T08:15:00.000Z</time>
      </trkpt>
      <trkpt lat="47.25045" lon="-2.32599">
        <ele>5.4000000953674</ele>
        <time>2020-01-05T08:15:01.000Z</time>
      </trkpt>
      <trkpt lat="47.25029" lon="-2.32557">
        <ele>5.4000000953674</ele>
        <time>2020-01-05T08:15:08.000Z</time>
      </trkpt>
      <trkpt lat="47.25028" lon="-2.3255">
        <ele>5.4000000953674</ele>
        <time>2020-01-05T08:15:09.000Z</time>
      </trkpt>
      <trkpt lat="47.25028" lon="-2.32542">
        <ele>6</ele>
        <time>2020-01-05T08:15:10.000Z</time>
      </trkpt>
      <trkpt lat="47.25029" lon="-2.32536">
        <ele>6.4000000953674</ele>
        <time>2020-01-05T08:15:11.000Z</time>
      </trkpt>
      <trkpt lat="47.2503" lon="-2.32529">
        <ele>6.8000001907349</ele>
        <time>2020-01-05T08:15:12.000Z</time>
      </trkpt>
      <trkpt lat="47.25032" lon="-2.32523">
        <ele>7.1999998092651</ele>
        <time>2020-01-05T08:15:13.000Z</time>
      </trkpt>
      <trkpt lat="47.25035" lon="-2.32519">
        <ele>7.8000001907349</ele>
        <time>2020-01-05T08:15:14.000Z</time>
      </trkpt>
      <trkpt lat="47.25038" lon="-2.32515">
        <ele>7.8000001907349</ele>
        <time>2020-01-05T08:15:15.000Z</time>
      </trkpt>
      <trkpt lat="47.25046" lon="-2.32509">
        <ele>7.8000001907349</ele>
        <time>2020-01-05T08:15:17.000Z</time>
      </trkpt>
      <trkpt lat="47.25055" lon="-2.32503">
        <ele>8.1999998092651</ele>
        <time>2020-01-05T08:15:19.000Z</time>
      </trkpt>
      <trkpt lat="47.25059" lon="-2.325">
        <ele>8.6000003814697</ele>
        <time>2020-01-05T08:15:20.000Z</time>
      </trkpt>
      <trkpt lat="47.25063" lon="-2.32496">
        <ele>9</ele>
        <time>2020-01-05T08:15:21.000Z</time>
      </trkpt>
      <trkpt lat="47.25067" lon="-2.32494">
        <ele>9.3999996185303</ele>
        <time>2020-01-05T08:15:22.000Z</time>
      </trkpt>
      <trkpt lat="47.25071" lon="-2.32491">
        <ele>9.8000001907349</ele>
        <time>2020-01-05T08:15:23.000Z</time>
      </trkpt>
      <trkpt lat="47.25085" lon="-2.32484">
        <ele>9.8000001907349</ele>
        <time>2020-01-05T08:15:26.000Z</time>
      </trkpt>
      <trkpt lat="47.2509" lon="-2.3248">
        <ele>9.8000001907349</ele>
        <time>2020-01-05T08:15:27.000Z</time>
      </trkpt>
      <trkpt lat="47.25101" lon="-2.32462">
        <ele>9.8000001907349</ele>
        <time>2020-01-05T08:15:30.000Z</time>
      </trkpt>
      <trkpt lat="47.25105" lon="-2.32432">
        <ele>9.8000001907349</ele>
        <time>2020-01-05T08:15:34.000Z</time>
      </trkpt>
      <trkpt lat="47.25104" lon="-2.32417">
        <ele>9.8000001907349</ele>
        <time>2020-01-05T08:15:36.000Z</time>
      </trkpt>
      <trkpt lat="47.25104" lon="-2.3241">
        <ele>10.199999809265</ele>
        <time>2020-01-05T08:15:37.000Z</time>
      </trkpt>
      <trkpt lat="47.25103" lon="-2.32403">
        <ele>10.60000038147</ele>
        <time>2020-01-05T08:15:38.000Z</time>
      </trkpt>
      <trkpt lat="47.25103" lon="-2.32395">
        <ele>11.199999809265</ele>
        <time>2020-01-05T08:15:39.000Z</time>
      </trkpt>
      <trkpt lat="47.25103" lon="-2.32388">
        <ele>11.60000038147</ele>
        <time>2020-01-05T08:15:40.000Z</time>
      </trkpt>
      <trkpt lat="47.25103" lon="-2.32381">
        <ele>12</ele>
        <time>2020-01-05T08:15:41.000Z</time>
      </trkpt>
      <trkpt lat="47.25103" lon="-2.32374">
        <ele>12</ele>
        <time>2020-01-05T08:15:42.000Z</time>
      </trkpt>
      <trkpt lat="47.25106" lon="-2.32355">
        <ele>12</ele>
        <time>2020-01-05T08:15:45.000Z</time>
      </trkpt>
      <trkpt lat="47.25108" lon="-2.3235">
        <ele>12</ele>
        <time>2020-01-05T08:15:46.000Z</time>
      </trkpt>
      <trkpt lat="47.25111" lon="-2.32339">
        <ele>12.39999961853</ele>
        <time>2020-01-05T08:15:48.000Z</time>
      </trkpt>
      <trkpt lat="47.25112" lon="-2.32334">
        <ele>12.800000190735</ele>
        <time>2020-01-05T08:15:49.000Z</time>
      </trkpt>
      <trkpt lat="47.25114" lon="-2.32329">
        <ele>13.199999809265</ele>
        <time>2020-01-05T08:15:50.000Z</time>
      </trkpt>
      <trkpt lat="47.25115" lon="-2.32324">
        <ele>13.60000038147</ele>
        <time>2020-01-05T08:15:51.000Z</time>
      </trkpt>
      <trkpt lat="47.25117" lon="-2.32319">
        <ele>14</ele>
        <time>2020-01-05T08:15:52.000Z</time>
      </trkpt>
      <trkpt lat="47.25119" lon="-2.32314">
        <ele>14</ele>
        <time>2020-01-05T08:15:53.000Z</time>
      </trkpt>
      <trkpt lat="47.25129" lon="-2.32293">
        <ele>14</ele>
        <time>2020-01-05T08:15:58.000Z</time>
      </trkpt>
      <trkpt lat="47.2513" lon="-2.32276">
        <ele>14.39999961853</ele>
        <time>2020-01-05T08:16:01.000Z</time>
      </trkpt>
      <trkpt lat="47.25129" lon="-2.3227">
        <ele>15</ele>
        <time>2020-01-05T08:16:02.000Z</time>
      </trkpt>
      <trkpt lat="47.25129" lon="-2.32264">
        <ele>15.39999961853</ele>
        <time>2020-01-05T08:16:03.000Z</time>
      </trkpt>
      <trkpt lat="47.25128" lon="-2.32257">
        <ele>15.800000190735</ele>
        <time>2020-01-05T08:16:04.000Z</time>
      </trkpt>
      <trkpt lat="47.25128" lon="-2.32251">
        <ele>16.200000762939</ele>
        <time>2020-01-05T08:16:05.000Z</time>
      </trkpt>
      <trkpt lat="47.25125" lon="-2.32215">
        <ele>16.200000762939</ele>
        <time>2020-01-05T08:16:10.000Z</time>
      </trkpt>
      <trkpt lat="47.25122" lon="-2.32176">
        <ele>16.200000762939</ele>
        <time>2020-01-05T08:16:16.000Z</time>
      </trkpt>
      <trkpt lat="47.2512" lon="-2.32139">
        <ele>16.200000762939</ele>
        <time>2020-01-05T08:16:23.000Z</time>
      </trkpt>
      <trkpt lat="47.25118" lon="-2.32107">
        <ele>16.200000762939</ele>
        <time>2020-01-05T08:16:29.000Z</time>
      </trkpt>
      <trkpt lat="47.25115" lon="-2.32071">
        <ele>16.200000762939</ele>
        <time>2020-01-05T08:16:36.000Z</time>
      </trkpt>
      <trkpt lat="47.25113" lon="-2.32035">
        <ele>16.200000762939</ele>
        <time>2020-01-05T08:16:42.000Z</time>
      </trkpt>
      <trkpt lat="47.25112" lon="-2.32023">
        <ele>16.200000762939</ele>
        <time>2020-01-05T08:16:44.000Z</time>
      </trkpt>
      <trkpt lat="47.25111" lon="-2.32008">
        <ele>16.200000762939</ele>
        <time>2020-01-05T08:16:46.000Z</time>
      </trkpt>
      <trkpt lat="47.25109" lon="-2.31993">
        <ele>16.200000762939</ele>
        <time>2020-01-05T08:16:48.000Z</time>
      </trkpt>
      <trkpt lat="47.25105" lon="-2.31977">
        <ele>16.200000762939</ele>
        <time>2020-01-05T08:16:50.000Z</time>
      </trkpt>
      <trkpt lat="47.25104" lon="-2.31954">
        <ele>16.200000762939</ele>
        <time>2020-01-05T08:16:53.000Z</time>
      </trkpt>
      <trkpt lat="47.25103" lon="-2.31946">
        <ele>16.200000762939</ele>
        <time>2020-01-05T08:16:54.000Z</time>
      </trkpt>
      <trkpt lat="47.25098" lon="-2.31903">
        <ele>16.60000038147</ele>
        <time>2020-01-05T08:17:00.000Z</time>
      </trkpt>
      <trkpt lat="47.25098" lon="-2.31896">
        <ele>17</ele>
        <time>2020-01-05T08:17:01.000Z</time>
      </trkpt>
      <trkpt lat="47.25096" lon="-2.31889">
        <ele>17.39999961853</ele>
        <time>2020-01-05T08:17:02.000Z</time>
      </trkpt>
      <trkpt lat="47.25096" lon="-2.31882">
        <ele>17.799999237061</ele>
        <time>2020-01-05T08:17:03.000Z</time>
      </trkpt>
      <trkpt lat="47.25095" lon="-2.31875">
        <ele>18.200000762939</ele>
        <time>2020-01-05T08:17:04.000Z</time>
      </trkpt>
      <trkpt lat="47.25088" lon="-2.31832">
        <ele>18.200000762939</ele>
        <time>2020-01-05T08:17:10.000Z</time>
      </trkpt>
      <trkpt lat="47.25083" lon="-2.31811">
        <ele>18.200000762939</ele>
        <time>2020-01-05T08:17:13.000Z</time>
      </trkpt>
      <trkpt lat="47.25078" lon="-2.31783">
        <ele>18.200000762939</ele>
        <time>2020-01-05T08:17:17.000Z</time>
      </trkpt>
      <trkpt lat="47.25075" lon="-2.31769">
        <ele>18.200000762939</ele>
        <time>2020-01-05T08:17:19.000Z</time>
      </trkpt>
      <trkpt lat="47.25068" lon="-2.31743">
        <ele>18.200000762939</ele>
        <time>2020-01-05T08:17:23.000Z</time>
      </trkpt>
      <trkpt lat="47.25056" lon="-2.31693">
        <ele>18.200000762939</ele>
        <time>2020-01-05T08:17:31.000Z</time>
      </trkpt>
      <trkpt lat="47.25051" lon="-2.31671">
        <ele>18.200000762939</ele>
        <time>2020-01-05T08:17:35.000Z</time>
      </trkpt>
      <trkpt lat="47.25049" lon="-2.3164">
        <ele>18.200000762939</ele>
        <time>2020-01-05T08:17:41.000Z</time>
      </trkpt>
      <trkpt lat="47.2506" lon="-2.31629">
        <ele>18.200000762939</ele>
        <time>2020-01-05T08:17:44.000Z</time>
      </trkpt>
      <trkpt lat="47.25064" lon="-2.31627">
        <ele>18.200000762939</ele>
        <time>2020-01-05T08:17:45.000Z</time>
      </trkpt>
      <trkpt lat="47.25071" lon="-2.3162">
        <ele>18.200000762939</ele>
        <time>2020-01-05T08:17:47.000Z</time>
      </trkpt>
      <trkpt lat="47.25077" lon="-2.31613">
        <ele>18.200000762939</ele>
        <time>2020-01-05T08:17:49.000Z</time>
      </trkpt>
      <trkpt lat="47.25093" lon="-2.31594">
        <ele>18.200000762939</ele>
        <time>2020-01-05T08:17:55.000Z</time>
      </trkpt>
      <trkpt lat="47.25104" lon="-2.31582">
        <ele>18.60000038147</ele>
        <time>2020-01-05T08:17:59.000Z</time>
      </trkpt>
      <trkpt lat="47.25107" lon="-2.31579">
        <ele>19</ele>
        <time>2020-01-05T08:18:00.000Z</time>
      </trkpt>
      <trkpt lat="47.25111" lon="-2.31576">
        <ele>19.39999961853</ele>
        <time>2020-01-05T08:18:01.000Z</time>
      </trkpt>
      <trkpt lat="47.25115" lon="-2.31572">
        <ele>19.799999237061</ele>
        <time>2020-01-05T08:18:02.000Z</time>
      </trkpt>
      <trkpt lat="47.25119" lon="-2.31569">
        <ele>20.200000762939</ele>
        <time>2020-01-05T08:18:03.000Z</time>
      </trkpt>
      <trkpt lat="47.25131" lon="-2.3156">
        <ele>20.200000762939</ele>
        <time>2020-01-05T08:18:06.000Z</time>
      </trkpt>
      <trkpt lat="47.25159" lon="-2.3153">
        <ele>20.200000762939</ele>
        <time>2020-01-05T08:18:13.000Z</time>
      </trkpt>
      <trkpt lat="47.25185" lon="-2.31497">
        <ele>20.200000762939</ele>
        <time>2020-01-05T08:18:21.000Z</time>
      </trkpt>
      <trkpt lat="47.2519" lon="-2.31487">
        <ele>20.200000762939</ele>
        <time>2020-01-05T08:18:23.000Z</time>
      </trkpt>
      <trkpt lat="47.25192" lon="-2.31469">
        <ele>20.200000762939</ele>
        <time>2020-01-05T08:18:26.000Z</time>
      </trkpt>
      <trkpt lat="47.25184" lon="-2.31451">
        <ele>20.200000762939</ele>
        <time>2020-01-05T08:18:29.000Z</time>
      </trkpt>
      <trkpt lat="47.25181" lon="-2.31445">
        <ele>20.200000762939</ele>
        <time>2020-01-05T08:18:30.000Z</time>
      </trkpt>
      <trkpt lat="47.25165" lon="-2.3141">
        <ele>20.200000762939</ele>
        <time>2020-01-05T08:18:36.000Z</time>
      </trkpt>
      <trkpt lat="47.2515" lon="-2.31368">
        <ele>20.200000762939</ele>
        <time>2020-01-05T08:18:43.000Z</time>
      </trkpt>
      <trkpt lat="47.25144" lon="-2.31335">
        <ele>20.200000762939</ele>
        <time>2020-01-05T08:18:49.000Z</time>
      </trkpt>
      <trkpt lat="47.25143" lon="-2.3133">
        <ele>20.200000762939</ele>
        <time>2020-01-05T08:18:51.000Z</time>
      </trkpt>
      <trkpt lat="47.25143" lon="-2.31331">
        <ele>19.799999237061</ele>
        <time>2020-01-05T08:18:52.000Z</time>
      </trkpt>
      <trkpt lat="47.25144" lon="-2.31329">
        <ele>18.200000762939</ele>
        <time>2020-01-05T08:21:38.000Z</time>
      </trkpt>
      <trkpt lat="47.25143" lon="-2.31315">
        <ele>18.200000762939</ele>
        <time>2020-01-05T08:21:42.000Z</time>
      </trkpt>
      <trkpt lat="47.25143" lon="-2.31305">
        <ele>18.200000762939</ele>
        <time>2020-01-05T08:21:44.000Z</time>
      </trkpt>
      <trkpt lat="47.25142" lon="-2.31282">
        <ele>18.200000762939</ele>
        <time>2020-01-05T08:21:48.000Z</time>
      </trkpt>
      <trkpt lat="47.2514" lon="-2.31237">
        <ele>18.200000762939</ele>
        <time>2020-01-05T08:21:55.000Z</time>
      </trkpt>
      <trkpt lat="47.25131" lon="-2.3119">
        <ele>18.200000762939</ele>
        <time>2020-01-05T08:22:02.000Z</time>
      </trkpt>
      <trkpt lat="47.25126" lon="-2.31179">
        <ele>18.200000762939</ele>
        <time>2020-01-05T08:22:04.000Z</time>
      </trkpt>
      <trkpt lat="47.25117" lon="-2.31174">
        <ele>18.200000762939</ele>
        <time>2020-01-05T08:22:06.000Z</time>
      </trkpt>
      <trkpt lat="47.25103" lon="-2.31182">
        <ele>18.200000762939</ele>
        <time>2020-01-05T08:22:09.000Z</time>
      </trkpt>
      <trkpt lat="47.25098" lon="-2.31185">
        <ele>18.200000762939</ele>
        <time>2020-01-05T08:22:10.000Z</time>
      </trkpt>
      <trkpt lat="47.25071" lon="-2.31206">
        <ele>18.200000762939</ele>
        <time>2020-01-05T08:22:16.000Z</time>
      </trkpt>
      <trkpt lat="47.25062" lon="-2.31211">
        <ele>18.60000038147</ele>
        <time>2020-01-05T08:22:18.000Z</time>
      </trkpt>
      <trkpt lat="47.25057" lon="-2.31214">
        <ele>19</ele>
        <time>2020-01-05T08:22:19.000Z</time>
      </trkpt>
      <trkpt lat="47.25053" lon="-2.31215">
        <ele>19.39999961853</ele>
        <time>2020-01-05T08:22:20.000Z</time>
      </trkpt>
      <trkpt lat="47.25048" lon="-2.31217">
        <ele>19.799999237061</ele>
        <time>2020-01-05T08:22:21.000Z</time>
      </trkpt>
      <trkpt lat="47.25044" lon="-2.31218">
        <ele>20.200000762939</ele>
        <time>2020-01-05T08:22:22.000Z</time>
      </trkpt>
      <trkpt lat="47.25033" lon="-2.31221">
        <ele>20.200000762939</ele>
        <time>2020-01-05T08:22:26.000Z</time>
      </trkpt>
      <trkpt lat="47.25021" lon="-2.31232">
        <ele>20.200000762939</ele>
        <time>2020-01-05T08:22:30.000Z</time>
      </trkpt>
      <trkpt lat="47.25019" lon="-2.31238">
        <ele>20.200000762939</ele>
        <time>2020-01-05T08:22:31.000Z</time>
      </trkpt>
      <trkpt lat="47.25008" lon="-2.31267">
        <ele>20.200000762939</ele>
        <time>2020-01-05T08:22:36.000Z</time>
      </trkpt>
      <trkpt lat="47.2499" lon="-2.31276">
        <ele>20.200000762939</ele>
        <time>2020-01-05T08:22:40.000Z</time>
      </trkpt>
      <trkpt lat="47.24985" lon="-2.31278">
        <ele>20.200000762939</ele>
        <time>2020-01-05T08:22:41.000Z</time>
      </trkpt>
      <trkpt lat="47.24961" lon="-2.31286">
        <ele>20.200000762939</ele>
        <time>2020-01-05T08:22:46.000Z</time>
      </trkpt>
      <trkpt lat="47.24927" lon="-2.31298">
        <ele>20.200000762939</ele>
        <time>2020-01-05T08:22:53.000Z</time>
      </trkpt>
      <trkpt lat="47.24911" lon="-2.31302">
        <ele>20.200000762939</ele>
        <time>2020-01-05T08:22:56.000Z</time>
      </trkpt>
      <trkpt lat="47.24895" lon="-2.31308">
        <ele>20.200000762939</ele>
        <time>2020-01-05T08:22:59.000Z</time>
      </trkpt>
      <trkpt lat="47.24858" lon="-2.31321">
        <ele>20.200000762939</ele>
        <time>2020-01-05T08:23:06.000Z</time>
      </trkpt>
      <trkpt lat="47.2483" lon="-2.31331">
        <ele>20.200000762939</ele>
        <time>2020-01-05T08:23:11.000Z</time>
      </trkpt>
      <trkpt lat="47.24825" lon="-2.31333">
        <ele>20.200000762939</ele>
        <time>2020-01-05T08:23:12.000Z</time>
      </trkpt>
      <trkpt lat="47.24803" lon="-2.31347">
        <ele>20.200000762939</ele>
        <time>2020-01-05T08:23:16.000Z</time>
      </trkpt>
      <trkpt lat="47.24789" lon="-2.31361">
        <ele>20.200000762939</ele>
        <time>2020-01-05T08:23:19.000Z</time>
      </trkpt>
      <trkpt lat="47.24775" lon="-2.31374">
        <ele>20.200000762939</ele>
        <time>2020-01-05T08:23:22.000Z</time>
      </trkpt>
      <trkpt lat="47.24762" lon="-2.31382">
        <ele>20.200000762939</ele>
        <time>2020-01-05T08:23:25.000Z</time>
      </trkpt>
      <trkpt lat="47.24757" lon="-2.3138">
        <ele>20.200000762939</ele>
        <time>2020-01-05T08:23:26.000Z</time>
      </trkpt>
      <trkpt lat="47.24748" lon="-2.31363">
        <ele>20.200000762939</ele>
        <time>2020-01-05T08:23:29.000Z</time>
      </trkpt>
      <trkpt lat="47.24743" lon="-2.3135">
        <ele>20.200000762939</ele>
        <time>2020-01-05T08:23:31.000Z</time>
      </trkpt>
      <trkpt lat="47.24734" lon="-2.31335">
        <ele>20.200000762939</ele>
        <time>2020-01-05T08:23:34.000Z</time>
      </trkpt>
      <trkpt lat="47.24726" lon="-2.31321">
        <ele>20.200000762939</ele>
        <time>2020-01-05T08:23:37.000Z</time>
      </trkpt>
      <trkpt lat="47.24718" lon="-2.31316">
        <ele>20.200000762939</ele>
        <time>2020-01-05T08:23:39.000Z</time>
      </trkpt>
      <trkpt lat="47.24703" lon="-2.31321">
        <ele>20.200000762939</ele>
        <time>2020-01-05T08:23:42.000Z</time>
      </trkpt>
      <trkpt lat="47.24669" lon="-2.31338">
        <ele>20.200000762939</ele>
        <time>2020-01-05T08:23:48.000Z</time>
      </trkpt>
      <trkpt lat="47.24647" lon="-2.31351">
        <ele>20.200000762939</ele>
        <time>2020-01-05T08:23:52.000Z</time>
      </trkpt>
      <trkpt lat="47.24636" lon="-2.31356">
        <ele>20.200000762939</ele>
        <time>2020-01-05T08:23:54.000Z</time>
      </trkpt>
      <trkpt lat="47.2463" lon="-2.31358">
        <ele>19.799999237061</ele>
        <time>2020-01-05T08:23:55.000Z</time>
      </trkpt>
      <trkpt lat="47.24625" lon="-2.31361">
        <ele>19.39999961853</ele>
        <time>2020-01-05T08:23:56.000Z</time>
      </trkpt>
      <trkpt lat="47.2462" lon="-2.31363">
        <ele>18.60000038147</ele>
        <time>2020-01-05T08:23:57.000Z</time>
      </trkpt>
      <trkpt lat="47.24615" lon="-2.31366">
        <ele>18.200000762939</ele>
        <time>2020-01-05T08:23:58.000Z</time>
      </trkpt>
      <trkpt lat="47.24594" lon="-2.31377">
        <ele>18.200000762939</ele>
        <time>2020-01-05T08:24:02.000Z</time>
      </trkpt>
      <trkpt lat="47.24575" lon="-2.31387">
        <ele>18.200000762939</ele>
        <time>2020-01-05T08:24:07.000Z</time>
      </trkpt>
      <trkpt lat="47.24556" lon="-2.31392">
        <ele>18.200000762939</ele>
        <time>2020-01-05T08:24:13.000Z</time>
      </trkpt>
      <trkpt lat="47.24542" lon="-2.31391">
        <ele>18.200000762939</ele>
        <time>2020-01-05T08:24:17.000Z</time>
      </trkpt>
      <trkpt lat="47.24532" lon="-2.31388">
        <ele>18.200000762939</ele>
        <time>2020-01-05T08:24:19.000Z</time>
      </trkpt>
      <trkpt lat="47.24524" lon="-2.3138">
        <ele>18.200000762939</ele>
        <time>2020-01-05T08:24:21.000Z</time>
      </trkpt>
      <trkpt lat="47.24521" lon="-2.31376">
        <ele>17.799999237061</ele>
        <time>2020-01-05T08:24:22.000Z</time>
      </trkpt>
      <trkpt lat="47.24517" lon="-2.31371">
        <ele>17.39999961853</ele>
        <time>2020-01-05T08:24:23.000Z</time>
      </trkpt>
      <trkpt lat="47.24513" lon="-2.31366">
        <ele>17</ele>
        <time>2020-01-05T08:24:24.000Z</time>
      </trkpt>
      <trkpt lat="47.24508" lon="-2.31361">
        <ele>16.60000038147</ele>
        <time>2020-01-05T08:24:25.000Z</time>
      </trkpt>
      <trkpt lat="47.24504" lon="-2.31355">
        <ele>16.200000762939</ele>
        <time>2020-01-05T08:24:26.000Z</time>
      </trkpt>
      <trkpt lat="47.24498" lon="-2.31344">
        <ele>15.60000038147</ele>
        <time>2020-01-05T08:24:28.000Z</time>
      </trkpt>
      <trkpt lat="47.24496" lon="-2.31339">
        <ele>15.199999809265</ele>
        <time>2020-01-05T08:24:29.000Z</time>
      </trkpt>
      <trkpt lat="47.24494" lon="-2.31334">
        <ele>14.800000190735</ele>
        <time>2020-01-05T08:24:30.000Z</time>
      </trkpt>
      <trkpt lat="47.24492" lon="-2.31328">
        <ele>14.39999961853</ele>
        <time>2020-01-05T08:24:31.000Z</time>
      </trkpt>
      <trkpt lat="47.24488" lon="-2.31324">
        <ele>14</ele>
        <time>2020-01-05T08:24:32.000Z</time>
      </trkpt>
      <trkpt lat="47.2448" lon="-2.3131">
        <ele>13.60000038147</ele>
        <time>2020-01-05T08:24:35.000Z</time>
      </trkpt>
      <trkpt lat="47.24478" lon="-2.31304">
        <ele>13.199999809265</ele>
        <time>2020-01-05T08:24:36.000Z</time>
      </trkpt>
      <trkpt lat="47.24474" lon="-2.31294">
        <ele>12.800000190735</ele>
        <time>2020-01-05T08:24:37.000Z</time>
      </trkpt>
      <trkpt lat="47.2447" lon="-2.31284">
        <ele>12.39999961853</ele>
        <time>2020-01-05T08:24:38.000Z</time>
      </trkpt>
      <trkpt lat="47.24466" lon="-2.31274">
        <ele>11.800000190735</ele>
        <time>2020-01-05T08:24:39.000Z</time>
      </trkpt>
      <trkpt lat="47.24459" lon="-2.31258">
        <ele>11.800000190735</ele>
        <time>2020-01-05T08:24:41.000Z</time>
      </trkpt>
      <trkpt lat="47.24453" lon="-2.31244">
        <ele>11.800000190735</ele>
        <time>2020-01-05T08:24:43.000Z</time>
      </trkpt>
      <trkpt lat="47.24446" lon="-2.31226">
        <ele>11.800000190735</ele>
        <time>2020-01-05T08:24:46.000Z</time>
      </trkpt>
      <trkpt lat="47.24443" lon="-2.31222">
        <ele>11</ele>
        <time>2020-01-05T08:24:47.000Z</time>
      </trkpt>
      <trkpt lat="47.24442" lon="-2.3122">
        <ele>10.60000038147</ele>
        <time>2020-01-05T08:24:48.000Z</time>
      </trkpt>
      <trkpt lat="47.24439" lon="-2.3122">
        <ele>10.199999809265</ele>
        <time>2020-01-05T08:24:49.000Z</time>
      </trkpt>
      <trkpt lat="47.24435" lon="-2.31222">
        <ele>9.6000003814697</ele>
        <time>2020-01-05T08:24:50.000Z</time>
      </trkpt>
      <trkpt lat="47.24431" lon="-2.31224">
        <ele>9.1999998092651</ele>
        <time>2020-01-05T08:24:51.000Z</time>
      </trkpt>
      <trkpt lat="47.24428" lon="-2.31224">
        <ele>8.6000003814697</ele>
        <time>2020-01-05T08:24:52.000Z</time>
      </trkpt>
      <trkpt lat="47.24425" lon="-2.31221">
        <ele>8</ele>
        <time>2020-01-05T08:24:53.000Z</time>
      </trkpt>
      <trkpt lat="47.24424" lon="-2.31217">
        <ele>7.5999999046326</ele>
        <time>2020-01-05T08:24:54.000Z</time>
      </trkpt>
      <trkpt lat="47.24414" lon="-2.312">
        <ele>7.5999999046326</ele>
        <time>2020-01-05T08:25:00.000Z</time>
      </trkpt>
      <trkpt lat="47.24411" lon="-2.3119">
        <ele>7.5999999046326</ele>
        <time>2020-01-05T08:25:04.000Z</time>
      </trkpt>
      <trkpt lat="47.2441" lon="-2.31187">
        <ele>7.5999999046326</ele>
        <time>2020-01-05T08:25:05.000Z</time>
      </trkpt>
      <trkpt lat="47.24407" lon="-2.31182">
        <ele>8</ele>
        <time>2020-01-05T08:25:07.000Z</time>
      </trkpt>
      <trkpt lat="47.24404" lon="-2.3118">
        <ele>8.3999996185303</ele>
        <time>2020-01-05T08:25:08.000Z</time>
      </trkpt>
      <trkpt lat="47.24401" lon="-2.31177">
        <ele>8.8000001907349</ele>
        <time>2020-01-05T08:25:09.000Z</time>
      </trkpt>
      <trkpt lat="47.24397" lon="-2.31173">
        <ele>9.1999998092651</ele>
        <time>2020-01-05T08:25:10.000Z</time>
      </trkpt>
      <trkpt lat="47.24393" lon="-2.3117">
        <ele>9.6000003814697</ele>
        <time>2020-01-05T08:25:11.000Z</time>
      </trkpt>
      <trkpt lat="47.24379" lon="-2.31151">
        <ele>9.6000003814697</ele>
        <time>2020-01-05T08:25:15.000Z</time>
      </trkpt>
      <trkpt lat="47.24358" lon="-2.31115">
        <ele>9.6000003814697</ele>
        <time>2020-01-05T08:25:22.000Z</time>
      </trkpt>
      <trkpt lat="47.24349" lon="-2.3109">
        <ele>9.6000003814697</ele>
        <time>2020-01-05T08:25:27.000Z</time>
      </trkpt>
      <trkpt lat="47.24336" lon="-2.31052">
        <ele>9.6000003814697</ele>
        <time>2020-01-05T08:25:34.000Z</time>
      </trkpt>
      <trkpt lat="47.24333" lon="-2.31047">
        <ele>9.6000003814697</ele>
        <time>2020-01-05T08:25:35.000Z</time>
      </trkpt>
      <trkpt lat="47.24323" lon="-2.31037">
        <ele>9.6000003814697</ele>
        <time>2020-01-05T08:25:38.000Z</time>
      </trkpt>
      <trkpt lat="47.24318" lon="-2.31035">
        <ele>9.6000003814697</ele>
        <time>2020-01-05T08:25:39.000Z</time>
      </trkpt>
      <trkpt lat="47.24308" lon="-2.31033">
        <ele>9.6000003814697</ele>
        <time>2020-01-05T08:25:41.000Z</time>
      </trkpt>
      <trkpt lat="47.24297" lon="-2.31032">
        <ele>9.6000003814697</ele>
        <time>2020-01-05T08:25:43.000Z</time>
      </trkpt>
      <trkpt lat="47.24291" lon="-2.31033">
        <ele>9.6000003814697</ele>
        <time>2020-01-05T08:25:44.000Z</time>
      </trkpt>
      <trkpt lat="47.2428" lon="-2.31029">
        <ele>9.6000003814697</ele>
        <time>2020-01-05T08:25:47.000Z</time>
      </trkpt>
      <trkpt lat="47.2428" lon="-2.31023">
        <ele>9.1999998092651</ele>
        <time>2020-01-05T08:25:48.000Z</time>
      </trkpt>
      <trkpt lat="47.2428" lon="-2.31017">
        <ele>8.6000003814697</ele>
        <time>2020-01-05T08:25:49.000Z</time>
      </trkpt>
      <trkpt lat="47.24281" lon="-2.31012">
        <ele>8.1999998092651</ele>
        <time>2020-01-05T08:25:50.000Z</time>
      </trkpt>
      <trkpt lat="47.24281" lon="-2.31007">
        <ele>7.8000001907349</ele>
        <time>2020-01-05T08:25:51.000Z</time>
      </trkpt>
      <trkpt lat="47.24282" lon="-2.31001">
        <ele>7.4000000953674</ele>
        <time>2020-01-05T08:25:52.000Z</time>
      </trkpt>
      <trkpt lat="47.24287" lon="-2.30976">
        <ele>7.4000000953674</ele>
        <time>2020-01-05T08:25:56.000Z</time>
      </trkpt>
      <trkpt lat="47.24288" lon="-2.3097">
        <ele>7.8000001907349</ele>
        <time>2020-01-05T08:25:57.000Z</time>
      </trkpt>
      <trkpt lat="47.24288" lon="-2.30964">
        <ele>8.1999998092651</ele>
        <time>2020-01-05T08:25:58.000Z</time>
      </trkpt>
      <trkpt lat="47.24289" lon="-2.30958">
        <ele>8.6000003814697</ele>
        <time>2020-01-05T08:25:59.000Z</time>
      </trkpt>
      <trkpt lat="47.24289" lon="-2.30952">
        <ele>9</ele>
        <time>2020-01-05T08:26:00.000Z</time>
      </trkpt>
      <trkpt lat="47.2429" lon="-2.30946">
        <ele>9.3999996185303</ele>
        <time>2020-01-05T08:26:01.000Z</time>
      </trkpt>
      <trkpt lat="47.2429" lon="-2.30941">
        <ele>9.8000001907349</ele>
        <time>2020-01-05T08:26:02.000Z</time>
      </trkpt>
      <trkpt lat="47.24291" lon="-2.30936">
        <ele>10.39999961853</ele>
        <time>2020-01-05T08:26:03.000Z</time>
      </trkpt>
      <trkpt lat="47.24291" lon="-2.30931">
        <ele>10.800000190735</ele>
        <time>2020-01-05T08:26:04.000Z</time>
      </trkpt>
      <trkpt lat="47.24291" lon="-2.30925">
        <ele>11.199999809265</ele>
        <time>2020-01-05T08:26:05.000Z</time>
      </trkpt>
      <trkpt lat="47.24289" lon="-2.30921">
        <ele>11.60000038147</ele>
        <time>2020-01-05T08:26:06.000Z</time>
      </trkpt>
      <trkpt lat="47.24288" lon="-2.30916">
        <ele>11.60000038147</ele>
        <time>2020-01-05T08:26:07.000Z</time>
      </trkpt>
      <trkpt lat="47.24285" lon="-2.30895">
        <ele>12</ele>
        <time>2020-01-05T08:26:11.000Z</time>
      </trkpt>
      <trkpt lat="47.24285" lon="-2.30889">
        <ele>12.39999961853</ele>
        <time>2020-01-05T08:26:12.000Z</time>
      </trkpt>
      <trkpt lat="47.24285" lon="-2.30883">
        <ele>12.800000190735</ele>
        <time>2020-01-05T08:26:13.000Z</time>
      </trkpt>
      <trkpt lat="47.24285" lon="-2.30876">
        <ele>13.199999809265</ele>
        <time>2020-01-05T08:26:14.000Z</time>
      </trkpt>
      <trkpt lat="47.24284" lon="-2.3087">
        <ele>13.60000038147</ele>
        <time>2020-01-05T08:26:15.000Z</time>
      </trkpt>
      <trkpt lat="47.24285" lon="-2.30864">
        <ele>13.60000038147</ele>
        <time>2020-01-05T08:26:16.000Z</time>
      </trkpt>
      <trkpt lat="47.24286" lon="-2.30857">
        <ele>13.60000038147</ele>
        <time>2020-01-05T08:26:17.000Z</time>
      </trkpt>
      <trkpt lat="47.24288" lon="-2.30845">
        <ele>13.60000038147</ele>
        <time>2020-01-05T08:26:19.000Z</time>
      </trkpt>
      <trkpt lat="47.2429" lon="-2.30836">
        <ele>13.60000038147</ele>
        <time>2020-01-05T08:26:21.000Z</time>
      </trkpt>
      <trkpt lat="47.24296" lon="-2.30817">
        <ele>14</ele>
        <time>2020-01-05T08:26:25.000Z</time>
      </trkpt>
      <trkpt lat="47.24299" lon="-2.30813">
        <ele>14.800000190735</ele>
        <time>2020-01-05T08:26:26.000Z</time>
      </trkpt>
      <trkpt lat="47.24301" lon="-2.3081">
        <ele>15.199999809265</ele>
        <time>2020-01-05T08:26:27.000Z</time>
      </trkpt>
      <trkpt lat="47.24305" lon="-2.30807">
        <ele>15.60000038147</ele>
        <time>2020-01-05T08:26:28.000Z</time>
      </trkpt>
      <trkpt lat="47.24318" lon="-2.30797">
        <ele>15.60000038147</ele>
        <time>2020-01-05T08:26:32.000Z</time>
      </trkpt>
      <trkpt lat="47.24339" lon="-2.30792">
        <ele>15.60000038147</ele>
        <time>2020-01-05T08:26:37.000Z</time>
      </trkpt>
      <trkpt lat="47.24343" lon="-2.30789">
        <ele>15.60000038147</ele>
        <time>2020-01-05T08:26:38.000Z</time>
      </trkpt>
      <trkpt lat="47.24358" lon="-2.30783">
        <ele>15.60000038147</ele>
        <time>2020-01-05T08:26:42.000Z</time>
      </trkpt>
      <trkpt lat="47.24362" lon="-2.30781">
        <ele>16.200000762939</ele>
        <time>2020-01-05T08:26:43.000Z</time>
      </trkpt>
      <trkpt lat="47.24366" lon="-2.30778">
        <ele>16.60000038147</ele>
        <time>2020-01-05T08:26:44.000Z</time>
      </trkpt>
      <trkpt lat="47.24369" lon="-2.30775">
        <ele>17</ele>
        <time>2020-01-05T08:26:45.000Z</time>
      </trkpt>
      <trkpt lat="47.24372" lon="-2.30772">
        <ele>17.39999961853</ele>
        <time>2020-01-05T08:26:46.000Z</time>
      </trkpt>
      <trkpt lat="47.24374" lon="-2.30769">
        <ele>17.799999237061</ele>
        <time>2020-01-05T08:26:47.000Z</time>
      </trkpt>
      <trkpt lat="47.24381" lon="-2.3076">
        <ele>18.60000038147</ele>
        <time>2020-01-05T08:26:50.000Z</time>
      </trkpt>
      <trkpt lat="47.24382" lon="-2.30757">
        <ele>19</ele>
        <time>2020-01-05T08:26:51.000Z</time>
      </trkpt>
      <trkpt lat="47.24384" lon="-2.30754">
        <ele>19.39999961853</ele>
        <time>2020-01-05T08:26:52.000Z</time>
      </trkpt>
      <trkpt lat="47.24386" lon="-2.30752">
        <ele>19.799999237061</ele>
        <time>2020-01-05T08:26:53.000Z</time>
      </trkpt>
      <trkpt lat="47.24395" lon="-2.30741">
        <ele>19.799999237061</ele>
        <time>2020-01-05T08:26:57.000Z</time>
      </trkpt>
      <trkpt lat="47.24399" lon="-2.30726">
        <ele>20.200000762939</ele>
        <time>2020-01-05T08:27:00.000Z</time>
      </trkpt>
      <trkpt lat="47.24399" lon="-2.3072">
        <ele>20.60000038147</ele>
        <time>2020-01-05T08:27:01.000Z</time>
      </trkpt>
      <trkpt lat="47.244" lon="-2.30713">
        <ele>21</ele>
        <time>2020-01-05T08:27:02.000Z</time>
      </trkpt>
      <trkpt lat="47.244" lon="-2.30707">
        <ele>21.60000038147</ele>
        <time>2020-01-05T08:27:03.000Z</time>
      </trkpt>
      <trkpt lat="47.24402" lon="-2.307">
        <ele>22</ele>
        <time>2020-01-05T08:27:04.000Z</time>
      </trkpt>
      <trkpt lat="47.24409" lon="-2.30676">
        <ele>22</ele>
        <time>2020-01-05T08:27:08.000Z</time>
      </trkpt>
      <trkpt lat="47.24419" lon="-2.30641">
        <ele>22</ele>
        <time>2020-01-05T08:27:14.000Z</time>
      </trkpt>
      <trkpt lat="47.24429" lon="-2.30622">
        <ele>22</ele>
        <time>2020-01-05T08:27:18.000Z</time>
      </trkpt>
      <trkpt lat="47.24432" lon="-2.30617">
        <ele>22</ele>
        <time>2020-01-05T08:27:19.000Z</time>
      </trkpt>
      <trkpt lat="47.24449" lon="-2.30588">
        <ele>21.60000038147</ele>
        <time>2020-01-05T08:27:25.000Z</time>
      </trkpt>
      <trkpt lat="47.24452" lon="-2.30584">
        <ele>21.200000762939</ele>
        <time>2020-01-05T08:27:26.000Z</time>
      </trkpt>
      <trkpt lat="47.24456" lon="-2.30579">
        <ele>20.799999237061</ele>
        <time>2020-01-05T08:27:27.000Z</time>
      </trkpt>
      <trkpt lat="47.24459" lon="-2.30574">
        <ele>20.200000762939</ele>
        <time>2020-01-05T08:27:28.000Z</time>
      </trkpt>
      <trkpt lat="47.24462" lon="-2.30568">
        <ele>19.799999237061</ele>
        <time>2020-01-05T08:27:29.000Z</time>
      </trkpt>
      <trkpt lat="47.2447" lon="-2.3055">
        <ele>19.799999237061</ele>
        <time>2020-01-05T08:27:32.000Z</time>
      </trkpt>
      <trkpt lat="47.2447" lon="-2.30542">
        <ele>19.39999961853</ele>
        <time>2020-01-05T08:27:34.000Z</time>
      </trkpt>
      <trkpt lat="47.24469" lon="-2.3054">
        <ele>19</ele>
        <time>2020-01-05T08:27:35.000Z</time>
      </trkpt>
      <trkpt lat="47.24466" lon="-2.30539">
        <ele>18.60000038147</ele>
        <time>2020-01-05T08:27:36.000Z</time>
      </trkpt>
      <trkpt lat="47.24463" lon="-2.3054">
        <ele>18.200000762939</ele>
        <time>2020-01-05T08:27:37.000Z</time>
      </trkpt>
      <trkpt lat="47.24461" lon="-2.30542">
        <ele>17.60000038147</ele>
        <time>2020-01-05T08:27:38.000Z</time>
      </trkpt>
      <trkpt lat="47.24448" lon="-2.30557">
        <ele>17.60000038147</ele>
        <time>2020-01-05T08:27:42.000Z</time>
      </trkpt>
      <trkpt lat="47.24442" lon="-2.30562">
        <ele>17.200000762939</ele>
        <time>2020-01-05T08:27:43.000Z</time>
      </trkpt>
      <trkpt lat="47.24437" lon="-2.30565">
        <ele>16.799999237061</ele>
        <time>2020-01-05T08:27:44.000Z</time>
      </trkpt>
      <trkpt lat="47.24431" lon="-2.30567">
        <ele>16.39999961853</ele>
        <time>2020-01-05T08:27:45.000Z</time>
      </trkpt>
      <trkpt lat="47.24426" lon="-2.30569">
        <ele>16</ele>
        <time>2020-01-05T08:27:46.000Z</time>
      </trkpt>
      <trkpt lat="47.24421" lon="-2.30572">
        <ele>15.60000038147</ele>
        <time>2020-01-05T08:27:47.000Z</time>
      </trkpt>
      <trkpt lat="47.24411" lon="-2.30576">
        <ele>15.60000038147</ele>
        <time>2020-01-05T08:27:49.000Z</time>
      </trkpt>
      <trkpt lat="47.24405" lon="-2.30573">
        <ele>15.60000038147</ele>
        <time>2020-01-05T08:27:51.000Z</time>
      </trkpt>
      <trkpt lat="47.24398" lon="-2.30571">
        <ele>15.199999809265</ele>
        <time>2020-01-05T08:27:53.000Z</time>
      </trkpt>
      <trkpt lat="47.24395" lon="-2.3057">
        <ele>14.800000190735</ele>
        <time>2020-01-05T08:27:54.000Z</time>
      </trkpt>
      <trkpt lat="47.24391" lon="-2.30568">
        <ele>14.39999961853</ele>
        <time>2020-01-05T08:27:55.000Z</time>
      </trkpt>
      <trkpt lat="47.24387" lon="-2.30564">
        <ele>13.800000190735</ele>
        <time>2020-01-05T08:27:56.000Z</time>
      </trkpt>
      <trkpt lat="47.24384" lon="-2.3056">
        <ele>13.39999961853</ele>
        <time>2020-01-05T08:27:57.000Z</time>
      </trkpt>
      <trkpt lat="47.24375" lon="-2.30541">
        <ele>13.39999961853</ele>
        <time>2020-01-05T08:28:01.000Z</time>
      </trkpt>
      <trkpt lat="47.24372" lon="-2.30523">
        <ele>13.39999961853</ele>
        <time>2020-01-05T08:28:05.000Z</time>
      </trkpt>
      <trkpt lat="47.2437" lon="-2.30505">
        <ele>13.800000190735</ele>
        <time>2020-01-05T08:28:09.000Z</time>
      </trkpt>
      <trkpt lat="47.24371" lon="-2.30501">
        <ele>14.199999809265</ele>
        <time>2020-01-05T08:28:10.000Z</time>
      </trkpt>
      <trkpt lat="47.24372" lon="-2.30496">
        <ele>14.60000038147</ele>
        <time>2020-01-05T08:28:11.000Z</time>
      </trkpt>
      <trkpt lat="47.24373" lon="-2.30492">
        <ele>15</ele>
        <time>2020-01-05T08:28:12.000Z</time>
      </trkpt>
      <trkpt lat="47.24374" lon="-2.30489">
        <ele>15.39999961853</ele>
        <time>2020-01-05T08:28:13.000Z</time>
      </trkpt>
      <trkpt lat="47.24376" lon="-2.3048">
        <ele>15.39999961853</ele>
        <time>2020-01-05T08:28:15.000Z</time>
      </trkpt>
      <trkpt lat="47.2438" lon="-2.30466">
        <ele>15.800000190735</ele>
        <time>2020-01-05T08:28:18.000Z</time>
      </trkpt>
      <trkpt lat="47.2438" lon="-2.30462">
        <ele>16.39999961853</ele>
        <time>2020-01-05T08:28:19.000Z</time>
      </trkpt>
      <trkpt lat="47.24381" lon="-2.30458">
        <ele>16.799999237061</ele>
        <time>2020-01-05T08:28:20.000Z</time>
      </trkpt>
      <trkpt lat="47.24381" lon="-2.30454">
        <ele>17.200000762939</ele>
        <time>2020-01-05T08:28:21.000Z</time>
      </trkpt>
      <trkpt lat="47.2438" lon="-2.30453">
        <ele>17.60000038147</ele>
        <time>2020-01-05T08:28:22.000Z</time>
      </trkpt>
      <trkpt lat="47.2437" lon="-2.3045">
        <ele>17.60000038147</ele>
        <time>2020-01-05T08:28:26.000Z</time>
      </trkpt>
      <trkpt lat="47.24367" lon="-2.3045">
        <ele>17.60000038147</ele>
        <time>2020-01-05T08:28:27.000Z</time>
      </trkpt>
      <trkpt lat="47.2436" lon="-2.3045">
        <ele>17.60000038147</ele>
        <time>2020-01-05T08:28:31.000Z</time>
      </trkpt>
      <trkpt lat="47.24354" lon="-2.30447">
        <ele>18</ele>
        <time>2020-01-05T08:28:33.000Z</time>
      </trkpt>
      <trkpt lat="47.2435" lon="-2.30444">
        <ele>18.39999961853</ele>
        <time>2020-01-05T08:28:34.000Z</time>
      </trkpt>
      <trkpt lat="47.24347" lon="-2.30442">
        <ele>18.799999237061</ele>
        <time>2020-01-05T08:28:35.000Z</time>
      </trkpt>
      <trkpt lat="47.24344" lon="-2.3044">
        <ele>19.200000762939</ele>
        <time>2020-01-05T08:28:36.000Z</time>
      </trkpt>
      <trkpt lat="47.24341" lon="-2.30438">
        <ele>19.60000038147</ele>
        <time>2020-01-05T08:28:37.000Z</time>
      </trkpt>
      <trkpt lat="47.24327" lon="-2.30432">
        <ele>19.60000038147</ele>
        <time>2020-01-05T08:28:41.000Z</time>
      </trkpt>
      <trkpt lat="47.24317" lon="-2.30424">
        <ele>19.60000038147</ele>
        <time>2020-01-05T08:28:45.000Z</time>
      </trkpt>
      <trkpt lat="47.24294" lon="-2.3041">
        <ele>19.60000038147</ele>
        <time>2020-01-05T08:28:52.000Z</time>
      </trkpt>
      <trkpt lat="47.24274" lon="-2.3039">
        <ele>19.60000038147</ele>
        <time>2020-01-05T08:28:58.000Z</time>
      </trkpt>
      <trkpt lat="47.24267" lon="-2.30379">
        <ele>20</ele>
        <time>2020-01-05T08:29:00.000Z</time>
      </trkpt>
      <trkpt lat="47.24264" lon="-2.30374">
        <ele>20.39999961853</ele>
        <time>2020-01-05T08:29:01.000Z</time>
      </trkpt>
      <trkpt lat="47.24261" lon="-2.30369">
        <ele>20.799999237061</ele>
        <time>2020-01-05T08:29:02.000Z</time>
      </trkpt>
      <trkpt lat="47.24258" lon="-2.30365">
        <ele>21.200000762939</ele>
        <time>2020-01-05T08:29:03.000Z</time>
      </trkpt>
      <trkpt lat="47.24255" lon="-2.3036">
        <ele>21.60000038147</ele>
        <time>2020-01-05T08:29:04.000Z</time>
      </trkpt>
      <trkpt lat="47.24243" lon="-2.30333">
        <ele>21.60000038147</ele>
        <time>2020-01-05T08:29:10.000Z</time>
      </trkpt>
      <trkpt lat="47.24231" lon="-2.3032">
        <ele>21.60000038147</ele>
        <time>2020-01-05T08:29:14.000Z</time>
      </trkpt>
      <trkpt lat="47.24229" lon="-2.3032">
        <ele>21.60000038147</ele>
        <time>2020-01-05T08:29:15.000Z</time>
      </trkpt>
      <trkpt lat="47.24217" lon="-2.30328">
        <ele>21.200000762939</ele>
        <time>2020-01-05T08:29:18.000Z</time>
      </trkpt>
      <trkpt lat="47.24213" lon="-2.3033">
        <ele>20.799999237061</ele>
        <time>2020-01-05T08:29:19.000Z</time>
      </trkpt>
      <trkpt lat="47.24209" lon="-2.3033">
        <ele>20.200000762939</ele>
        <time>2020-01-05T08:29:20.000Z</time>
      </trkpt>
      <trkpt lat="47.24206" lon="-2.3033">
        <ele>19.799999237061</ele>
        <time>2020-01-05T08:29:21.000Z</time>
      </trkpt>
      <trkpt lat="47.24203" lon="-2.30325">
        <ele>19.39999961853</ele>
        <time>2020-01-05T08:29:22.000Z</time>
      </trkpt>
      <trkpt lat="47.24201" lon="-2.30322">
        <ele>18.799999237061</ele>
        <time>2020-01-05T08:29:23.000Z</time>
      </trkpt>
      <trkpt lat="47.242" lon="-2.30317">
        <ele>18.200000762939</ele>
        <time>2020-01-05T08:29:24.000Z</time>
      </trkpt>
      <trkpt lat="47.24198" lon="-2.30309">
        <ele>17.799999237061</ele>
        <time>2020-01-05T08:29:25.000Z</time>
      </trkpt>
      <trkpt lat="47.24197" lon="-2.30301">
        <ele>17.200000762939</ele>
        <time>2020-01-05T08:29:26.000Z</time>
      </trkpt>
      <trkpt lat="47.24195" lon="-2.30286">
        <ele>17.200000762939</ele>
        <time>2020-01-05T08:29:28.000Z</time>
      </trkpt>
      <trkpt lat="47.24192" lon="-2.30265">
        <ele>17.200000762939</ele>
        <time>2020-01-05T08:29:31.000Z</time>
      </trkpt>
      <trkpt lat="47.24189" lon="-2.30252">
        <ele>16.799999237061</ele>
        <time>2020-01-05T08:29:33.000Z</time>
      </trkpt>
      <trkpt lat="47.24187" lon="-2.30247">
        <ele>16.39999961853</ele>
        <time>2020-01-05T08:29:34.000Z</time>
      </trkpt>
      <trkpt lat="47.24186" lon="-2.30242">
        <ele>16</ele>
        <time>2020-01-05T08:29:35.000Z</time>
      </trkpt>
      <trkpt lat="47.24185" lon="-2.30239">
        <ele>15.60000038147</ele>
        <time>2020-01-05T08:29:36.000Z</time>
      </trkpt>
      <trkpt lat="47.24184" lon="-2.30238">
        <ele>15.199999809265</ele>
        <time>2020-01-05T08:29:37.000Z</time>
      </trkpt>
      <trkpt lat="47.2418" lon="-2.30241">
        <ele>15.199999809265</ele>
        <time>2020-01-05T08:29:39.000Z</time>
      </trkpt>
      <trkpt lat="47.24169" lon="-2.3024">
        <ele>15.199999809265</ele>
        <time>2020-01-05T08:29:43.000Z</time>
      </trkpt>
      <trkpt lat="47.24163" lon="-2.30227">
        <ele>15.199999809265</ele>
        <time>2020-01-05T08:29:46.000Z</time>
      </trkpt>
      <trkpt lat="47.24163" lon="-2.30224">
        <ele>15.199999809265</ele>
        <time>2020-01-05T08:29:47.000Z</time>
      </trkpt>
      <trkpt lat="47.24154" lon="-2.30207">
        <ele>15.199999809265</ele>
        <time>2020-01-05T08:29:52.000Z</time>
      </trkpt>
      <trkpt lat="47.24154" lon="-2.30202">
        <ele>15.199999809265</ele>
        <time>2020-01-05T08:29:54.000Z</time>
      </trkpt>
      <trkpt lat="47.24154" lon="-2.30197">
        <ele>15.199999809265</ele>
        <time>2020-01-05T08:29:56.000Z</time>
      </trkpt>
      <trkpt lat="47.24153" lon="-2.30195">
        <ele>15.60000038147</ele>
        <time>2020-01-05T08:29:57.000Z</time>
      </trkpt>
      <trkpt lat="47.24153" lon="-2.30192">
        <ele>16</ele>
        <time>2020-01-05T08:29:58.000Z</time>
      </trkpt>
      <trkpt lat="47.24152" lon="-2.3019">
        <ele>16.39999961853</ele>
        <time>2020-01-05T08:29:59.000Z</time>
      </trkpt>
      <trkpt lat="47.24152" lon="-2.30188">
        <ele>16.799999237061</ele>
        <time>2020-01-05T08:30:00.000Z</time>
      </trkpt>
      <trkpt lat="47.24152" lon="-2.30186">
        <ele>17.200000762939</ele>
        <time>2020-01-05T08:30:01.000Z</time>
      </trkpt>
      <trkpt lat="47.24152" lon="-2.30184">
        <ele>17.200000762939</ele>
        <time>2020-01-05T08:30:03.000Z</time>
      </trkpt>
      <trkpt lat="47.24149" lon="-2.30165">
        <ele>17.200000762939</ele>
        <time>2020-01-05T08:30:10.000Z</time>
      </trkpt>
      <trkpt lat="47.2415" lon="-2.30162">
        <ele>17.60000038147</ele>
        <time>2020-01-05T08:30:11.000Z</time>
      </trkpt>
      <trkpt lat="47.2415" lon="-2.3016">
        <ele>18</ele>
        <time>2020-01-05T08:30:12.000Z</time>
      </trkpt>
      <trkpt lat="47.24151" lon="-2.30157">
        <ele>18.39999961853</ele>
        <time>2020-01-05T08:30:13.000Z</time>
      </trkpt>
      <trkpt lat="47.24151" lon="-2.30155">
        <ele>18.799999237061</ele>
        <time>2020-01-05T08:30:14.000Z</time>
      </trkpt>
      <trkpt lat="47.24152" lon="-2.30153">
        <ele>19.200000762939</ele>
        <time>2020-01-05T08:30:15.000Z</time>
      </trkpt>
      <trkpt lat="47.24153" lon="-2.30149">
        <ele>19.200000762939</ele>
        <time>2020-01-05T08:30:16.000Z</time>
      </trkpt>
      <trkpt lat="47.24155" lon="-2.30125">
        <ele>19.200000762939</ele>
        <time>2020-01-05T08:30:22.000Z</time>
      </trkpt>
      <trkpt lat="47.24155" lon="-2.3011">
        <ele>19.799999237061</ele>
        <time>2020-01-05T08:30:26.000Z</time>
      </trkpt>
      <trkpt lat="47.24155" lon="-2.30106">
        <ele>20.200000762939</ele>
        <time>2020-01-05T08:30:27.000Z</time>
      </trkpt>
      <trkpt lat="47.24155" lon="-2.30104">
        <ele>20.60000038147</ele>
        <time>2020-01-05T08:30:28.000Z</time>
      </trkpt>
      <trkpt lat="47.24154" lon="-2.30102">
        <ele>21</ele>
        <time>2020-01-05T08:30:29.000Z</time>
      </trkpt>
      <trkpt lat="47.24153" lon="-2.301">
        <ele>21.39999961853</ele>
        <time>2020-01-05T08:30:30.000Z</time>
      </trkpt>
      <trkpt lat="47.24151" lon="-2.30093">
        <ele>21.39999961853</ele>
        <time>2020-01-05T08:30:32.000Z</time>
      </trkpt>
      <trkpt lat="47.24149" lon="-2.30084">
        <ele>21.39999961853</ele>
        <time>2020-01-05T08:30:35.000Z</time>
      </trkpt>
      <trkpt lat="47.24151" lon="-2.30076">
        <ele>21.39999961853</ele>
        <time>2020-01-05T08:30:38.000Z</time>
      </trkpt>
      <trkpt lat="47.24154" lon="-2.30064">
        <ele>22.799999237061</ele>
        <time>2020-01-05T08:30:43.000Z</time>
      </trkpt>
      <trkpt lat="47.24155" lon="-2.30062">
        <ele>23.200000762939</ele>
        <time>2020-01-05T08:30:44.000Z</time>
      </trkpt>
      <trkpt lat="47.24154" lon="-2.30059">
        <ele>23.60000038147</ele>
        <time>2020-01-05T08:30:45.000Z</time>
      </trkpt>
      <trkpt lat="47.24153" lon="-2.30056">
        <ele>23.60000038147</ele>
        <time>2020-01-05T08:30:46.000Z</time>
      </trkpt>
      <trkpt lat="47.24144" lon="-2.30047">
        <ele>24</ele>
        <time>2020-01-05T08:30:48.000Z</time>
      </trkpt>
      <trkpt lat="47.24141" lon="-2.30041">
        <ele>24.39999961853</ele>
        <time>2020-01-05T08:30:49.000Z</time>
      </trkpt>
      <trkpt lat="47.24139" lon="-2.30037">
        <ele>24.799999237061</ele>
        <time>2020-01-05T08:30:50.000Z</time>
      </trkpt>
      <trkpt lat="47.24138" lon="-2.30032">
        <ele>25.200000762939</ele>
        <time>2020-01-05T08:30:51.000Z</time>
      </trkpt>
      <trkpt lat="47.24137" lon="-2.30029">
        <ele>25.60000038147</ele>
        <time>2020-01-05T08:30:52.000Z</time>
      </trkpt>
      <trkpt lat="47.24136" lon="-2.30026">
        <ele>25.60000038147</ele>
        <time>2020-01-05T08:30:53.000Z</time>
      </trkpt>
      <trkpt lat="47.2414" lon="-2.30006">
        <ele>25.60000038147</ele>
        <time>2020-01-05T08:30:59.000Z</time>
      </trkpt>
      <trkpt lat="47.24145" lon="-2.29999">
        <ele>25.60000038147</ele>
        <time>2020-01-05T08:31:03.000Z</time>
      </trkpt>
      <trkpt lat="47.24153" lon="-2.3">
        <ele>25.60000038147</ele>
        <time>2020-01-05T08:31:12.000Z</time>
      </trkpt>
      <trkpt lat="47.24155" lon="-2.30009">
        <ele>25.60000038147</ele>
        <time>2020-01-05T08:31:16.000Z</time>
      </trkpt>
      <trkpt lat="47.24156" lon="-2.30009">
        <ele>25.60000038147</ele>
        <time>2020-01-05T08:31:17.000Z</time>
      </trkpt>
      <trkpt lat="47.24158" lon="-2.30008">
        <ele>25.60000038147</ele>
        <time>2020-01-05T08:31:18.000Z</time>
      </trkpt>
      <trkpt lat="47.24165" lon="-2.30004">
        <ele>25.60000038147</ele>
        <time>2020-01-05T08:31:22.000Z</time>
      </trkpt>
      <trkpt lat="47.24168" lon="-2.29995">
        <ele>25.60000038147</ele>
        <time>2020-01-05T08:31:28.000Z</time>
      </trkpt>
      <trkpt lat="47.24165" lon="-2.29988">
        <ele>25.60000038147</ele>
        <time>2020-01-05T08:31:31.000Z</time>
      </trkpt>
      <trkpt lat="47.24161" lon="-2.2998">
        <ele>25.60000038147</ele>
        <time>2020-01-05T08:31:33.000Z</time>
      </trkpt>
      <trkpt lat="47.24161" lon="-2.29961">
        <ele>25.60000038147</ele>
        <time>2020-01-05T08:31:38.000Z</time>
      </trkpt>
      <trkpt lat="47.24163" lon="-2.29941">
        <ele>25.60000038147</ele>
        <time>2020-01-05T08:31:43.000Z</time>
      </trkpt>
      <trkpt lat="47.24169" lon="-2.29927">
        <ele>25.60000038147</ele>
        <time>2020-01-05T08:31:48.000Z</time>
      </trkpt>
      <trkpt lat="47.24175" lon="-2.2991">
        <ele>25.60000038147</ele>
        <time>2020-01-05T08:31:53.000Z</time>
      </trkpt>
      <trkpt lat="47.24177" lon="-2.29907">
        <ele>25.60000038147</ele>
        <time>2020-01-05T08:31:54.000Z</time>
      </trkpt>
      <trkpt lat="47.24178" lon="-2.29891">
        <ele>25.60000038147</ele>
        <time>2020-01-05T08:31:59.000Z</time>
      </trkpt>
      <trkpt lat="47.24177" lon="-2.29887">
        <ele>26</ele>
        <time>2020-01-05T08:32:00.000Z</time>
      </trkpt>
      <trkpt lat="47.24176" lon="-2.29885">
        <ele>26.39999961853</ele>
        <time>2020-01-05T08:32:01.000Z</time>
      </trkpt>
      <trkpt lat="47.24176" lon="-2.29882">
        <ele>26.799999237061</ele>
        <time>2020-01-05T08:32:02.000Z</time>
      </trkpt>
      <trkpt lat="47.24177" lon="-2.29878">
        <ele>27.200000762939</ele>
        <time>2020-01-05T08:32:03.000Z</time>
      </trkpt>
      <trkpt lat="47.24175" lon="-2.29874">
        <ele>27.60000038147</ele>
        <time>2020-01-05T08:32:04.000Z</time>
      </trkpt>
      <trkpt lat="47.24176" lon="-2.29856">
        <ele>27.60000038147</ele>
        <time>2020-01-05T08:32:08.000Z</time>
      </trkpt>
      <trkpt lat="47.24173" lon="-2.29842">
        <ele>27.60000038147</ele>
        <time>2020-01-05T08:32:12.000Z</time>
      </trkpt>
      <trkpt lat="47.2417" lon="-2.29842">
        <ele>27.60000038147</ele>
        <time>2020-01-05T08:32:13.000Z</time>
      </trkpt>
      <trkpt lat="47.24164" lon="-2.29845">
        <ele>27.60000038147</ele>
        <time>2020-01-05T08:32:16.000Z</time>
      </trkpt>
      <trkpt lat="47.24154" lon="-2.29854">
        <ele>27.60000038147</ele>
        <time>2020-01-05T08:32:20.000Z</time>
      </trkpt>
      <trkpt lat="47.2413" lon="-2.29865">
        <ele>27.60000038147</ele>
        <time>2020-01-05T08:32:26.000Z</time>
      </trkpt>
      <trkpt lat="47.24115" lon="-2.29862">
        <ele>27.60000038147</ele>
        <time>2020-01-05T08:32:29.000Z</time>
      </trkpt>
      <trkpt lat="47.24112" lon="-2.29859">
        <ele>27.60000038147</ele>
        <time>2020-01-05T08:32:30.000Z</time>
      </trkpt>
      <trkpt lat="47.24104" lon="-2.29838">
        <ele>27.60000038147</ele>
        <time>2020-01-05T08:32:35.000Z</time>
      </trkpt>
      <trkpt lat="47.24085" lon="-2.29806">
        <ele>27.60000038147</ele>
        <time>2020-01-05T08:32:38.000Z</time>
      </trkpt>
      <trkpt lat="47.24069" lon="-2.29791">
        <ele>27.60000038147</ele>
        <time>2020-01-05T08:32:43.000Z</time>
      </trkpt>
      <trkpt lat="47.24058" lon="-2.29795">
        <ele>27.60000038147</ele>
        <time>2020-01-05T08:32:47.000Z</time>
      </trkpt>
      <trkpt lat="47.24043" lon="-2.29799">
        <ele>27.60000038147</ele>
        <time>2020-01-05T08:32:52.000Z</time>
      </trkpt>
      <trkpt lat="47.24028" lon="-2.29804">
        <ele>27.60000038147</ele>
        <time>2020-01-05T08:32:57.000Z</time>
      </trkpt>
      <trkpt lat="47.24027" lon="-2.29807">
        <ele>27.60000038147</ele>
        <time>2020-01-05T08:33:00.000Z</time>
      </trkpt>
      <trkpt lat="47.24031" lon="-2.29812">
        <ele>27.60000038147</ele>
        <time>2020-01-05T08:33:04.000Z</time>
      </trkpt>
      <trkpt lat="47.24033" lon="-2.29821">
        <ele>27.60000038147</ele>
        <time>2020-01-05T08:33:07.000Z</time>
      </trkpt>
      <trkpt lat="47.24033" lon="-2.29829">
        <ele>27.60000038147</ele>
        <time>2020-01-05T08:33:09.000Z</time>
      </trkpt>
      <trkpt lat="47.24036" lon="-2.29841">
        <ele>27.60000038147</ele>
        <time>2020-01-05T08:33:12.000Z</time>
      </trkpt>
      <trkpt lat="47.24038" lon="-2.29842">
        <ele>27.60000038147</ele>
        <time>2020-01-05T08:33:13.000Z</time>
      </trkpt>
      <trkpt lat="47.24046" lon="-2.29847">
        <ele>27.60000038147</ele>
        <time>2020-01-05T08:33:16.000Z</time>
      </trkpt>
      <trkpt lat="47.2405" lon="-2.29857">
        <ele>27.60000038147</ele>
        <time>2020-01-05T08:33:20.000Z</time>
      </trkpt>
      <trkpt lat="47.24049" lon="-2.29866">
        <ele>27.60000038147</ele>
        <time>2020-01-05T08:33:22.000Z</time>
      </trkpt>
      <trkpt lat="47.24048" lon="-2.29877">
        <ele>27.60000038147</ele>
        <time>2020-01-05T08:33:24.000Z</time>
      </trkpt>
      <trkpt lat="47.24053" lon="-2.29902">
        <ele>27.60000038147</ele>
        <time>2020-01-05T08:33:28.000Z</time>
      </trkpt>
      <trkpt lat="47.24052" lon="-2.29929">
        <ele>27.60000038147</ele>
        <time>2020-01-05T08:33:33.000Z</time>
      </trkpt>
      <trkpt lat="47.24052" lon="-2.29932">
        <ele>27.60000038147</ele>
        <time>2020-01-05T08:33:34.000Z</time>
      </trkpt>
      <trkpt lat="47.24058" lon="-2.29937">
        <ele>27.60000038147</ele>
        <time>2020-01-05T08:33:36.000Z</time>
      </trkpt>
      <trkpt lat="47.24062" lon="-2.29938">
        <ele>27.60000038147</ele>
        <time>2020-01-05T08:33:37.000Z</time>
      </trkpt>
      <trkpt lat="47.24066" lon="-2.29936">
        <ele>27.60000038147</ele>
        <time>2020-01-05T08:33:39.000Z</time>
      </trkpt>
      <trkpt lat="47.24072" lon="-2.29925">
        <ele>27.60000038147</ele>
        <time>2020-01-05T08:33:42.000Z</time>
      </trkpt>
      <trkpt lat="47.24074" lon="-2.29919">
        <ele>27.60000038147</ele>
        <time>2020-01-05T08:33:43.000Z</time>
      </trkpt>
      <trkpt lat="47.24077" lon="-2.29895">
        <ele>27.60000038147</ele>
        <time>2020-01-05T08:33:48.000Z</time>
      </trkpt>
      <trkpt lat="47.24079" lon="-2.29866">
        <ele>27.60000038147</ele>
        <time>2020-01-05T08:33:53.000Z</time>
      </trkpt>
      <trkpt lat="47.24082" lon="-2.29853">
        <ele>27.60000038147</ele>
        <time>2020-01-05T08:33:56.000Z</time>
      </trkpt>
      <trkpt lat="47.24085" lon="-2.29851">
        <ele>27.60000038147</ele>
        <time>2020-01-05T08:33:57.000Z</time>
      </trkpt>
      <trkpt lat="47.24101" lon="-2.29847">
        <ele>27.60000038147</ele>
        <time>2020-01-05T08:34:01.000Z</time>
      </trkpt>
      <trkpt lat="47.24105" lon="-2.29846">
        <ele>27.60000038147</ele>
        <time>2020-01-05T08:34:02.000Z</time>
      </trkpt>
      <trkpt lat="47.24127" lon="-2.29839">
        <ele>27.60000038147</ele>
        <time>2020-01-05T08:34:07.000Z</time>
      </trkpt>
      <trkpt lat="47.24133" lon="-2.29837">
        <ele>27.60000038147</ele>
        <time>2020-01-05T08:34:08.000Z</time>
      </trkpt>
      <trkpt lat="47.2415" lon="-2.29838">
        <ele>27.60000038147</ele>
        <time>2020-01-05T08:34:12.000Z</time>
      </trkpt>
      <trkpt lat="47.24154" lon="-2.29845">
        <ele>27.60000038147</ele>
        <time>2020-01-05T08:34:14.000Z</time>
      </trkpt>
      <trkpt lat="47.24156" lon="-2.29853">
        <ele>27.60000038147</ele>
        <time>2020-01-05T08:34:16.000Z</time>
      </trkpt>
      <trkpt lat="47.24159" lon="-2.29875">
        <ele>27.60000038147</ele>
        <time>2020-01-05T08:34:20.000Z</time>
      </trkpt>
      <trkpt lat="47.24165" lon="-2.299">
        <ele>27.60000038147</ele>
        <time>2020-01-05T08:34:25.000Z</time>
      </trkpt>
      <trkpt lat="47.24167" lon="-2.29933">
        <ele>27.60000038147</ele>
        <time>2020-01-05T08:34:30.000Z</time>
      </trkpt>
      <trkpt lat="47.24163" lon="-2.29959">
        <ele>27.60000038147</ele>
        <time>2020-01-05T08:34:35.000Z</time>
      </trkpt>
      <trkpt lat="47.24163" lon="-2.29972">
        <ele>27.60000038147</ele>
        <time>2020-01-05T08:34:39.000Z</time>
      </trkpt>
      <trkpt lat="47.24165" lon="-2.29974">
        <ele>27.60000038147</ele>
        <time>2020-01-05T08:34:40.000Z</time>
      </trkpt>
      <trkpt lat="47.24171" lon="-2.29978">
        <ele>27.60000038147</ele>
        <time>2020-01-05T08:34:43.000Z</time>
      </trkpt>
      <trkpt lat="47.24173" lon="-2.29984">
        <ele>27.60000038147</ele>
        <time>2020-01-05T08:34:49.000Z</time>
      </trkpt>
      <trkpt lat="47.24172" lon="-2.29984">
        <ele>27.60000038147</ele>
        <time>2020-01-05T08:34:50.000Z</time>
      </trkpt>
      <trkpt lat="47.2416" lon="-2.29991">
        <ele>27.60000038147</ele>
        <time>2020-01-05T08:34:54.000Z</time>
      </trkpt>
      <trkpt lat="47.24158" lon="-2.29992">
        <ele>27.60000038147</ele>
        <time>2020-01-05T08:34:55.000Z</time>
      </trkpt>
      <trkpt lat="47.24152" lon="-2.29998">
        <ele>27.60000038147</ele>
        <time>2020-01-05T08:34:58.000Z</time>
      </trkpt>
      <trkpt lat="47.24145" lon="-2.30004">
        <ele>27.60000038147</ele>
        <time>2020-01-05T08:35:00.000Z</time>
      </trkpt>
      <trkpt lat="47.2414" lon="-2.30018">
        <ele>27.60000038147</ele>
        <time>2020-01-05T08:35:05.000Z</time>
      </trkpt>
      <trkpt lat="47.24144" lon="-2.30032">
        <ele>27.200000762939</ele>
        <time>2020-01-05T08:35:11.000Z</time>
      </trkpt>
      <trkpt lat="47.24146" lon="-2.30037">
        <ele>26.799999237061</ele>
        <time>2020-01-05T08:35:12.000Z</time>
      </trkpt>
      <trkpt lat="47.24147" lon="-2.30041">
        <ele>26.39999961853</ele>
        <time>2020-01-05T08:35:13.000Z</time>
      </trkpt>
      <trkpt lat="47.24149" lon="-2.30044">
        <ele>26</ele>
        <time>2020-01-05T08:35:14.000Z</time>
      </trkpt>
      <trkpt lat="47.24152" lon="-2.30048">
        <ele>25.60000038147</ele>
        <time>2020-01-05T08:35:15.000Z</time>
      </trkpt>
      <trkpt lat="47.24152" lon="-2.30051">
        <ele>25.200000762939</ele>
        <time>2020-01-05T08:35:16.000Z</time>
      </trkpt>
      <trkpt lat="47.24153" lon="-2.30055">
        <ele>24.799999237061</ele>
        <time>2020-01-05T08:35:17.000Z</time>
      </trkpt>
      <trkpt lat="47.24152" lon="-2.3006">
        <ele>24.39999961853</ele>
        <time>2020-01-05T08:35:18.000Z</time>
      </trkpt>
      <trkpt lat="47.24151" lon="-2.30064">
        <ele>23.799999237061</ele>
        <time>2020-01-05T08:35:19.000Z</time>
      </trkpt>
      <trkpt lat="47.2415" lon="-2.30068">
        <ele>23.39999961853</ele>
        <time>2020-01-05T08:35:20.000Z</time>
      </trkpt>
      <trkpt lat="47.24147" lon="-2.30072">
        <ele>23.39999961853</ele>
        <time>2020-01-05T08:35:21.000Z</time>
      </trkpt>
      <trkpt lat="47.24145" lon="-2.30074">
        <ele>23.39999961853</ele>
        <time>2020-01-05T08:35:22.000Z</time>
      </trkpt>
      <trkpt lat="47.24135" lon="-2.30078">
        <ele>23.39999961853</ele>
        <time>2020-01-05T08:35:25.000Z</time>
      </trkpt>
      <trkpt lat="47.2412" lon="-2.3008">
        <ele>23.39999961853</ele>
        <time>2020-01-05T08:35:29.000Z</time>
      </trkpt>
      <trkpt lat="47.24112" lon="-2.30093">
        <ele>23.39999961853</ele>
        <time>2020-01-05T08:35:33.000Z</time>
      </trkpt>
      <trkpt lat="47.24108" lon="-2.30114">
        <ele>23.39999961853</ele>
        <time>2020-01-05T08:35:38.000Z</time>
      </trkpt>
      <trkpt lat="47.24113" lon="-2.30117">
        <ele>23.39999961853</ele>
        <time>2020-01-05T08:35:40.000Z</time>
      </trkpt>
      <trkpt lat="47.24115" lon="-2.30117">
        <ele>23.39999961853</ele>
        <time>2020-01-05T08:35:41.000Z</time>
      </trkpt>
      <trkpt lat="47.24117" lon="-2.30117">
        <ele>23.39999961853</ele>
        <time>2020-01-05T08:35:42.000Z</time>
      </trkpt>
      <trkpt lat="47.24123" lon="-2.30114">
        <ele>23.39999961853</ele>
        <time>2020-01-05T08:35:47.000Z</time>
      </trkpt>
      <trkpt lat="47.24125" lon="-2.30116">
        <ele>23.39999961853</ele>
        <time>2020-01-05T08:35:49.000Z</time>
      </trkpt>
      <trkpt lat="47.2413" lon="-2.30126">
        <ele>23.39999961853</ele>
        <time>2020-01-05T08:35:52.000Z</time>
      </trkpt>
      <trkpt lat="47.24132" lon="-2.30131">
        <ele>23</ele>
        <time>2020-01-05T08:35:54.000Z</time>
      </trkpt>
      <trkpt lat="47.24132" lon="-2.30133">
        <ele>22</ele>
        <time>2020-01-05T08:35:55.000Z</time>
      </trkpt>
      <trkpt lat="47.24133" lon="-2.30135">
        <ele>21.60000038147</ele>
        <time>2020-01-05T08:35:56.000Z</time>
      </trkpt>
      <trkpt lat="47.24133" lon="-2.30138">
        <ele>21</ele>
        <time>2020-01-05T08:35:57.000Z</time>
      </trkpt>
      <trkpt lat="47.24133" lon="-2.30146">
        <ele>21</ele>
        <time>2020-01-05T08:36:01.000Z</time>
      </trkpt>
      <trkpt lat="47.24132" lon="-2.30149">
        <ele>21</ele>
        <time>2020-01-05T08:36:03.000Z</time>
      </trkpt>
      <trkpt lat="47.2413" lon="-2.3016">
        <ele>21</ele>
        <time>2020-01-05T08:36:09.000Z</time>
      </trkpt>
      <trkpt lat="47.24128" lon="-2.30163">
        <ele>21</ele>
        <time>2020-01-05T08:36:12.000Z</time>
      </trkpt>
      <trkpt lat="47.24119" lon="-2.30166">
        <ele>22</ele>
        <time>2020-01-05T08:36:24.000Z</time>
      </trkpt>
      <trkpt lat="47.24117" lon="-2.30166">
        <ele>22.39999961853</ele>
        <time>2020-01-05T08:36:25.000Z</time>
      </trkpt>
      <trkpt lat="47.24113" lon="-2.30165">
        <ele>22.799999237061</ele>
        <time>2020-01-05T08:36:26.000Z</time>
      </trkpt>
      <trkpt lat="47.2411" lon="-2.30164">
        <ele>23.200000762939</ele>
        <time>2020-01-05T08:36:27.000Z</time>
      </trkpt>
      <trkpt lat="47.24102" lon="-2.30161">
        <ele>23.200000762939</ele>
        <time>2020-01-05T08:36:30.000Z</time>
      </trkpt>
      <trkpt lat="47.24098" lon="-2.30162">
        <ele>23.200000762939</ele>
        <time>2020-01-05T08:36:32.000Z</time>
      </trkpt>
      <trkpt lat="47.24086" lon="-2.30168">
        <ele>23.200000762939</ele>
        <time>2020-01-05T08:36:37.000Z</time>
      </trkpt>
      <trkpt lat="47.24073" lon="-2.30178">
        <ele>23.200000762939</ele>
        <time>2020-01-05T08:36:42.000Z</time>
      </trkpt>
      <trkpt lat="47.24062" lon="-2.30181">
        <ele>24</ele>
        <time>2020-01-05T08:36:45.000Z</time>
      </trkpt>
      <trkpt lat="47.24059" lon="-2.30183">
        <ele>24.39999961853</ele>
        <time>2020-01-05T08:36:46.000Z</time>
      </trkpt>
      <trkpt lat="47.24055" lon="-2.30184">
        <ele>24.799999237061</ele>
        <time>2020-01-05T08:36:47.000Z</time>
      </trkpt>
      <trkpt lat="47.24053" lon="-2.30186">
        <ele>25.200000762939</ele>
        <time>2020-01-05T08:36:48.000Z</time>
      </trkpt>
      <trkpt lat="47.24045" lon="-2.3019">
        <ele>25.200000762939</ele>
        <time>2020-01-05T08:36:51.000Z</time>
      </trkpt>
      <trkpt lat="47.24044" lon="-2.30189">
        <ele>25.200000762939</ele>
        <time>2020-01-05T08:36:52.000Z</time>
      </trkpt>
      <trkpt lat="47.24034" lon="-2.30177">
        <ele>25.200000762939</ele>
        <time>2020-01-05T08:36:57.000Z</time>
      </trkpt>
      <trkpt lat="47.2403" lon="-2.30174">
        <ele>25.200000762939</ele>
        <time>2020-01-05T08:36:58.000Z</time>
      </trkpt>
      <trkpt lat="47.24025" lon="-2.30171">
        <ele>25.200000762939</ele>
        <time>2020-01-05T08:37:00.000Z</time>
      </trkpt>
      <trkpt lat="47.24015" lon="-2.3017">
        <ele>25.200000762939</ele>
        <time>2020-01-05T08:37:03.000Z</time>
      </trkpt>
      <trkpt lat="47.23998" lon="-2.30164">
        <ele>25.200000762939</ele>
        <time>2020-01-05T08:37:08.000Z</time>
      </trkpt>
      <trkpt lat="47.23987" lon="-2.30154">
        <ele>25.200000762939</ele>
        <time>2020-01-05T08:37:13.000Z</time>
      </trkpt>
      <trkpt lat="47.2398" lon="-2.30132">
        <ele>25.200000762939</ele>
        <time>2020-01-05T08:37:18.000Z</time>
      </trkpt>
      <trkpt lat="47.23983" lon="-2.30103">
        <ele>25.200000762939</ele>
        <time>2020-01-05T08:37:24.000Z</time>
      </trkpt>
      <trkpt lat="47.23991" lon="-2.30078">
        <ele>25.200000762939</ele>
        <time>2020-01-05T08:37:29.000Z</time>
      </trkpt>
      <trkpt lat="47.23999" lon="-2.3005">
        <ele>25.200000762939</ele>
        <time>2020-01-05T08:37:34.000Z</time>
      </trkpt>
      <trkpt lat="47.24006" lon="-2.30027">
        <ele>25.200000762939</ele>
        <time>2020-01-05T08:37:39.000Z</time>
      </trkpt>
      <trkpt lat="47.24012" lon="-2.30013">
        <ele>25.200000762939</ele>
        <time>2020-01-05T08:37:42.000Z</time>
      </trkpt>
      <trkpt lat="47.24017" lon="-2.30006">
        <ele>25.200000762939</ele>
        <time>2020-01-05T08:37:44.000Z</time>
      </trkpt>
      <trkpt lat="47.24027" lon="-2.29992">
        <ele>25.60000038147</ele>
        <time>2020-01-05T08:37:48.000Z</time>
      </trkpt>
      <trkpt lat="47.24028" lon="-2.29987">
        <ele>26</ele>
        <time>2020-01-05T08:37:49.000Z</time>
      </trkpt>
      <trkpt lat="47.2403" lon="-2.29981">
        <ele>26.39999961853</ele>
        <time>2020-01-05T08:37:50.000Z</time>
      </trkpt>
      <trkpt lat="47.24032" lon="-2.29975">
        <ele>26.799999237061</ele>
        <time>2020-01-05T08:37:51.000Z</time>
      </trkpt>
      <trkpt lat="47.24033" lon="-2.29969">
        <ele>27.200000762939</ele>
        <time>2020-01-05T08:37:52.000Z</time>
      </trkpt>
      <trkpt lat="47.24035" lon="-2.2996">
        <ele>27.200000762939</ele>
        <time>2020-01-05T08:37:54.000Z</time>
      </trkpt>
      <trkpt lat="47.24049" lon="-2.29947">
        <ele>27.200000762939</ele>
        <time>2020-01-05T08:37:59.000Z</time>
      </trkpt>
      <trkpt lat="47.24056" lon="-2.2993">
        <ele>27.200000762939</ele>
        <time>2020-01-05T08:38:03.000Z</time>
      </trkpt>
      <trkpt lat="47.24057" lon="-2.29919">
        <ele>27.200000762939</ele>
        <time>2020-01-05T08:38:06.000Z</time>
      </trkpt>
      <trkpt lat="47.24053" lon="-2.29912">
        <ele>27.200000762939</ele>
        <time>2020-01-05T08:38:08.000Z</time>
      </trkpt>
      <trkpt lat="47.24048" lon="-2.29895">
        <ele>27.200000762939</ele>
        <time>2020-01-05T08:38:12.000Z</time>
      </trkpt>
      <trkpt lat="47.24049" lon="-2.2989">
        <ele>27.200000762939</ele>
        <time>2020-01-05T08:38:13.000Z</time>
      </trkpt>
      <trkpt lat="47.24055" lon="-2.29863">
        <ele>27.200000762939</ele>
        <time>2020-01-05T08:38:18.000Z</time>
      </trkpt>
      <trkpt lat="47.24061" lon="-2.2984">
        <ele>27.200000762939</ele>
        <time>2020-01-05T08:38:22.000Z</time>
      </trkpt>
      <trkpt lat="47.24067" lon="-2.29809">
        <ele>27.200000762939</ele>
        <time>2020-01-05T08:38:27.000Z</time>
      </trkpt>
      <trkpt lat="47.24071" lon="-2.298">
        <ele>27.200000762939</ele>
        <time>2020-01-05T08:38:29.000Z</time>
      </trkpt>
      <trkpt lat="47.24074" lon="-2.29799">
        <ele>27.200000762939</ele>
        <time>2020-01-05T08:38:30.000Z</time>
      </trkpt>
      <trkpt lat="47.24078" lon="-2.29807">
        <ele>27.200000762939</ele>
        <time>2020-01-05T08:38:33.000Z</time>
      </trkpt>
      <trkpt lat="47.2408" lon="-2.29823">
        <ele>27.200000762939</ele>
        <time>2020-01-05T08:38:37.000Z</time>
      </trkpt>
      <trkpt lat="47.24081" lon="-2.29851">
        <ele>27.200000762939</ele>
        <time>2020-01-05T08:38:42.000Z</time>
      </trkpt>
      <trkpt lat="47.24079" lon="-2.29882">
        <ele>27.200000762939</ele>
        <time>2020-01-05T08:38:47.000Z</time>
      </trkpt>
      <trkpt lat="47.24075" lon="-2.29915">
        <ele>27.200000762939</ele>
        <time>2020-01-05T08:38:52.000Z</time>
      </trkpt>
      <trkpt lat="47.24072" lon="-2.2993">
        <ele>27.200000762939</ele>
        <time>2020-01-05T08:38:55.000Z</time>
      </trkpt>
      <trkpt lat="47.24074" lon="-2.29938">
        <ele>27.200000762939</ele>
        <time>2020-01-05T08:38:59.000Z</time>
      </trkpt>
      <trkpt lat="47.24079" lon="-2.2995">
        <ele>27.200000762939</ele>
        <time>2020-01-05T08:39:05.000Z</time>
      </trkpt>
      <trkpt lat="47.2408" lon="-2.29958">
        <ele>27.200000762939</ele>
        <time>2020-01-05T08:39:08.000Z</time>
      </trkpt>
      <trkpt lat="47.24081" lon="-2.29964">
        <ele>27.200000762939</ele>
        <time>2020-01-05T08:39:10.000Z</time>
      </trkpt>
      <trkpt lat="47.24087" lon="-2.29969">
        <ele>27.200000762939</ele>
        <time>2020-01-05T08:39:13.000Z</time>
      </trkpt>
      <trkpt lat="47.24089" lon="-2.2997">
        <ele>27.200000762939</ele>
        <time>2020-01-05T08:39:14.000Z</time>
      </trkpt>
      <trkpt lat="47.24095" lon="-2.29971">
        <ele>27.200000762939</ele>
        <time>2020-01-05T08:39:16.000Z</time>
      </trkpt>
      <trkpt lat="47.24102" lon="-2.29974">
        <ele>27.200000762939</ele>
        <time>2020-01-05T08:39:18.000Z</time>
      </trkpt>
      <trkpt lat="47.24117" lon="-2.29977">
        <ele>27.200000762939</ele>
        <time>2020-01-05T08:39:22.000Z</time>
      </trkpt>
      <trkpt lat="47.24121" lon="-2.29977">
        <ele>27.200000762939</ele>
        <time>2020-01-05T08:39:23.000Z</time>
      </trkpt>
      <trkpt lat="47.24139" lon="-2.29978">
        <ele>27.200000762939</ele>
        <time>2020-01-05T08:39:27.000Z</time>
      </trkpt>
      <trkpt lat="47.24144" lon="-2.29976">
        <ele>27.200000762939</ele>
        <time>2020-01-05T08:39:28.000Z</time>
      </trkpt>
      <trkpt lat="47.24153" lon="-2.29975">
        <ele>27.200000762939</ele>
        <time>2020-01-05T08:39:30.000Z</time>
      </trkpt>
      <trkpt lat="47.24156" lon="-2.29975">
        <ele>27.200000762939</ele>
        <time>2020-01-05T08:39:31.000Z</time>
      </trkpt>
      <trkpt lat="47.24174" lon="-2.29975">
        <ele>27.200000762939</ele>
        <time>2020-01-05T08:39:35.000Z</time>
      </trkpt>
      <trkpt lat="47.24179" lon="-2.29973">
        <ele>27.200000762939</ele>
        <time>2020-01-05T08:39:36.000Z</time>
      </trkpt>
      <trkpt lat="47.24185" lon="-2.29973">
        <ele>27.200000762939</ele>
        <time>2020-01-05T08:39:37.000Z</time>
      </trkpt>
      <trkpt lat="47.24196" lon="-2.29968">
        <ele>27.200000762939</ele>
        <time>2020-01-05T08:39:39.000Z</time>
      </trkpt>
      <trkpt lat="47.24223" lon="-2.29957">
        <ele>26.799999237061</ele>
        <time>2020-01-05T08:39:44.000Z</time>
      </trkpt>
      <trkpt lat="47.24228" lon="-2.29954">
        <ele>26.39999961853</ele>
        <time>2020-01-05T08:39:45.000Z</time>
      </trkpt>
      <trkpt lat="47.24233" lon="-2.29951">
        <ele>26</ele>
        <time>2020-01-05T08:39:46.000Z</time>
      </trkpt>
      <trkpt lat="47.24238" lon="-2.29948">
        <ele>25.60000038147</ele>
        <time>2020-01-05T08:39:47.000Z</time>
      </trkpt>
      <trkpt lat="47.24244" lon="-2.29943">
        <ele>25.200000762939</ele>
        <time>2020-01-05T08:39:48.000Z</time>
      </trkpt>
      <trkpt lat="47.24249" lon="-2.29938">
        <ele>25.200000762939</ele>
        <time>2020-01-05T08:39:49.000Z</time>
      </trkpt>
      <trkpt lat="47.24254" lon="-2.29933">
        <ele>25.200000762939</ele>
        <time>2020-01-05T08:39:50.000Z</time>
      </trkpt>
      <trkpt lat="47.24266" lon="-2.29918">
        <ele>25.200000762939</ele>
        <time>2020-01-05T08:39:53.000Z</time>
      </trkpt>
      <trkpt lat="47.24295" lon="-2.29893">
        <ele>25.200000762939</ele>
        <time>2020-01-05T08:39:59.000Z</time>
      </trkpt>
      <trkpt lat="47.2431" lon="-2.29879">
        <ele>25.200000762939</ele>
        <time>2020-01-05T08:40:02.000Z</time>
      </trkpt>
      <trkpt lat="47.24314" lon="-2.29873">
        <ele>25.200000762939</ele>
        <time>2020-01-05T08:40:03.000Z</time>
      </trkpt>
      <trkpt lat="47.24318" lon="-2.29854">
        <ele>25.200000762939</ele>
        <time>2020-01-05T08:40:06.000Z</time>
      </trkpt>
      <trkpt lat="47.24318" lon="-2.29845">
        <ele>25.200000762939</ele>
        <time>2020-01-05T08:40:07.000Z</time>
      </trkpt>
      <trkpt lat="47.24318" lon="-2.29825">
        <ele>25.200000762939</ele>
        <time>2020-01-05T08:40:10.000Z</time>
      </trkpt>
      <trkpt lat="47.24322" lon="-2.29816">
        <ele>25.200000762939</ele>
        <time>2020-01-05T08:40:12.000Z</time>
      </trkpt>
      <trkpt lat="47.24331" lon="-2.29809">
        <ele>25.200000762939</ele>
        <time>2020-01-05T08:40:15.000Z</time>
      </trkpt>
      <trkpt lat="47.24333" lon="-2.29808">
        <ele>25.200000762939</ele>
        <time>2020-01-05T08:40:16.000Z</time>
      </trkpt>
      <trkpt lat="47.24352" lon="-2.29799">
        <ele>25.200000762939</ele>
        <time>2020-01-05T08:40:22.000Z</time>
      </trkpt>
      <trkpt lat="47.24366" lon="-2.29781">
        <ele>25.60000038147</ele>
        <time>2020-01-05T08:40:27.000Z</time>
      </trkpt>
      <trkpt lat="47.24369" lon="-2.29776">
        <ele>26</ele>
        <time>2020-01-05T08:40:28.000Z</time>
      </trkpt>
      <trkpt lat="47.24371" lon="-2.29771">
        <ele>26.39999961853</ele>
        <time>2020-01-05T08:40:29.000Z</time>
      </trkpt>
      <trkpt lat="47.24374" lon="-2.29766">
        <ele>26.799999237061</ele>
        <time>2020-01-05T08:40:30.000Z</time>
      </trkpt>
      <trkpt lat="47.24377" lon="-2.29761">
        <ele>27.200000762939</ele>
        <time>2020-01-05T08:40:31.000Z</time>
      </trkpt>
      <trkpt lat="47.24379" lon="-2.29756">
        <ele>27.200000762939</ele>
        <time>2020-01-05T08:40:32.000Z</time>
      </trkpt>
      <trkpt lat="47.24387" lon="-2.29739">
        <ele>27.200000762939</ele>
        <time>2020-01-05T08:40:35.000Z</time>
      </trkpt>
      <trkpt lat="47.24391" lon="-2.29728">
        <ele>27.200000762939</ele>
        <time>2020-01-05T08:40:37.000Z</time>
      </trkpt>
      <trkpt lat="47.24397" lon="-2.29709">
        <ele>27.200000762939</ele>
        <time>2020-01-05T08:40:42.000Z</time>
      </trkpt>
      <trkpt lat="47.24408" lon="-2.29697">
        <ele>27.200000762939</ele>
        <time>2020-01-05T08:40:47.000Z</time>
      </trkpt>
      <trkpt lat="47.24426" lon="-2.29689">
        <ele>27.200000762939</ele>
        <time>2020-01-05T08:40:52.000Z</time>
      </trkpt>
      <trkpt lat="47.24435" lon="-2.29694">
        <ele>27.200000762939</ele>
        <time>2020-01-05T08:40:55.000Z</time>
      </trkpt>
      <trkpt lat="47.24438" lon="-2.29699">
        <ele>27.200000762939</ele>
        <time>2020-01-05T08:40:56.000Z</time>
      </trkpt>
      <trkpt lat="47.24442" lon="-2.2971">
        <ele>27.200000762939</ele>
        <time>2020-01-05T08:40:58.000Z</time>
      </trkpt>
      <trkpt lat="47.24446" lon="-2.29728">
        <ele>27.200000762939</ele>
        <time>2020-01-05T08:41:01.000Z</time>
      </trkpt>
      <trkpt lat="47.24457" lon="-2.29766">
        <ele>27.200000762939</ele>
        <time>2020-01-05T08:41:07.000Z</time>
      </trkpt>
      <trkpt lat="47.24464" lon="-2.29794">
        <ele>27.200000762939</ele>
        <time>2020-01-05T08:41:11.000Z</time>
      </trkpt>
      <trkpt lat="47.24473" lon="-2.29811">
        <ele>27.200000762939</ele>
        <time>2020-01-05T08:41:14.000Z</time>
      </trkpt>
      <trkpt lat="47.24479" lon="-2.29821">
        <ele>27.200000762939</ele>
        <time>2020-01-05T08:41:16.000Z</time>
      </trkpt>
      <trkpt lat="47.24498" lon="-2.29844">
        <ele>27.200000762939</ele>
        <time>2020-01-05T08:41:21.000Z</time>
      </trkpt>
      <trkpt lat="47.24528" lon="-2.2986">
        <ele>27.200000762939</ele>
        <time>2020-01-05T08:41:27.000Z</time>
      </trkpt>
      <trkpt lat="47.24532" lon="-2.29861">
        <ele>27.200000762939</ele>
        <time>2020-01-05T08:41:28.000Z</time>
      </trkpt>
      <trkpt lat="47.24536" lon="-2.29862">
        <ele>27.60000038147</ele>
        <time>2020-01-05T08:41:29.000Z</time>
      </trkpt>
      <trkpt lat="47.24541" lon="-2.29864">
        <ele>28</ele>
        <time>2020-01-05T08:41:30.000Z</time>
      </trkpt>
      <trkpt lat="47.24545" lon="-2.29865">
        <ele>28.60000038147</ele>
        <time>2020-01-05T08:41:31.000Z</time>
      </trkpt>
      <trkpt lat="47.24549" lon="-2.29867">
        <ele>29</ele>
        <time>2020-01-05T08:41:32.000Z</time>
      </trkpt>
      <trkpt lat="47.24554" lon="-2.2987">
        <ele>29.39999961853</ele>
        <time>2020-01-05T08:41:33.000Z</time>
      </trkpt>
      <trkpt lat="47.24566" lon="-2.29884">
        <ele>29.39999961853</ele>
        <time>2020-01-05T08:41:36.000Z</time>
      </trkpt>
      <trkpt lat="47.24573" lon="-2.29895">
        <ele>29.39999961853</ele>
        <time>2020-01-05T08:41:38.000Z</time>
      </trkpt>
      <trkpt lat="47.24586" lon="-2.2992">
        <ele>29.39999961853</ele>
        <time>2020-01-05T08:41:42.000Z</time>
      </trkpt>
      <trkpt lat="47.24598" lon="-2.29936">
        <ele>29.39999961853</ele>
        <time>2020-01-05T08:41:45.000Z</time>
      </trkpt>
      <trkpt lat="47.24603" lon="-2.29938">
        <ele>29.39999961853</ele>
        <time>2020-01-05T08:41:46.000Z</time>
      </trkpt>
      <trkpt lat="47.2462" lon="-2.29935">
        <ele>29.39999961853</ele>
        <time>2020-01-05T08:41:49.000Z</time>
      </trkpt>
      <trkpt lat="47.24625" lon="-2.29933">
        <ele>29.39999961853</ele>
        <time>2020-01-05T08:41:50.000Z</time>
      </trkpt>
      <trkpt lat="47.24644" lon="-2.29927">
        <ele>29.39999961853</ele>
        <time>2020-01-05T08:41:55.000Z</time>
      </trkpt>
      <trkpt lat="47.24657" lon="-2.29922">
        <ele>29.39999961853</ele>
        <time>2020-01-05T08:42:01.000Z</time>
      </trkpt>
      <trkpt lat="47.24669" lon="-2.29919">
        <ele>29.39999961853</ele>
        <time>2020-01-05T08:42:07.000Z</time>
      </trkpt>
      <trkpt lat="47.24678" lon="-2.29915">
        <ele>29.39999961853</ele>
        <time>2020-01-05T08:42:13.000Z</time>
      </trkpt>
      <trkpt lat="47.24679" lon="-2.29915">
        <ele>29.39999961853</ele>
        <time>2020-01-05T08:42:14.000Z</time>
      </trkpt>
      <trkpt lat="47.24679" lon="-2.29915">
        <ele>29.39999961853</ele>
        <time>2020-01-05T08:42:24.000Z</time>
      </trkpt>
      <trkpt lat="47.24685" lon="-2.29914">
        <ele>29.39999961853</ele>
        <time>2020-01-05T08:42:27.000Z</time>
      </trkpt>
      <trkpt lat="47.247" lon="-2.29911">
        <ele>29.39999961853</ele>
        <time>2020-01-05T08:42:31.000Z</time>
      </trkpt>
      <trkpt lat="47.24704" lon="-2.29909">
        <ele>29.39999961853</ele>
        <time>2020-01-05T08:42:32.000Z</time>
      </trkpt>
      <trkpt lat="47.24729" lon="-2.29901">
        <ele>29.799999237061</ele>
        <time>2020-01-05T08:42:37.000Z</time>
      </trkpt>
      <trkpt lat="47.24734" lon="-2.29899">
        <ele>30.200000762939</ele>
        <time>2020-01-05T08:42:38.000Z</time>
      </trkpt>
      <trkpt lat="47.24738" lon="-2.29897">
        <ele>30.60000038147</ele>
        <time>2020-01-05T08:42:39.000Z</time>
      </trkpt>
      <trkpt lat="47.24743" lon="-2.29895">
        <ele>31</ele>
        <time>2020-01-05T08:42:40.000Z</time>
      </trkpt>
      <trkpt lat="47.24748" lon="-2.29892">
        <ele>31.39999961853</ele>
        <time>2020-01-05T08:42:41.000Z</time>
      </trkpt>
      <trkpt lat="47.24771" lon="-2.29876">
        <ele>31.39999961853</ele>
        <time>2020-01-05T08:42:46.000Z</time>
      </trkpt>
      <trkpt lat="47.24793" lon="-2.2986">
        <ele>31.39999961853</ele>
        <time>2020-01-05T08:42:52.000Z</time>
      </trkpt>
      <trkpt lat="47.24817" lon="-2.29849">
        <ele>31.39999961853</ele>
        <time>2020-01-05T08:42:58.000Z</time>
      </trkpt>
      <trkpt lat="47.24825" lon="-2.29848">
        <ele>31.39999961853</ele>
        <time>2020-01-05T08:43:00.000Z</time>
      </trkpt>
      <trkpt lat="47.24836" lon="-2.29844">
        <ele>31.39999961853</ele>
        <time>2020-01-05T08:43:03.000Z</time>
      </trkpt>
      <trkpt lat="47.24852" lon="-2.29836">
        <ele>31.39999961853</ele>
        <time>2020-01-05T08:43:08.000Z</time>
      </trkpt>
      <trkpt lat="47.24862" lon="-2.29829">
        <ele>31.39999961853</ele>
        <time>2020-01-05T08:43:13.000Z</time>
      </trkpt>
      <trkpt lat="47.24867" lon="-2.29838">
        <ele>31.39999961853</ele>
        <time>2020-01-05T08:43:16.000Z</time>
      </trkpt>
      <trkpt lat="47.24868" lon="-2.29842">
        <ele>31.39999961853</ele>
        <time>2020-01-05T08:43:17.000Z</time>
      </trkpt>
      <trkpt lat="47.2487" lon="-2.29853">
        <ele>31.39999961853</ele>
        <time>2020-01-05T08:43:20.000Z</time>
      </trkpt>
      <trkpt lat="47.24873" lon="-2.29871">
        <ele>31.39999961853</ele>
        <time>2020-01-05T08:43:25.000Z</time>
      </trkpt>
      <trkpt lat="47.24874" lon="-2.29895">
        <ele>31.39999961853</ele>
        <time>2020-01-05T08:43:29.000Z</time>
      </trkpt>
      <trkpt lat="47.24876" lon="-2.29922">
        <ele>31.39999961853</ele>
        <time>2020-01-05T08:43:32.000Z</time>
      </trkpt>
      <trkpt lat="47.2488" lon="-2.2994">
        <ele>31.39999961853</ele>
        <time>2020-01-05T08:43:34.000Z</time>
      </trkpt>
      <trkpt lat="47.24892" lon="-2.29979">
        <ele>31.39999961853</ele>
        <time>2020-01-05T08:43:39.000Z</time>
      </trkpt>
      <trkpt lat="47.24893" lon="-2.29985">
        <ele>31.39999961853</ele>
        <time>2020-01-05T08:43:40.000Z</time>
      </trkpt>
      <trkpt lat="47.24898" lon="-2.30008">
        <ele>31.39999961853</ele>
        <time>2020-01-05T08:43:44.000Z</time>
      </trkpt>
      <trkpt lat="47.24903" lon="-2.30026">
        <ele>31.39999961853</ele>
        <time>2020-01-05T08:43:47.000Z</time>
      </trkpt>
      <trkpt lat="47.24903" lon="-2.30038">
        <ele>31.39999961853</ele>
        <time>2020-01-05T08:43:49.000Z</time>
      </trkpt>
      <trkpt lat="47.24907" lon="-2.30053">
        <ele>31.39999961853</ele>
        <time>2020-01-05T08:43:53.000Z</time>
      </trkpt>
      <trkpt lat="47.24919" lon="-2.30053">
        <ele>31.39999961853</ele>
        <time>2020-01-05T08:43:57.000Z</time>
      </trkpt>
      <trkpt lat="47.24945" lon="-2.30052">
        <ele>31.39999961853</ele>
        <time>2020-01-05T08:44:03.000Z</time>
      </trkpt>
      <trkpt lat="47.24964" lon="-2.30053">
        <ele>31.39999961853</ele>
        <time>2020-01-05T08:44:08.000Z</time>
      </trkpt>
      <trkpt lat="47.24983" lon="-2.30051">
        <ele>31.39999961853</ele>
        <time>2020-01-05T08:44:13.000Z</time>
      </trkpt>
      <trkpt lat="47.24992" lon="-2.3005">
        <ele>31.39999961853</ele>
        <time>2020-01-05T08:44:15.000Z</time>
      </trkpt>
      <trkpt lat="47.25001" lon="-2.30049">
        <ele>31.39999961853</ele>
        <time>2020-01-05T08:44:17.000Z</time>
      </trkpt>
      <trkpt lat="47.25013" lon="-2.30049">
        <ele>31.39999961853</ele>
        <time>2020-01-05T08:44:20.000Z</time>
      </trkpt>
      <trkpt lat="47.25043" lon="-2.30051">
        <ele>31.39999961853</ele>
        <time>2020-01-05T08:44:27.000Z</time>
      </trkpt>
      <trkpt lat="47.25048" lon="-2.30052">
        <ele>31.39999961853</ele>
        <time>2020-01-05T08:44:28.000Z</time>
      </trkpt>
      <trkpt lat="47.25055" lon="-2.30053">
        <ele>31.39999961853</ele>
        <time>2020-01-05T08:44:31.000Z</time>
      </trkpt>
      <trkpt lat="47.25064" lon="-2.30054">
        <ele>31.39999961853</ele>
        <time>2020-01-05T08:44:38.000Z</time>
      </trkpt>
      <trkpt lat="47.25068" lon="-2.30055">
        <ele>31</ele>
        <time>2020-01-05T08:44:40.000Z</time>
      </trkpt>
      <trkpt lat="47.25071" lon="-2.30058">
        <ele>30.60000038147</ele>
        <time>2020-01-05T08:44:41.000Z</time>
      </trkpt>
      <trkpt lat="47.25072" lon="-2.30062">
        <ele>30.200000762939</ele>
        <time>2020-01-05T08:44:42.000Z</time>
      </trkpt>
      <trkpt lat="47.25072" lon="-2.30066">
        <ele>29.799999237061</ele>
        <time>2020-01-05T08:44:43.000Z</time>
      </trkpt>
      <trkpt lat="47.25071" lon="-2.30071">
        <ele>29.39999961853</ele>
        <time>2020-01-05T08:44:44.000Z</time>
      </trkpt>
      <trkpt lat="47.25071" lon="-2.30077">
        <ele>29.39999961853</ele>
        <time>2020-01-05T08:44:45.000Z</time>
      </trkpt>
      <trkpt lat="47.2507" lon="-2.30088">
        <ele>29.39999961853</ele>
        <time>2020-01-05T08:44:47.000Z</time>
      </trkpt>
      <trkpt lat="47.25068" lon="-2.30115">
        <ele>29.39999961853</ele>
        <time>2020-01-05T08:44:53.000Z</time>
      </trkpt>
      <trkpt lat="47.25069" lon="-2.30133">
        <ele>29.39999961853</ele>
        <time>2020-01-05T08:44:57.000Z</time>
      </trkpt>
      <trkpt lat="47.25072" lon="-2.30134">
        <ele>29.39999961853</ele>
        <time>2020-01-05T08:44:58.000Z</time>
      </trkpt>
      <trkpt lat="47.25088" lon="-2.30134">
        <ele>29.39999961853</ele>
        <time>2020-01-05T08:45:02.000Z</time>
      </trkpt>
      <trkpt lat="47.25104" lon="-2.30132">
        <ele>29.39999961853</ele>
        <time>2020-01-05T08:45:05.000Z</time>
      </trkpt>
      <trkpt lat="47.25115" lon="-2.30131">
        <ele>29.39999961853</ele>
        <time>2020-01-05T08:45:07.000Z</time>
      </trkpt>
      <trkpt lat="47.25126" lon="-2.30129">
        <ele>29.39999961853</ele>
        <time>2020-01-05T08:45:09.000Z</time>
      </trkpt>
      <trkpt lat="47.25138" lon="-2.30128">
        <ele>29.39999961853</ele>
        <time>2020-01-05T08:45:11.000Z</time>
      </trkpt>
      <trkpt lat="47.25144" lon="-2.30126">
        <ele>29.39999961853</ele>
        <time>2020-01-05T08:45:12.000Z</time>
      </trkpt>
      <trkpt lat="47.25174" lon="-2.30118">
        <ele>29.39999961853</ele>
        <time>2020-01-05T08:45:17.000Z</time>
      </trkpt>
      <trkpt lat="47.25179" lon="-2.30119">
        <ele>29.39999961853</ele>
        <time>2020-01-05T08:45:18.000Z</time>
      </trkpt>
      <trkpt lat="47.25183" lon="-2.30122">
        <ele>28.799999237061</ele>
        <time>2020-01-05T08:45:19.000Z</time>
      </trkpt>
      <trkpt lat="47.25186" lon="-2.30128">
        <ele>28.39999961853</ele>
        <time>2020-01-05T08:45:20.000Z</time>
      </trkpt>
      <trkpt lat="47.25189" lon="-2.30135">
        <ele>28</ele>
        <time>2020-01-05T08:45:21.000Z</time>
      </trkpt>
      <trkpt lat="47.25192" lon="-2.30141">
        <ele>27.60000038147</ele>
        <time>2020-01-05T08:45:22.000Z</time>
      </trkpt>
      <trkpt lat="47.25196" lon="-2.30146">
        <ele>27.200000762939</ele>
        <time>2020-01-05T08:45:23.000Z</time>
      </trkpt>
      <trkpt lat="47.25205" lon="-2.30156">
        <ele>27.200000762939</ele>
        <time>2020-01-05T08:45:25.000Z</time>
      </trkpt>
      <trkpt lat="47.2522" lon="-2.30171">
        <ele>27.200000762939</ele>
        <time>2020-01-05T08:45:28.000Z</time>
      </trkpt>
      <trkpt lat="47.25231" lon="-2.30175">
        <ele>26.799999237061</ele>
        <time>2020-01-05T08:45:30.000Z</time>
      </trkpt>
      <trkpt lat="47.25236" lon="-2.30176">
        <ele>26.39999961853</ele>
        <time>2020-01-05T08:45:31.000Z</time>
      </trkpt>
      <trkpt lat="47.2524" lon="-2.30178">
        <ele>26</ele>
        <time>2020-01-05T08:45:32.000Z</time>
      </trkpt>
      <trkpt lat="47.25245" lon="-2.3018">
        <ele>25.60000038147</ele>
        <time>2020-01-05T08:45:33.000Z</time>
      </trkpt>
      <trkpt lat="47.25249" lon="-2.30182">
        <ele>25</ele>
        <time>2020-01-05T08:45:34.000Z</time>
      </trkpt>
      <trkpt lat="47.25254" lon="-2.30184">
        <ele>25</ele>
        <time>2020-01-05T08:45:35.000Z</time>
      </trkpt>
      <trkpt lat="47.25281" lon="-2.30198">
        <ele>25</ele>
        <time>2020-01-05T08:45:40.000Z</time>
      </trkpt>
      <trkpt lat="47.25285" lon="-2.302">
        <ele>24.60000038147</ele>
        <time>2020-01-05T08:45:41.000Z</time>
      </trkpt>
      <trkpt lat="47.25289" lon="-2.30201">
        <ele>24.200000762939</ele>
        <time>2020-01-05T08:45:42.000Z</time>
      </trkpt>
      <trkpt lat="47.25292" lon="-2.30203">
        <ele>23.799999237061</ele>
        <time>2020-01-05T08:45:43.000Z</time>
      </trkpt>
      <trkpt lat="47.25295" lon="-2.30205">
        <ele>23.39999961853</ele>
        <time>2020-01-05T08:45:44.000Z</time>
      </trkpt>
      <trkpt lat="47.25297" lon="-2.30207">
        <ele>23</ele>
        <time>2020-01-05T08:45:45.000Z</time>
      </trkpt>
      <trkpt lat="47.253" lon="-2.30208">
        <ele>23</ele>
        <time>2020-01-05T08:45:46.000Z</time>
      </trkpt>
      <trkpt lat="47.25304" lon="-2.3021">
        <ele>23</ele>
        <time>2020-01-05T08:45:48.000Z</time>
      </trkpt>
      <trkpt lat="47.25306" lon="-2.30209">
        <ele>23</ele>
        <time>2020-01-05T08:45:49.000Z</time>
      </trkpt>
      <trkpt lat="47.25308" lon="-2.30205">
        <ele>23</ele>
        <time>2020-01-05T08:45:51.000Z</time>
      </trkpt>
      <trkpt lat="47.25318" lon="-2.30206">
        <ele>23</ele>
        <time>2020-01-05T08:45:54.000Z</time>
      </trkpt>
      <trkpt lat="47.25346" lon="-2.30209">
        <ele>23</ele>
        <time>2020-01-05T08:46:00.000Z</time>
      </trkpt>
      <trkpt lat="47.25356" lon="-2.30209">
        <ele>22.60000038147</ele>
        <time>2020-01-05T08:46:02.000Z</time>
      </trkpt>
      <trkpt lat="47.2536" lon="-2.30209">
        <ele>22.200000762939</ele>
        <time>2020-01-05T08:46:03.000Z</time>
      </trkpt>
      <trkpt lat="47.25365" lon="-2.30209">
        <ele>21.799999237061</ele>
        <time>2020-01-05T08:46:04.000Z</time>
      </trkpt>
      <trkpt lat="47.2537" lon="-2.3021">
        <ele>21.39999961853</ele>
        <time>2020-01-05T08:46:05.000Z</time>
      </trkpt>
      <trkpt lat="47.25374" lon="-2.3021">
        <ele>21</ele>
        <time>2020-01-05T08:46:06.000Z</time>
      </trkpt>
      <trkpt lat="47.25378" lon="-2.30212">
        <ele>21</ele>
        <time>2020-01-05T08:46:07.000Z</time>
      </trkpt>
      <trkpt lat="47.25394" lon="-2.30217">
        <ele>21</ele>
        <time>2020-01-05T08:46:11.000Z</time>
      </trkpt>
      <trkpt lat="47.25414" lon="-2.30227">
        <ele>21</ele>
        <time>2020-01-05T08:46:16.000Z</time>
      </trkpt>
      <trkpt lat="47.25418" lon="-2.30227">
        <ele>21</ele>
        <time>2020-01-05T08:46:17.000Z</time>
      </trkpt>
      <trkpt lat="47.25433" lon="-2.30233">
        <ele>21</ele>
        <time>2020-01-05T08:46:21.000Z</time>
      </trkpt>
      <trkpt lat="47.25444" lon="-2.30237">
        <ele>20.60000038147</ele>
        <time>2020-01-05T08:46:24.000Z</time>
      </trkpt>
      <trkpt lat="47.25448" lon="-2.30238">
        <ele>20.200000762939</ele>
        <time>2020-01-05T08:46:25.000Z</time>
      </trkpt>
      <trkpt lat="47.25452" lon="-2.30239">
        <ele>19.799999237061</ele>
        <time>2020-01-05T08:46:26.000Z</time>
      </trkpt>
      <trkpt lat="47.25456" lon="-2.3024">
        <ele>19.39999961853</ele>
        <time>2020-01-05T08:46:27.000Z</time>
      </trkpt>
      <trkpt lat="47.25458" lon="-2.30242">
        <ele>19</ele>
        <time>2020-01-05T08:46:28.000Z</time>
      </trkpt>
      <trkpt lat="47.25463" lon="-2.30246">
        <ele>19</ele>
        <time>2020-01-05T08:46:30.000Z</time>
      </trkpt>
      <trkpt lat="47.25467" lon="-2.30246">
        <ele>19</ele>
        <time>2020-01-05T08:46:32.000Z</time>
      </trkpt>
      <trkpt lat="47.25469" lon="-2.30246">
        <ele>19</ele>
        <time>2020-01-05T08:46:34.000Z</time>
      </trkpt>
      <trkpt lat="47.2547" lon="-2.30242">
        <ele>19</ele>
        <time>2020-01-05T08:46:36.000Z</time>
      </trkpt>
      <trkpt lat="47.25472" lon="-2.30234">
        <ele>19</ele>
        <time>2020-01-05T08:46:38.000Z</time>
      </trkpt>
      <trkpt lat="47.25484" lon="-2.30209">
        <ele>19</ele>
        <time>2020-01-05T08:46:43.000Z</time>
      </trkpt>
      <trkpt lat="47.25495" lon="-2.30199">
        <ele>19</ele>
        <time>2020-01-05T08:46:46.000Z</time>
      </trkpt>
      <trkpt lat="47.25499" lon="-2.30198">
        <ele>19</ele>
        <time>2020-01-05T08:46:47.000Z</time>
      </trkpt>
      <trkpt lat="47.25503" lon="-2.30198">
        <ele>18.60000038147</ele>
        <time>2020-01-05T08:46:48.000Z</time>
      </trkpt>
      <trkpt lat="47.25507" lon="-2.30198">
        <ele>18.200000762939</ele>
        <time>2020-01-05T08:46:49.000Z</time>
      </trkpt>
      <trkpt lat="47.25511" lon="-2.30199">
        <ele>17.799999237061</ele>
        <time>2020-01-05T08:46:50.000Z</time>
      </trkpt>
      <trkpt lat="47.25515" lon="-2.302">
        <ele>17.39999961853</ele>
        <time>2020-01-05T08:46:51.000Z</time>
      </trkpt>
      <trkpt lat="47.2552" lon="-2.30199">
        <ele>17</ele>
        <time>2020-01-05T08:46:52.000Z</time>
      </trkpt>
      <trkpt lat="47.25524" lon="-2.30197">
        <ele>17</ele>
        <time>2020-01-05T08:46:53.000Z</time>
      </trkpt>
      <trkpt lat="47.25544" lon="-2.30188">
        <ele>17</ele>
        <time>2020-01-05T08:46:57.000Z</time>
      </trkpt>
      <trkpt lat="47.25551" lon="-2.30186">
        <ele>17</ele>
        <time>2020-01-05T08:46:58.000Z</time>
      </trkpt>
      <trkpt lat="47.2557" lon="-2.30187">
        <ele>17</ele>
        <time>2020-01-05T08:47:01.000Z</time>
      </trkpt>
      <trkpt lat="47.2558" lon="-2.30194">
        <ele>17</ele>
        <time>2020-01-05T08:47:03.000Z</time>
      </trkpt>
      <trkpt lat="47.25592" lon="-2.30202">
        <ele>17</ele>
        <time>2020-01-05T08:47:05.000Z</time>
      </trkpt>
      <trkpt lat="47.25597" lon="-2.30208">
        <ele>17</ele>
        <time>2020-01-05T08:47:06.000Z</time>
      </trkpt>
      <trkpt lat="47.25611" lon="-2.30229">
        <ele>17</ele>
        <time>2020-01-05T08:47:09.000Z</time>
      </trkpt>
      <trkpt lat="47.25615" lon="-2.30237">
        <ele>17</ele>
        <time>2020-01-05T08:47:10.000Z</time>
      </trkpt>
      <trkpt lat="47.25618" lon="-2.30246">
        <ele>17</ele>
        <time>2020-01-05T08:47:11.000Z</time>
      </trkpt>
      <trkpt lat="47.25624" lon="-2.30272">
        <ele>17</ele>
        <time>2020-01-05T08:47:14.000Z</time>
      </trkpt>
      <trkpt lat="47.25629" lon="-2.30309">
        <ele>17</ele>
        <time>2020-01-05T08:47:18.000Z</time>
      </trkpt>
      <trkpt lat="47.25632" lon="-2.30333">
        <ele>17</ele>
        <time>2020-01-05T08:47:21.000Z</time>
      </trkpt>
      <trkpt lat="47.25633" lon="-2.30338">
        <ele>17</ele>
        <time>2020-01-05T08:47:22.000Z</time>
      </trkpt>
      <trkpt lat="47.25636" lon="-2.3034">
        <ele>16.60000038147</ele>
        <time>2020-01-05T08:47:23.000Z</time>
      </trkpt>
      <trkpt lat="47.25638" lon="-2.3034">
        <ele>16.200000762939</ele>
        <time>2020-01-05T08:47:24.000Z</time>
      </trkpt>
      <trkpt lat="47.2564" lon="-2.30338">
        <ele>15.800000190735</ele>
        <time>2020-01-05T08:47:25.000Z</time>
      </trkpt>
      <trkpt lat="47.25643" lon="-2.30334">
        <ele>15.39999961853</ele>
        <time>2020-01-05T08:47:26.000Z</time>
      </trkpt>
      <trkpt lat="47.25646" lon="-2.3033">
        <ele>15</ele>
        <time>2020-01-05T08:47:27.000Z</time>
      </trkpt>
      <trkpt lat="47.25649" lon="-2.30326">
        <ele>15</ele>
        <time>2020-01-05T08:47:28.000Z</time>
      </trkpt>
      <trkpt lat="47.25651" lon="-2.30321">
        <ele>15</ele>
        <time>2020-01-05T08:47:29.000Z</time>
      </trkpt>
      <trkpt lat="47.25658" lon="-2.30298">
        <ele>15</ele>
        <time>2020-01-05T08:47:33.000Z</time>
      </trkpt>
      <trkpt lat="47.25659" lon="-2.30293">
        <ele>15</ele>
        <time>2020-01-05T08:47:34.000Z</time>
      </trkpt>
      <trkpt lat="47.25667" lon="-2.3027">
        <ele>15</ele>
        <time>2020-01-05T08:47:38.000Z</time>
      </trkpt>
      <trkpt lat="47.25686" lon="-2.30242">
        <ele>15</ele>
        <time>2020-01-05T08:47:43.000Z</time>
      </trkpt>
      <trkpt lat="47.25688" lon="-2.30235">
        <ele>15</ele>
        <time>2020-01-05T08:47:44.000Z</time>
      </trkpt>
      <trkpt lat="47.25696" lon="-2.30221">
        <ele>15</ele>
        <time>2020-01-05T08:47:46.000Z</time>
      </trkpt>
      <trkpt lat="47.25705" lon="-2.3021">
        <ele>15</ele>
        <time>2020-01-05T08:47:48.000Z</time>
      </trkpt>
      <trkpt lat="47.25722" lon="-2.30204">
        <ele>15</ele>
        <time>2020-01-05T08:47:51.000Z</time>
      </trkpt>
      <trkpt lat="47.25746" lon="-2.30212">
        <ele>15</ele>
        <time>2020-01-05T08:47:55.000Z</time>
      </trkpt>
      <trkpt lat="47.25763" lon="-2.30222">
        <ele>14.39999961853</ele>
        <time>2020-01-05T08:47:58.000Z</time>
      </trkpt>
      <trkpt lat="47.25769" lon="-2.30226">
        <ele>14</ele>
        <time>2020-01-05T08:47:59.000Z</time>
      </trkpt>
      <trkpt lat="47.25775" lon="-2.30229">
        <ele>13.60000038147</ele>
        <time>2020-01-05T08:48:00.000Z</time>
      </trkpt>
      <trkpt lat="47.25781" lon="-2.30233">
        <ele>13.199999809265</ele>
        <time>2020-01-05T08:48:01.000Z</time>
      </trkpt>
      <trkpt lat="47.25788" lon="-2.30236">
        <ele>12.800000190735</ele>
        <time>2020-01-05T08:48:02.000Z</time>
      </trkpt>
      <trkpt lat="47.25813" lon="-2.30249">
        <ele>12.800000190735</ele>
        <time>2020-01-05T08:48:06.000Z</time>
      </trkpt>
      <trkpt lat="47.25831" lon="-2.3026">
        <ele>12.800000190735</ele>
        <time>2020-01-05T08:48:09.000Z</time>
      </trkpt>
      <trkpt lat="47.25849" lon="-2.30267">
        <ele>12.800000190735</ele>
        <time>2020-01-05T08:48:12.000Z</time>
      </trkpt>
      <trkpt lat="47.25871" lon="-2.30274">
        <ele>12.800000190735</ele>
        <time>2020-01-05T08:48:16.000Z</time>
      </trkpt>
      <trkpt lat="47.25876" lon="-2.30271">
        <ele>12.800000190735</ele>
        <time>2020-01-05T08:48:17.000Z</time>
      </trkpt>
      <trkpt lat="47.2589" lon="-2.30247">
        <ele>12.800000190735</ele>
        <time>2020-01-05T08:48:21.000Z</time>
      </trkpt>
      <trkpt lat="47.25892" lon="-2.3022">
        <ele>12.800000190735</ele>
        <time>2020-01-05T08:48:24.000Z</time>
      </trkpt>
      <trkpt lat="47.25891" lon="-2.30212">
        <ele>12.800000190735</ele>
        <time>2020-01-05T08:48:25.000Z</time>
      </trkpt>
      <trkpt lat="47.25889" lon="-2.30189">
        <ele>12.800000190735</ele>
        <time>2020-01-05T08:48:28.000Z</time>
      </trkpt>
      <trkpt lat="47.25891" lon="-2.30182">
        <ele>12.800000190735</ele>
        <time>2020-01-05T08:48:29.000Z</time>
      </trkpt>
      <trkpt lat="47.25904" lon="-2.30171">
        <ele>12.800000190735</ele>
        <time>2020-01-05T08:48:32.000Z</time>
      </trkpt>
      <trkpt lat="47.25915" lon="-2.30168">
        <ele>12.800000190735</ele>
        <time>2020-01-05T08:48:34.000Z</time>
      </trkpt>
      <trkpt lat="47.25933" lon="-2.30166">
        <ele>12.800000190735</ele>
        <time>2020-01-05T08:48:37.000Z</time>
      </trkpt>
      <trkpt lat="47.25958" lon="-2.30157">
        <ele>11.800000190735</ele>
        <time>2020-01-05T08:48:41.000Z</time>
      </trkpt>
      <trkpt lat="47.25964" lon="-2.30152">
        <ele>11.39999961853</ele>
        <time>2020-01-05T08:48:42.000Z</time>
      </trkpt>
      <trkpt lat="47.25968" lon="-2.30147">
        <ele>11</ele>
        <time>2020-01-05T08:48:43.000Z</time>
      </trkpt>
      <trkpt lat="47.25971" lon="-2.30142">
        <ele>10.60000038147</ele>
        <time>2020-01-05T08:48:44.000Z</time>
      </trkpt>
      <trkpt lat="47.25974" lon="-2.30139">
        <ele>10.60000038147</ele>
        <time>2020-01-05T08:48:45.000Z</time>
      </trkpt>
      <trkpt lat="47.25981" lon="-2.30134">
        <ele>10.60000038147</ele>
        <time>2020-01-05T08:48:48.000Z</time>
      </trkpt>
      <trkpt lat="47.25983" lon="-2.30133">
        <ele>10.60000038147</ele>
        <time>2020-01-05T08:48:49.000Z</time>
      </trkpt>
      <trkpt lat="47.25987" lon="-2.30133">
        <ele>10.60000038147</ele>
        <time>2020-01-05T08:48:51.000Z</time>
      </trkpt>
      <trkpt lat="47.25996" lon="-2.30131">
        <ele>10.60000038147</ele>
        <time>2020-01-05T08:48:55.000Z</time>
      </trkpt>
      <trkpt lat="47.26006" lon="-2.30127">
        <ele>10.60000038147</ele>
        <time>2020-01-05T08:48:59.000Z</time>
      </trkpt>
      <trkpt lat="47.26013" lon="-2.30129">
        <ele>10.60000038147</ele>
        <time>2020-01-05T08:49:02.000Z</time>
      </trkpt>
      <trkpt lat="47.26022" lon="-2.30132">
        <ele>10.60000038147</ele>
        <time>2020-01-05T08:49:05.000Z</time>
      </trkpt>
      <trkpt lat="47.26033" lon="-2.30134">
        <ele>11</ele>
        <time>2020-01-05T08:49:08.000Z</time>
      </trkpt>
      <trkpt lat="47.26036" lon="-2.30134">
        <ele>11.39999961853</ele>
        <time>2020-01-05T08:49:09.000Z</time>
      </trkpt>
      <trkpt lat="47.26039" lon="-2.30133">
        <ele>11.800000190735</ele>
        <time>2020-01-05T08:49:10.000Z</time>
      </trkpt>
      <trkpt lat="47.26042" lon="-2.30132">
        <ele>12.199999809265</ele>
        <time>2020-01-05T08:49:11.000Z</time>
      </trkpt>
      <trkpt lat="47.26045" lon="-2.30131">
        <ele>12.60000038147</ele>
        <time>2020-01-05T08:49:12.000Z</time>
      </trkpt>
      <trkpt lat="47.26052" lon="-2.30132">
        <ele>12.60000038147</ele>
        <time>2020-01-05T08:49:14.000Z</time>
      </trkpt>
      <trkpt lat="47.26054" lon="-2.30136">
        <ele>12.60000038147</ele>
        <time>2020-01-05T08:49:15.000Z</time>
      </trkpt>
      <trkpt lat="47.26058" lon="-2.30141">
        <ele>12.60000038147</ele>
        <time>2020-01-05T08:49:17.000Z</time>
      </trkpt>
      <trkpt lat="47.26063" lon="-2.30146">
        <ele>12.60000038147</ele>
        <time>2020-01-05T08:49:19.000Z</time>
      </trkpt>
      <trkpt lat="47.26072" lon="-2.30147">
        <ele>13</ele>
        <time>2020-01-05T08:49:22.000Z</time>
      </trkpt>
      <trkpt lat="47.26074" lon="-2.30146">
        <ele>13.39999961853</ele>
        <time>2020-01-05T08:49:23.000Z</time>
      </trkpt>
      <trkpt lat="47.26076" lon="-2.30146">
        <ele>13.800000190735</ele>
        <time>2020-01-05T08:49:24.000Z</time>
      </trkpt>
      <trkpt lat="47.26079" lon="-2.30146">
        <ele>14.199999809265</ele>
        <time>2020-01-05T08:49:25.000Z</time>
      </trkpt>
      <trkpt lat="47.26081" lon="-2.30146">
        <ele>14.60000038147</ele>
        <time>2020-01-05T08:49:26.000Z</time>
      </trkpt>
      <trkpt lat="47.26083" lon="-2.30146">
        <ele>14.60000038147</ele>
        <time>2020-01-05T08:49:27.000Z</time>
      </trkpt>
      <trkpt lat="47.26088" lon="-2.30148">
        <ele>14.60000038147</ele>
        <time>2020-01-05T08:49:30.000Z</time>
      </trkpt>
      <trkpt lat="47.26089" lon="-2.3015">
        <ele>14.60000038147</ele>
        <time>2020-01-05T08:49:31.000Z</time>
      </trkpt>
      <trkpt lat="47.2609" lon="-2.30152">
        <ele>14.60000038147</ele>
        <time>2020-01-05T08:49:32.000Z</time>
      </trkpt>
      <trkpt lat="47.26092" lon="-2.30154">
        <ele>14.60000038147</ele>
        <time>2020-01-05T08:49:33.000Z</time>
      </trkpt>
      <trkpt lat="47.26097" lon="-2.30159">
        <ele>14.60000038147</ele>
        <time>2020-01-05T08:49:36.000Z</time>
      </trkpt>
      <trkpt lat="47.26102" lon="-2.30158">
        <ele>14.60000038147</ele>
        <time>2020-01-05T08:49:38.000Z</time>
      </trkpt>
      <trkpt lat="47.26105" lon="-2.30157">
        <ele>15</ele>
        <time>2020-01-05T08:49:39.000Z</time>
      </trkpt>
      <trkpt lat="47.26108" lon="-2.30155">
        <ele>15.60000038147</ele>
        <time>2020-01-05T08:49:40.000Z</time>
      </trkpt>
      <trkpt lat="47.26112" lon="-2.30154">
        <ele>16</ele>
        <time>2020-01-05T08:49:41.000Z</time>
      </trkpt>
      <trkpt lat="47.26115" lon="-2.30153">
        <ele>16.39999961853</ele>
        <time>2020-01-05T08:49:42.000Z</time>
      </trkpt>
      <trkpt lat="47.26118" lon="-2.30152">
        <ele>16.799999237061</ele>
        <time>2020-01-05T08:49:43.000Z</time>
      </trkpt>
      <trkpt lat="47.26133" lon="-2.30153">
        <ele>16.799999237061</ele>
        <time>2020-01-05T08:49:47.000Z</time>
      </trkpt>
      <trkpt lat="47.26149" lon="-2.30148">
        <ele>17.200000762939</ele>
        <time>2020-01-05T08:49:53.000Z</time>
      </trkpt>
      <trkpt lat="47.26151" lon="-2.30148">
        <ele>18</ele>
        <time>2020-01-05T08:49:54.000Z</time>
      </trkpt>
      <trkpt lat="47.26153" lon="-2.30148">
        <ele>18.39999961853</ele>
        <time>2020-01-05T08:49:55.000Z</time>
      </trkpt>
      <trkpt lat="47.26155" lon="-2.30148">
        <ele>18.799999237061</ele>
        <time>2020-01-05T08:49:56.000Z</time>
      </trkpt>
      <trkpt lat="47.26169" lon="-2.30145">
        <ele>18.799999237061</ele>
        <time>2020-01-05T08:50:03.000Z</time>
      </trkpt>
      <trkpt lat="47.26176" lon="-2.30153">
        <ele>18.799999237061</ele>
        <time>2020-01-05T08:50:07.000Z</time>
      </trkpt>
      <trkpt lat="47.26179" lon="-2.30152">
        <ele>18.799999237061</ele>
        <time>2020-01-05T08:50:08.000Z</time>
      </trkpt>
      <trkpt lat="47.26189" lon="-2.30148">
        <ele>19.39999961853</ele>
        <time>2020-01-05T08:50:11.000Z</time>
      </trkpt>
      <trkpt lat="47.26193" lon="-2.30147">
        <ele>19.799999237061</ele>
        <time>2020-01-05T08:50:12.000Z</time>
      </trkpt>
      <trkpt lat="47.26196" lon="-2.30146">
        <ele>20.200000762939</ele>
        <time>2020-01-05T08:50:13.000Z</time>
      </trkpt>
      <trkpt lat="47.262" lon="-2.30144">
        <ele>20.60000038147</ele>
        <time>2020-01-05T08:50:14.000Z</time>
      </trkpt>
      <trkpt lat="47.26203" lon="-2.30143">
        <ele>21</ele>
        <time>2020-01-05T08:50:15.000Z</time>
      </trkpt>
      <trkpt lat="47.26218" lon="-2.30138">
        <ele>21</ele>
        <time>2020-01-05T08:50:19.000Z</time>
      </trkpt>
      <trkpt lat="47.26243" lon="-2.3013">
        <ele>21</ele>
        <time>2020-01-05T08:50:27.000Z</time>
      </trkpt>
      <trkpt lat="47.26246" lon="-2.30131">
        <ele>21</ele>
        <time>2020-01-05T08:50:28.000Z</time>
      </trkpt>
      <trkpt lat="47.2625" lon="-2.30138">
        <ele>21.39999961853</ele>
        <time>2020-01-05T08:50:30.000Z</time>
      </trkpt>
      <trkpt lat="47.26251" lon="-2.30143">
        <ele>21.799999237061</ele>
        <time>2020-01-05T08:50:31.000Z</time>
      </trkpt>
      <trkpt lat="47.26253" lon="-2.30148">
        <ele>22.39999961853</ele>
        <time>2020-01-05T08:50:32.000Z</time>
      </trkpt>
      <trkpt lat="47.26255" lon="-2.30153">
        <ele>22.799999237061</ele>
        <time>2020-01-05T08:50:33.000Z</time>
      </trkpt>
      <trkpt lat="47.26257" lon="-2.30159">
        <ele>23.200000762939</ele>
        <time>2020-01-05T08:50:34.000Z</time>
      </trkpt>
      <trkpt lat="47.2626" lon="-2.30165">
        <ele>23.200000762939</ele>
        <time>2020-01-05T08:50:35.000Z</time>
      </trkpt>
      <trkpt lat="47.26266" lon="-2.30185">
        <ele>23.200000762939</ele>
        <time>2020-01-05T08:50:38.000Z</time>
      </trkpt>
      <trkpt lat="47.26267" lon="-2.302">
        <ele>23.200000762939</ele>
        <time>2020-01-05T08:50:40.000Z</time>
      </trkpt>
      <trkpt lat="47.26269" lon="-2.30208">
        <ele>23.200000762939</ele>
        <time>2020-01-05T08:50:41.000Z</time>
      </trkpt>
      <trkpt lat="47.26276" lon="-2.30239">
        <ele>23.200000762939</ele>
        <time>2020-01-05T08:50:45.000Z</time>
      </trkpt>
      <trkpt lat="47.26277" lon="-2.30246">
        <ele>23.200000762939</ele>
        <time>2020-01-05T08:50:46.000Z</time>
      </trkpt>
      <trkpt lat="47.26282" lon="-2.30278">
        <ele>23.200000762939</ele>
        <time>2020-01-05T08:50:50.000Z</time>
      </trkpt>
      <trkpt lat="47.26286" lon="-2.30292">
        <ele>22.60000038147</ele>
        <time>2020-01-05T08:50:52.000Z</time>
      </trkpt>
      <trkpt lat="47.26288" lon="-2.303">
        <ele>22.200000762939</ele>
        <time>2020-01-05T08:50:53.000Z</time>
      </trkpt>
      <trkpt lat="47.26291" lon="-2.30307">
        <ele>21.799999237061</ele>
        <time>2020-01-05T08:50:54.000Z</time>
      </trkpt>
      <trkpt lat="47.26294" lon="-2.30314">
        <ele>21.39999961853</ele>
        <time>2020-01-05T08:50:55.000Z</time>
      </trkpt>
      <trkpt lat="47.26297" lon="-2.3032">
        <ele>21</ele>
        <time>2020-01-05T08:50:56.000Z</time>
      </trkpt>
      <trkpt lat="47.26299" lon="-2.30327">
        <ele>21</ele>
        <time>2020-01-05T08:50:57.000Z</time>
      </trkpt>
      <trkpt lat="47.26302" lon="-2.30341">
        <ele>21</ele>
        <time>2020-01-05T08:50:59.000Z</time>
      </trkpt>
      <trkpt lat="47.26304" lon="-2.30348">
        <ele>21</ele>
        <time>2020-01-05T08:51:00.000Z</time>
      </trkpt>
      <trkpt lat="47.26308" lon="-2.30379">
        <ele>21</ele>
        <time>2020-01-05T08:51:04.000Z</time>
      </trkpt>
      <trkpt lat="47.26317" lon="-2.30424">
        <ele>21</ele>
        <time>2020-01-05T08:51:10.000Z</time>
      </trkpt>
      <trkpt lat="47.26326" lon="-2.30469">
        <ele>21</ele>
        <time>2020-01-05T08:51:17.000Z</time>
      </trkpt>
      <trkpt lat="47.26327" lon="-2.30476">
        <ele>21</ele>
        <time>2020-01-05T08:51:18.000Z</time>
      </trkpt>
      <trkpt lat="47.26332" lon="-2.30498">
        <ele>21</ele>
        <time>2020-01-05T08:51:21.000Z</time>
      </trkpt>
      <trkpt lat="47.26337" lon="-2.30523">
        <ele>21</ele>
        <time>2020-01-05T08:51:25.000Z</time>
      </trkpt>
      <trkpt lat="47.26341" lon="-2.30542">
        <ele>21</ele>
        <time>2020-01-05T08:51:29.000Z</time>
      </trkpt>
      <trkpt lat="47.26343" lon="-2.30563">
        <ele>21</ele>
        <time>2020-01-05T08:51:34.000Z</time>
      </trkpt>
      <trkpt lat="47.26343" lon="-2.3057">
        <ele>21</ele>
        <time>2020-01-05T08:51:35.000Z</time>
      </trkpt>
      <trkpt lat="47.26349" lon="-2.3059">
        <ele>21</ele>
        <time>2020-01-05T08:51:38.000Z</time>
      </trkpt>
      <trkpt lat="47.26357" lon="-2.30608">
        <ele>21</ele>
        <time>2020-01-05T08:51:41.000Z</time>
      </trkpt>
      <trkpt lat="47.2636" lon="-2.30614">
        <ele>21</ele>
        <time>2020-01-05T08:51:42.000Z</time>
      </trkpt>
      <trkpt lat="47.26372" lon="-2.30637">
        <ele>20.60000038147</ele>
        <time>2020-01-05T08:51:46.000Z</time>
      </trkpt>
      <trkpt lat="47.26375" lon="-2.30641">
        <ele>20.200000762939</ele>
        <time>2020-01-05T08:51:47.000Z</time>
      </trkpt>
      <trkpt lat="47.26377" lon="-2.30645">
        <ele>19.799999237061</ele>
        <time>2020-01-05T08:51:48.000Z</time>
      </trkpt>
      <trkpt lat="47.26379" lon="-2.30649">
        <ele>19.39999961853</ele>
        <time>2020-01-05T08:51:49.000Z</time>
      </trkpt>
      <trkpt lat="47.26381" lon="-2.30651">
        <ele>19</ele>
        <time>2020-01-05T08:51:50.000Z</time>
      </trkpt>
      <trkpt lat="47.26386" lon="-2.30655">
        <ele>19</ele>
        <time>2020-01-05T08:51:52.000Z</time>
      </trkpt>
      <trkpt lat="47.26398" lon="-2.30666">
        <ele>19</ele>
        <time>2020-01-05T08:51:58.000Z</time>
      </trkpt>
      <trkpt lat="47.26409" lon="-2.30672">
        <ele>19</ele>
        <time>2020-01-05T08:52:03.000Z</time>
      </trkpt>
      <trkpt lat="47.2642" lon="-2.30689">
        <ele>19</ele>
        <time>2020-01-05T08:52:08.000Z</time>
      </trkpt>
      <trkpt lat="47.26431" lon="-2.30707">
        <ele>19</ele>
        <time>2020-01-05T08:52:13.000Z</time>
      </trkpt>
      <trkpt lat="47.26439" lon="-2.30726">
        <ele>19</ele>
        <time>2020-01-05T08:52:18.000Z</time>
      </trkpt>
      <trkpt lat="47.26441" lon="-2.3073">
        <ele>19</ele>
        <time>2020-01-05T08:52:20.000Z</time>
      </trkpt>
      <trkpt lat="47.26444" lon="-2.30738">
        <ele>19</ele>
        <time>2020-01-05T08:52:23.000Z</time>
      </trkpt>
      <trkpt lat="47.26448" lon="-2.3075">
        <ele>18.60000038147</ele>
        <time>2020-01-05T08:52:26.000Z</time>
      </trkpt>
      <trkpt lat="47.26449" lon="-2.30754">
        <ele>18.200000762939</ele>
        <time>2020-01-05T08:52:27.000Z</time>
      </trkpt>
      <trkpt lat="47.26451" lon="-2.30759">
        <ele>17.799999237061</ele>
        <time>2020-01-05T08:52:28.000Z</time>
      </trkpt>
      <trkpt lat="47.26453" lon="-2.30764">
        <ele>17.39999961853</ele>
        <time>2020-01-05T08:52:29.000Z</time>
      </trkpt>
      <trkpt lat="47.26455" lon="-2.30768">
        <ele>17</ele>
        <time>2020-01-05T08:52:30.000Z</time>
      </trkpt>
      <trkpt lat="47.26464" lon="-2.30793">
        <ele>17</ele>
        <time>2020-01-05T08:52:35.000Z</time>
      </trkpt>
      <trkpt lat="47.26473" lon="-2.30814">
        <ele>16.39999961853</ele>
        <time>2020-01-05T08:52:41.000Z</time>
      </trkpt>
      <trkpt lat="47.26474" lon="-2.30817">
        <ele>16</ele>
        <time>2020-01-05T08:52:42.000Z</time>
      </trkpt>
      <trkpt lat="47.26476" lon="-2.3082">
        <ele>15.60000038147</ele>
        <time>2020-01-05T08:52:43.000Z</time>
      </trkpt>
      <trkpt lat="47.26477" lon="-2.30824">
        <ele>15.199999809265</ele>
        <time>2020-01-05T08:52:44.000Z</time>
      </trkpt>
      <trkpt lat="47.26478" lon="-2.30829">
        <ele>14.800000190735</ele>
        <time>2020-01-05T08:52:45.000Z</time>
      </trkpt>
      <trkpt lat="47.26479" lon="-2.30833">
        <ele>14.800000190735</ele>
        <time>2020-01-05T08:52:46.000Z</time>
      </trkpt>
      <trkpt lat="47.26482" lon="-2.30846">
        <ele>14.800000190735</ele>
        <time>2020-01-05T08:52:50.000Z</time>
      </trkpt>
      <trkpt lat="47.26483" lon="-2.30849">
        <ele>14.800000190735</ele>
        <time>2020-01-05T08:52:51.000Z</time>
      </trkpt>
      <trkpt lat="47.26488" lon="-2.30856">
        <ele>14.39999961853</ele>
        <time>2020-01-05T08:52:53.000Z</time>
      </trkpt>
      <trkpt lat="47.26491" lon="-2.30859">
        <ele>14</ele>
        <time>2020-01-05T08:52:54.000Z</time>
      </trkpt>
      <trkpt lat="47.26494" lon="-2.30863">
        <ele>13.39999961853</ele>
        <time>2020-01-05T08:52:55.000Z</time>
      </trkpt>
      <trkpt lat="47.26497" lon="-2.30867">
        <ele>13</ele>
        <time>2020-01-05T08:52:56.000Z</time>
      </trkpt>
      <trkpt lat="47.265" lon="-2.3087">
        <ele>12.60000038147</ele>
        <time>2020-01-05T08:52:57.000Z</time>
      </trkpt>
      <trkpt lat="47.26502" lon="-2.30874">
        <ele>12.199999809265</ele>
        <time>2020-01-05T08:52:58.000Z</time>
      </trkpt>
      <trkpt lat="47.26505" lon="-2.30877">
        <ele>11.60000038147</ele>
        <time>2020-01-05T08:52:59.000Z</time>
      </trkpt>
      <trkpt lat="47.26506" lon="-2.30878">
        <ele>11.199999809265</ele>
        <time>2020-01-05T08:53:00.000Z</time>
      </trkpt>
      <trkpt lat="47.26507" lon="-2.30879">
        <ele>10.60000038147</ele>
        <time>2020-01-05T08:53:01.000Z</time>
      </trkpt>
      <trkpt lat="47.26515" lon="-2.30872">
        <ele>10.60000038147</ele>
        <time>2020-01-05T08:53:05.000Z</time>
      </trkpt>
      <trkpt lat="47.26519" lon="-2.30871">
        <ele>10.60000038147</ele>
        <time>2020-01-05T08:53:07.000Z</time>
      </trkpt>
      <trkpt lat="47.26522" lon="-2.30867">
        <ele>10.60000038147</ele>
        <time>2020-01-05T08:53:09.000Z</time>
      </trkpt>
      <trkpt lat="47.26524" lon="-2.30867">
        <ele>10.60000038147</ele>
        <time>2020-01-05T08:53:10.000Z</time>
      </trkpt>
      <trkpt lat="47.26531" lon="-2.30865">
        <ele>10.60000038147</ele>
        <time>2020-01-05T08:53:14.000Z</time>
      </trkpt>
      <trkpt lat="47.26538" lon="-2.30855">
        <ele>10.60000038147</ele>
        <time>2020-01-05T08:53:18.000Z</time>
      </trkpt>
      <trkpt lat="47.26548" lon="-2.30844">
        <ele>10.60000038147</ele>
        <time>2020-01-05T08:53:23.000Z</time>
      </trkpt>
      <trkpt lat="47.26553" lon="-2.30839">
        <ele>10.60000038147</ele>
        <time>2020-01-05T08:53:26.000Z</time>
      </trkpt>
      <trkpt lat="47.26555" lon="-2.30838">
        <ele>10.60000038147</ele>
        <time>2020-01-05T08:53:27.000Z</time>
      </trkpt>
      <trkpt lat="47.2656" lon="-2.30831">
        <ele>10.60000038147</ele>
        <time>2020-01-05T08:53:31.000Z</time>
      </trkpt>
      <trkpt lat="47.26562" lon="-2.30829">
        <ele>10.60000038147</ele>
        <time>2020-01-05T08:53:32.000Z</time>
      </trkpt>
      <trkpt lat="47.26572" lon="-2.3081">
        <ele>10.60000038147</ele>
        <time>2020-01-05T08:53:37.000Z</time>
      </trkpt>
      <trkpt lat="47.26575" lon="-2.30806">
        <ele>11</ele>
        <time>2020-01-05T08:53:38.000Z</time>
      </trkpt>
      <trkpt lat="47.26578" lon="-2.30803">
        <ele>11.60000038147</ele>
        <time>2020-01-05T08:53:39.000Z</time>
      </trkpt>
      <trkpt lat="47.26581" lon="-2.30799">
        <ele>12</ele>
        <time>2020-01-05T08:53:40.000Z</time>
      </trkpt>
      <trkpt lat="47.26584" lon="-2.30796">
        <ele>12.39999961853</ele>
        <time>2020-01-05T08:53:41.000Z</time>
      </trkpt>
      <trkpt lat="47.26588" lon="-2.30792">
        <ele>12.800000190735</ele>
        <time>2020-01-05T08:53:42.000Z</time>
      </trkpt>
      <trkpt lat="47.26591" lon="-2.30788">
        <ele>12.800000190735</ele>
        <time>2020-01-05T08:53:43.000Z</time>
      </trkpt>
      <trkpt lat="47.26605" lon="-2.30772">
        <ele>12.800000190735</ele>
        <time>2020-01-05T08:53:48.000Z</time>
      </trkpt>
      <trkpt lat="47.26615" lon="-2.30758">
        <ele>12.800000190735</ele>
        <time>2020-01-05T08:53:53.000Z</time>
      </trkpt>
      <trkpt lat="47.26617" lon="-2.30755">
        <ele>12.800000190735</ele>
        <time>2020-01-05T08:53:54.000Z</time>
      </trkpt>
      <trkpt lat="47.26625" lon="-2.3074">
        <ele>12.800000190735</ele>
        <time>2020-01-05T08:53:58.000Z</time>
      </trkpt>
      <trkpt lat="47.26627" lon="-2.30737">
        <ele>13.199999809265</ele>
        <time>2020-01-05T08:53:59.000Z</time>
      </trkpt>
      <trkpt lat="47.2663" lon="-2.30734">
        <ele>13.60000038147</ele>
        <time>2020-01-05T08:54:00.000Z</time>
      </trkpt>
      <trkpt lat="47.26632" lon="-2.30731">
        <ele>14.60000038147</ele>
        <time>2020-01-05T08:54:01.000Z</time>
      </trkpt>
      <trkpt lat="47.26635" lon="-2.30728">
        <ele>15</ele>
        <time>2020-01-05T08:54:02.000Z</time>
      </trkpt>
      <trkpt lat="47.26637" lon="-2.30725">
        <ele>15</ele>
        <time>2020-01-05T08:54:03.000Z</time>
      </trkpt>
      <trkpt lat="47.26643" lon="-2.30712">
        <ele>15</ele>
        <time>2020-01-05T08:54:07.000Z</time>
      </trkpt>
      <trkpt lat="47.2665" lon="-2.30695">
        <ele>15</ele>
        <time>2020-01-05T08:54:12.000Z</time>
      </trkpt>
      <trkpt lat="47.26652" lon="-2.30694">
        <ele>15</ele>
        <time>2020-01-05T08:54:13.000Z</time>
      </trkpt>
      <trkpt lat="47.26657" lon="-2.30695">
        <ele>15</ele>
        <time>2020-01-05T08:54:15.000Z</time>
      </trkpt>
      <trkpt lat="47.26668" lon="-2.30709">
        <ele>15</ele>
        <time>2020-01-05T08:54:20.000Z</time>
      </trkpt>
      <trkpt lat="47.26669" lon="-2.30714">
        <ele>15</ele>
        <time>2020-01-05T08:54:21.000Z</time>
      </trkpt>
      <trkpt lat="47.26675" lon="-2.30722">
        <ele>15</ele>
        <time>2020-01-05T08:54:23.000Z</time>
      </trkpt>
      <trkpt lat="47.2668" lon="-2.30732">
        <ele>15.39999961853</ele>
        <time>2020-01-05T08:54:25.000Z</time>
      </trkpt>
      <trkpt lat="47.26681" lon="-2.30737">
        <ele>16.200000762939</ele>
        <time>2020-01-05T08:54:26.000Z</time>
      </trkpt>
      <trkpt lat="47.26683" lon="-2.30742">
        <ele>16.60000038147</ele>
        <time>2020-01-05T08:54:27.000Z</time>
      </trkpt>
      <trkpt lat="47.26684" lon="-2.30748">
        <ele>17</ele>
        <time>2020-01-05T08:54:28.000Z</time>
      </trkpt>
      <trkpt lat="47.26694" lon="-2.30775">
        <ele>17</ele>
        <time>2020-01-05T08:54:33.000Z</time>
      </trkpt>
      <trkpt lat="47.26699" lon="-2.30785">
        <ele>17.60000038147</ele>
        <time>2020-01-05T08:54:35.000Z</time>
      </trkpt>
      <trkpt lat="47.26701" lon="-2.30789">
        <ele>18</ele>
        <time>2020-01-05T08:54:36.000Z</time>
      </trkpt>
      <trkpt lat="47.26703" lon="-2.30794">
        <ele>18.39999961853</ele>
        <time>2020-01-05T08:54:37.000Z</time>
      </trkpt>
      <trkpt lat="47.26705" lon="-2.30799">
        <ele>18.799999237061</ele>
        <time>2020-01-05T08:54:38.000Z</time>
      </trkpt>
      <trkpt lat="47.26707" lon="-2.30804">
        <ele>19.200000762939</ele>
        <time>2020-01-05T08:54:39.000Z</time>
      </trkpt>
      <trkpt lat="47.26717" lon="-2.30829">
        <ele>19.200000762939</ele>
        <time>2020-01-05T08:54:44.000Z</time>
      </trkpt>
      <trkpt lat="47.26722" lon="-2.3084">
        <ele>19.200000762939</ele>
        <time>2020-01-05T08:54:46.000Z</time>
      </trkpt>
      <trkpt lat="47.2673" lon="-2.30855">
        <ele>19.200000762939</ele>
        <time>2020-01-05T08:54:49.000Z</time>
      </trkpt>
      <trkpt lat="47.2674" lon="-2.30865">
        <ele>19.200000762939</ele>
        <time>2020-01-05T08:54:52.000Z</time>
      </trkpt>
      <trkpt lat="47.26745" lon="-2.30865">
        <ele>19.60000038147</ele>
        <time>2020-01-05T08:54:53.000Z</time>
      </trkpt>
      <trkpt lat="47.26749" lon="-2.30863">
        <ele>20</ele>
        <time>2020-01-05T08:54:54.000Z</time>
      </trkpt>
      <trkpt lat="47.26753" lon="-2.3086">
        <ele>20.39999961853</ele>
        <time>2020-01-05T08:54:55.000Z</time>
      </trkpt>
      <trkpt lat="47.26757" lon="-2.30856">
        <ele>20.799999237061</ele>
        <time>2020-01-05T08:54:56.000Z</time>
      </trkpt>
      <trkpt lat="47.26761" lon="-2.30854">
        <ele>21.200000762939</ele>
        <time>2020-01-05T08:54:57.000Z</time>
      </trkpt>
      <trkpt lat="47.26776" lon="-2.3084">
        <ele>21.200000762939</ele>
        <time>2020-01-05T08:55:01.000Z</time>
      </trkpt>
      <trkpt lat="47.26779" lon="-2.30837">
        <ele>21.200000762939</ele>
        <time>2020-01-05T08:55:02.000Z</time>
      </trkpt>
      <trkpt lat="47.26803" lon="-2.30808">
        <ele>21.200000762939</ele>
        <time>2020-01-05T08:55:09.000Z</time>
      </trkpt>
      <trkpt lat="47.26813" lon="-2.30797">
        <ele>21.200000762939</ele>
        <time>2020-01-05T08:55:12.000Z</time>
      </trkpt>
      <trkpt lat="47.26823" lon="-2.3079">
        <ele>21.200000762939</ele>
        <time>2020-01-05T08:55:15.000Z</time>
      </trkpt>
      <trkpt lat="47.26827" lon="-2.30789">
        <ele>21.200000762939</ele>
        <time>2020-01-05T08:55:17.000Z</time>
      </trkpt>
      <trkpt lat="47.26827" lon="-2.3079">
        <ele>21.200000762939</ele>
        <time>2020-01-05T08:55:18.000Z</time>
      </trkpt>
      <trkpt lat="47.26831" lon="-2.30796">
        <ele>21.200000762939</ele>
        <time>2020-01-05T08:55:46.000Z</time>
      </trkpt>
      <trkpt lat="47.26831" lon="-2.30811">
        <ele>21.200000762939</ele>
        <time>2020-01-05T08:55:50.000Z</time>
      </trkpt>
      <trkpt lat="47.26832" lon="-2.30828">
        <ele>21.200000762939</ele>
        <time>2020-01-05T08:55:53.000Z</time>
      </trkpt>
      <trkpt lat="47.26833" lon="-2.30843">
        <ele>21.200000762939</ele>
        <time>2020-01-05T08:55:55.000Z</time>
      </trkpt>
      <trkpt lat="47.26833" lon="-2.30866">
        <ele>21.200000762939</ele>
        <time>2020-01-05T08:55:58.000Z</time>
      </trkpt>
      <trkpt lat="47.26836" lon="-2.30891">
        <ele>21.200000762939</ele>
        <time>2020-01-05T08:56:01.000Z</time>
      </trkpt>
      <trkpt lat="47.26843" lon="-2.30934">
        <ele>21.200000762939</ele>
        <time>2020-01-05T08:56:06.000Z</time>
      </trkpt>
      <trkpt lat="47.2685" lon="-2.30987">
        <ele>21.200000762939</ele>
        <time>2020-01-05T08:56:13.000Z</time>
      </trkpt>
      <trkpt lat="47.26854" lon="-2.3103">
        <ele>21.200000762939</ele>
        <time>2020-01-05T08:56:19.000Z</time>
      </trkpt>
      <trkpt lat="47.26855" lon="-2.31072">
        <ele>21.200000762939</ele>
        <time>2020-01-05T08:56:25.000Z</time>
      </trkpt>
      <trkpt lat="47.26856" lon="-2.31085">
        <ele>21.200000762939</ele>
        <time>2020-01-05T08:56:27.000Z</time>
      </trkpt>
      <trkpt lat="47.26856" lon="-2.31099">
        <ele>21.200000762939</ele>
        <time>2020-01-05T08:56:29.000Z</time>
      </trkpt>
      <trkpt lat="47.26855" lon="-2.31138">
        <ele>21.200000762939</ele>
        <time>2020-01-05T08:56:34.000Z</time>
      </trkpt>
      <trkpt lat="47.26852" lon="-2.31203">
        <ele>21.200000762939</ele>
        <time>2020-01-05T08:56:42.000Z</time>
      </trkpt>
      <trkpt lat="47.26853" lon="-2.31212">
        <ele>21.200000762939</ele>
        <time>2020-01-05T08:56:43.000Z</time>
      </trkpt>
      <trkpt lat="47.26852" lon="-2.31237">
        <ele>21.200000762939</ele>
        <time>2020-01-05T08:56:46.000Z</time>
      </trkpt>
      <trkpt lat="47.26847" lon="-2.31287">
        <ele>21.200000762939</ele>
        <time>2020-01-05T08:56:52.000Z</time>
      </trkpt>
      <trkpt lat="47.26832" lon="-2.31345">
        <ele>21.200000762939</ele>
        <time>2020-01-05T08:56:59.000Z</time>
      </trkpt>
      <trkpt lat="47.2683" lon="-2.31354">
        <ele>21.200000762939</ele>
        <time>2020-01-05T08:57:00.000Z</time>
      </trkpt>
      <trkpt lat="47.26832" lon="-2.31383">
        <ele>21.200000762939</ele>
        <time>2020-01-05T08:57:03.000Z</time>
      </trkpt>
      <trkpt lat="47.26843" lon="-2.31414">
        <ele>21.200000762939</ele>
        <time>2020-01-05T08:57:07.000Z</time>
      </trkpt>
      <trkpt lat="47.26856" lon="-2.31457">
        <ele>21.200000762939</ele>
        <time>2020-01-05T08:57:12.000Z</time>
      </trkpt>
      <trkpt lat="47.26868" lon="-2.31517">
        <ele>21.200000762939</ele>
        <time>2020-01-05T08:57:18.000Z</time>
      </trkpt>
      <trkpt lat="47.26874" lon="-2.31558">
        <ele>20.799999237061</ele>
        <time>2020-01-05T08:57:22.000Z</time>
      </trkpt>
      <trkpt lat="47.26876" lon="-2.31569">
        <ele>20.39999961853</ele>
        <time>2020-01-05T08:57:23.000Z</time>
      </trkpt>
      <trkpt lat="47.26877" lon="-2.31581">
        <ele>20</ele>
        <time>2020-01-05T08:57:24.000Z</time>
      </trkpt>
      <trkpt lat="47.26879" lon="-2.31592">
        <ele>19.60000038147</ele>
        <time>2020-01-05T08:57:25.000Z</time>
      </trkpt>
      <trkpt lat="47.2688" lon="-2.31603">
        <ele>19</ele>
        <time>2020-01-05T08:57:26.000Z</time>
      </trkpt>
      <trkpt lat="47.26885" lon="-2.31637">
        <ele>18.60000038147</ele>
        <time>2020-01-05T08:57:29.000Z</time>
      </trkpt>
      <trkpt lat="47.26886" lon="-2.31649">
        <ele>18.200000762939</ele>
        <time>2020-01-05T08:57:30.000Z</time>
      </trkpt>
      <trkpt lat="47.26888" lon="-2.31661">
        <ele>17.799999237061</ele>
        <time>2020-01-05T08:57:31.000Z</time>
      </trkpt>
      <trkpt lat="47.26889" lon="-2.31673">
        <ele>17.39999961853</ele>
        <time>2020-01-05T08:57:32.000Z</time>
      </trkpt>
      <trkpt lat="47.26891" lon="-2.31685">
        <ele>17</ele>
        <time>2020-01-05T08:57:33.000Z</time>
      </trkpt>
      <trkpt lat="47.26893" lon="-2.31731">
        <ele>16.60000038147</ele>
        <time>2020-01-05T08:57:37.000Z</time>
      </trkpt>
      <trkpt lat="47.26891" lon="-2.31742">
        <ele>16.200000762939</ele>
        <time>2020-01-05T08:57:38.000Z</time>
      </trkpt>
      <trkpt lat="47.26888" lon="-2.31752">
        <ele>15.800000190735</ele>
        <time>2020-01-05T08:57:39.000Z</time>
      </trkpt>
      <trkpt lat="47.26884" lon="-2.31762">
        <ele>15.39999961853</ele>
        <time>2020-01-05T08:57:40.000Z</time>
      </trkpt>
      <trkpt lat="47.26879" lon="-2.3177">
        <ele>15</ele>
        <time>2020-01-05T08:57:41.000Z</time>
      </trkpt>
      <trkpt lat="47.26855" lon="-2.3179">
        <ele>15</ele>
        <time>2020-01-05T08:57:45.000Z</time>
      </trkpt>
      <trkpt lat="47.26849" lon="-2.31793">
        <ele>15</ele>
        <time>2020-01-05T08:57:46.000Z</time>
      </trkpt>
      <trkpt lat="47.26832" lon="-2.318">
        <ele>15</ele>
        <time>2020-01-05T08:57:50.000Z</time>
      </trkpt>
      <trkpt lat="47.26824" lon="-2.31804">
        <ele>15</ele>
        <time>2020-01-05T08:57:54.000Z</time>
      </trkpt>
      <trkpt lat="47.2682" lon="-2.31807">
        <ele>14.60000038147</ele>
        <time>2020-01-05T08:57:57.000Z</time>
      </trkpt>
      <trkpt lat="47.2682" lon="-2.3181">
        <ele>14.199999809265</ele>
        <time>2020-01-05T08:57:58.000Z</time>
      </trkpt>
      <trkpt lat="47.26819" lon="-2.31813">
        <ele>13.60000038147</ele>
        <time>2020-01-05T08:57:59.000Z</time>
      </trkpt>
      <trkpt lat="47.26819" lon="-2.31817">
        <ele>13.199999809265</ele>
        <time>2020-01-05T08:58:00.000Z</time>
      </trkpt>
      <trkpt lat="47.26821" lon="-2.31822">
        <ele>12.800000190735</ele>
        <time>2020-01-05T08:58:01.000Z</time>
      </trkpt>
      <trkpt lat="47.26824" lon="-2.31833">
        <ele>12.800000190735</ele>
        <time>2020-01-05T08:58:03.000Z</time>
      </trkpt>
      <trkpt lat="47.26826" lon="-2.31839">
        <ele>12.800000190735</ele>
        <time>2020-01-05T08:58:04.000Z</time>
      </trkpt>
      <trkpt lat="47.26828" lon="-2.31845">
        <ele>12.800000190735</ele>
        <time>2020-01-05T08:58:05.000Z</time>
      </trkpt>
      <trkpt lat="47.26836" lon="-2.31866">
        <ele>12.800000190735</ele>
        <time>2020-01-05T08:58:08.000Z</time>
      </trkpt>
      <trkpt lat="47.26848" lon="-2.31885">
        <ele>12.39999961853</ele>
        <time>2020-01-05T08:58:11.000Z</time>
      </trkpt>
      <trkpt lat="47.26853" lon="-2.31887">
        <ele>12</ele>
        <time>2020-01-05T08:58:12.000Z</time>
      </trkpt>
      <trkpt lat="47.26859" lon="-2.31888">
        <ele>11.39999961853</ele>
        <time>2020-01-05T08:58:13.000Z</time>
      </trkpt>
      <trkpt lat="47.26864" lon="-2.3189">
        <ele>11</ele>
        <time>2020-01-05T08:58:14.000Z</time>
      </trkpt>
      <trkpt lat="47.26869" lon="-2.31891">
        <ele>10.39999961853</ele>
        <time>2020-01-05T08:58:15.000Z</time>
      </trkpt>
      <trkpt lat="47.26874" lon="-2.31893">
        <ele>10.39999961853</ele>
        <time>2020-01-05T08:58:16.000Z</time>
      </trkpt>
      <trkpt lat="47.26887" lon="-2.31909">
        <ele>10.39999961853</ele>
        <time>2020-01-05T08:58:19.000Z</time>
      </trkpt>
      <trkpt lat="47.26891" lon="-2.31916">
        <ele>10</ele>
        <time>2020-01-05T08:58:20.000Z</time>
      </trkpt>
      <trkpt lat="47.26895" lon="-2.31923">
        <ele>9.6000003814697</ele>
        <time>2020-01-05T08:58:21.000Z</time>
      </trkpt>
      <trkpt lat="47.269" lon="-2.3193">
        <ele>9.1999998092651</ele>
        <time>2020-01-05T08:58:22.000Z</time>
      </trkpt>
      <trkpt lat="47.26905" lon="-2.31938">
        <ele>8.8000001907349</ele>
        <time>2020-01-05T08:58:23.000Z</time>
      </trkpt>
      <trkpt lat="47.2691" lon="-2.31944">
        <ele>8.1999998092651</ele>
        <time>2020-01-05T08:58:24.000Z</time>
      </trkpt>
      <trkpt lat="47.26917" lon="-2.3195">
        <ele>7.8000001907349</ele>
        <time>2020-01-05T08:58:25.000Z</time>
      </trkpt>
      <trkpt lat="47.26922" lon="-2.31956">
        <ele>7.4000000953674</ele>
        <time>2020-01-05T08:58:26.000Z</time>
      </trkpt>
      <trkpt lat="47.26928" lon="-2.31963">
        <ele>7</ele>
        <time>2020-01-05T08:58:27.000Z</time>
      </trkpt>
      <trkpt lat="47.26932" lon="-2.3197">
        <ele>6.5999999046326</ele>
        <time>2020-01-05T08:58:28.000Z</time>
      </trkpt>
      <trkpt lat="47.26936" lon="-2.31978">
        <ele>6.1999998092651</ele>
        <time>2020-01-05T08:58:29.000Z</time>
      </trkpt>
      <trkpt lat="47.26945" lon="-2.31992">
        <ele>6.1999998092651</ele>
        <time>2020-01-05T08:58:31.000Z</time>
      </trkpt>
      <trkpt lat="47.26949" lon="-2.31997">
        <ele>5.8000001907349</ele>
        <time>2020-01-05T08:58:32.000Z</time>
      </trkpt>
      <trkpt lat="47.26955" lon="-2.32">
        <ele>5.1999998092651</ele>
        <time>2020-01-05T08:58:33.000Z</time>
      </trkpt>
      <trkpt lat="47.2696" lon="-2.31999">
        <ele>4.4000000953674</ele>
        <time>2020-01-05T08:58:34.000Z</time>
      </trkpt>
      <trkpt lat="47.26965" lon="-2.31998">
        <ele>4</ele>
        <time>2020-01-05T08:58:35.000Z</time>
      </trkpt>
      <trkpt lat="47.2697" lon="-2.31996">
        <ele>3.5999999046326</ele>
        <time>2020-01-05T08:58:36.000Z</time>
      </trkpt>
      <trkpt lat="47.26976" lon="-2.31995">
        <ele>3.2000000476837</ele>
        <time>2020-01-05T08:58:37.000Z</time>
      </trkpt>
      <trkpt lat="47.26981" lon="-2.31993">
        <ele>2.7999999523163</ele>
        <time>2020-01-05T08:58:38.000Z</time>
      </trkpt>
      <trkpt lat="47.26986" lon="-2.31991">
        <ele>2.4000000953674</ele>
        <time>2020-01-05T08:58:39.000Z</time>
      </trkpt>
      <trkpt lat="47.26991" lon="-2.31988">
        <ele>2</ele>
        <time>2020-01-05T08:58:40.000Z</time>
      </trkpt>
      <trkpt lat="47.27001" lon="-2.31987">
        <ele>2</ele>
        <time>2020-01-05T08:58:43.000Z</time>
      </trkpt>
      <trkpt lat="47.27008" lon="-2.31995">
        <ele>2</ele>
        <time>2020-01-05T08:58:45.000Z</time>
      </trkpt>
      <trkpt lat="47.27011" lon="-2.32">
        <ele>2</ele>
        <time>2020-01-05T08:58:46.000Z</time>
      </trkpt>
      <trkpt lat="47.2702" lon="-2.32028">
        <ele>2</ele>
        <time>2020-01-05T08:58:50.000Z</time>
      </trkpt>
      <trkpt lat="47.27022" lon="-2.32036">
        <ele>1.6000000238419</ele>
        <time>2020-01-05T08:58:51.000Z</time>
      </trkpt>
      <trkpt lat="47.27023" lon="-2.32044">
        <ele>1.2000000476837</ele>
        <time>2020-01-05T08:58:52.000Z</time>
      </trkpt>
      <trkpt lat="47.27023" lon="-2.32051">
        <ele>0.80000001192093</ele>
        <time>2020-01-05T08:58:53.000Z</time>
      </trkpt>
      <trkpt lat="47.27024" lon="-2.32059">
        <ele>0.40000000596046</ele>
        <time>2020-01-05T08:58:54.000Z</time>
      </trkpt>
      <trkpt lat="47.27023" lon="-2.32068">
        <ele>-0.20000000298023</ele>
        <time>2020-01-05T08:58:55.000Z</time>
      </trkpt>
      <trkpt lat="47.2702" lon="-2.32099">
        <ele>-0.60000002384186</ele>
        <time>2020-01-05T08:58:59.000Z</time>
      </trkpt>
      <trkpt lat="47.27018" lon="-2.32106">
        <ele>-1</ele>
        <time>2020-01-05T08:59:00.000Z</time>
      </trkpt>
      <trkpt lat="47.27014" lon="-2.32112">
        <ele>-1.3999999761581</ele>
        <time>2020-01-05T08:59:01.000Z</time>
      </trkpt>
      <trkpt lat="47.2701" lon="-2.32116">
        <ele>-1.7999999523163</ele>
        <time>2020-01-05T08:59:02.000Z</time>
      </trkpt>
      <trkpt lat="47.27005" lon="-2.32119">
        <ele>-2.2000000476837</ele>
        <time>2020-01-05T08:59:03.000Z</time>
      </trkpt>
      <trkpt lat="47.26999" lon="-2.32123">
        <ele>-2.2000000476837</ele>
        <time>2020-01-05T08:59:04.000Z</time>
      </trkpt>
      <trkpt lat="47.26996" lon="-2.32129">
        <ele>-2.2000000476837</ele>
        <time>2020-01-05T08:59:05.000Z</time>
      </trkpt>
      <trkpt lat="47.26995" lon="-2.32142">
        <ele>-2.2000000476837</ele>
        <time>2020-01-05T08:59:07.000Z</time>
      </trkpt>
      <trkpt lat="47.27005" lon="-2.32161">
        <ele>-2.2000000476837</ele>
        <time>2020-01-05T08:59:10.000Z</time>
      </trkpt>
      <trkpt lat="47.27013" lon="-2.32174">
        <ele>-2.2000000476837</ele>
        <time>2020-01-05T08:59:12.000Z</time>
      </trkpt>
      <trkpt lat="47.2702" lon="-2.32193">
        <ele>-2.2000000476837</ele>
        <time>2020-01-05T08:59:15.000Z</time>
      </trkpt>
      <trkpt lat="47.27021" lon="-2.32199">
        <ele>-2.2000000476837</ele>
        <time>2020-01-05T08:59:16.000Z</time>
      </trkpt>
      <trkpt lat="47.27028" lon="-2.32225">
        <ele>-2.2000000476837</ele>
        <time>2020-01-05T08:59:20.000Z</time>
      </trkpt>
      <trkpt lat="47.27029" lon="-2.32233">
        <ele>-2.2000000476837</ele>
        <time>2020-01-05T08:59:21.000Z</time>
      </trkpt>
      <trkpt lat="47.27029" lon="-2.32256">
        <ele>-2.2000000476837</ele>
        <time>2020-01-05T08:59:24.000Z</time>
      </trkpt>
      <trkpt lat="47.27029" lon="-2.323">
        <ele>-2.2000000476837</ele>
        <time>2020-01-05T08:59:29.000Z</time>
      </trkpt>
      <trkpt lat="47.27029" lon="-2.32345">
        <ele>-2.2000000476837</ele>
        <time>2020-01-05T08:59:34.000Z</time>
      </trkpt>
      <trkpt lat="47.2703" lon="-2.32354">
        <ele>-2.2000000476837</ele>
        <time>2020-01-05T08:59:35.000Z</time>
      </trkpt>
      <trkpt lat="47.27033" lon="-2.3241">
        <ele>-2.2000000476837</ele>
        <time>2020-01-05T08:59:41.000Z</time>
      </trkpt>
      <trkpt lat="47.27034" lon="-2.32469">
        <ele>-2.2000000476837</ele>
        <time>2020-01-05T08:59:47.000Z</time>
      </trkpt>
      <trkpt lat="47.27032" lon="-2.32477">
        <ele>-2.2000000476837</ele>
        <time>2020-01-05T08:59:48.000Z</time>
      </trkpt>
      <trkpt lat="47.27028" lon="-2.3249">
        <ele>-2.2000000476837</ele>
        <time>2020-01-05T08:59:50.000Z</time>
      </trkpt>
      <trkpt lat="47.27017" lon="-2.32501">
        <ele>-2.2000000476837</ele>
        <time>2020-01-05T08:59:53.000Z</time>
      </trkpt>
      <trkpt lat="47.27001" lon="-2.32495">
        <ele>-2.2000000476837</ele>
        <time>2020-01-05T08:59:57.000Z</time>
      </trkpt>
      <trkpt lat="47.26995" lon="-2.32482">
        <ele>-2.2000000476837</ele>
        <time>2020-01-05T08:59:59.000Z</time>
      </trkpt>
      <trkpt lat="47.26986" lon="-2.32464">
        <ele>-2.2000000476837</ele>
        <time>2020-01-05T09:00:02.000Z</time>
      </trkpt>
      <trkpt lat="47.26963" lon="-2.32432">
        <ele>-2.2000000476837</ele>
        <time>2020-01-05T09:00:08.000Z</time>
      </trkpt>
      <trkpt lat="47.2696" lon="-2.32426">
        <ele>-2.2000000476837</ele>
        <time>2020-01-05T09:00:09.000Z</time>
      </trkpt>
      <trkpt lat="47.26954" lon="-2.32415">
        <ele>-2.2000000476837</ele>
        <time>2020-01-05T09:00:11.000Z</time>
      </trkpt>
      <trkpt lat="47.26949" lon="-2.32402">
        <ele>-2.2000000476837</ele>
        <time>2020-01-05T09:00:13.000Z</time>
      </trkpt>
      <trkpt lat="47.26941" lon="-2.32373">
        <ele>-2.2000000476837</ele>
        <time>2020-01-05T09:00:18.000Z</time>
      </trkpt>
      <trkpt lat="47.26932" lon="-2.32345">
        <ele>-2.2000000476837</ele>
        <time>2020-01-05T09:00:24.000Z</time>
      </trkpt>
      <trkpt lat="47.26922" lon="-2.32335">
        <ele>-1.7999999523163</ele>
        <time>2020-01-05T09:00:28.000Z</time>
      </trkpt>
      <trkpt lat="47.26918" lon="-2.32333">
        <ele>-1.3999999761581</ele>
        <time>2020-01-05T09:00:29.000Z</time>
      </trkpt>
      <trkpt lat="47.26914" lon="-2.32333">
        <ele>-1</ele>
        <time>2020-01-05T09:00:30.000Z</time>
      </trkpt>
      <trkpt lat="47.2691" lon="-2.32333">
        <ele>-0.60000002384186</ele>
        <time>2020-01-05T09:00:31.000Z</time>
      </trkpt>
      <trkpt lat="47.26906" lon="-2.32335">
        <ele>-0.20000000298023</ele>
        <time>2020-01-05T09:00:32.000Z</time>
      </trkpt>
      <trkpt lat="47.26902" lon="-2.32336">
        <ele>-0.20000000298023</ele>
        <time>2020-01-05T09:00:33.000Z</time>
      </trkpt>
      <trkpt lat="47.26892" lon="-2.32337">
        <ele>-0.20000000298023</ele>
        <time>2020-01-05T09:00:35.000Z</time>
      </trkpt>
      <trkpt lat="47.26883" lon="-2.32339">
        <ele>0.60000002384186</ele>
        <time>2020-01-05T09:00:37.000Z</time>
      </trkpt>
      <trkpt lat="47.26878" lon="-2.3234">
        <ele>1.2000000476837</ele>
        <time>2020-01-05T09:00:38.000Z</time>
      </trkpt>
      <trkpt lat="47.26874" lon="-2.3234">
        <ele>1.6000000238419</ele>
        <time>2020-01-05T09:00:39.000Z</time>
      </trkpt>
      <trkpt lat="47.26869" lon="-2.32343">
        <ele>2</ele>
        <time>2020-01-05T09:00:40.000Z</time>
      </trkpt>
      <trkpt lat="47.26861" lon="-2.32344">
        <ele>2</ele>
        <time>2020-01-05T09:00:42.000Z</time>
      </trkpt>
      <trkpt lat="47.26856" lon="-2.32345">
        <ele>2.4000000953674</ele>
        <time>2020-01-05T09:00:43.000Z</time>
      </trkpt>
      <trkpt lat="47.26852" lon="-2.32346">
        <ele>2.7999999523163</ele>
        <time>2020-01-05T09:00:44.000Z</time>
      </trkpt>
      <trkpt lat="47.26848" lon="-2.32347">
        <ele>3.2000000476837</ele>
        <time>2020-01-05T09:00:45.000Z</time>
      </trkpt>
      <trkpt lat="47.26844" lon="-2.32348">
        <ele>3.5999999046326</ele>
        <time>2020-01-05T09:00:46.000Z</time>
      </trkpt>
      <trkpt lat="47.2684" lon="-2.32348">
        <ele>4</ele>
        <time>2020-01-05T09:00:47.000Z</time>
      </trkpt>
      <trkpt lat="47.26834" lon="-2.3235">
        <ele>4</ele>
        <time>2020-01-05T09:00:49.000Z</time>
      </trkpt>
      <trkpt lat="47.26825" lon="-2.32351">
        <ele>4.5999999046326</ele>
        <time>2020-01-05T09:00:52.000Z</time>
      </trkpt>
      <trkpt lat="47.26822" lon="-2.32352">
        <ele>5</ele>
        <time>2020-01-05T09:00:53.000Z</time>
      </trkpt>
      <trkpt lat="47.26819" lon="-2.32354">
        <ele>5.4000000953674</ele>
        <time>2020-01-05T09:00:54.000Z</time>
      </trkpt>
      <trkpt lat="47.26815" lon="-2.32355">
        <ele>5.8000001907349</ele>
        <time>2020-01-05T09:00:55.000Z</time>
      </trkpt>
      <trkpt lat="47.26812" lon="-2.32356">
        <ele>6.4000000953674</ele>
        <time>2020-01-05T09:00:56.000Z</time>
      </trkpt>
      <trkpt lat="47.26805" lon="-2.32358">
        <ele>6.8000001907349</ele>
        <time>2020-01-05T09:00:58.000Z</time>
      </trkpt>
      <trkpt lat="47.26801" lon="-2.32359">
        <ele>7.1999998092651</ele>
        <time>2020-01-05T09:00:59.000Z</time>
      </trkpt>
      <trkpt lat="47.26798" lon="-2.32359">
        <ele>7.5999999046326</ele>
        <time>2020-01-05T09:01:00.000Z</time>
      </trkpt>
      <trkpt lat="47.26795" lon="-2.32361">
        <ele>8</ele>
        <time>2020-01-05T09:01:01.000Z</time>
      </trkpt>
      <trkpt lat="47.26792" lon="-2.32362">
        <ele>8.3999996185303</ele>
        <time>2020-01-05T09:01:02.000Z</time>
      </trkpt>
      <trkpt lat="47.26782" lon="-2.32366">
        <ele>8.8000001907349</ele>
        <time>2020-01-05T09:01:05.000Z</time>
      </trkpt>
      <trkpt lat="47.2678" lon="-2.3237">
        <ele>9.1999998092651</ele>
        <time>2020-01-05T09:01:06.000Z</time>
      </trkpt>
      <trkpt lat="47.26779" lon="-2.32376">
        <ele>9.8000001907349</ele>
        <time>2020-01-05T09:01:07.000Z</time>
      </trkpt>
      <trkpt lat="47.2678" lon="-2.32381">
        <ele>10.199999809265</ele>
        <time>2020-01-05T09:01:08.000Z</time>
      </trkpt>
      <trkpt lat="47.26781" lon="-2.32386">
        <ele>10.60000038147</ele>
        <time>2020-01-05T09:01:09.000Z</time>
      </trkpt>
      <trkpt lat="47.26783" lon="-2.324">
        <ele>10.60000038147</ele>
        <time>2020-01-05T09:01:11.000Z</time>
      </trkpt>
      <trkpt lat="47.26785" lon="-2.32412">
        <ele>10.60000038147</ele>
        <time>2020-01-05T09:01:13.000Z</time>
      </trkpt>
      <trkpt lat="47.26791" lon="-2.32454">
        <ele>10.60000038147</ele>
        <time>2020-01-05T09:01:19.000Z</time>
      </trkpt>
      <trkpt lat="47.26796" lon="-2.32499">
        <ele>10.60000038147</ele>
        <time>2020-01-05T09:01:25.000Z</time>
      </trkpt>
      <trkpt lat="47.26799" lon="-2.3254">
        <ele>10.60000038147</ele>
        <time>2020-01-05T09:01:30.000Z</time>
      </trkpt>
      <trkpt lat="47.26798" lon="-2.32548">
        <ele>10.60000038147</ele>
        <time>2020-01-05T09:01:31.000Z</time>
      </trkpt>
      <trkpt lat="47.26799" lon="-2.32573">
        <ele>10.60000038147</ele>
        <time>2020-01-05T09:01:34.000Z</time>
      </trkpt>
      <trkpt lat="47.268" lon="-2.3258">
        <ele>10.60000038147</ele>
        <time>2020-01-05T09:01:35.000Z</time>
      </trkpt>
      <trkpt lat="47.26805" lon="-2.32611">
        <ele>10.60000038147</ele>
        <time>2020-01-05T09:01:39.000Z</time>
      </trkpt>
      <trkpt lat="47.26806" lon="-2.3262">
        <ele>10.60000038147</ele>
        <time>2020-01-05T09:01:40.000Z</time>
      </trkpt>
      <trkpt lat="47.2681" lon="-2.32655">
        <ele>10.60000038147</ele>
        <time>2020-01-05T09:01:45.000Z</time>
      </trkpt>
      <trkpt lat="47.26809" lon="-2.32661">
        <ele>10.60000038147</ele>
        <time>2020-01-05T09:01:46.000Z</time>
      </trkpt>
      <trkpt lat="47.26803" lon="-2.32671">
        <ele>10.60000038147</ele>
        <time>2020-01-05T09:01:48.000Z</time>
      </trkpt>
      <trkpt lat="47.26802" lon="-2.32688">
        <ele>10.60000038147</ele>
        <time>2020-01-05T09:01:51.000Z</time>
      </trkpt>
      <trkpt lat="47.26803" lon="-2.32694">
        <ele>10.60000038147</ele>
        <time>2020-01-05T09:01:52.000Z</time>
      </trkpt>
      <trkpt lat="47.26806" lon="-2.327">
        <ele>10.60000038147</ele>
        <time>2020-01-05T09:01:53.000Z</time>
      </trkpt>
      <trkpt lat="47.26811" lon="-2.32713">
        <ele>10.60000038147</ele>
        <time>2020-01-05T09:01:55.000Z</time>
      </trkpt>
      <trkpt lat="47.26827" lon="-2.32745">
        <ele>10.60000038147</ele>
        <time>2020-01-05T09:02:00.000Z</time>
      </trkpt>
      <trkpt lat="47.2683" lon="-2.32753">
        <ele>10.60000038147</ele>
        <time>2020-01-05T09:02:01.000Z</time>
      </trkpt>
      <trkpt lat="47.26833" lon="-2.32762">
        <ele>10.199999809265</ele>
        <time>2020-01-05T09:02:02.000Z</time>
      </trkpt>
      <trkpt lat="47.26835" lon="-2.32771">
        <ele>9.6000003814697</ele>
        <time>2020-01-05T09:02:03.000Z</time>
      </trkpt>
      <trkpt lat="47.26837" lon="-2.3278">
        <ele>9.1999998092651</ele>
        <time>2020-01-05T09:02:04.000Z</time>
      </trkpt>
      <trkpt lat="47.26839" lon="-2.32789">
        <ele>8.8000001907349</ele>
        <time>2020-01-05T09:02:05.000Z</time>
      </trkpt>
      <trkpt lat="47.26841" lon="-2.328">
        <ele>8.1999998092651</ele>
        <time>2020-01-05T09:02:06.000Z</time>
      </trkpt>
      <trkpt lat="47.26844" lon="-2.3281">
        <ele>7.5999999046326</ele>
        <time>2020-01-05T09:02:07.000Z</time>
      </trkpt>
      <trkpt lat="47.26847" lon="-2.32818">
        <ele>7.1999998092651</ele>
        <time>2020-01-05T09:02:08.000Z</time>
      </trkpt>
      <trkpt lat="47.2685" lon="-2.32827">
        <ele>6.4000000953674</ele>
        <time>2020-01-05T09:02:09.000Z</time>
      </trkpt>
      <trkpt lat="47.26854" lon="-2.32836">
        <ele>5.8000001907349</ele>
        <time>2020-01-05T09:02:10.000Z</time>
      </trkpt>
      <trkpt lat="47.26859" lon="-2.32844">
        <ele>5.1999998092651</ele>
        <time>2020-01-05T09:02:11.000Z</time>
      </trkpt>
      <trkpt lat="47.26862" lon="-2.32853">
        <ele>4.4000000953674</ele>
        <time>2020-01-05T09:02:12.000Z</time>
      </trkpt>
      <trkpt lat="47.26864" lon="-2.3286">
        <ele>3.5999999046326</ele>
        <time>2020-01-05T09:02:13.000Z</time>
      </trkpt>
      <trkpt lat="47.26864" lon="-2.32868">
        <ele>2.7999999523163</ele>
        <time>2020-01-05T09:02:14.000Z</time>
      </trkpt>
      <trkpt lat="47.26863" lon="-2.32873">
        <ele>1.7999999523163</ele>
        <time>2020-01-05T09:02:15.000Z</time>
      </trkpt>
      <trkpt lat="47.2686" lon="-2.32878">
        <ele>4.3</ele>
        <time>2020-01-05T09:02:16.000Z</time>
      </trkpt>
      <trkpt lat="47.26855" lon="-2.32879">
        <ele>-0.80000001192093</ele>
        <time>2020-01-05T09:02:17.000Z</time>
      </trkpt>
      <trkpt lat="47.2685" lon="-2.32879">
        <ele>-1.6000000238419</ele>
        <time>2020-01-05T09:02:18.000Z</time>
      </trkpt>
      <trkpt lat="47.26839" lon="-2.32883">
        <ele>-1.6000000238419</ele>
        <time>2020-01-05T09:02:20.000Z</time>
      </trkpt>
      <trkpt lat="47.26833" lon="-2.32885">
        <ele>-1.6000000238419</ele>
        <time>2020-01-05T09:02:21.000Z</time>
      </trkpt>
      <trkpt lat="47.26827" lon="-2.32889">
        <ele>-1.6000000238419</ele>
        <time>2020-01-05T09:02:22.000Z</time>
      </trkpt>
      <trkpt lat="47.26811" lon="-2.32903">
        <ele>-1.6000000238419</ele>
        <time>2020-01-05T09:02:25.000Z</time>
      </trkpt>
      <trkpt lat="47.26795" lon="-2.32916">
        <ele>-1.6000000238419</ele>
        <time>2020-01-05T09:02:28.000Z</time>
      </trkpt>
      <trkpt lat="47.26784" lon="-2.32924">
        <ele>-1.6000000238419</ele>
        <time>2020-01-05T09:02:30.000Z</time>
      </trkpt>
      <trkpt lat="47.26778" lon="-2.3293">
        <ele>-1.6000000238419</ele>
        <time>2020-01-05T09:02:31.000Z</time>
      </trkpt>
      <trkpt lat="47.26765" lon="-2.32948">
        <ele>-1.6000000238419</ele>
        <time>2020-01-05T09:02:34.000Z</time>
      </trkpt>
      <trkpt lat="47.2676" lon="-2.32953">
        <ele>-1.6000000238419</ele>
        <time>2020-01-05T09:02:35.000Z</time>
      </trkpt>
      <trkpt lat="47.26743" lon="-2.32974">
        <ele>-1.6000000238419</ele>
        <time>2020-01-05T09:02:39.000Z</time>
      </trkpt>
      <trkpt lat="47.26736" lon="-2.32986">
        <ele>-1.6000000238419</ele>
        <time>2020-01-05T09:02:41.000Z</time>
      </trkpt>
      <trkpt lat="47.26732" lon="-2.33001">
        <ele>-1.6000000238419</ele>
        <time>2020-01-05T09:02:43.000Z</time>
      </trkpt>
      <trkpt lat="47.2673" lon="-2.33013">
        <ele>-1.6000000238419</ele>
        <time>2020-01-05T09:02:45.000Z</time>
      </trkpt>
      <trkpt lat="47.26733" lon="-2.33028">
        <ele>-1.6000000238419</ele>
        <time>2020-01-05T09:02:47.000Z</time>
      </trkpt>
      <trkpt lat="47.26732" lon="-2.33036">
        <ele>-1.6000000238419</ele>
        <time>2020-01-05T09:02:48.000Z</time>
      </trkpt>
      <trkpt lat="47.26726" lon="-2.33058">
        <ele>-1.6000000238419</ele>
        <time>2020-01-05T09:02:51.000Z</time>
      </trkpt>
      <trkpt lat="47.26708" lon="-2.33084">
        <ele>-1.6000000238419</ele>
        <time>2020-01-05T09:02:55.000Z</time>
      </trkpt>
      <trkpt lat="47.26702" lon="-2.33089">
        <ele>-1.6000000238419</ele>
        <time>2020-01-05T09:02:56.000Z</time>
      </trkpt>
      <trkpt lat="47.26676" lon="-2.33116">
        <ele>-1.6000000238419</ele>
        <time>2020-01-05T09:03:01.000Z</time>
      </trkpt>
      <trkpt lat="47.26632" lon="-2.33153">
        <ele>-1.6000000238419</ele>
        <time>2020-01-05T09:03:09.000Z</time>
      </trkpt>
      <trkpt lat="47.26616" lon="-2.33149">
        <ele>-1.6000000238419</ele>
        <time>2020-01-05T09:03:12.000Z</time>
      </trkpt>
      <trkpt lat="47.26611" lon="-2.33151">
        <ele>-1.6000000238419</ele>
        <time>2020-01-05T09:03:13.000Z</time>
      </trkpt>
      <trkpt lat="47.26604" lon="-2.33159">
        <ele>-2.2000000476837</ele>
        <time>2020-01-05T09:03:15.000Z</time>
      </trkpt>
      <trkpt lat="47.26602" lon="-2.33165">
        <ele>-2.5999999046326</ele>
        <time>2020-01-05T09:03:16.000Z</time>
      </trkpt>
      <trkpt lat="47.26599" lon="-2.33171">
        <ele>-3</ele>
        <time>2020-01-05T09:03:17.000Z</time>
      </trkpt>
      <trkpt lat="47.26597" lon="-2.33178">
        <ele>-3.4000000953674</ele>
        <time>2020-01-05T09:03:18.000Z</time>
      </trkpt>
      <trkpt lat="47.26593" lon="-2.33184">
        <ele>-3.7999999523163</ele>
        <time>2020-01-05T09:03:19.000Z</time>
      </trkpt>
      <trkpt lat="47.26591" lon="-2.33195">
        <ele>-3.7999999523163</ele>
        <time>2020-01-05T09:03:21.000Z</time>
      </trkpt>
      <trkpt lat="47.26584" lon="-2.33204">
        <ele>-3.7999999523163</ele>
        <time>2020-01-05T09:03:24.000Z</time>
      </trkpt>
      <trkpt lat="47.2658" lon="-2.33206">
        <ele>-3.7999999523163</ele>
        <time>2020-01-05T09:03:25.000Z</time>
      </trkpt>
      <trkpt lat="47.26564" lon="-2.33216">
        <ele>-3.7999999523163</ele>
        <time>2020-01-05T09:03:29.000Z</time>
      </trkpt>
      <trkpt lat="47.26552" lon="-2.33224">
        <ele>-3.7999999523163</ele>
        <time>2020-01-05T09:03:32.000Z</time>
      </trkpt>
      <trkpt lat="47.26542" lon="-2.3323">
        <ele>-3.7999999523163</ele>
        <time>2020-01-05T09:03:34.000Z</time>
      </trkpt>
      <trkpt lat="47.26526" lon="-2.3324">
        <ele>-3.7999999523163</ele>
        <time>2020-01-05T09:03:38.000Z</time>
      </trkpt>
      <trkpt lat="47.26518" lon="-2.33245">
        <ele>-3.7999999523163</ele>
        <time>2020-01-05T09:03:40.000Z</time>
      </trkpt>
      <trkpt lat="47.26501" lon="-2.33264">
        <ele>-3.7999999523163</ele>
        <time>2020-01-05T09:03:46.000Z</time>
      </trkpt>
      <trkpt lat="47.26504" lon="-2.33274">
        <ele>-3.7999999523163</ele>
        <time>2020-01-05T09:03:49.000Z</time>
      </trkpt>
      <trkpt lat="47.26507" lon="-2.33278">
        <ele>-3.7999999523163</ele>
        <time>2020-01-05T09:03:50.000Z</time>
      </trkpt>
      <trkpt lat="47.26517" lon="-2.33282">
        <ele>-3.7999999523163</ele>
        <time>2020-01-05T09:03:53.000Z</time>
      </trkpt>
      <trkpt lat="47.26525" lon="-2.33279">
        <ele>-3.7999999523163</ele>
        <time>2020-01-05T09:03:55.000Z</time>
      </trkpt>
      <trkpt lat="47.2653" lon="-2.33284">
        <ele>-3.7999999523163</ele>
        <time>2020-01-05T09:03:57.000Z</time>
      </trkpt>
      <trkpt lat="47.26532" lon="-2.33292">
        <ele>-3.7999999523163</ele>
        <time>2020-01-05T09:03:59.000Z</time>
      </trkpt>
      <trkpt lat="47.26536" lon="-2.33298">
        <ele>-3.7999999523163</ele>
        <time>2020-01-05T09:04:01.000Z</time>
      </trkpt>
      <trkpt lat="47.26538" lon="-2.33298">
        <ele>-3.7999999523163</ele>
        <time>2020-01-05T09:04:02.000Z</time>
      </trkpt>
      <trkpt lat="47.26543" lon="-2.33292">
        <ele>-3.7999999523163</ele>
        <time>2020-01-05T09:04:04.000Z</time>
      </trkpt>
      <trkpt lat="47.26563" lon="-2.3327">
        <ele>-3.7999999523163</ele>
        <time>2020-01-05T09:04:10.000Z</time>
      </trkpt>
      <trkpt lat="47.26597" lon="-2.33234">
        <ele>-3.7999999523163</ele>
        <time>2020-01-05T09:04:18.000Z</time>
      </trkpt>
      <trkpt lat="47.26629" lon="-2.33202">
        <ele>-3.7999999523163</ele>
        <time>2020-01-05T09:04:25.000Z</time>
      </trkpt>
      <trkpt lat="47.26656" lon="-2.33173">
        <ele>-3.7999999523163</ele>
        <time>2020-01-05T09:04:32.000Z</time>
      </trkpt>
      <trkpt lat="47.26667" lon="-2.33161">
        <ele>-3.7999999523163</ele>
        <time>2020-01-05T09:04:37.000Z</time>
      </trkpt>
      <trkpt lat="47.26673" lon="-2.33159">
        <ele>-3.7999999523163</ele>
        <time>2020-01-05T09:04:43.000Z</time>
      </trkpt>
      <trkpt lat="47.26682" lon="-2.33166">
        <ele>-3.7999999523163</ele>
        <time>2020-01-05T09:04:47.000Z</time>
      </trkpt>
      <trkpt lat="47.2669" lon="-2.33182">
        <ele>-3.7999999523163</ele>
        <time>2020-01-05T09:04:51.000Z</time>
      </trkpt>
      <trkpt lat="47.26696" lon="-2.33204">
        <ele>-3.7999999523163</ele>
        <time>2020-01-05T09:04:55.000Z</time>
      </trkpt>
      <trkpt lat="47.26697" lon="-2.33215">
        <ele>-3.7999999523163</ele>
        <time>2020-01-05T09:04:57.000Z</time>
      </trkpt>
      <trkpt lat="47.26701" lon="-2.33233">
        <ele>-3.7999999523163</ele>
        <time>2020-01-05T09:05:00.000Z</time>
      </trkpt>
      <trkpt lat="47.26708" lon="-2.33269">
        <ele>-3.7999999523163</ele>
        <time>2020-01-05T09:05:05.000Z</time>
      </trkpt>
      <trkpt lat="47.26715" lon="-2.33306">
        <ele>-3.7999999523163</ele>
        <time>2020-01-05T09:05:10.000Z</time>
      </trkpt>
      <trkpt lat="47.26728" lon="-2.3332">
        <ele>-3.7999999523163</ele>
        <time>2020-01-05T09:05:14.000Z</time>
      </trkpt>
      <trkpt lat="47.26741" lon="-2.33327">
        <ele>-3.7999999523163</ele>
        <time>2020-01-05T09:05:18.000Z</time>
      </trkpt>
      <trkpt lat="47.26749" lon="-2.33344">
        <ele>-3.7999999523163</ele>
        <time>2020-01-05T09:05:22.000Z</time>
      </trkpt>
      <trkpt lat="47.26751" lon="-2.33351">
        <ele>-3.7999999523163</ele>
        <time>2020-01-05T09:05:23.000Z</time>
      </trkpt>
      <trkpt lat="47.26755" lon="-2.33383">
        <ele>-3.7999999523163</ele>
        <time>2020-01-05T09:05:27.000Z</time>
      </trkpt>
      <trkpt lat="47.26762" lon="-2.3345">
        <ele>-3.7999999523163</ele>
        <time>2020-01-05T09:05:34.000Z</time>
      </trkpt>
      <trkpt lat="47.26771" lon="-2.33504">
        <ele>-3.7999999523163</ele>
        <time>2020-01-05T09:05:40.000Z</time>
      </trkpt>
      <trkpt lat="47.26778" lon="-2.33552">
        <ele>-3.7999999523163</ele>
        <time>2020-01-05T09:05:46.000Z</time>
      </trkpt>
      <trkpt lat="47.26781" lon="-2.33565">
        <ele>-3.7999999523163</ele>
        <time>2020-01-05T09:05:48.000Z</time>
      </trkpt>
      <trkpt lat="47.2679" lon="-2.33564">
        <ele>-3.7999999523163</ele>
        <time>2020-01-05T09:05:50.000Z</time>
      </trkpt>
      <trkpt lat="47.26803" lon="-2.3356">
        <ele>-3.7999999523163</ele>
        <time>2020-01-05T09:05:53.000Z</time>
      </trkpt>
      <trkpt lat="47.26811" lon="-2.33555">
        <ele>-3.7999999523163</ele>
        <time>2020-01-05T09:05:55.000Z</time>
      </trkpt>
      <trkpt lat="47.26837" lon="-2.33545">
        <ele>-3.7999999523163</ele>
        <time>2020-01-05T09:06:00.000Z</time>
      </trkpt>
      <trkpt lat="47.26856" lon="-2.33537">
        <ele>-3.7999999523163</ele>
        <time>2020-01-05T09:06:04.000Z</time>
      </trkpt>
      <trkpt lat="47.26866" lon="-2.33533">
        <ele>-3.7999999523163</ele>
        <time>2020-01-05T09:06:06.000Z</time>
      </trkpt>
      <trkpt lat="47.26871" lon="-2.33533">
        <ele>-3.7999999523163</ele>
        <time>2020-01-05T09:06:07.000Z</time>
      </trkpt>
      <trkpt lat="47.26881" lon="-2.33532">
        <ele>-3.7999999523163</ele>
        <time>2020-01-05T09:06:09.000Z</time>
      </trkpt>
      <trkpt lat="47.26889" lon="-2.33527">
        <ele>-3.7999999523163</ele>
        <time>2020-01-05T09:06:11.000Z</time>
      </trkpt>
      <trkpt lat="47.2689" lon="-2.33521">
        <ele>-3.2000000476837</ele>
        <time>2020-01-05T09:06:12.000Z</time>
      </trkpt>
      <trkpt lat="47.26888" lon="-2.33515">
        <ele>-2.7999999523163</ele>
        <time>2020-01-05T09:06:13.000Z</time>
      </trkpt>
      <trkpt lat="47.26888" lon="-2.3351">
        <ele>-2.4000000953674</ele>
        <time>2020-01-05T09:06:14.000Z</time>
      </trkpt>
      <trkpt lat="47.26887" lon="-2.33505">
        <ele>-2</ele>
        <time>2020-01-05T09:06:15.000Z</time>
      </trkpt>
      <trkpt lat="47.26887" lon="-2.335">
        <ele>-1.3999999761581</ele>
        <time>2020-01-05T09:06:16.000Z</time>
      </trkpt>
      <trkpt lat="47.26885" lon="-2.33489">
        <ele>-1</ele>
        <time>2020-01-05T09:06:18.000Z</time>
      </trkpt>
      <trkpt lat="47.26884" lon="-2.33484">
        <ele>-0.60000002384186</ele>
        <time>2020-01-05T09:06:19.000Z</time>
      </trkpt>
      <trkpt lat="47.26884" lon="-2.33479">
        <ele>-0.20000000298023</ele>
        <time>2020-01-05T09:06:20.000Z</time>
      </trkpt>
      <trkpt lat="47.26883" lon="-2.33474">
        <ele>0.20000000298023</ele>
        <time>2020-01-05T09:06:21.000Z</time>
      </trkpt>
      <trkpt lat="47.26882" lon="-2.3347">
        <ele>0.60000002384186</ele>
        <time>2020-01-05T09:06:22.000Z</time>
      </trkpt>
      <trkpt lat="47.26881" lon="-2.33465">
        <ele>1</ele>
        <time>2020-01-05T09:06:23.000Z</time>
      </trkpt>
      <trkpt lat="47.26881" lon="-2.33461">
        <ele>1.6000000238419</ele>
        <time>2020-01-05T09:06:24.000Z</time>
      </trkpt>
      <trkpt lat="47.2688" lon="-2.33457">
        <ele>2</ele>
        <time>2020-01-05T09:06:25.000Z</time>
      </trkpt>
      <trkpt lat="47.2688" lon="-2.33454">
        <ele>2.4000000953674</ele>
        <time>2020-01-05T09:06:26.000Z</time>
      </trkpt>
      <trkpt lat="47.26879" lon="-2.3345">
        <ele>2.7999999523163</ele>
        <time>2020-01-05T09:06:27.000Z</time>
      </trkpt>
      <trkpt lat="47.26877" lon="-2.33443">
        <ele>3.4000000953674</ele>
        <time>2020-01-05T09:06:29.000Z</time>
      </trkpt>
      <trkpt lat="47.26877" lon="-2.33439">
        <ele>3.7999999523163</ele>
        <time>2020-01-05T09:06:30.000Z</time>
      </trkpt>
      <trkpt lat="47.26878" lon="-2.33436">
        <ele>4.1999998092651</ele>
        <time>2020-01-05T09:06:31.000Z</time>
      </trkpt>
      <trkpt lat="47.26878" lon="-2.33432">
        <ele>4.5999999046326</ele>
        <time>2020-01-05T09:06:32.000Z</time>
      </trkpt>
      <trkpt lat="47.26877" lon="-2.33428">
        <ele>5</ele>
        <time>2020-01-05T09:06:33.000Z</time>
      </trkpt>
      <trkpt lat="47.26878" lon="-2.33419">
        <ele>5</ele>
        <time>2020-01-05T09:06:36.000Z</time>
      </trkpt>
      <trkpt lat="47.26881" lon="-2.33416">
        <ele>5.4000000953674</ele>
        <time>2020-01-05T09:06:37.000Z</time>
      </trkpt>
      <trkpt lat="47.26884" lon="-2.33414">
        <ele>6</ele>
        <time>2020-01-05T09:06:38.000Z</time>
      </trkpt>
      <trkpt lat="47.26887" lon="-2.33412">
        <ele>6.4000000953674</ele>
        <time>2020-01-05T09:06:39.000Z</time>
      </trkpt>
      <trkpt lat="47.2689" lon="-2.3341">
        <ele>6.8000001907349</ele>
        <time>2020-01-05T09:06:40.000Z</time>
      </trkpt>
      <trkpt lat="47.26893" lon="-2.33408">
        <ele>7.1999998092651</ele>
        <time>2020-01-05T09:06:41.000Z</time>
      </trkpt>
      <trkpt lat="47.26903" lon="-2.33404">
        <ele>7.8000001907349</ele>
        <time>2020-01-05T09:06:44.000Z</time>
      </trkpt>
      <trkpt lat="47.26906" lon="-2.33402">
        <ele>8.1999998092651</ele>
        <time>2020-01-05T09:06:45.000Z</time>
      </trkpt>
      <trkpt lat="47.2691" lon="-2.334">
        <ele>9.1999998092651</ele>
        <time>2020-01-05T09:06:46.000Z</time>
      </trkpt>
      <trkpt lat="47.26913" lon="-2.33398">
        <ele>9.6000003814697</ele>
        <time>2020-01-05T09:06:47.000Z</time>
      </trkpt>
      <trkpt lat="47.26934" lon="-2.33388">
        <ele>10</ele>
        <time>2020-01-05T09:06:53.000Z</time>
      </trkpt>
      <trkpt lat="47.26939" lon="-2.33386">
        <ele>10.39999961853</ele>
        <time>2020-01-05T09:06:54.000Z</time>
      </trkpt>
      <trkpt lat="47.26943" lon="-2.33384">
        <ele>11</ele>
        <time>2020-01-05T09:06:55.000Z</time>
      </trkpt>
      <trkpt lat="47.26947" lon="-2.33383">
        <ele>11.39999961853</ele>
        <time>2020-01-05T09:06:56.000Z</time>
      </trkpt>
      <trkpt lat="47.26951" lon="-2.3338">
        <ele>11.800000190735</ele>
        <time>2020-01-05T09:06:57.000Z</time>
      </trkpt>
      <trkpt lat="47.26959" lon="-2.33377">
        <ele>11.800000190735</ele>
        <time>2020-01-05T09:06:59.000Z</time>
      </trkpt>
      <trkpt lat="47.26971" lon="-2.33365">
        <ele>11.800000190735</ele>
        <time>2020-01-05T09:07:03.000Z</time>
      </trkpt>
      <trkpt lat="47.26965" lon="-2.33349">
        <ele>12.199999809265</ele>
        <time>2020-01-05T09:07:06.000Z</time>
      </trkpt>
      <trkpt lat="47.26963" lon="-2.33343">
        <ele>12.60000038147</ele>
        <time>2020-01-05T09:07:07.000Z</time>
      </trkpt>
      <trkpt lat="47.2696" lon="-2.33337">
        <ele>13.199999809265</ele>
        <time>2020-01-05T09:07:08.000Z</time>
      </trkpt>
      <trkpt lat="47.26959" lon="-2.3333">
        <ele>13.60000038147</ele>
        <time>2020-01-05T09:07:09.000Z</time>
      </trkpt>
      <trkpt lat="47.26956" lon="-2.33324">
        <ele>14</ele>
        <time>2020-01-05T09:07:10.000Z</time>
      </trkpt>
      <trkpt lat="47.26954" lon="-2.33317">
        <ele>14</ele>
        <time>2020-01-05T09:07:11.000Z</time>
      </trkpt>
      <trkpt lat="47.26952" lon="-2.33311">
        <ele>14</ele>
        <time>2020-01-05T09:07:12.000Z</time>
      </trkpt>
      <trkpt lat="47.26938" lon="-2.33271">
        <ele>14</ele>
        <time>2020-01-05T09:07:18.000Z</time>
      </trkpt>
      <trkpt lat="47.26929" lon="-2.33242">
        <ele>14</ele>
        <time>2020-01-05T09:07:22.000Z</time>
      </trkpt>
      <trkpt lat="47.26928" lon="-2.33222">
        <ele>14</ele>
        <time>2020-01-05T09:07:25.000Z</time>
      </trkpt>
      <trkpt lat="47.26941" lon="-2.33213">
        <ele>14</ele>
        <time>2020-01-05T09:07:28.000Z</time>
      </trkpt>
      <trkpt lat="47.26945" lon="-2.3321">
        <ele>14</ele>
        <time>2020-01-05T09:07:29.000Z</time>
      </trkpt>
      <trkpt lat="47.26975" lon="-2.33189">
        <ele>14</ele>
        <time>2020-01-05T09:07:36.000Z</time>
      </trkpt>
      <trkpt lat="47.26982" lon="-2.3318">
        <ele>14</ele>
        <time>2020-01-05T09:07:38.000Z</time>
      </trkpt>
      <trkpt lat="47.26995" lon="-2.33169">
        <ele>14</ele>
        <time>2020-01-05T09:07:41.000Z</time>
      </trkpt>
      <trkpt lat="47.27" lon="-2.33165">
        <ele>14</ele>
        <time>2020-01-05T09:07:42.000Z</time>
      </trkpt>
      <trkpt lat="47.27004" lon="-2.33161">
        <ele>14</ele>
        <time>2020-01-05T09:07:43.000Z</time>
      </trkpt>
      <trkpt lat="47.27023" lon="-2.33146">
        <ele>14</ele>
        <time>2020-01-05T09:07:47.000Z</time>
      </trkpt>
      <trkpt lat="47.27051" lon="-2.33118">
        <ele>14</ele>
        <time>2020-01-05T09:07:53.000Z</time>
      </trkpt>
      <trkpt lat="47.27055" lon="-2.33112">
        <ele>14</ele>
        <time>2020-01-05T09:07:54.000Z</time>
      </trkpt>
      <trkpt lat="47.27088" lon="-2.33075">
        <ele>14</ele>
        <time>2020-01-05T09:08:01.000Z</time>
      </trkpt>
      <trkpt lat="47.27092" lon="-2.33072">
        <ele>14</ele>
        <time>2020-01-05T09:08:02.000Z</time>
      </trkpt>
      <trkpt lat="47.27111" lon="-2.33055">
        <ele>14</ele>
        <time>2020-01-05T09:08:06.000Z</time>
      </trkpt>
      <trkpt lat="47.27127" lon="-2.33042">
        <ele>14</ele>
        <time>2020-01-05T09:08:09.000Z</time>
      </trkpt>
      <trkpt lat="47.27142" lon="-2.33032">
        <ele>14</ele>
        <time>2020-01-05T09:08:12.000Z</time>
      </trkpt>
      <trkpt lat="47.27174" lon="-2.33004">
        <ele>14</ele>
        <time>2020-01-05T09:08:18.000Z</time>
      </trkpt>
      <trkpt lat="47.27197" lon="-2.32989">
        <ele>14</ele>
        <time>2020-01-05T09:08:22.000Z</time>
      </trkpt>
      <trkpt lat="47.27207" lon="-2.32982">
        <ele>14</ele>
        <time>2020-01-05T09:08:24.000Z</time>
      </trkpt>
      <trkpt lat="47.27218" lon="-2.3298">
        <ele>14</ele>
        <time>2020-01-05T09:08:26.000Z</time>
      </trkpt>
      <trkpt lat="47.27224" lon="-2.3299">
        <ele>14</ele>
        <time>2020-01-05T09:08:28.000Z</time>
      </trkpt>
      <trkpt lat="47.2723" lon="-2.33">
        <ele>14</ele>
        <time>2020-01-05T09:08:30.000Z</time>
      </trkpt>
      <trkpt lat="47.27238" lon="-2.33013">
        <ele>14</ele>
        <time>2020-01-05T09:08:33.000Z</time>
      </trkpt>
      <trkpt lat="47.27256" lon="-2.33043">
        <ele>14</ele>
        <time>2020-01-05T09:08:40.000Z</time>
      </trkpt>
      <trkpt lat="47.27273" lon="-2.33069">
        <ele>14</ele>
        <time>2020-01-05T09:08:48.000Z</time>
      </trkpt>
      <trkpt lat="47.27284" lon="-2.33079">
        <ele>14</ele>
        <time>2020-01-05T09:08:52.000Z</time>
      </trkpt>
      <trkpt lat="47.27286" lon="-2.33082">
        <ele>14</ele>
        <time>2020-01-05T09:08:53.000Z</time>
      </trkpt>
      <trkpt lat="47.27298" lon="-2.331">
        <ele>14</ele>
        <time>2020-01-05T09:08:59.000Z</time>
      </trkpt>
      <trkpt lat="47.27306" lon="-2.3311">
        <ele>14</ele>
        <time>2020-01-05T09:09:05.000Z</time>
      </trkpt>
      <trkpt lat="47.27313" lon="-2.33107">
        <ele>14</ele>
        <time>2020-01-05T09:09:08.000Z</time>
      </trkpt>
      <trkpt lat="47.27316" lon="-2.33101">
        <ele>14</ele>
        <time>2020-01-05T09:09:10.000Z</time>
      </trkpt>
      <trkpt lat="47.27325" lon="-2.33081">
        <ele>14</ele>
        <time>2020-01-05T09:09:17.000Z</time>
      </trkpt>
      <trkpt lat="47.27332" lon="-2.33062">
        <ele>14</ele>
        <time>2020-01-05T09:09:23.000Z</time>
      </trkpt>
      <trkpt lat="47.27341" lon="-2.33035">
        <ele>14</ele>
        <time>2020-01-05T09:09:30.000Z</time>
      </trkpt>
      <trkpt lat="47.27354" lon="-2.32995">
        <ele>14</ele>
        <time>2020-01-05T09:09:39.000Z</time>
      </trkpt>
      <trkpt lat="47.2737" lon="-2.32965">
        <ele>14</ele>
        <time>2020-01-05T09:09:46.000Z</time>
      </trkpt>
      <trkpt lat="47.27383" lon="-2.32934">
        <ele>14</ele>
        <time>2020-01-05T09:09:53.000Z</time>
      </trkpt>
      <trkpt lat="47.27389" lon="-2.32916">
        <ele>13.60000038147</ele>
        <time>2020-01-05T09:09:58.000Z</time>
      </trkpt>
      <trkpt lat="47.2739" lon="-2.32915">
        <ele>13</ele>
        <time>2020-01-05T09:09:59.000Z</time>
      </trkpt>
      <trkpt lat="47.27392" lon="-2.32916">
        <ele>12.60000038147</ele>
        <time>2020-01-05T09:10:00.000Z</time>
      </trkpt>
      <trkpt lat="47.27394" lon="-2.32917">
        <ele>12.199999809265</ele>
        <time>2020-01-05T09:10:01.000Z</time>
      </trkpt>
      <trkpt lat="47.27395" lon="-2.32919">
        <ele>11.800000190735</ele>
        <time>2020-01-05T09:10:02.000Z</time>
      </trkpt>
      <trkpt lat="47.274" lon="-2.32931">
        <ele>11.800000190735</ele>
        <time>2020-01-05T09:10:06.000Z</time>
      </trkpt>
      <trkpt lat="47.27402" lon="-2.32938">
        <ele>11.800000190735</ele>
        <time>2020-01-05T09:10:08.000Z</time>
      </trkpt>
      <trkpt lat="47.2741" lon="-2.32968">
        <ele>11.800000190735</ele>
        <time>2020-01-05T09:10:15.000Z</time>
      </trkpt>
      <trkpt lat="47.27419" lon="-2.32997">
        <ele>11.800000190735</ele>
        <time>2020-01-05T09:10:22.000Z</time>
      </trkpt>
      <trkpt lat="47.2742" lon="-2.33006">
        <ele>12.199999809265</ele>
        <time>2020-01-05T09:10:24.000Z</time>
      </trkpt>
      <trkpt lat="47.27421" lon="-2.3301">
        <ele>12.60000038147</ele>
        <time>2020-01-05T09:10:25.000Z</time>
      </trkpt>
      <trkpt lat="47.27423" lon="-2.33014">
        <ele>13</ele>
        <time>2020-01-05T09:10:26.000Z</time>
      </trkpt>
      <trkpt lat="47.27424" lon="-2.33019">
        <ele>13.39999961853</ele>
        <time>2020-01-05T09:10:27.000Z</time>
      </trkpt>
      <trkpt lat="47.27425" lon="-2.33023">
        <ele>13.800000190735</ele>
        <time>2020-01-05T09:10:28.000Z</time>
      </trkpt>
      <trkpt lat="47.27434" lon="-2.33045">
        <ele>13.800000190735</ele>
        <time>2020-01-05T09:10:34.000Z</time>
      </trkpt>
      <trkpt lat="47.27446" lon="-2.33046">
        <ele>14.199999809265</ele>
        <time>2020-01-05T09:10:39.000Z</time>
      </trkpt>
      <trkpt lat="47.27449" lon="-2.33044">
        <ele>14.60000038147</ele>
        <time>2020-01-05T09:10:40.000Z</time>
      </trkpt>
      <trkpt lat="47.27452" lon="-2.33043">
        <ele>15.199999809265</ele>
        <time>2020-01-05T09:10:41.000Z</time>
      </trkpt>
      <trkpt lat="47.27455" lon="-2.3304">
        <ele>15.60000038147</ele>
        <time>2020-01-05T09:10:42.000Z</time>
      </trkpt>
      <trkpt lat="47.27458" lon="-2.33037">
        <ele>16</ele>
        <time>2020-01-05T09:10:43.000Z</time>
      </trkpt>
      <trkpt lat="47.27461" lon="-2.33034">
        <ele>16</ele>
        <time>2020-01-05T09:10:44.000Z</time>
      </trkpt>
      <trkpt lat="47.27464" lon="-2.33029">
        <ele>16</ele>
        <time>2020-01-05T09:10:45.000Z</time>
      </trkpt>
      <trkpt lat="47.27473" lon="-2.33005">
        <ele>16</ele>
        <time>2020-01-05T09:10:49.000Z</time>
      </trkpt>
      <trkpt lat="47.27488" lon="-2.32963">
        <ele>16</ele>
        <time>2020-01-05T09:10:55.000Z</time>
      </trkpt>
      <trkpt lat="47.27494" lon="-2.3295">
        <ele>15.60000038147</ele>
        <time>2020-01-05T09:10:57.000Z</time>
      </trkpt>
      <trkpt lat="47.27496" lon="-2.32943">
        <ele>15.199999809265</ele>
        <time>2020-01-05T09:10:58.000Z</time>
      </trkpt>
      <trkpt lat="47.27499" lon="-2.32935">
        <ele>14.800000190735</ele>
        <time>2020-01-05T09:10:59.000Z</time>
      </trkpt>
      <trkpt lat="47.27501" lon="-2.32928">
        <ele>14.199999809265</ele>
        <time>2020-01-05T09:11:00.000Z</time>
      </trkpt>
      <trkpt lat="47.27503" lon="-2.3292">
        <ele>13.800000190735</ele>
        <time>2020-01-05T09:11:01.000Z</time>
      </trkpt>
      <trkpt lat="47.27508" lon="-2.32896">
        <ele>13.800000190735</ele>
        <time>2020-01-05T09:11:04.000Z</time>
      </trkpt>
      <trkpt lat="47.27514" lon="-2.32881">
        <ele>13.39999961853</ele>
        <time>2020-01-05T09:11:06.000Z</time>
      </trkpt>
      <trkpt lat="47.27517" lon="-2.32874">
        <ele>13</ele>
        <time>2020-01-05T09:11:07.000Z</time>
      </trkpt>
      <trkpt lat="47.27521" lon="-2.32868">
        <ele>12.60000038147</ele>
        <time>2020-01-05T09:11:08.000Z</time>
      </trkpt>
      <trkpt lat="47.27524" lon="-2.32862">
        <ele>12.199999809265</ele>
        <time>2020-01-05T09:11:09.000Z</time>
      </trkpt>
      <trkpt lat="47.27527" lon="-2.32858">
        <ele>11.800000190735</ele>
        <time>2020-01-05T09:11:10.000Z</time>
      </trkpt>
      <trkpt lat="47.27533" lon="-2.3285">
        <ele>11.800000190735</ele>
        <time>2020-01-05T09:11:12.000Z</time>
      </trkpt>
      <trkpt lat="47.27549" lon="-2.32836">
        <ele>11.800000190735</ele>
        <time>2020-01-05T09:11:17.000Z</time>
      </trkpt>
      <trkpt lat="47.27561" lon="-2.32828">
        <ele>11.800000190735</ele>
        <time>2020-01-05T09:11:20.000Z</time>
      </trkpt>
      <trkpt lat="47.27569" lon="-2.32824">
        <ele>11.800000190735</ele>
        <time>2020-01-05T09:11:22.000Z</time>
      </trkpt>
      <trkpt lat="47.27582" lon="-2.32817">
        <ele>11.800000190735</ele>
        <time>2020-01-05T09:11:26.000Z</time>
      </trkpt>
      <trkpt lat="47.27585" lon="-2.32815">
        <ele>11.39999961853</ele>
        <time>2020-01-05T09:11:27.000Z</time>
      </trkpt>
      <trkpt lat="47.27587" lon="-2.32812">
        <ele>11</ele>
        <time>2020-01-05T09:11:28.000Z</time>
      </trkpt>
      <trkpt lat="47.27589" lon="-2.32809">
        <ele>10.60000038147</ele>
        <time>2020-01-05T09:11:29.000Z</time>
      </trkpt>
      <trkpt lat="47.2759" lon="-2.32804">
        <ele>10.199999809265</ele>
        <time>2020-01-05T09:11:30.000Z</time>
      </trkpt>
      <trkpt lat="47.2759" lon="-2.32799">
        <ele>9.8000001907349</ele>
        <time>2020-01-05T09:11:31.000Z</time>
      </trkpt>
      <trkpt lat="47.27588" lon="-2.32784">
        <ele>9.8000001907349</ele>
        <time>2020-01-05T09:11:34.000Z</time>
      </trkpt>
      <trkpt lat="47.27588" lon="-2.32779">
        <ele>9.8000001907349</ele>
        <time>2020-01-05T09:11:35.000Z</time>
      </trkpt>
      <trkpt lat="47.27587" lon="-2.32764">
        <ele>9.3999996185303</ele>
        <time>2020-01-05T09:11:39.000Z</time>
      </trkpt>
      <trkpt lat="47.27587" lon="-2.32762">
        <ele>9</ele>
        <time>2020-01-05T09:11:40.000Z</time>
      </trkpt>
      <trkpt lat="47.27587" lon="-2.32759">
        <ele>8.6000003814697</ele>
        <time>2020-01-05T09:11:41.000Z</time>
      </trkpt>
      <trkpt lat="47.27588" lon="-2.32756">
        <ele>8.1999998092651</ele>
        <time>2020-01-05T09:11:42.000Z</time>
      </trkpt>
      <trkpt lat="47.27588" lon="-2.32753">
        <ele>7.8000001907349</ele>
        <time>2020-01-05T09:11:43.000Z</time>
      </trkpt>
      <trkpt lat="47.27588" lon="-2.32747">
        <ele>7.1999998092651</ele>
        <time>2020-01-05T09:11:45.000Z</time>
      </trkpt>
      <trkpt lat="47.27589" lon="-2.32742">
        <ele>6.8000001907349</ele>
        <time>2020-01-05T09:11:46.000Z</time>
      </trkpt>
      <trkpt lat="47.2759" lon="-2.32737">
        <ele>6.4000000953674</ele>
        <time>2020-01-05T09:11:47.000Z</time>
      </trkpt>
      <trkpt lat="47.27593" lon="-2.3273">
        <ele>6</ele>
        <time>2020-01-05T09:11:48.000Z</time>
      </trkpt>
      <trkpt lat="47.27595" lon="-2.32724">
        <ele>5.4000000953674</ele>
        <time>2020-01-05T09:11:49.000Z</time>
      </trkpt>
      <trkpt lat="47.27597" lon="-2.32717">
        <ele>5</ele>
        <time>2020-01-05T09:11:50.000Z</time>
      </trkpt>
      <trkpt lat="47.27599" lon="-2.32711">
        <ele>4.4000000953674</ele>
        <time>2020-01-05T09:11:51.000Z</time>
      </trkpt>
      <trkpt lat="47.27602" lon="-2.32706">
        <ele>4</ele>
        <time>2020-01-05T09:11:52.000Z</time>
      </trkpt>
      <trkpt lat="47.27604" lon="-2.32701">
        <ele>3.4000000953674</ele>
        <time>2020-01-05T09:11:53.000Z</time>
      </trkpt>
      <trkpt lat="47.27613" lon="-2.3269">
        <ele>3.4000000953674</ele>
        <time>2020-01-05T09:11:57.000Z</time>
      </trkpt>
      <trkpt lat="47.27618" lon="-2.32693">
        <ele>3</ele>
        <time>2020-01-05T09:11:59.000Z</time>
      </trkpt>
      <trkpt lat="47.2762" lon="-2.32696">
        <ele>2.5999999046326</ele>
        <time>2020-01-05T09:12:00.000Z</time>
      </trkpt>
      <trkpt lat="47.27622" lon="-2.32698">
        <ele>2.2000000476837</ele>
        <time>2020-01-05T09:12:01.000Z</time>
      </trkpt>
      <trkpt lat="47.27624" lon="-2.32701">
        <ele>1.7999999523163</ele>
        <time>2020-01-05T09:12:02.000Z</time>
      </trkpt>
      <trkpt lat="47.27625" lon="-2.32704">
        <ele>1.3999999761581</ele>
        <time>2020-01-05T09:12:03.000Z</time>
      </trkpt>
      <trkpt lat="47.27629" lon="-2.32705">
        <ele>1.3999999761581</ele>
        <time>2020-01-05T09:12:04.000Z</time>
      </trkpt>
      <trkpt lat="47.27632" lon="-2.32705">
        <ele>1.3999999761581</ele>
        <time>2020-01-05T09:12:05.000Z</time>
      </trkpt>
      <trkpt lat="47.27655" lon="-2.32714">
        <ele>1.3999999761581</ele>
        <time>2020-01-05T09:12:11.000Z</time>
      </trkpt>
      <trkpt lat="47.27682" lon="-2.32726">
        <ele>1.3999999761581</ele>
        <time>2020-01-05T09:12:17.000Z</time>
      </trkpt>
      <trkpt lat="47.27692" lon="-2.32727">
        <ele>1.3999999761581</ele>
        <time>2020-01-05T09:12:20.000Z</time>
      </trkpt>
      <trkpt lat="47.27695" lon="-2.32725">
        <ele>1.3999999761581</ele>
        <time>2020-01-05T09:12:21.000Z</time>
      </trkpt>
      <trkpt lat="47.27705" lon="-2.32717">
        <ele>1.3999999761581</ele>
        <time>2020-01-05T09:12:25.000Z</time>
      </trkpt>
      <trkpt lat="47.27705" lon="-2.32713">
        <ele>1.3999999761581</ele>
        <time>2020-01-05T09:12:26.000Z</time>
      </trkpt>
      <trkpt lat="47.27697" lon="-2.327">
        <ele>1.3999999761581</ele>
        <time>2020-01-05T09:12:29.000Z</time>
      </trkpt>
      <trkpt lat="47.27694" lon="-2.32695">
        <ele>1.3999999761581</ele>
        <time>2020-01-05T09:12:30.000Z</time>
      </trkpt>
      <trkpt lat="47.27689" lon="-2.32684">
        <ele>1.3999999761581</ele>
        <time>2020-01-05T09:12:32.000Z</time>
      </trkpt>
      <trkpt lat="47.2768" lon="-2.32667">
        <ele>1.3999999761581</ele>
        <time>2020-01-05T09:12:35.000Z</time>
      </trkpt>
      <trkpt lat="47.27672" lon="-2.32647">
        <ele>1.3999999761581</ele>
        <time>2020-01-05T09:12:38.000Z</time>
      </trkpt>
      <trkpt lat="47.27669" lon="-2.32641">
        <ele>1.7999999523163</ele>
        <time>2020-01-05T09:12:39.000Z</time>
      </trkpt>
      <trkpt lat="47.27666" lon="-2.32635">
        <ele>2.2000000476837</ele>
        <time>2020-01-05T09:12:40.000Z</time>
      </trkpt>
      <trkpt lat="47.27664" lon="-2.3263">
        <ele>2.5999999046326</ele>
        <time>2020-01-05T09:12:41.000Z</time>
      </trkpt>
      <trkpt lat="47.27662" lon="-2.32624">
        <ele>3.2000000476837</ele>
        <time>2020-01-05T09:12:42.000Z</time>
      </trkpt>
      <trkpt lat="47.2766" lon="-2.32618">
        <ele>3.5999999046326</ele>
        <time>2020-01-05T09:12:43.000Z</time>
      </trkpt>
      <trkpt lat="47.27656" lon="-2.32606">
        <ele>4</ele>
        <time>2020-01-05T09:12:45.000Z</time>
      </trkpt>
      <trkpt lat="47.27654" lon="-2.326">
        <ele>4.5999999046326</ele>
        <time>2020-01-05T09:12:46.000Z</time>
      </trkpt>
      <trkpt lat="47.27652" lon="-2.32594">
        <ele>5</ele>
        <time>2020-01-05T09:12:47.000Z</time>
      </trkpt>
      <trkpt lat="47.2765" lon="-2.32587">
        <ele>5.5999999046326</ele>
        <time>2020-01-05T09:12:48.000Z</time>
      </trkpt>
      <trkpt lat="47.27649" lon="-2.32581">
        <ele>6</ele>
        <time>2020-01-05T09:12:49.000Z</time>
      </trkpt>
      <trkpt lat="47.27644" lon="-2.32563">
        <ele>6.4000000953674</ele>
        <time>2020-01-05T09:12:52.000Z</time>
      </trkpt>
      <trkpt lat="47.27643" lon="-2.32557">
        <ele>6.8000001907349</ele>
        <time>2020-01-05T09:12:53.000Z</time>
      </trkpt>
      <trkpt lat="47.27641" lon="-2.32552">
        <ele>7.1999998092651</ele>
        <time>2020-01-05T09:12:54.000Z</time>
      </trkpt>
      <trkpt lat="47.27639" lon="-2.32546">
        <ele>7.5999999046326</ele>
        <time>2020-01-05T09:12:55.000Z</time>
      </trkpt>
      <trkpt lat="47.27638" lon="-2.3254">
        <ele>8.1999998092651</ele>
        <time>2020-01-05T09:12:56.000Z</time>
      </trkpt>
      <trkpt lat="47.27635" lon="-2.32529">
        <ele>8.6000003814697</ele>
        <time>2020-01-05T09:12:58.000Z</time>
      </trkpt>
      <trkpt lat="47.27633" lon="-2.32523">
        <ele>9</ele>
        <time>2020-01-05T09:12:59.000Z</time>
      </trkpt>
      <trkpt lat="47.27632" lon="-2.32517">
        <ele>9.3999996185303</ele>
        <time>2020-01-05T09:13:00.000Z</time>
      </trkpt>
      <trkpt lat="47.2763" lon="-2.32512">
        <ele>9.8000001907349</ele>
        <time>2020-01-05T09:13:01.000Z</time>
      </trkpt>
      <trkpt lat="47.27629" lon="-2.32507">
        <ele>10.199999809265</ele>
        <time>2020-01-05T09:13:02.000Z</time>
      </trkpt>
      <trkpt lat="47.27628" lon="-2.32488">
        <ele>10.199999809265</ele>
        <time>2020-01-05T09:13:06.000Z</time>
      </trkpt>
      <trkpt lat="47.27632" lon="-2.3248">
        <ele>10.60000038147</ele>
        <time>2020-01-05T09:13:08.000Z</time>
      </trkpt>
      <trkpt lat="47.27634" lon="-2.32478">
        <ele>11</ele>
        <time>2020-01-05T09:13:09.000Z</time>
      </trkpt>
      <trkpt lat="47.27636" lon="-2.32477">
        <ele>11.60000038147</ele>
        <time>2020-01-05T09:13:10.000Z</time>
      </trkpt>
      <trkpt lat="47.27639" lon="-2.32478">
        <ele>12</ele>
        <time>2020-01-05T09:13:11.000Z</time>
      </trkpt>
      <trkpt lat="47.27642" lon="-2.3248">
        <ele>12.39999961853</ele>
        <time>2020-01-05T09:13:12.000Z</time>
      </trkpt>
      <trkpt lat="47.27644" lon="-2.32483">
        <ele>12.39999961853</ele>
        <time>2020-01-05T09:13:13.000Z</time>
      </trkpt>
      <trkpt lat="47.27656" lon="-2.32493">
        <ele>12.39999961853</ele>
        <time>2020-01-05T09:13:18.000Z</time>
      </trkpt>
      <trkpt lat="47.27661" lon="-2.32492">
        <ele>12.39999961853</ele>
        <time>2020-01-05T09:13:21.000Z</time>
      </trkpt>
      <trkpt lat="47.27664" lon="-2.32489">
        <ele>12.39999961853</ele>
        <time>2020-01-05T09:13:22.000Z</time>
      </trkpt>
      <trkpt lat="47.27673" lon="-2.32478">
        <ele>12.39999961853</ele>
        <time>2020-01-05T09:13:26.000Z</time>
      </trkpt>
      <trkpt lat="47.27676" lon="-2.32474">
        <ele>12.39999961853</ele>
        <time>2020-01-05T09:13:27.000Z</time>
      </trkpt>
      <trkpt lat="47.27693" lon="-2.32453">
        <ele>12.39999961853</ele>
        <time>2020-01-05T09:13:33.000Z</time>
      </trkpt>
      <trkpt lat="47.27697" lon="-2.32446">
        <ele>12.800000190735</ele>
        <time>2020-01-05T09:13:35.000Z</time>
      </trkpt>
      <trkpt lat="47.277" lon="-2.32443">
        <ele>13.199999809265</ele>
        <time>2020-01-05T09:13:36.000Z</time>
      </trkpt>
      <trkpt lat="47.27702" lon="-2.32441">
        <ele>13.60000038147</ele>
        <time>2020-01-05T09:13:37.000Z</time>
      </trkpt>
      <trkpt lat="47.27705" lon="-2.32439">
        <ele>14</ele>
        <time>2020-01-05T09:13:38.000Z</time>
      </trkpt>
      <trkpt lat="47.27708" lon="-2.32438">
        <ele>14.39999961853</ele>
        <time>2020-01-05T09:13:39.000Z</time>
      </trkpt>
      <trkpt lat="47.27717" lon="-2.32427">
        <ele>14.39999961853</ele>
        <time>2020-01-05T09:13:43.000Z</time>
      </trkpt>
      <trkpt lat="47.27736" lon="-2.32407">
        <ele>14.39999961853</ele>
        <time>2020-01-05T09:13:50.000Z</time>
      </trkpt>
      <trkpt lat="47.27752" lon="-2.32393">
        <ele>14.39999961853</ele>
        <time>2020-01-05T09:13:56.000Z</time>
      </trkpt>
      <trkpt lat="47.27757" lon="-2.32389">
        <ele>14.39999961853</ele>
        <time>2020-01-05T09:13:59.000Z</time>
      </trkpt>
      <trkpt lat="47.2776" lon="-2.32388">
        <ele>14.39999961853</ele>
        <time>2020-01-05T09:14:01.000Z</time>
      </trkpt>
      <trkpt lat="47.27763" lon="-2.32387">
        <ele>14.39999961853</ele>
        <time>2020-01-05T09:14:03.000Z</time>
      </trkpt>
      <trkpt lat="47.27731" lon="-2.32351">
        <ele>14.39999961853</ele>
        <time>2020-01-05T09:15:25.000Z</time>
      </trkpt>
      <trkpt lat="47.2773" lon="-2.3235">
        <ele>14.39999961853</ele>
        <time>2020-01-05T09:15:26.000Z</time>
      </trkpt>
      <trkpt lat="47.27728" lon="-2.32348">
        <ele>14.39999961853</ele>
        <time>2020-01-05T09:15:28.000Z</time>
      </trkpt>
      <trkpt lat="47.27722" lon="-2.32344">
        <ele>14.39999961853</ele>
        <time>2020-01-05T09:15:41.000Z</time>
      </trkpt>
      <trkpt lat="47.27721" lon="-2.32343">
        <ele>14.39999961853</ele>
        <time>2020-01-05T09:15:42.000Z</time>
      </trkpt>
      <trkpt lat="47.27716" lon="-2.32339">
        <ele>14.39999961853</ele>
        <time>2020-01-05T09:15:47.000Z</time>
      </trkpt>
      <trkpt lat="47.27711" lon="-2.32334">
        <ele>14.39999961853</ele>
        <time>2020-01-05T09:15:53.000Z</time>
      </trkpt>
      <trkpt lat="47.27704" lon="-2.32331">
        <ele>14.39999961853</ele>
        <time>2020-01-05T09:15:59.000Z</time>
      </trkpt>
      <trkpt lat="47.27693" lon="-2.32325">
        <ele>14.39999961853</ele>
        <time>2020-01-05T09:16:06.000Z</time>
      </trkpt>
      <trkpt lat="47.27676" lon="-2.32319">
        <ele>14.39999961853</ele>
        <time>2020-01-05T09:16:13.000Z</time>
      </trkpt>
      <trkpt lat="47.27664" lon="-2.32315">
        <ele>14.39999961853</ele>
        <time>2020-01-05T09:16:18.000Z</time>
      </trkpt>
      <trkpt lat="47.27651" lon="-2.32309">
        <ele>14.39999961853</ele>
        <time>2020-01-05T09:16:23.000Z</time>
      </trkpt>
      <trkpt lat="47.27641" lon="-2.32305">
        <ele>14.39999961853</ele>
        <time>2020-01-05T09:16:26.000Z</time>
      </trkpt>
      <trkpt lat="47.27637" lon="-2.32303">
        <ele>14.39999961853</ele>
        <time>2020-01-05T09:16:27.000Z</time>
      </trkpt>
      <trkpt lat="47.27619" lon="-2.32291">
        <ele>14.39999961853</ele>
        <time>2020-01-05T09:16:33.000Z</time>
      </trkpt>
      <trkpt lat="47.27611" lon="-2.32286">
        <ele>14</ele>
        <time>2020-01-05T09:16:36.000Z</time>
      </trkpt>
      <trkpt lat="47.27608" lon="-2.32283">
        <ele>13.60000038147</ele>
        <time>2020-01-05T09:16:37.000Z</time>
      </trkpt>
      <trkpt lat="47.27604" lon="-2.32281">
        <ele>12.800000190735</ele>
        <time>2020-01-05T09:16:38.000Z</time>
      </trkpt>
      <trkpt lat="47.276" lon="-2.32278">
        <ele>12.199999809265</ele>
        <time>2020-01-05T09:16:39.000Z</time>
      </trkpt>
      <trkpt lat="47.27596" lon="-2.32275">
        <ele>12.199999809265</ele>
        <time>2020-01-05T09:16:40.000Z</time>
      </trkpt>
      <trkpt lat="47.27591" lon="-2.3227">
        <ele>12.199999809265</ele>
        <time>2020-01-05T09:16:42.000Z</time>
      </trkpt>
      <trkpt lat="47.27583" lon="-2.32262">
        <ele>11.800000190735</ele>
        <time>2020-01-05T09:16:47.000Z</time>
      </trkpt>
      <trkpt lat="47.27581" lon="-2.3226">
        <ele>11.39999961853</ele>
        <time>2020-01-05T09:16:48.000Z</time>
      </trkpt>
      <trkpt lat="47.27579" lon="-2.32258">
        <ele>11</ele>
        <time>2020-01-05T09:16:49.000Z</time>
      </trkpt>
      <trkpt lat="47.27576" lon="-2.32256">
        <ele>10.60000038147</ele>
        <time>2020-01-05T09:16:50.000Z</time>
      </trkpt>
      <trkpt lat="47.27574" lon="-2.32254">
        <ele>10.199999809265</ele>
        <time>2020-01-05T09:16:51.000Z</time>
      </trkpt>
      <trkpt lat="47.27571" lon="-2.32251">
        <ele>10.199999809265</ele>
        <time>2020-01-05T09:16:52.000Z</time>
      </trkpt>
      <trkpt lat="47.27552" lon="-2.32234">
        <ele>10.199999809265</ele>
        <time>2020-01-05T09:16:57.000Z</time>
      </trkpt>
      <trkpt lat="47.27547" lon="-2.3223">
        <ele>10.199999809265</ele>
        <time>2020-01-05T09:16:58.000Z</time>
      </trkpt>
      <trkpt lat="47.27528" lon="-2.32213">
        <ele>9.8000001907349</ele>
        <time>2020-01-05T09:17:02.000Z</time>
      </trkpt>
      <trkpt lat="47.27523" lon="-2.32207">
        <ele>8.8000001907349</ele>
        <time>2020-01-05T09:17:03.000Z</time>
      </trkpt>
      <trkpt lat="47.27519" lon="-2.32201">
        <ele>8.3999996185303</ele>
        <time>2020-01-05T09:17:04.000Z</time>
      </trkpt>
      <trkpt lat="47.27514" lon="-2.32193">
        <ele>8</ele>
        <time>2020-01-05T09:17:05.000Z</time>
      </trkpt>
      <trkpt lat="47.27505" lon="-2.32178">
        <ele>8</ele>
        <time>2020-01-05T09:17:07.000Z</time>
      </trkpt>
      <trkpt lat="47.27493" lon="-2.32165">
        <ele>8</ele>
        <time>2020-01-05T09:17:09.000Z</time>
      </trkpt>
      <trkpt lat="47.27487" lon="-2.32159">
        <ele>7.5999999046326</ele>
        <time>2020-01-05T09:17:10.000Z</time>
      </trkpt>
      <trkpt lat="47.27482" lon="-2.32153">
        <ele>7.1999998092651</ele>
        <time>2020-01-05T09:17:11.000Z</time>
      </trkpt>
      <trkpt lat="47.27476" lon="-2.32146">
        <ele>6.8000001907349</ele>
        <time>2020-01-05T09:17:12.000Z</time>
      </trkpt>
      <trkpt lat="47.27471" lon="-2.32139">
        <ele>6.1999998092651</ele>
        <time>2020-01-05T09:17:13.000Z</time>
      </trkpt>
      <trkpt lat="47.27467" lon="-2.32133">
        <ele>5.8000001907349</ele>
        <time>2020-01-05T09:17:14.000Z</time>
      </trkpt>
      <trkpt lat="47.27449" lon="-2.32109">
        <ele>5.8000001907349</ele>
        <time>2020-01-05T09:17:18.000Z</time>
      </trkpt>
      <trkpt lat="47.27415" lon="-2.32068">
        <ele>5.8000001907349</ele>
        <time>2020-01-05T09:17:26.000Z</time>
      </trkpt>
      <trkpt lat="47.2741" lon="-2.32063">
        <ele>5</ele>
        <time>2020-01-05T09:17:27.000Z</time>
      </trkpt>
      <trkpt lat="47.27405" lon="-2.32058">
        <ele>4.5999999046326</ele>
        <time>2020-01-05T09:17:28.000Z</time>
      </trkpt>
      <trkpt lat="47.27401" lon="-2.32053">
        <ele>4.1999998092651</ele>
        <time>2020-01-05T09:17:29.000Z</time>
      </trkpt>
      <trkpt lat="47.27396" lon="-2.32047">
        <ele>3.7999999523163</ele>
        <time>2020-01-05T09:17:30.000Z</time>
      </trkpt>
      <trkpt lat="47.27385" lon="-2.32036">
        <ele>3.7999999523163</ele>
        <time>2020-01-05T09:17:32.000Z</time>
      </trkpt>
      <trkpt lat="47.27373" lon="-2.32024">
        <ele>3.4000000953674</ele>
        <time>2020-01-05T09:17:34.000Z</time>
      </trkpt>
      <trkpt lat="47.27367" lon="-2.32018">
        <ele>3</ele>
        <time>2020-01-05T09:17:35.000Z</time>
      </trkpt>
      <trkpt lat="47.27361" lon="-2.32012">
        <ele>2.5999999046326</ele>
        <time>2020-01-05T09:17:36.000Z</time>
      </trkpt>
      <trkpt lat="47.27355" lon="-2.32006">
        <ele>2</ele>
        <time>2020-01-05T09:17:37.000Z</time>
      </trkpt>
      <trkpt lat="47.27349" lon="-2.31999">
        <ele>1.6000000238419</ele>
        <time>2020-01-05T09:17:38.000Z</time>
      </trkpt>
      <trkpt lat="47.27343" lon="-2.31993">
        <ele>1.6000000238419</ele>
        <time>2020-01-05T09:17:39.000Z</time>
      </trkpt>
      <trkpt lat="47.27333" lon="-2.3198">
        <ele>1.2000000476837</ele>
        <time>2020-01-05T09:17:41.000Z</time>
      </trkpt>
      <trkpt lat="47.27328" lon="-2.31974">
        <ele>0.80000001192093</ele>
        <time>2020-01-05T09:17:42.000Z</time>
      </trkpt>
      <trkpt lat="47.27322" lon="-2.31969">
        <ele>0.40000000596046</ele>
        <time>2020-01-05T09:17:43.000Z</time>
      </trkpt>
      <trkpt lat="47.27317" lon="-2.31965">
        <ele>6.7</ele>
        <time>2020-01-05T09:17:44.000Z</time>
      </trkpt>
      <trkpt lat="47.27312" lon="-2.3196">
        <ele>-0.60000002384186</ele>
        <time>2020-01-05T09:17:45.000Z</time>
      </trkpt>
      <trkpt lat="47.27293" lon="-2.31946">
        <ele>-0.60000002384186</ele>
        <time>2020-01-05T09:17:50.000Z</time>
      </trkpt>
      <trkpt lat="47.27269" lon="-2.31934">
        <ele>-0.60000002384186</ele>
        <time>2020-01-05T09:17:56.000Z</time>
      </trkpt>
      <trkpt lat="47.27244" lon="-2.31926">
        <ele>-0.60000002384186</ele>
        <time>2020-01-05T09:18:02.000Z</time>
      </trkpt>
      <trkpt lat="47.27228" lon="-2.31919">
        <ele>-0.60000002384186</ele>
        <time>2020-01-05T09:18:07.000Z</time>
      </trkpt>
      <trkpt lat="47.27222" lon="-2.31921">
        <ele>-0.60000002384186</ele>
        <time>2020-01-05T09:18:10.000Z</time>
      </trkpt>
      <trkpt lat="47.2722" lon="-2.31923">
        <ele>-0.60000002384186</ele>
        <time>2020-01-05T09:18:11.000Z</time>
      </trkpt>
      <trkpt lat="47.27219" lon="-2.31926">
        <ele>-0.60000002384186</ele>
        <time>2020-01-05T09:18:12.000Z</time>
      </trkpt>
      <trkpt lat="47.27214" lon="-2.31935">
        <ele>-0.60000002384186</ele>
        <time>2020-01-05T09:18:15.000Z</time>
      </trkpt>
      <trkpt lat="47.27207" lon="-2.31943">
        <ele>-0.60000002384186</ele>
        <time>2020-01-05T09:18:18.000Z</time>
      </trkpt>
      <trkpt lat="47.272" lon="-2.3195">
        <ele>-0.60000002384186</ele>
        <time>2020-01-05T09:18:20.000Z</time>
      </trkpt>
      <trkpt lat="47.27196" lon="-2.31954">
        <ele>-0.60000002384186</ele>
        <time>2020-01-05T09:18:21.000Z</time>
      </trkpt>
      <trkpt lat="47.27181" lon="-2.31968">
        <ele>-0.60000002384186</ele>
        <time>2020-01-05T09:18:25.000Z</time>
      </trkpt>
      <trkpt lat="47.27169" lon="-2.31987">
        <ele>-0.60000002384186</ele>
        <time>2020-01-05T09:18:30.000Z</time>
      </trkpt>
      <trkpt lat="47.27162" lon="-2.31988">
        <ele>-0.60000002384186</ele>
        <time>2020-01-05T09:18:33.000Z</time>
      </trkpt>
      <trkpt lat="47.27159" lon="-2.31988">
        <ele>-0.60000002384186</ele>
        <time>2020-01-05T09:18:35.000Z</time>
      </trkpt>
      <trkpt lat="47.27146" lon="-2.3198">
        <ele>-0.60000002384186</ele>
        <time>2020-01-05T09:18:41.000Z</time>
      </trkpt>
      <trkpt lat="47.27131" lon="-2.3197">
        <ele>-0.60000002384186</ele>
        <time>2020-01-05T09:18:46.000Z</time>
      </trkpt>
      <trkpt lat="47.27113" lon="-2.31961">
        <ele>-0.60000002384186</ele>
        <time>2020-01-05T09:18:52.000Z</time>
      </trkpt>
      <trkpt lat="47.27104" lon="-2.31957">
        <ele>-0.60000002384186</ele>
        <time>2020-01-05T09:18:57.000Z</time>
      </trkpt>
      <trkpt lat="47.27095" lon="-2.31956">
        <ele>-0.60000002384186</ele>
        <time>2020-01-05T09:19:03.000Z</time>
      </trkpt>
      <trkpt lat="47.27092" lon="-2.31955">
        <ele>-0.60000002384186</ele>
        <time>2020-01-05T09:19:06.000Z</time>
      </trkpt>
      <trkpt lat="47.27086" lon="-2.31955">
        <ele>-0.60000002384186</ele>
        <time>2020-01-05T09:20:04.000Z</time>
      </trkpt>
      <trkpt lat="47.27083" lon="-2.31956">
        <ele>-0.60000002384186</ele>
        <time>2020-01-05T09:20:06.000Z</time>
      </trkpt>
      <trkpt lat="47.27078" lon="-2.31954">
        <ele>-0.60000002384186</ele>
        <time>2020-01-05T09:20:11.000Z</time>
      </trkpt>
      <trkpt lat="47.2708" lon="-2.31944">
        <ele>-1.7999999523163</ele>
        <time>2020-01-05T09:20:16.000Z</time>
      </trkpt>
      <trkpt lat="47.27081" lon="-2.31942">
        <ele>-3</ele>
        <time>2020-01-05T09:20:17.000Z</time>
      </trkpt>
      <trkpt lat="47.27082" lon="-2.31938">
        <ele>-2</ele>
        <time>2020-01-05T09:20:18.000Z</time>
      </trkpt>
      <trkpt lat="47.27081" lon="-2.31941">
        <ele>0.20000000298023</ele>
        <time>2020-01-05T09:20:19.000Z</time>
      </trkpt>
      <trkpt lat="47.27081" lon="-2.31942">
        <ele>2.5999999046326</ele>
        <time>2020-01-05T09:20:20.000Z</time>
      </trkpt>
      <trkpt lat="47.2708" lon="-2.31943">
        <ele>2.5999999046326</ele>
        <time>2020-01-05T09:20:21.000Z</time>
      </trkpt>
      <trkpt lat="47.27081" lon="-2.31938">
        <ele>0.40000000596046</ele>
        <time>2020-01-05T09:20:31.000Z</time>
      </trkpt>
      <trkpt lat="47.2708" lon="-2.31937">
        <ele>0.40000000596046</ele>
        <time>2020-01-05T09:20:32.000Z</time>
      </trkpt>
      <trkpt lat="47.27079" lon="-2.31931">
        <ele>0.40000000596046</ele>
        <time>2020-01-05T09:20:36.000Z</time>
      </trkpt>
      <trkpt lat="47.2708" lon="-2.31928">
        <ele>0.40000000596046</ele>
        <time>2020-01-05T09:20:37.000Z</time>
      </trkpt>
      <trkpt lat="47.27079" lon="-2.31916">
        <ele>0.40000000596046</ele>
        <time>2020-01-05T09:20:42.000Z</time>
      </trkpt>
      <trkpt lat="47.27074" lon="-2.31892">
        <ele>0.40000000596046</ele>
        <time>2020-01-05T09:20:48.000Z</time>
      </trkpt>
      <trkpt lat="47.27075" lon="-2.3188">
        <ele>0.40000000596046</ele>
        <time>2020-01-05T09:20:51.000Z</time>
      </trkpt>
      <trkpt lat="47.27077" lon="-2.31876">
        <ele>0.80000001192093</ele>
        <time>2020-01-05T09:20:52.000Z</time>
      </trkpt>
      <trkpt lat="47.27078" lon="-2.31874">
        <ele>1.2000000476837</ele>
        <time>2020-01-05T09:20:53.000Z</time>
      </trkpt>
      <trkpt lat="47.27079" lon="-2.3187">
        <ele>1.6000000238419</ele>
        <time>2020-01-05T09:20:54.000Z</time>
      </trkpt>
      <trkpt lat="47.27079" lon="-2.31867">
        <ele>2.2000000476837</ele>
        <time>2020-01-05T09:20:55.000Z</time>
      </trkpt>
      <trkpt lat="47.27078" lon="-2.31864">
        <ele>2.5999999046326</ele>
        <time>2020-01-05T09:20:56.000Z</time>
      </trkpt>
      <trkpt lat="47.27077" lon="-2.31862">
        <ele>2.5999999046326</ele>
        <time>2020-01-05T09:20:57.000Z</time>
      </trkpt>
      <trkpt lat="47.27076" lon="-2.3186">
        <ele>2.5999999046326</ele>
        <time>2020-01-05T09:20:58.000Z</time>
      </trkpt>
      <trkpt lat="47.2707" lon="-2.31855">
        <ele>2.5999999046326</ele>
        <time>2020-01-05T09:21:01.000Z</time>
      </trkpt>
      <trkpt lat="47.27063" lon="-2.31847">
        <ele>2.5999999046326</ele>
        <time>2020-01-05T09:21:06.000Z</time>
      </trkpt>
      <trkpt lat="47.27063" lon="-2.31845">
        <ele>2.5999999046326</ele>
        <time>2020-01-05T09:21:07.000Z</time>
      </trkpt>
      <trkpt lat="47.27063" lon="-2.31832">
        <ele>2.5999999046326</ele>
        <time>2020-01-05T09:21:11.000Z</time>
      </trkpt>
      <trkpt lat="47.27063" lon="-2.31819">
        <ele>2.5999999046326</ele>
        <time>2020-01-05T09:21:15.000Z</time>
      </trkpt>
      <trkpt lat="47.27063" lon="-2.31816">
        <ele>2.5999999046326</ele>
        <time>2020-01-05T09:21:16.000Z</time>
      </trkpt>
      <trkpt lat="47.27058" lon="-2.31789">
        <ele>2.5999999046326</ele>
        <time>2020-01-05T09:21:22.000Z</time>
      </trkpt>
      <trkpt lat="47.27057" lon="-2.3178">
        <ele>3</ele>
        <time>2020-01-05T09:21:24.000Z</time>
      </trkpt>
      <trkpt lat="47.27057" lon="-2.31776">
        <ele>3.4000000953674</ele>
        <time>2020-01-05T09:21:25.000Z</time>
      </trkpt>
      <trkpt lat="47.27056" lon="-2.31773">
        <ele>3.7999999523163</ele>
        <time>2020-01-05T09:21:26.000Z</time>
      </trkpt>
      <trkpt lat="47.27056" lon="-2.31769">
        <ele>4.1999998092651</ele>
        <time>2020-01-05T09:21:27.000Z</time>
      </trkpt>
      <trkpt lat="47.27055" lon="-2.31765">
        <ele>4.5999999046326</ele>
        <time>2020-01-05T09:21:28.000Z</time>
      </trkpt>
      <trkpt lat="47.27055" lon="-2.31762">
        <ele>4.5999999046326</ele>
        <time>2020-01-05T09:21:29.000Z</time>
      </trkpt>
      <trkpt lat="47.27053" lon="-2.31743">
        <ele>4.5999999046326</ele>
        <time>2020-01-05T09:21:35.000Z</time>
      </trkpt>
      <trkpt lat="47.27054" lon="-2.31737">
        <ele>4.5999999046326</ele>
        <time>2020-01-05T09:21:38.000Z</time>
      </trkpt>
      <trkpt lat="47.27051" lon="-2.31733">
        <ele>4.5999999046326</ele>
        <time>2020-01-05T09:21:40.000Z</time>
      </trkpt>
      <trkpt lat="47.27032" lon="-2.31718">
        <ele>4.5999999046326</ele>
        <time>2020-01-05T09:21:46.000Z</time>
      </trkpt>
      <trkpt lat="47.27029" lon="-2.31715">
        <ele>5</ele>
        <time>2020-01-05T09:21:47.000Z</time>
      </trkpt>
      <trkpt lat="47.27027" lon="-2.31711">
        <ele>5.4000000953674</ele>
        <time>2020-01-05T09:21:48.000Z</time>
      </trkpt>
      <trkpt lat="47.27027" lon="-2.31708">
        <ele>5.8000001907349</ele>
        <time>2020-01-05T09:21:49.000Z</time>
      </trkpt>
      <trkpt lat="47.27027" lon="-2.31703">
        <ele>6.1999998092651</ele>
        <time>2020-01-05T09:21:50.000Z</time>
      </trkpt>
      <trkpt lat="47.27029" lon="-2.317">
        <ele>6.5999999046326</ele>
        <time>2020-01-05T09:21:51.000Z</time>
      </trkpt>
      <trkpt lat="47.2703" lon="-2.31695">
        <ele>6.5999999046326</ele>
        <time>2020-01-05T09:21:52.000Z</time>
      </trkpt>
      <trkpt lat="47.27036" lon="-2.31678">
        <ele>6.5999999046326</ele>
        <time>2020-01-05T09:21:56.000Z</time>
      </trkpt>
      <trkpt lat="47.27039" lon="-2.31656">
        <ele>6.5999999046326</ele>
        <time>2020-01-05T09:22:00.000Z</time>
      </trkpt>
      <trkpt lat="47.27038" lon="-2.31652">
        <ele>7.5999999046326</ele>
        <time>2020-01-05T09:22:01.000Z</time>
      </trkpt>
      <trkpt lat="47.27038" lon="-2.31647">
        <ele>8</ele>
        <time>2020-01-05T09:22:02.000Z</time>
      </trkpt>
      <trkpt lat="47.27037" lon="-2.31642">
        <ele>8.3999996185303</ele>
        <time>2020-01-05T09:22:03.000Z</time>
      </trkpt>
      <trkpt lat="47.27036" lon="-2.31636">
        <ele>8.8000001907349</ele>
        <time>2020-01-05T09:22:04.000Z</time>
      </trkpt>
      <trkpt lat="47.27036" lon="-2.3163">
        <ele>8.8000001907349</ele>
        <time>2020-01-05T09:22:05.000Z</time>
      </trkpt>
      <trkpt lat="47.27032" lon="-2.31614">
        <ele>8.8000001907349</ele>
        <time>2020-01-05T09:22:09.000Z</time>
      </trkpt>
      <trkpt lat="47.27031" lon="-2.31612">
        <ele>8.8000001907349</ele>
        <time>2020-01-05T09:22:10.000Z</time>
      </trkpt>
      <trkpt lat="47.27028" lon="-2.31607">
        <ele>9.3999996185303</ele>
        <time>2020-01-05T09:22:12.000Z</time>
      </trkpt>
      <trkpt lat="47.27028" lon="-2.31605">
        <ele>9.8000001907349</ele>
        <time>2020-01-05T09:22:13.000Z</time>
      </trkpt>
      <trkpt lat="47.27028" lon="-2.31603">
        <ele>10.199999809265</ele>
        <time>2020-01-05T09:22:14.000Z</time>
      </trkpt>
      <trkpt lat="47.27028" lon="-2.31599">
        <ele>10.60000038147</ele>
        <time>2020-01-05T09:22:15.000Z</time>
      </trkpt>
      <trkpt lat="47.27026" lon="-2.31596">
        <ele>11</ele>
        <time>2020-01-05T09:22:16.000Z</time>
      </trkpt>
      <trkpt lat="47.27022" lon="-2.31581">
        <ele>11</ele>
        <time>2020-01-05T09:22:19.000Z</time>
      </trkpt>
      <trkpt lat="47.27019" lon="-2.31575">
        <ele>11.39999961853</ele>
        <time>2020-01-05T09:22:21.000Z</time>
      </trkpt>
      <trkpt lat="47.27018" lon="-2.31571">
        <ele>11.800000190735</ele>
        <time>2020-01-05T09:22:22.000Z</time>
      </trkpt>
      <trkpt lat="47.27016" lon="-2.31568">
        <ele>12.199999809265</ele>
        <time>2020-01-05T09:22:23.000Z</time>
      </trkpt>
      <trkpt lat="47.27015" lon="-2.31563">
        <ele>12.60000038147</ele>
        <time>2020-01-05T09:22:24.000Z</time>
      </trkpt>
      <trkpt lat="47.27013" lon="-2.31558">
        <ele>13</ele>
        <time>2020-01-05T09:22:25.000Z</time>
      </trkpt>
      <trkpt lat="47.27007" lon="-2.31531">
        <ele>13.39999961853</ele>
        <time>2020-01-05T09:22:31.000Z</time>
      </trkpt>
      <trkpt lat="47.27006" lon="-2.31527">
        <ele>14</ele>
        <time>2020-01-05T09:22:32.000Z</time>
      </trkpt>
      <trkpt lat="47.27005" lon="-2.31522">
        <ele>14.39999961853</ele>
        <time>2020-01-05T09:22:33.000Z</time>
      </trkpt>
      <trkpt lat="47.27004" lon="-2.31518">
        <ele>14.800000190735</ele>
        <time>2020-01-05T09:22:34.000Z</time>
      </trkpt>
      <trkpt lat="47.27003" lon="-2.31513">
        <ele>15.199999809265</ele>
        <time>2020-01-05T09:22:35.000Z</time>
      </trkpt>
      <trkpt lat="47.26999" lon="-2.315">
        <ele>15.199999809265</ele>
        <time>2020-01-05T09:22:38.000Z</time>
      </trkpt>
      <trkpt lat="47.26997" lon="-2.3149">
        <ele>15.60000038147</ele>
        <time>2020-01-05T09:22:40.000Z</time>
      </trkpt>
      <trkpt lat="47.26996" lon="-2.31486">
        <ele>16</ele>
        <time>2020-01-05T09:22:41.000Z</time>
      </trkpt>
      <trkpt lat="47.26996" lon="-2.31481">
        <ele>16.39999961853</ele>
        <time>2020-01-05T09:22:42.000Z</time>
      </trkpt>
      <trkpt lat="47.26995" lon="-2.31476">
        <ele>16.799999237061</ele>
        <time>2020-01-05T09:22:43.000Z</time>
      </trkpt>
      <trkpt lat="47.26993" lon="-2.31472">
        <ele>17.200000762939</ele>
        <time>2020-01-05T09:22:44.000Z</time>
      </trkpt>
      <trkpt lat="47.26989" lon="-2.3145">
        <ele>17.200000762939</ele>
        <time>2020-01-05T09:22:49.000Z</time>
      </trkpt>
      <trkpt lat="47.26989" lon="-2.31418">
        <ele>17.200000762939</ele>
        <time>2020-01-05T09:22:55.000Z</time>
      </trkpt>
      <trkpt lat="47.26987" lon="-2.31402">
        <ele>17.60000038147</ele>
        <time>2020-01-05T09:22:58.000Z</time>
      </trkpt>
      <trkpt lat="47.26987" lon="-2.31398">
        <ele>18</ele>
        <time>2020-01-05T09:22:59.000Z</time>
      </trkpt>
      <trkpt lat="47.26987" lon="-2.31393">
        <ele>18.39999961853</ele>
        <time>2020-01-05T09:23:00.000Z</time>
      </trkpt>
      <trkpt lat="47.26987" lon="-2.31387">
        <ele>18.799999237061</ele>
        <time>2020-01-05T09:23:01.000Z</time>
      </trkpt>
      <trkpt lat="47.26987" lon="-2.31382">
        <ele>19.200000762939</ele>
        <time>2020-01-05T09:23:02.000Z</time>
      </trkpt>
      <trkpt lat="47.26987" lon="-2.31365">
        <ele>19.200000762939</ele>
        <time>2020-01-05T09:23:06.000Z</time>
      </trkpt>
      <trkpt lat="47.26986" lon="-2.3136">
        <ele>19.60000038147</ele>
        <time>2020-01-05T09:23:07.000Z</time>
      </trkpt>
      <trkpt lat="47.26985" lon="-2.31355">
        <ele>20</ele>
        <time>2020-01-05T09:23:08.000Z</time>
      </trkpt>
      <trkpt lat="47.26985" lon="-2.3135">
        <ele>20.39999961853</ele>
        <time>2020-01-05T09:23:09.000Z</time>
      </trkpt>
      <trkpt lat="47.26984" lon="-2.31345">
        <ele>20.799999237061</ele>
        <time>2020-01-05T09:23:10.000Z</time>
      </trkpt>
      <trkpt lat="47.26984" lon="-2.3134">
        <ele>21.39999961853</ele>
        <time>2020-01-05T09:23:11.000Z</time>
      </trkpt>
      <trkpt lat="47.2698" lon="-2.31316">
        <ele>21.39999961853</ele>
        <time>2020-01-05T09:23:16.000Z</time>
      </trkpt>
      <trkpt lat="47.26979" lon="-2.31285">
        <ele>21.39999961853</ele>
        <time>2020-01-05T09:23:22.000Z</time>
      </trkpt>
      <trkpt lat="47.26977" lon="-2.31255">
        <ele>21.39999961853</ele>
        <time>2020-01-05T09:23:27.000Z</time>
      </trkpt>
      <trkpt lat="47.26981" lon="-2.31219">
        <ele>21.39999961853</ele>
        <time>2020-01-05T09:23:32.000Z</time>
      </trkpt>
      <trkpt lat="47.26988" lon="-2.31171">
        <ele>21.39999961853</ele>
        <time>2020-01-05T09:23:38.000Z</time>
      </trkpt>
      <trkpt lat="47.26994" lon="-2.31118">
        <ele>21.39999961853</ele>
        <time>2020-01-05T09:23:44.000Z</time>
      </trkpt>
      <trkpt lat="47.26994" lon="-2.3111">
        <ele>20.799999237061</ele>
        <time>2020-01-05T09:23:45.000Z</time>
      </trkpt>
      <trkpt lat="47.26993" lon="-2.31101">
        <ele>20.39999961853</ele>
        <time>2020-01-05T09:23:46.000Z</time>
      </trkpt>
      <trkpt lat="47.26993" lon="-2.31093">
        <ele>20</ele>
        <time>2020-01-05T09:23:47.000Z</time>
      </trkpt>
      <trkpt lat="47.26992" lon="-2.31086">
        <ele>19.60000038147</ele>
        <time>2020-01-05T09:23:48.000Z</time>
      </trkpt>
      <trkpt lat="47.26991" lon="-2.3108">
        <ele>19.200000762939</ele>
        <time>2020-01-05T09:23:49.000Z</time>
      </trkpt>
      <trkpt lat="47.26992" lon="-2.31075">
        <ele>19.200000762939</ele>
        <time>2020-01-05T09:23:50.000Z</time>
      </trkpt>
      <trkpt lat="47.26997" lon="-2.31066">
        <ele>19.200000762939</ele>
        <time>2020-01-05T09:23:52.000Z</time>
      </trkpt>
      <trkpt lat="47.27005" lon="-2.31058">
        <ele>18.799999237061</ele>
        <time>2020-01-05T09:23:54.000Z</time>
      </trkpt>
      <trkpt lat="47.27009" lon="-2.31054">
        <ele>18.39999961853</ele>
        <time>2020-01-05T09:23:55.000Z</time>
      </trkpt>
      <trkpt lat="47.27014" lon="-2.3105">
        <ele>18</ele>
        <time>2020-01-05T09:23:56.000Z</time>
      </trkpt>
      <trkpt lat="47.27018" lon="-2.31047">
        <ele>17.60000038147</ele>
        <time>2020-01-05T09:23:57.000Z</time>
      </trkpt>
      <trkpt lat="47.27022" lon="-2.31043">
        <ele>17.200000762939</ele>
        <time>2020-01-05T09:23:58.000Z</time>
      </trkpt>
      <trkpt lat="47.27044" lon="-2.31023">
        <ele>17.200000762939</ele>
        <time>2020-01-05T09:24:03.000Z</time>
      </trkpt>
      <trkpt lat="47.27051" lon="-2.31016">
        <ele>16.799999237061</ele>
        <time>2020-01-05T09:24:05.000Z</time>
      </trkpt>
      <trkpt lat="47.27054" lon="-2.31012">
        <ele>16.200000762939</ele>
        <time>2020-01-05T09:24:06.000Z</time>
      </trkpt>
      <trkpt lat="47.27057" lon="-2.31008">
        <ele>15.800000190735</ele>
        <time>2020-01-05T09:24:07.000Z</time>
      </trkpt>
      <trkpt lat="47.27059" lon="-2.31003">
        <ele>15.39999961853</ele>
        <time>2020-01-05T09:24:08.000Z</time>
      </trkpt>
      <trkpt lat="47.27059" lon="-2.30998">
        <ele>15</ele>
        <time>2020-01-05T09:24:09.000Z</time>
      </trkpt>
      <trkpt lat="47.27058" lon="-2.30974">
        <ele>15</ele>
        <time>2020-01-05T09:24:14.000Z</time>
      </trkpt>
      <trkpt lat="47.27062" lon="-2.30957">
        <ele>15</ele>
        <time>2020-01-05T09:24:18.000Z</time>
      </trkpt>
      <trkpt lat="47.27059" lon="-2.30945">
        <ele>15</ele>
        <time>2020-01-05T09:24:22.000Z</time>
      </trkpt>
      <trkpt lat="47.27056" lon="-2.30928">
        <ele>15</ele>
        <time>2020-01-05T09:24:27.000Z</time>
      </trkpt>
      <trkpt lat="47.27052" lon="-2.30906">
        <ele>15</ele>
        <time>2020-01-05T09:24:31.000Z</time>
      </trkpt>
      <trkpt lat="47.27047" lon="-2.30895">
        <ele>15</ele>
        <time>2020-01-05T09:24:33.000Z</time>
      </trkpt>
      <trkpt lat="47.27039" lon="-2.30883">
        <ele>15</ele>
        <time>2020-01-05T09:24:35.000Z</time>
      </trkpt>
      <trkpt lat="47.27024" lon="-2.30857">
        <ele>15</ele>
        <time>2020-01-05T09:24:40.000Z</time>
      </trkpt>
      <trkpt lat="47.2701" lon="-2.30835">
        <ele>15</ele>
        <time>2020-01-05T09:24:45.000Z</time>
      </trkpt>
      <trkpt lat="47.27001" lon="-2.3082">
        <ele>15</ele>
        <time>2020-01-05T09:24:50.000Z</time>
      </trkpt>
      <trkpt lat="47.26994" lon="-2.30809">
        <ele>15.39999961853</ele>
        <time>2020-01-05T09:24:54.000Z</time>
      </trkpt>
      <trkpt lat="47.26992" lon="-2.30806">
        <ele>16</ele>
        <time>2020-01-05T09:24:55.000Z</time>
      </trkpt>
      <trkpt lat="47.2699" lon="-2.30802">
        <ele>16.39999961853</ele>
        <time>2020-01-05T09:24:56.000Z</time>
      </trkpt>
      <trkpt lat="47.26989" lon="-2.30799">
        <ele>16.799999237061</ele>
        <time>2020-01-05T09:24:57.000Z</time>
      </trkpt>
      <trkpt lat="47.26987" lon="-2.30795">
        <ele>17.200000762939</ele>
        <time>2020-01-05T09:24:58.000Z</time>
      </trkpt>
      <trkpt lat="47.2698" lon="-2.30785">
        <ele>17.200000762939</ele>
        <time>2020-01-05T09:25:01.000Z</time>
      </trkpt>
      <trkpt lat="47.26965" lon="-2.30762">
        <ele>17.200000762939</ele>
        <time>2020-01-05T09:25:06.000Z</time>
      </trkpt>
      <trkpt lat="47.2696" lon="-2.30754">
        <ele>17.60000038147</ele>
        <time>2020-01-05T09:25:08.000Z</time>
      </trkpt>
      <trkpt lat="47.26957" lon="-2.3075">
        <ele>18</ele>
        <time>2020-01-05T09:25:09.000Z</time>
      </trkpt>
      <trkpt lat="47.26954" lon="-2.30747">
        <ele>18.39999961853</ele>
        <time>2020-01-05T09:25:10.000Z</time>
      </trkpt>
      <trkpt lat="47.26951" lon="-2.30743">
        <ele>19</ele>
        <time>2020-01-05T09:25:11.000Z</time>
      </trkpt>
      <trkpt lat="47.26949" lon="-2.3074">
        <ele>19.39999961853</ele>
        <time>2020-01-05T09:25:12.000Z</time>
      </trkpt>
      <trkpt lat="47.26936" lon="-2.3072">
        <ele>19.39999961853</ele>
        <time>2020-01-05T09:25:18.000Z</time>
      </trkpt>
      <trkpt lat="47.26934" lon="-2.30717">
        <ele>19.799999237061</ele>
        <time>2020-01-05T09:25:19.000Z</time>
      </trkpt>
      <trkpt lat="47.26931" lon="-2.30714">
        <ele>20.200000762939</ele>
        <time>2020-01-05T09:25:20.000Z</time>
      </trkpt>
      <trkpt lat="47.26929" lon="-2.30711">
        <ele>20.60000038147</ele>
        <time>2020-01-05T09:25:21.000Z</time>
      </trkpt>
      <trkpt lat="47.26927" lon="-2.30709">
        <ele>21</ele>
        <time>2020-01-05T09:25:22.000Z</time>
      </trkpt>
      <trkpt lat="47.26925" lon="-2.30705">
        <ele>21.39999961853</ele>
        <time>2020-01-05T09:25:23.000Z</time>
      </trkpt>
      <trkpt lat="47.26907" lon="-2.30679">
        <ele>21.39999961853</ele>
        <time>2020-01-05T09:25:30.000Z</time>
      </trkpt>
      <trkpt lat="47.26902" lon="-2.30665">
        <ele>21.39999961853</ele>
        <time>2020-01-05T09:25:34.000Z</time>
      </trkpt>
      <trkpt lat="47.26904" lon="-2.30655">
        <ele>21.39999961853</ele>
        <time>2020-01-05T09:25:37.000Z</time>
      </trkpt>
      <trkpt lat="47.26904" lon="-2.30652">
        <ele>21.39999961853</ele>
        <time>2020-01-05T09:25:38.000Z</time>
      </trkpt>
      <trkpt lat="47.2691" lon="-2.30645">
        <ele>21.39999961853</ele>
        <time>2020-01-05T09:25:41.000Z</time>
      </trkpt>
      <trkpt lat="47.26914" lon="-2.30639">
        <ele>21.39999961853</ele>
        <time>2020-01-05T09:25:43.000Z</time>
      </trkpt>
      <trkpt lat="47.26921" lon="-2.30629">
        <ele>21.39999961853</ele>
        <time>2020-01-05T09:25:49.000Z</time>
      </trkpt>
      <trkpt lat="47.26922" lon="-2.30629">
        <ele>21.39999961853</ele>
        <time>2020-01-05T09:25:50.000Z</time>
      </trkpt>
      <trkpt lat="47.26924" lon="-2.3063">
        <ele>21.39999961853</ele>
        <time>2020-01-05T09:25:57.000Z</time>
      </trkpt>
      <trkpt lat="47.26927" lon="-2.3063">
        <ele>21.39999961853</ele>
        <time>2020-01-05T09:25:58.000Z</time>
      </trkpt>
      <trkpt lat="47.26942" lon="-2.30628">
        <ele>21.39999961853</ele>
        <time>2020-01-05T09:26:02.000Z</time>
      </trkpt>
      <trkpt lat="47.26967" lon="-2.30619">
        <ele>21.39999961853</ele>
        <time>2020-01-05T09:26:07.000Z</time>
      </trkpt>
      <trkpt lat="47.26987" lon="-2.30608">
        <ele>21.39999961853</ele>
        <time>2020-01-05T09:26:11.000Z</time>
      </trkpt>
      <trkpt lat="47.26997" lon="-2.30601">
        <ele>21.39999961853</ele>
        <time>2020-01-05T09:26:13.000Z</time>
      </trkpt>
      <trkpt lat="47.27011" lon="-2.30579">
        <ele>21.39999961853</ele>
        <time>2020-01-05T09:26:17.000Z</time>
      </trkpt>
      <trkpt lat="47.27014" lon="-2.30571">
        <ele>21.39999961853</ele>
        <time>2020-01-05T09:26:18.000Z</time>
      </trkpt>
      <trkpt lat="47.27026" lon="-2.30537">
        <ele>21.39999961853</ele>
        <time>2020-01-05T09:26:23.000Z</time>
      </trkpt>
      <trkpt lat="47.27035" lon="-2.30504">
        <ele>21.39999961853</ele>
        <time>2020-01-05T09:26:28.000Z</time>
      </trkpt>
      <trkpt lat="47.27046" lon="-2.30467">
        <ele>21.39999961853</ele>
        <time>2020-01-05T09:26:33.000Z</time>
      </trkpt>
      <trkpt lat="47.2705" lon="-2.30438">
        <ele>21.39999961853</ele>
        <time>2020-01-05T09:26:37.000Z</time>
      </trkpt>
      <trkpt lat="47.27053" lon="-2.30417">
        <ele>21.39999961853</ele>
        <time>2020-01-05T09:26:40.000Z</time>
      </trkpt>
      <trkpt lat="47.27055" lon="-2.30403">
        <ele>21.39999961853</ele>
        <time>2020-01-05T09:26:42.000Z</time>
      </trkpt>
      <trkpt lat="47.27059" lon="-2.30374">
        <ele>21.39999961853</ele>
        <time>2020-01-05T09:26:46.000Z</time>
      </trkpt>
      <trkpt lat="47.27061" lon="-2.30361">
        <ele>21.39999961853</ele>
        <time>2020-01-05T09:26:48.000Z</time>
      </trkpt>
      <trkpt lat="47.27064" lon="-2.30341">
        <ele>21.39999961853</ele>
        <time>2020-01-05T09:26:51.000Z</time>
      </trkpt>
      <trkpt lat="47.27066" lon="-2.30329">
        <ele>21.39999961853</ele>
        <time>2020-01-05T09:26:53.000Z</time>
      </trkpt>
      <trkpt lat="47.27068" lon="-2.30318">
        <ele>21.39999961853</ele>
        <time>2020-01-05T09:26:55.000Z</time>
      </trkpt>
      <trkpt lat="47.2707" lon="-2.30306">
        <ele>21.39999961853</ele>
        <time>2020-01-05T09:26:57.000Z</time>
      </trkpt>
      <trkpt lat="47.27076" lon="-2.30281">
        <ele>21.39999961853</ele>
        <time>2020-01-05T09:27:02.000Z</time>
      </trkpt>
      <trkpt lat="47.27081" lon="-2.30272">
        <ele>21</ele>
        <time>2020-01-05T09:27:05.000Z</time>
      </trkpt>
      <trkpt lat="47.27084" lon="-2.30268">
        <ele>20.60000038147</ele>
        <time>2020-01-05T09:27:06.000Z</time>
      </trkpt>
      <trkpt lat="47.27086" lon="-2.30265">
        <ele>20.200000762939</ele>
        <time>2020-01-05T09:27:07.000Z</time>
      </trkpt>
      <trkpt lat="47.27089" lon="-2.30263">
        <ele>19.60000038147</ele>
        <time>2020-01-05T09:27:08.000Z</time>
      </trkpt>
      <trkpt lat="47.27093" lon="-2.30262">
        <ele>19.200000762939</ele>
        <time>2020-01-05T09:27:09.000Z</time>
      </trkpt>
      <trkpt lat="47.27103" lon="-2.30259">
        <ele>19.200000762939</ele>
        <time>2020-01-05T09:27:12.000Z</time>
      </trkpt>
      <trkpt lat="47.2712" lon="-2.30252">
        <ele>19.200000762939</ele>
        <time>2020-01-05T09:27:17.000Z</time>
      </trkpt>
      <trkpt lat="47.27135" lon="-2.30242">
        <ele>19.200000762939</ele>
        <time>2020-01-05T09:27:22.000Z</time>
      </trkpt>
      <trkpt lat="47.27146" lon="-2.30241">
        <ele>19.200000762939</ele>
        <time>2020-01-05T09:27:27.000Z</time>
      </trkpt>
      <trkpt lat="47.27159" lon="-2.30249">
        <ele>19.200000762939</ele>
        <time>2020-01-05T09:27:32.000Z</time>
      </trkpt>
      <trkpt lat="47.27171" lon="-2.30255">
        <ele>19.200000762939</ele>
        <time>2020-01-05T09:27:36.000Z</time>
      </trkpt>
      <trkpt lat="47.27179" lon="-2.3025">
        <ele>19.200000762939</ele>
        <time>2020-01-05T09:27:40.000Z</time>
      </trkpt>
      <trkpt lat="47.27182" lon="-2.30249">
        <ele>19.200000762939</ele>
        <time>2020-01-05T09:27:41.000Z</time>
      </trkpt>
      <trkpt lat="47.27191" lon="-2.30247">
        <ele>18.799999237061</ele>
        <time>2020-01-05T09:27:44.000Z</time>
      </trkpt>
      <trkpt lat="47.27194" lon="-2.30248">
        <ele>18</ele>
        <time>2020-01-05T09:27:45.000Z</time>
      </trkpt>
      <trkpt lat="47.27197" lon="-2.30249">
        <ele>17.60000038147</ele>
        <time>2020-01-05T09:27:46.000Z</time>
      </trkpt>
      <trkpt lat="47.27201" lon="-2.3025">
        <ele>17.200000762939</ele>
        <time>2020-01-05T09:27:47.000Z</time>
      </trkpt>
      <trkpt lat="47.2721" lon="-2.3025">
        <ele>17.200000762939</ele>
        <time>2020-01-05T09:27:50.000Z</time>
      </trkpt>
      <trkpt lat="47.27227" lon="-2.30259">
        <ele>17.200000762939</ele>
        <time>2020-01-05T09:27:54.000Z</time>
      </trkpt>
      <trkpt lat="47.27242" lon="-2.30259">
        <ele>17.200000762939</ele>
        <time>2020-01-05T09:27:58.000Z</time>
      </trkpt>
      <trkpt lat="47.27245" lon="-2.30258">
        <ele>17.200000762939</ele>
        <time>2020-01-05T09:27:59.000Z</time>
      </trkpt>
      <trkpt lat="47.27259" lon="-2.30257">
        <ele>17.200000762939</ele>
        <time>2020-01-05T09:28:02.000Z</time>
      </trkpt>
      <trkpt lat="47.27278" lon="-2.30256">
        <ele>17.200000762939</ele>
        <time>2020-01-05T09:28:07.000Z</time>
      </trkpt>
      <trkpt lat="47.27301" lon="-2.30256">
        <ele>17.200000762939</ele>
        <time>2020-01-05T09:28:13.000Z</time>
      </trkpt>
      <trkpt lat="47.27333" lon="-2.30255">
        <ele>17.60000038147</ele>
        <time>2020-01-05T09:28:19.000Z</time>
      </trkpt>
      <trkpt lat="47.27339" lon="-2.30255">
        <ele>18</ele>
        <time>2020-01-05T09:28:20.000Z</time>
      </trkpt>
      <trkpt lat="47.27344" lon="-2.30255">
        <ele>18.39999961853</ele>
        <time>2020-01-05T09:28:21.000Z</time>
      </trkpt>
      <trkpt lat="47.2735" lon="-2.30254">
        <ele>18.799999237061</ele>
        <time>2020-01-05T09:28:22.000Z</time>
      </trkpt>
      <trkpt lat="47.27356" lon="-2.30254">
        <ele>19.200000762939</ele>
        <time>2020-01-05T09:28:23.000Z</time>
      </trkpt>
      <trkpt lat="47.27369" lon="-2.3025">
        <ele>19.200000762939</ele>
        <time>2020-01-05T09:28:26.000Z</time>
      </trkpt>
      <trkpt lat="47.274" lon="-2.30235">
        <ele>19.200000762939</ele>
        <time>2020-01-05T09:28:32.000Z</time>
      </trkpt>
      <trkpt lat="47.27429" lon="-2.30219">
        <ele>19.200000762939</ele>
        <time>2020-01-05T09:28:38.000Z</time>
      </trkpt>
      <trkpt lat="47.27448" lon="-2.30209">
        <ele>19.200000762939</ele>
        <time>2020-01-05T09:28:43.000Z</time>
      </trkpt>
      <trkpt lat="47.27453" lon="-2.30203">
        <ele>19.200000762939</ele>
        <time>2020-01-05T09:28:45.000Z</time>
      </trkpt>
      <trkpt lat="47.27454" lon="-2.30201">
        <ele>19.200000762939</ele>
        <time>2020-01-05T09:28:46.000Z</time>
      </trkpt>
      <trkpt lat="47.27456" lon="-2.30186">
        <ele>19.200000762939</ele>
        <time>2020-01-05T09:28:51.000Z</time>
      </trkpt>
      <trkpt lat="47.27455" lon="-2.30169">
        <ele>19.200000762939</ele>
        <time>2020-01-05T09:28:56.000Z</time>
      </trkpt>
      <trkpt lat="47.27452" lon="-2.30151">
        <ele>19.60000038147</ele>
        <time>2020-01-05T09:28:59.000Z</time>
      </trkpt>
      <trkpt lat="47.27451" lon="-2.30144">
        <ele>20</ele>
        <time>2020-01-05T09:29:00.000Z</time>
      </trkpt>
      <trkpt lat="47.2745" lon="-2.30138">
        <ele>20.39999961853</ele>
        <time>2020-01-05T09:29:01.000Z</time>
      </trkpt>
      <trkpt lat="47.27448" lon="-2.30132">
        <ele>20.799999237061</ele>
        <time>2020-01-05T09:29:02.000Z</time>
      </trkpt>
      <trkpt lat="47.27448" lon="-2.30127">
        <ele>21.200000762939</ele>
        <time>2020-01-05T09:29:03.000Z</time>
      </trkpt>
      <trkpt lat="47.27445" lon="-2.30109">
        <ele>21.200000762939</ele>
        <time>2020-01-05T09:29:06.000Z</time>
      </trkpt>
      <trkpt lat="47.27442" lon="-2.30095">
        <ele>21.200000762939</ele>
        <time>2020-01-05T09:29:08.000Z</time>
      </trkpt>
      <trkpt lat="47.27438" lon="-2.30082">
        <ele>21.200000762939</ele>
        <time>2020-01-05T09:29:10.000Z</time>
      </trkpt>
      <trkpt lat="47.27422" lon="-2.30039">
        <ele>21.200000762939</ele>
        <time>2020-01-05T09:29:17.000Z</time>
      </trkpt>
      <trkpt lat="47.27415" lon="-2.3002">
        <ele>21.200000762939</ele>
        <time>2020-01-05T09:29:20.000Z</time>
      </trkpt>
      <trkpt lat="47.2741" lon="-2.30009">
        <ele>21.60000038147</ele>
        <time>2020-01-05T09:29:22.000Z</time>
      </trkpt>
      <trkpt lat="47.27407" lon="-2.30003">
        <ele>22</ele>
        <time>2020-01-05T09:29:23.000Z</time>
      </trkpt>
      <trkpt lat="47.27405" lon="-2.29998">
        <ele>23</ele>
        <time>2020-01-05T09:29:24.000Z</time>
      </trkpt>
      <trkpt lat="47.27403" lon="-2.29992">
        <ele>23.39999961853</ele>
        <time>2020-01-05T09:29:25.000Z</time>
      </trkpt>
      <trkpt lat="47.27395" lon="-2.29975">
        <ele>23.39999961853</ele>
        <time>2020-01-05T09:29:28.000Z</time>
      </trkpt>
      <trkpt lat="47.27393" lon="-2.2997">
        <ele>23.39999961853</ele>
        <time>2020-01-05T09:29:29.000Z</time>
      </trkpt>
      <trkpt lat="47.2739" lon="-2.29965">
        <ele>23.39999961853</ele>
        <time>2020-01-05T09:29:30.000Z</time>
      </trkpt>
      <trkpt lat="47.2738" lon="-2.29941">
        <ele>23.39999961853</ele>
        <time>2020-01-05T09:29:34.000Z</time>
      </trkpt>
      <trkpt lat="47.27367" lon="-2.29909">
        <ele>23.39999961853</ele>
        <time>2020-01-05T09:29:39.000Z</time>
      </trkpt>
      <trkpt lat="47.27354" lon="-2.29882">
        <ele>23.39999961853</ele>
        <time>2020-01-05T09:29:44.000Z</time>
      </trkpt>
      <trkpt lat="47.27343" lon="-2.29857">
        <ele>23.39999961853</ele>
        <time>2020-01-05T09:29:48.000Z</time>
      </trkpt>
      <trkpt lat="47.2734" lon="-2.29852">
        <ele>23.39999961853</ele>
        <time>2020-01-05T09:29:49.000Z</time>
      </trkpt>
      <trkpt lat="47.27321" lon="-2.29823">
        <ele>23.39999961853</ele>
        <time>2020-01-05T09:29:54.000Z</time>
      </trkpt>
      <trkpt lat="47.27307" lon="-2.29797">
        <ele>23.39999961853</ele>
        <time>2020-01-05T09:29:58.000Z</time>
      </trkpt>
      <trkpt lat="47.27302" lon="-2.29783">
        <ele>23.39999961853</ele>
        <time>2020-01-05T09:30:00.000Z</time>
      </trkpt>
      <trkpt lat="47.27293" lon="-2.29752">
        <ele>23.39999961853</ele>
        <time>2020-01-05T09:30:04.000Z</time>
      </trkpt>
      <trkpt lat="47.27288" lon="-2.29736">
        <ele>23.39999961853</ele>
        <time>2020-01-05T09:30:06.000Z</time>
      </trkpt>
      <trkpt lat="47.27281" lon="-2.29711">
        <ele>23.39999961853</ele>
        <time>2020-01-05T09:30:10.000Z</time>
      </trkpt>
      <trkpt lat="47.27279" lon="-2.29704">
        <ele>23.39999961853</ele>
        <time>2020-01-05T09:30:11.000Z</time>
      </trkpt>
      <trkpt lat="47.27274" lon="-2.29666">
        <ele>23.39999961853</ele>
        <time>2020-01-05T09:30:17.000Z</time>
      </trkpt>
      <trkpt lat="47.27273" lon="-2.29652">
        <ele>23.39999961853</ele>
        <time>2020-01-05T09:30:21.000Z</time>
      </trkpt>
      <trkpt lat="47.27273" lon="-2.29652">
        <ele>23.39999961853</ele>
        <time>2020-01-05T09:30:22.000Z</time>
      </trkpt>
      <trkpt lat="47.27271" lon="-2.29646">
        <ele>23.39999961853</ele>
        <time>2020-01-05T09:30:26.000Z</time>
      </trkpt>
      <trkpt lat="47.27269" lon="-2.29641">
        <ele>23.39999961853</ele>
        <time>2020-01-05T09:30:27.000Z</time>
      </trkpt>
      <trkpt lat="47.27268" lon="-2.29633">
        <ele>23.39999961853</ele>
        <time>2020-01-05T09:30:28.000Z</time>
      </trkpt>
      <trkpt lat="47.27265" lon="-2.29619">
        <ele>23.39999961853</ele>
        <time>2020-01-05T09:30:30.000Z</time>
      </trkpt>
      <trkpt lat="47.27259" lon="-2.2959">
        <ele>23.39999961853</ele>
        <time>2020-01-05T09:30:34.000Z</time>
      </trkpt>
      <trkpt lat="47.27256" lon="-2.29575">
        <ele>23.39999961853</ele>
        <time>2020-01-05T09:30:36.000Z</time>
      </trkpt>
      <trkpt lat="47.27252" lon="-2.29549">
        <ele>23.39999961853</ele>
        <time>2020-01-05T09:30:40.000Z</time>
      </trkpt>
      <trkpt lat="47.27248" lon="-2.29529">
        <ele>23.39999961853</ele>
        <time>2020-01-05T09:30:43.000Z</time>
      </trkpt>
      <trkpt lat="47.27244" lon="-2.29517">
        <ele>23.39999961853</ele>
        <time>2020-01-05T09:30:45.000Z</time>
      </trkpt>
      <trkpt lat="47.27234" lon="-2.29491">
        <ele>23.39999961853</ele>
        <time>2020-01-05T09:30:49.000Z</time>
      </trkpt>
      <trkpt lat="47.27217" lon="-2.29442">
        <ele>23.39999961853</ele>
        <time>2020-01-05T09:30:56.000Z</time>
      </trkpt>
      <trkpt lat="47.27201" lon="-2.29394">
        <ele>23.39999961853</ele>
        <time>2020-01-05T09:31:04.000Z</time>
      </trkpt>
      <trkpt lat="47.272" lon="-2.29387">
        <ele>23.39999961853</ele>
        <time>2020-01-05T09:31:05.000Z</time>
      </trkpt>
      <trkpt lat="47.27188" lon="-2.29361">
        <ele>23.39999961853</ele>
        <time>2020-01-05T09:31:09.000Z</time>
      </trkpt>
      <trkpt lat="47.27184" lon="-2.29356">
        <ele>23.39999961853</ele>
        <time>2020-01-05T09:31:10.000Z</time>
      </trkpt>
      <trkpt lat="47.27169" lon="-2.29336">
        <ele>23.39999961853</ele>
        <time>2020-01-05T09:31:14.000Z</time>
      </trkpt>
      <trkpt lat="47.27156" lon="-2.29314">
        <ele>23.39999961853</ele>
        <time>2020-01-05T09:31:19.000Z</time>
      </trkpt>
      <trkpt lat="47.27156" lon="-2.29309">
        <ele>23.39999961853</ele>
        <time>2020-01-05T09:31:20.000Z</time>
      </trkpt>
      <trkpt lat="47.27156" lon="-2.29298">
        <ele>23.39999961853</ele>
        <time>2020-01-05T09:31:22.000Z</time>
      </trkpt>
      <trkpt lat="47.27164" lon="-2.29277">
        <ele>23.39999961853</ele>
        <time>2020-01-05T09:31:25.000Z</time>
      </trkpt>
      <trkpt lat="47.27174" lon="-2.29245">
        <ele>23.39999961853</ele>
        <time>2020-01-05T09:31:29.000Z</time>
      </trkpt>
      <trkpt lat="47.27174" lon="-2.29237">
        <ele>23.39999961853</ele>
        <time>2020-01-05T09:31:30.000Z</time>
      </trkpt>
      <trkpt lat="47.27167" lon="-2.29218">
        <ele>23.39999961853</ele>
        <time>2020-01-05T09:31:33.000Z</time>
      </trkpt>
      <trkpt lat="47.27155" lon="-2.29193">
        <ele>23.39999961853</ele>
        <time>2020-01-05T09:31:37.000Z</time>
      </trkpt>
      <trkpt lat="47.27152" lon="-2.29179">
        <ele>23.39999961853</ele>
        <time>2020-01-05T09:31:39.000Z</time>
      </trkpt>
      <trkpt lat="47.27155" lon="-2.29162">
        <ele>23.39999961853</ele>
        <time>2020-01-05T09:31:42.000Z</time>
      </trkpt>
      <trkpt lat="47.27165" lon="-2.29143">
        <ele>23.39999961853</ele>
        <time>2020-01-05T09:31:46.000Z</time>
      </trkpt>
      <trkpt lat="47.27169" lon="-2.29138">
        <ele>23.39999961853</ele>
        <time>2020-01-05T09:31:47.000Z</time>
      </trkpt>
      <trkpt lat="47.27187" lon="-2.29118">
        <ele>23.39999961853</ele>
        <time>2020-01-05T09:31:52.000Z</time>
      </trkpt>
      <trkpt lat="47.27208" lon="-2.29094">
        <ele>23.39999961853</ele>
        <time>2020-01-05T09:31:58.000Z</time>
      </trkpt>
      <trkpt lat="47.27212" lon="-2.29091">
        <ele>23.39999961853</ele>
        <time>2020-01-05T09:31:59.000Z</time>
      </trkpt>
      <trkpt lat="47.27222" lon="-2.29079">
        <ele>23.39999961853</ele>
        <time>2020-01-05T09:32:02.000Z</time>
      </trkpt>
      <trkpt lat="47.27225" lon="-2.29075">
        <ele>23.39999961853</ele>
        <time>2020-01-05T09:32:03.000Z</time>
      </trkpt>
      <trkpt lat="47.27229" lon="-2.29071">
        <ele>23.39999961853</ele>
        <time>2020-01-05T09:32:04.000Z</time>
      </trkpt>
      <trkpt lat="47.27241" lon="-2.29064">
        <ele>23.39999961853</ele>
        <time>2020-01-05T09:32:07.000Z</time>
      </trkpt>
      <trkpt lat="47.27249" lon="-2.29058">
        <ele>23.39999961853</ele>
        <time>2020-01-05T09:32:09.000Z</time>
      </trkpt>
      <trkpt lat="47.27255" lon="-2.29048">
        <ele>23.39999961853</ele>
        <time>2020-01-05T09:32:11.000Z</time>
      </trkpt>
      <trkpt lat="47.27266" lon="-2.2903">
        <ele>23</ele>
        <time>2020-01-05T09:32:15.000Z</time>
      </trkpt>
      <trkpt lat="47.27269" lon="-2.29023">
        <ele>22.60000038147</ele>
        <time>2020-01-05T09:32:16.000Z</time>
      </trkpt>
      <trkpt lat="47.27271" lon="-2.29016">
        <ele>21.60000038147</ele>
        <time>2020-01-05T09:32:17.000Z</time>
      </trkpt>
      <trkpt lat="47.27274" lon="-2.29009">
        <ele>21.200000762939</ele>
        <time>2020-01-05T09:32:18.000Z</time>
      </trkpt>
      <trkpt lat="47.2728" lon="-2.28999">
        <ele>21.200000762939</ele>
        <time>2020-01-05T09:32:20.000Z</time>
      </trkpt>
      <trkpt lat="47.27286" lon="-2.28991">
        <ele>21.200000762939</ele>
        <time>2020-01-05T09:32:22.000Z</time>
      </trkpt>
      <trkpt lat="47.27293" lon="-2.28982">
        <ele>21.200000762939</ele>
        <time>2020-01-05T09:32:25.000Z</time>
      </trkpt>
      <trkpt lat="47.27301" lon="-2.28977">
        <ele>21.200000762939</ele>
        <time>2020-01-05T09:32:29.000Z</time>
      </trkpt>
      <trkpt lat="47.27302" lon="-2.28976">
        <ele>21.200000762939</ele>
        <time>2020-01-05T09:32:30.000Z</time>
      </trkpt>
      <trkpt lat="47.27305" lon="-2.28971">
        <ele>21.200000762939</ele>
        <time>2020-01-05T09:32:32.000Z</time>
      </trkpt>
      <trkpt lat="47.27308" lon="-2.28962">
        <ele>21.200000762939</ele>
        <time>2020-01-05T09:32:35.000Z</time>
      </trkpt>
      <trkpt lat="47.27311" lon="-2.28957">
        <ele>21.200000762939</ele>
        <time>2020-01-05T09:32:37.000Z</time>
      </trkpt>
      <trkpt lat="47.27319" lon="-2.28949">
        <ele>21.200000762939</ele>
        <time>2020-01-05T09:32:40.000Z</time>
      </trkpt>
      <trkpt lat="47.27322" lon="-2.28947">
        <ele>21.200000762939</ele>
        <time>2020-01-05T09:32:41.000Z</time>
      </trkpt>
      <trkpt lat="47.27328" lon="-2.28946">
        <ele>21.200000762939</ele>
        <time>2020-01-05T09:32:45.000Z</time>
      </trkpt>
      <trkpt lat="47.27339" lon="-2.28948">
        <ele>21.200000762939</ele>
        <time>2020-01-05T09:38:00.000Z</time>
      </trkpt>
      <trkpt lat="47.27328" lon="-2.28942">
        <ele>21.200000762939</ele>
        <time>2020-01-05T09:38:05.000Z</time>
      </trkpt>
      <trkpt lat="47.27322" lon="-2.28944">
        <ele>21.200000762939</ele>
        <time>2020-01-05T09:38:08.000Z</time>
      </trkpt>
      <trkpt lat="47.27321" lon="-2.28947">
        <ele>21.200000762939</ele>
        <time>2020-01-05T09:38:09.000Z</time>
      </trkpt>
      <trkpt lat="47.27317" lon="-2.28961">
        <ele>21.200000762939</ele>
        <time>2020-01-05T09:38:14.000Z</time>
      </trkpt>
      <trkpt lat="47.27315" lon="-2.28963">
        <ele>21.200000762939</ele>
        <time>2020-01-05T09:38:15.000Z</time>
      </trkpt>
      <trkpt lat="47.2731" lon="-2.28967">
        <ele>21.200000762939</ele>
        <time>2020-01-05T09:38:19.000Z</time>
      </trkpt>
      <trkpt lat="47.27301" lon="-2.28977">
        <ele>21.200000762939</ele>
        <time>2020-01-05T09:38:24.000Z</time>
      </trkpt>
      <trkpt lat="47.27287" lon="-2.28996">
        <ele>21.200000762939</ele>
        <time>2020-01-05T09:38:29.000Z</time>
      </trkpt>
      <trkpt lat="47.27279" lon="-2.2902">
        <ele>21.200000762939</ele>
        <time>2020-01-05T09:38:34.000Z</time>
      </trkpt>
      <trkpt lat="47.27261" lon="-2.29045">
        <ele>21.200000762939</ele>
        <time>2020-01-05T09:38:39.000Z</time>
      </trkpt>
      <trkpt lat="47.27253" lon="-2.29055">
        <ele>21.200000762939</ele>
        <time>2020-01-05T09:38:41.000Z</time>
      </trkpt>
      <trkpt lat="47.2724" lon="-2.29064">
        <ele>21.200000762939</ele>
        <time>2020-01-05T09:38:44.000Z</time>
      </trkpt>
      <trkpt lat="47.27227" lon="-2.29074">
        <ele>21.200000762939</ele>
        <time>2020-01-05T09:38:47.000Z</time>
      </trkpt>
      <trkpt lat="47.27219" lon="-2.29084">
        <ele>21.200000762939</ele>
        <time>2020-01-05T09:38:49.000Z</time>
      </trkpt>
      <trkpt lat="47.27211" lon="-2.29093">
        <ele>21.200000762939</ele>
        <time>2020-01-05T09:38:51.000Z</time>
      </trkpt>
      <trkpt lat="47.27196" lon="-2.29107">
        <ele>21.200000762939</ele>
        <time>2020-01-05T09:38:55.000Z</time>
      </trkpt>
      <trkpt lat="47.27186" lon="-2.29123">
        <ele>21.200000762939</ele>
        <time>2020-01-05T09:38:59.000Z</time>
      </trkpt>
      <trkpt lat="47.27183" lon="-2.29127">
        <ele>21.200000762939</ele>
        <time>2020-01-05T09:39:00.000Z</time>
      </trkpt>
      <trkpt lat="47.27164" lon="-2.29151">
        <ele>21.200000762939</ele>
        <time>2020-01-05T09:39:06.000Z</time>
      </trkpt>
      <trkpt lat="47.27144" lon="-2.29175">
        <ele>21.200000762939</ele>
        <time>2020-01-05T09:39:13.000Z</time>
      </trkpt>
      <trkpt lat="47.2713" lon="-2.29195">
        <ele>21.60000038147</ele>
        <time>2020-01-05T09:39:19.000Z</time>
      </trkpt>
      <trkpt lat="47.27128" lon="-2.29198">
        <ele>22</ele>
        <time>2020-01-05T09:39:20.000Z</time>
      </trkpt>
      <trkpt lat="47.27126" lon="-2.292">
        <ele>22.39999961853</ele>
        <time>2020-01-05T09:39:21.000Z</time>
      </trkpt>
      <trkpt lat="47.27124" lon="-2.29203">
        <ele>22.799999237061</ele>
        <time>2020-01-05T09:39:22.000Z</time>
      </trkpt>
      <trkpt lat="47.27122" lon="-2.29206">
        <ele>23.200000762939</ele>
        <time>2020-01-05T09:39:23.000Z</time>
      </trkpt>
      <trkpt lat="47.27116" lon="-2.29213">
        <ele>23.200000762939</ele>
        <time>2020-01-05T09:39:26.000Z</time>
      </trkpt>
      <trkpt lat="47.27107" lon="-2.29219">
        <ele>23.200000762939</ele>
        <time>2020-01-05T09:39:31.000Z</time>
      </trkpt>
      <trkpt lat="47.27105" lon="-2.29217">
        <ele>23.200000762939</ele>
        <time>2020-01-05T09:39:35.000Z</time>
      </trkpt>
      <trkpt lat="47.27101" lon="-2.29219">
        <ele>23.200000762939</ele>
        <time>2020-01-05T09:49:23.000Z</time>
      </trkpt>
      <trkpt lat="47.27098" lon="-2.29217">
        <ele>23.200000762939</ele>
        <time>2020-01-05T09:49:25.000Z</time>
      </trkpt>
      <trkpt lat="47.2709" lon="-2.29204">
        <ele>23.200000762939</ele>
        <time>2020-01-05T09:49:30.000Z</time>
      </trkpt>
      <trkpt lat="47.27089" lon="-2.29199">
        <ele>23.200000762939</ele>
        <time>2020-01-05T09:49:31.000Z</time>
      </trkpt>
      <trkpt lat="47.27085" lon="-2.29183">
        <ele>23.200000762939</ele>
        <time>2020-01-05T09:49:34.000Z</time>
      </trkpt>
      <trkpt lat="47.27083" lon="-2.29171">
        <ele>23.200000762939</ele>
        <time>2020-01-05T09:49:36.000Z</time>
      </trkpt>
      <trkpt lat="47.27073" lon="-2.29127">
        <ele>23.200000762939</ele>
        <time>2020-01-05T09:49:43.000Z</time>
      </trkpt>
      <trkpt lat="47.27062" lon="-2.29088">
        <ele>23.200000762939</ele>
        <time>2020-01-05T09:49:49.000Z</time>
      </trkpt>
      <trkpt lat="47.2706" lon="-2.29081">
        <ele>23.200000762939</ele>
        <time>2020-01-05T09:49:50.000Z</time>
      </trkpt>
      <trkpt lat="47.27046" lon="-2.29037">
        <ele>23.200000762939</ele>
        <time>2020-01-05T09:49:57.000Z</time>
      </trkpt>
      <trkpt lat="47.2704" lon="-2.29021">
        <ele>23.200000762939</ele>
        <time>2020-01-05T09:50:01.000Z</time>
      </trkpt>
      <trkpt lat="47.27038" lon="-2.29018">
        <ele>23.200000762939</ele>
        <time>2020-01-05T09:50:02.000Z</time>
      </trkpt>
      <trkpt lat="47.27031" lon="-2.29013">
        <ele>23.200000762939</ele>
        <time>2020-01-05T09:50:04.000Z</time>
      </trkpt>
      <trkpt lat="47.27022" lon="-2.29009">
        <ele>23.200000762939</ele>
        <time>2020-01-05T09:50:06.000Z</time>
      </trkpt>
      <trkpt lat="47.27002" lon="-2.29005">
        <ele>23.200000762939</ele>
        <time>2020-01-05T09:50:10.000Z</time>
      </trkpt>
      <trkpt lat="47.26971" lon="-2.28997">
        <ele>23.200000762939</ele>
        <time>2020-01-05T09:50:16.000Z</time>
      </trkpt>
      <trkpt lat="47.26962" lon="-2.28995">
        <ele>23.200000762939</ele>
        <time>2020-01-05T09:50:18.000Z</time>
      </trkpt>
      <trkpt lat="47.26953" lon="-2.28992">
        <ele>23.200000762939</ele>
        <time>2020-01-05T09:50:20.000Z</time>
      </trkpt>
      <trkpt lat="47.26929" lon="-2.28985">
        <ele>23.200000762939</ele>
        <time>2020-01-05T09:50:26.000Z</time>
      </trkpt>
      <trkpt lat="47.26918" lon="-2.28977">
        <ele>23.200000762939</ele>
        <time>2020-01-05T09:50:31.000Z</time>
      </trkpt>
      <trkpt lat="47.26901" lon="-2.28969">
        <ele>23.200000762939</ele>
        <time>2020-01-05T09:50:37.000Z</time>
      </trkpt>
      <trkpt lat="47.26879" lon="-2.28962">
        <ele>23.200000762939</ele>
        <time>2020-01-05T09:50:43.000Z</time>
      </trkpt>
      <trkpt lat="47.26864" lon="-2.28953">
        <ele>23.200000762939</ele>
        <time>2020-01-05T09:50:47.000Z</time>
      </trkpt>
      <trkpt lat="47.26849" lon="-2.28945">
        <ele>23.60000038147</ele>
        <time>2020-01-05T09:50:50.000Z</time>
      </trkpt>
      <trkpt lat="47.26845" lon="-2.28942">
        <ele>24</ele>
        <time>2020-01-05T09:50:51.000Z</time>
      </trkpt>
      <trkpt lat="47.26839" lon="-2.28939">
        <ele>24.39999961853</ele>
        <time>2020-01-05T09:50:52.000Z</time>
      </trkpt>
      <trkpt lat="47.26834" lon="-2.28936">
        <ele>24.799999237061</ele>
        <time>2020-01-05T09:50:53.000Z</time>
      </trkpt>
      <trkpt lat="47.26828" lon="-2.28933">
        <ele>25.200000762939</ele>
        <time>2020-01-05T09:50:54.000Z</time>
      </trkpt>
      <trkpt lat="47.26808" lon="-2.28921">
        <ele>25.200000762939</ele>
        <time>2020-01-05T09:50:58.000Z</time>
      </trkpt>
      <trkpt lat="47.26782" lon="-2.28907">
        <ele>25.200000762939</ele>
        <time>2020-01-05T09:51:03.000Z</time>
      </trkpt>
      <trkpt lat="47.26772" lon="-2.28899">
        <ele>25.200000762939</ele>
        <time>2020-01-05T09:51:05.000Z</time>
      </trkpt>
      <trkpt lat="47.26747" lon="-2.28877">
        <ele>25.200000762939</ele>
        <time>2020-01-05T09:51:11.000Z</time>
      </trkpt>
      <trkpt lat="47.26739" lon="-2.2887">
        <ele>25.200000762939</ele>
        <time>2020-01-05T09:51:13.000Z</time>
      </trkpt>
      <trkpt lat="47.26726" lon="-2.2886">
        <ele>25.200000762939</ele>
        <time>2020-01-05T09:51:16.000Z</time>
      </trkpt>
      <trkpt lat="47.26705" lon="-2.28843">
        <ele>25.200000762939</ele>
        <time>2020-01-05T09:51:21.000Z</time>
      </trkpt>
      <trkpt lat="47.26696" lon="-2.28835">
        <ele>25.200000762939</ele>
        <time>2020-01-05T09:51:23.000Z</time>
      </trkpt>
      <trkpt lat="47.26684" lon="-2.28823">
        <ele>25.200000762939</ele>
        <time>2020-01-05T09:51:26.000Z</time>
      </trkpt>
      <trkpt lat="47.2668" lon="-2.28819">
        <ele>25.60000038147</ele>
        <time>2020-01-05T09:51:27.000Z</time>
      </trkpt>
      <trkpt lat="47.26677" lon="-2.28816">
        <ele>26</ele>
        <time>2020-01-05T09:51:28.000Z</time>
      </trkpt>
      <trkpt lat="47.26674" lon="-2.28812">
        <ele>26.39999961853</ele>
        <time>2020-01-05T09:51:29.000Z</time>
      </trkpt>
      <trkpt lat="47.2667" lon="-2.28808">
        <ele>26.799999237061</ele>
        <time>2020-01-05T09:51:30.000Z</time>
      </trkpt>
      <trkpt lat="47.26667" lon="-2.28804">
        <ele>27.39999961853</ele>
        <time>2020-01-05T09:51:31.000Z</time>
      </trkpt>
      <trkpt lat="47.26663" lon="-2.28801">
        <ele>27.39999961853</ele>
        <time>2020-01-05T09:51:32.000Z</time>
      </trkpt>
      <trkpt lat="47.26651" lon="-2.28785">
        <ele>27.39999961853</ele>
        <time>2020-01-05T09:51:36.000Z</time>
      </trkpt>
      <trkpt lat="47.26625" lon="-2.28762">
        <ele>27.39999961853</ele>
        <time>2020-01-05T09:51:43.000Z</time>
      </trkpt>
      <trkpt lat="47.26606" lon="-2.2874">
        <ele>27.39999961853</ele>
        <time>2020-01-05T09:51:48.000Z</time>
      </trkpt>
      <trkpt lat="47.26602" lon="-2.28736">
        <ele>27.39999961853</ele>
        <time>2020-01-05T09:51:49.000Z</time>
      </trkpt>
      <trkpt lat="47.26598" lon="-2.28732">
        <ele>27.39999961853</ele>
        <time>2020-01-05T09:51:50.000Z</time>
      </trkpt>
      <trkpt lat="47.2658" lon="-2.28708">
        <ele>27.799999237061</ele>
        <time>2020-01-05T09:51:55.000Z</time>
      </trkpt>
      <trkpt lat="47.26576" lon="-2.28703">
        <ele>28.200000762939</ele>
        <time>2020-01-05T09:51:56.000Z</time>
      </trkpt>
      <trkpt lat="47.26573" lon="-2.28698">
        <ele>28.60000038147</ele>
        <time>2020-01-05T09:51:57.000Z</time>
      </trkpt>
      <trkpt lat="47.26569" lon="-2.28694">
        <ele>29</ele>
        <time>2020-01-05T09:51:58.000Z</time>
      </trkpt>
      <trkpt lat="47.26564" lon="-2.28689">
        <ele>29.39999961853</ele>
        <time>2020-01-05T09:51:59.000Z</time>
      </trkpt>
      <trkpt lat="47.2655" lon="-2.28677">
        <ele>29.39999961853</ele>
        <time>2020-01-05T09:52:02.000Z</time>
      </trkpt>
      <trkpt lat="47.26536" lon="-2.28661">
        <ele>29.39999961853</ele>
        <time>2020-01-05T09:52:05.000Z</time>
      </trkpt>
      <trkpt lat="47.26529" lon="-2.28649">
        <ele>29.39999961853</ele>
        <time>2020-01-05T09:52:07.000Z</time>
      </trkpt>
      <trkpt lat="47.26526" lon="-2.28644">
        <ele>29.799999237061</ele>
        <time>2020-01-05T09:52:08.000Z</time>
      </trkpt>
      <trkpt lat="47.26523" lon="-2.28639">
        <ele>30.39999961853</ele>
        <time>2020-01-05T09:52:09.000Z</time>
      </trkpt>
      <trkpt lat="47.26519" lon="-2.28635">
        <ele>30.799999237061</ele>
        <time>2020-01-05T09:52:10.000Z</time>
      </trkpt>
      <trkpt lat="47.26516" lon="-2.2863">
        <ele>31.200000762939</ele>
        <time>2020-01-05T09:52:11.000Z</time>
      </trkpt>
      <trkpt lat="47.26511" lon="-2.28626">
        <ele>31.60000038147</ele>
        <time>2020-01-05T09:52:12.000Z</time>
      </trkpt>
      <trkpt lat="47.26508" lon="-2.28622">
        <ele>31.60000038147</ele>
        <time>2020-01-05T09:52:13.000Z</time>
      </trkpt>
      <trkpt lat="47.26504" lon="-2.28602">
        <ele>31.60000038147</ele>
        <time>2020-01-05T09:52:16.000Z</time>
      </trkpt>
      <trkpt lat="47.26503" lon="-2.28594">
        <ele>31.60000038147</ele>
        <time>2020-01-05T09:52:17.000Z</time>
      </trkpt>
      <trkpt lat="47.265" lon="-2.28572">
        <ele>31.60000038147</ele>
        <time>2020-01-05T09:52:20.000Z</time>
      </trkpt>
      <trkpt lat="47.26484" lon="-2.28534">
        <ele>31.60000038147</ele>
        <time>2020-01-05T09:52:26.000Z</time>
      </trkpt>
      <trkpt lat="47.26481" lon="-2.28528">
        <ele>31.60000038147</ele>
        <time>2020-01-05T09:52:27.000Z</time>
      </trkpt>
      <trkpt lat="47.26474" lon="-2.28515">
        <ele>31.60000038147</ele>
        <time>2020-01-05T09:52:29.000Z</time>
      </trkpt>
      <trkpt lat="47.26468" lon="-2.28503">
        <ele>31.60000038147</ele>
        <time>2020-01-05T09:52:31.000Z</time>
      </trkpt>
      <trkpt lat="47.26458" lon="-2.28483">
        <ele>32</ele>
        <time>2020-01-05T09:52:34.000Z</time>
      </trkpt>
      <trkpt lat="47.26456" lon="-2.28477">
        <ele>32.400001525879</ele>
        <time>2020-01-05T09:52:35.000Z</time>
      </trkpt>
      <trkpt lat="47.26453" lon="-2.28471">
        <ele>32.799999237061</ele>
        <time>2020-01-05T09:52:36.000Z</time>
      </trkpt>
      <trkpt lat="47.2645" lon="-2.28465">
        <ele>33.200000762939</ele>
        <time>2020-01-05T09:52:37.000Z</time>
      </trkpt>
      <trkpt lat="47.26447" lon="-2.28459">
        <ele>33.599998474121</ele>
        <time>2020-01-05T09:52:38.000Z</time>
      </trkpt>
      <trkpt lat="47.26434" lon="-2.28431">
        <ele>33.599998474121</ele>
        <time>2020-01-05T09:52:43.000Z</time>
      </trkpt>
      <trkpt lat="47.26413" lon="-2.28389">
        <ele>33.599998474121</ele>
        <time>2020-01-05T09:52:50.000Z</time>
      </trkpt>
      <trkpt lat="47.26393" lon="-2.28343">
        <ele>33.599998474121</ele>
        <time>2020-01-05T09:52:58.000Z</time>
      </trkpt>
      <trkpt lat="47.2639" lon="-2.28338">
        <ele>34.200000762939</ele>
        <time>2020-01-05T09:52:59.000Z</time>
      </trkpt>
      <trkpt lat="47.26388" lon="-2.28332">
        <ele>34.599998474121</ele>
        <time>2020-01-05T09:53:00.000Z</time>
      </trkpt>
      <trkpt lat="47.26385" lon="-2.28326">
        <ele>35</ele>
        <time>2020-01-05T09:53:01.000Z</time>
      </trkpt>
      <trkpt lat="47.26383" lon="-2.28319">
        <ele>35.400001525879</ele>
        <time>2020-01-05T09:53:02.000Z</time>
      </trkpt>
      <trkpt lat="47.2638" lon="-2.28313">
        <ele>35.799999237061</ele>
        <time>2020-01-05T09:53:03.000Z</time>
      </trkpt>
      <trkpt lat="47.26376" lon="-2.28299">
        <ele>35.799999237061</ele>
        <time>2020-01-05T09:53:05.000Z</time>
      </trkpt>
      <trkpt lat="47.26374" lon="-2.28293">
        <ele>35.799999237061</ele>
        <time>2020-01-05T09:53:06.000Z</time>
      </trkpt>
      <trkpt lat="47.26366" lon="-2.28266">
        <ele>35.799999237061</ele>
        <time>2020-01-05T09:53:10.000Z</time>
      </trkpt>
      <trkpt lat="47.26349" lon="-2.28197">
        <ele>35.799999237061</ele>
        <time>2020-01-05T09:53:19.000Z</time>
      </trkpt>
      <trkpt lat="47.26338" lon="-2.28129">
        <ele>35.799999237061</ele>
        <time>2020-01-05T09:53:27.000Z</time>
      </trkpt>
      <trkpt lat="47.26327" lon="-2.28068">
        <ele>35.799999237061</ele>
        <time>2020-01-05T09:53:34.000Z</time>
      </trkpt>
      <trkpt lat="47.26323" lon="-2.28051">
        <ele>35.400001525879</ele>
        <time>2020-01-05T09:53:36.000Z</time>
      </trkpt>
      <trkpt lat="47.2632" lon="-2.28042">
        <ele>35</ele>
        <time>2020-01-05T09:53:37.000Z</time>
      </trkpt>
      <trkpt lat="47.26318" lon="-2.28034">
        <ele>34.599998474121</ele>
        <time>2020-01-05T09:53:38.000Z</time>
      </trkpt>
      <trkpt lat="47.26315" lon="-2.28025">
        <ele>33.799999237061</ele>
        <time>2020-01-05T09:53:39.000Z</time>
      </trkpt>
      <trkpt lat="47.26309" lon="-2.28009">
        <ele>33.799999237061</ele>
        <time>2020-01-05T09:53:41.000Z</time>
      </trkpt>
      <trkpt lat="47.263" lon="-2.27976">
        <ele>33.799999237061</ele>
        <time>2020-01-05T09:53:46.000Z</time>
      </trkpt>
      <trkpt lat="47.26301" lon="-2.27969">
        <ele>33.799999237061</ele>
        <time>2020-01-05T09:53:48.000Z</time>
      </trkpt>
      <trkpt lat="47.26306" lon="-2.27961">
        <ele>33.799999237061</ele>
        <time>2020-01-05T09:53:50.000Z</time>
      </trkpt>
      <trkpt lat="47.26314" lon="-2.27955">
        <ele>33.799999237061</ele>
        <time>2020-01-05T09:53:52.000Z</time>
      </trkpt>
      <trkpt lat="47.26324" lon="-2.27948">
        <ele>33.799999237061</ele>
        <time>2020-01-05T09:53:54.000Z</time>
      </trkpt>
      <trkpt lat="47.26361" lon="-2.27926">
        <ele>33.400001525879</ele>
        <time>2020-01-05T09:54:01.000Z</time>
      </trkpt>
      <trkpt lat="47.26366" lon="-2.27923">
        <ele>33</ele>
        <time>2020-01-05T09:54:02.000Z</time>
      </trkpt>
      <trkpt lat="47.26371" lon="-2.2792">
        <ele>32.599998474121</ele>
        <time>2020-01-05T09:54:03.000Z</time>
      </trkpt>
      <trkpt lat="47.26377" lon="-2.27917">
        <ele>31.60000038147</ele>
        <time>2020-01-05T09:54:04.000Z</time>
      </trkpt>
      <trkpt lat="47.26406" lon="-2.27902">
        <ele>31.60000038147</ele>
        <time>2020-01-05T09:54:09.000Z</time>
      </trkpt>
      <trkpt lat="47.26449" lon="-2.27891">
        <ele>31.60000038147</ele>
        <time>2020-01-05T09:54:16.000Z</time>
      </trkpt>
      <trkpt lat="47.26455" lon="-2.27889">
        <ele>31.60000038147</ele>
        <time>2020-01-05T09:54:17.000Z</time>
      </trkpt>
      <trkpt lat="47.26485" lon="-2.2788">
        <ele>31.60000038147</ele>
        <time>2020-01-05T09:54:22.000Z</time>
      </trkpt>
      <trkpt lat="47.26529" lon="-2.27873">
        <ele>31.60000038147</ele>
        <time>2020-01-05T09:54:29.000Z</time>
      </trkpt>
      <trkpt lat="47.2654" lon="-2.27872">
        <ele>31.60000038147</ele>
        <time>2020-01-05T09:54:31.000Z</time>
      </trkpt>
      <trkpt lat="47.26552" lon="-2.27873">
        <ele>31.200000762939</ele>
        <time>2020-01-05T09:54:33.000Z</time>
      </trkpt>
      <trkpt lat="47.26558" lon="-2.27874">
        <ele>30.799999237061</ele>
        <time>2020-01-05T09:54:34.000Z</time>
      </trkpt>
      <trkpt lat="47.26565" lon="-2.27875">
        <ele>30.39999961853</ele>
        <time>2020-01-05T09:54:35.000Z</time>
      </trkpt>
      <trkpt lat="47.26572" lon="-2.27876">
        <ele>30</ele>
        <time>2020-01-05T09:54:36.000Z</time>
      </trkpt>
      <trkpt lat="47.26579" lon="-2.27877">
        <ele>29.60000038147</ele>
        <time>2020-01-05T09:54:37.000Z</time>
      </trkpt>
      <trkpt lat="47.26593" lon="-2.27875">
        <ele>29.60000038147</ele>
        <time>2020-01-05T09:54:39.000Z</time>
      </trkpt>
      <trkpt lat="47.26601" lon="-2.27873">
        <ele>29.60000038147</ele>
        <time>2020-01-05T09:54:40.000Z</time>
      </trkpt>
      <trkpt lat="47.26643" lon="-2.27854">
        <ele>29.60000038147</ele>
        <time>2020-01-05T09:54:46.000Z</time>
      </trkpt>
      <trkpt lat="47.26694" lon="-2.27826">
        <ele>29.60000038147</ele>
        <time>2020-01-05T09:54:53.000Z</time>
      </trkpt>
      <trkpt lat="47.26708" lon="-2.27818">
        <ele>29.200000762939</ele>
        <time>2020-01-05T09:54:55.000Z</time>
      </trkpt>
      <trkpt lat="47.26716" lon="-2.27815">
        <ele>28.799999237061</ele>
        <time>2020-01-05T09:54:56.000Z</time>
      </trkpt>
      <trkpt lat="47.26723" lon="-2.27812">
        <ele>28.39999961853</ele>
        <time>2020-01-05T09:54:57.000Z</time>
      </trkpt>
      <trkpt lat="47.26731" lon="-2.27811">
        <ele>27.799999237061</ele>
        <time>2020-01-05T09:54:58.000Z</time>
      </trkpt>
      <trkpt lat="47.26738" lon="-2.2781">
        <ele>27.39999961853</ele>
        <time>2020-01-05T09:54:59.000Z</time>
      </trkpt>
      <trkpt lat="47.26773" lon="-2.27811">
        <ele>27.39999961853</ele>
        <time>2020-01-05T09:55:04.000Z</time>
      </trkpt>
      <trkpt lat="47.2678" lon="-2.27811">
        <ele>27.39999961853</ele>
        <time>2020-01-05T09:55:05.000Z</time>
      </trkpt>
      <trkpt lat="47.26797" lon="-2.27804">
        <ele>27.39999961853</ele>
        <time>2020-01-05T09:55:08.000Z</time>
      </trkpt>
      <trkpt lat="47.26808" lon="-2.27801">
        <ele>27</ele>
        <time>2020-01-05T09:55:10.000Z</time>
      </trkpt>
      <trkpt lat="47.26814" lon="-2.278">
        <ele>26.60000038147</ele>
        <time>2020-01-05T09:55:11.000Z</time>
      </trkpt>
      <trkpt lat="47.2682" lon="-2.27798">
        <ele>26.200000762939</ele>
        <time>2020-01-05T09:55:12.000Z</time>
      </trkpt>
      <trkpt lat="47.26826" lon="-2.27795">
        <ele>25.799999237061</ele>
        <time>2020-01-05T09:55:13.000Z</time>
      </trkpt>
      <trkpt lat="47.26833" lon="-2.27792">
        <ele>25.39999961853</ele>
        <time>2020-01-05T09:55:14.000Z</time>
      </trkpt>
      <trkpt lat="47.26851" lon="-2.27782">
        <ele>25.39999961853</ele>
        <time>2020-01-05T09:55:17.000Z</time>
      </trkpt>
      <trkpt lat="47.26894" lon="-2.27757">
        <ele>25.39999961853</ele>
        <time>2020-01-05T09:55:24.000Z</time>
      </trkpt>
      <trkpt lat="47.26907" lon="-2.27751">
        <ele>25.39999961853</ele>
        <time>2020-01-05T09:55:26.000Z</time>
      </trkpt>
      <trkpt lat="47.26927" lon="-2.27743">
        <ele>25.39999961853</ele>
        <time>2020-01-05T09:55:29.000Z</time>
      </trkpt>
      <trkpt lat="47.26964" lon="-2.2773">
        <ele>25.39999961853</ele>
        <time>2020-01-05T09:55:35.000Z</time>
      </trkpt>
      <trkpt lat="47.27001" lon="-2.27717">
        <ele>25.39999961853</ele>
        <time>2020-01-05T09:55:41.000Z</time>
      </trkpt>
      <trkpt lat="47.27006" lon="-2.27714">
        <ele>25.39999961853</ele>
        <time>2020-01-05T09:55:42.000Z</time>
      </trkpt>
      <trkpt lat="47.27012" lon="-2.2771">
        <ele>25.39999961853</ele>
        <time>2020-01-05T09:55:43.000Z</time>
      </trkpt>
      <trkpt lat="47.27026" lon="-2.27694">
        <ele>25.39999961853</ele>
        <time>2020-01-05T09:55:46.000Z</time>
      </trkpt>
      <trkpt lat="47.27031" lon="-2.27688">
        <ele>25.39999961853</ele>
        <time>2020-01-05T09:55:47.000Z</time>
      </trkpt>
      <trkpt lat="47.27056" lon="-2.2766">
        <ele>25.39999961853</ele>
        <time>2020-01-05T09:55:52.000Z</time>
      </trkpt>
      <trkpt lat="47.27094" lon="-2.27629">
        <ele>25.39999961853</ele>
        <time>2020-01-05T09:55:59.000Z</time>
      </trkpt>
      <trkpt lat="47.27133" lon="-2.27603">
        <ele>25.39999961853</ele>
        <time>2020-01-05T09:56:06.000Z</time>
      </trkpt>
      <trkpt lat="47.27143" lon="-2.27581">
        <ele>25.39999961853</ele>
        <time>2020-01-05T09:56:09.000Z</time>
      </trkpt>
      <trkpt lat="47.27145" lon="-2.27572">
        <ele>25.39999961853</ele>
        <time>2020-01-05T09:56:10.000Z</time>
      </trkpt>
      <trkpt lat="47.27147" lon="-2.27562">
        <ele>25.39999961853</ele>
        <time>2020-01-05T09:56:11.000Z</time>
      </trkpt>
      <trkpt lat="47.27148" lon="-2.27542">
        <ele>25.39999961853</ele>
        <time>2020-01-05T09:56:13.000Z</time>
      </trkpt>
      <trkpt lat="47.27148" lon="-2.27523">
        <ele>25.39999961853</ele>
        <time>2020-01-05T09:56:15.000Z</time>
      </trkpt>
      <trkpt lat="47.27148" lon="-2.27486">
        <ele>25.39999961853</ele>
        <time>2020-01-05T09:56:19.000Z</time>
      </trkpt>
      <trkpt lat="47.27147" lon="-2.27469">
        <ele>25.39999961853</ele>
        <time>2020-01-05T09:56:21.000Z</time>
      </trkpt>
      <trkpt lat="47.27144" lon="-2.27442">
        <ele>25.39999961853</ele>
        <time>2020-01-05T09:56:24.000Z</time>
      </trkpt>
      <trkpt lat="47.27133" lon="-2.27372">
        <ele>25.39999961853</ele>
        <time>2020-01-05T09:56:32.000Z</time>
      </trkpt>
      <trkpt lat="47.27131" lon="-2.27364">
        <ele>25.39999961853</ele>
        <time>2020-01-05T09:56:33.000Z</time>
      </trkpt>
      <trkpt lat="47.27127" lon="-2.27336">
        <ele>25.39999961853</ele>
        <time>2020-01-05T09:56:36.000Z</time>
      </trkpt>
      <trkpt lat="47.27124" lon="-2.2731">
        <ele>25</ele>
        <time>2020-01-05T09:56:39.000Z</time>
      </trkpt>
      <trkpt lat="47.27123" lon="-2.27301">
        <ele>24.60000038147</ele>
        <time>2020-01-05T09:56:40.000Z</time>
      </trkpt>
      <trkpt lat="47.27121" lon="-2.27293">
        <ele>24.200000762939</ele>
        <time>2020-01-05T09:56:41.000Z</time>
      </trkpt>
      <trkpt lat="47.27118" lon="-2.27284">
        <ele>23.799999237061</ele>
        <time>2020-01-05T09:56:42.000Z</time>
      </trkpt>
      <trkpt lat="47.27115" lon="-2.27275">
        <ele>23.39999961853</ele>
        <time>2020-01-05T09:56:43.000Z</time>
      </trkpt>
      <trkpt lat="47.27108" lon="-2.27259">
        <ele>23.39999961853</ele>
        <time>2020-01-05T09:56:45.000Z</time>
      </trkpt>
      <trkpt lat="47.27101" lon="-2.27244">
        <ele>23.39999961853</ele>
        <time>2020-01-05T09:56:47.000Z</time>
      </trkpt>
      <trkpt lat="47.27098" lon="-2.27238">
        <ele>23</ele>
        <time>2020-01-05T09:56:48.000Z</time>
      </trkpt>
      <trkpt lat="47.27093" lon="-2.27231">
        <ele>22.60000038147</ele>
        <time>2020-01-05T09:56:49.000Z</time>
      </trkpt>
      <trkpt lat="47.27089" lon="-2.27225">
        <ele>22.200000762939</ele>
        <time>2020-01-05T09:56:50.000Z</time>
      </trkpt>
      <trkpt lat="47.27084" lon="-2.27218">
        <ele>21.60000038147</ele>
        <time>2020-01-05T09:56:51.000Z</time>
      </trkpt>
      <trkpt lat="47.2708" lon="-2.27211">
        <ele>21.200000762939</ele>
        <time>2020-01-05T09:56:52.000Z</time>
      </trkpt>
      <trkpt lat="47.27075" lon="-2.27204">
        <ele>21.200000762939</ele>
        <time>2020-01-05T09:56:53.000Z</time>
      </trkpt>
      <trkpt lat="47.27067" lon="-2.2719">
        <ele>20.799999237061</ele>
        <time>2020-01-05T09:56:55.000Z</time>
      </trkpt>
      <trkpt lat="47.27063" lon="-2.27184">
        <ele>19.799999237061</ele>
        <time>2020-01-05T09:56:56.000Z</time>
      </trkpt>
      <trkpt lat="47.27059" lon="-2.27179">
        <ele>19.39999961853</ele>
        <time>2020-01-05T09:56:57.000Z</time>
      </trkpt>
      <trkpt lat="47.27056" lon="-2.27173">
        <ele>18.799999237061</ele>
        <time>2020-01-05T09:56:58.000Z</time>
      </trkpt>
      <trkpt lat="47.27053" lon="-2.27169">
        <ele>18.200000762939</ele>
        <time>2020-01-05T09:56:59.000Z</time>
      </trkpt>
      <trkpt lat="47.27051" lon="-2.27165">
        <ele>17.60000038147</ele>
        <time>2020-01-05T09:57:00.000Z</time>
      </trkpt>
      <trkpt lat="47.27049" lon="-2.27162">
        <ele>17</ele>
        <time>2020-01-05T09:57:01.000Z</time>
      </trkpt>
      <trkpt lat="47.27047" lon="-2.2716">
        <ele>16.60000038147</ele>
        <time>2020-01-05T09:57:02.000Z</time>
      </trkpt>
      <trkpt lat="47.27047" lon="-2.27158">
        <ele>16.60000038147</ele>
        <time>2020-01-05T09:57:03.000Z</time>
      </trkpt>
      <trkpt lat="47.27045" lon="-2.27154">
        <ele>16.60000038147</ele>
        <time>2020-01-05T09:57:07.000Z</time>
      </trkpt>
      <trkpt lat="47.2704" lon="-2.27152">
        <ele>14.60000038147</ele>
        <time>2020-01-05T09:57:25.000Z</time>
      </trkpt>
      <trkpt lat="47.27039" lon="-2.27154">
        <ele>14.60000038147</ele>
        <time>2020-01-05T09:57:26.000Z</time>
      </trkpt>
      <trkpt lat="47.27035" lon="-2.27157">
        <ele>14.60000038147</ele>
        <time>2020-01-05T09:57:29.000Z</time>
      </trkpt>
      <trkpt lat="47.27034" lon="-2.27157">
        <ele>14.60000038147</ele>
        <time>2020-01-05T09:57:30.000Z</time>
      </trkpt>
      <trkpt lat="47.27029" lon="-2.27159">
        <ele>14.60000038147</ele>
        <time>2020-01-05T09:57:34.000Z</time>
      </trkpt>
      <trkpt lat="47.27028" lon="-2.27161">
        <ele>14.60000038147</ele>
        <time>2020-01-05T09:57:36.000Z</time>
      </trkpt>
      <trkpt lat="47.27027" lon="-2.27162">
        <ele>14.60000038147</ele>
        <time>2020-01-05T09:57:38.000Z</time>
      </trkpt>
      <trkpt lat="47.27019" lon="-2.27163">
        <ele>16.60000038147</ele>
        <time>2020-01-05T09:57:57.000Z</time>
      </trkpt>
      <trkpt lat="47.27018" lon="-2.27162">
        <ele>16.60000038147</ele>
        <time>2020-01-05T09:57:58.000Z</time>
      </trkpt>
      <trkpt lat="47.27013" lon="-2.27165">
        <ele>16.60000038147</ele>
        <time>2020-01-05T09:58:03.000Z</time>
      </trkpt>
      <trkpt lat="47.27012" lon="-2.27166">
        <ele>16.60000038147</ele>
        <time>2020-01-05T09:58:04.000Z</time>
      </trkpt>
      <trkpt lat="47.27009" lon="-2.27168">
        <ele>17</ele>
        <time>2020-01-05T09:58:06.000Z</time>
      </trkpt>
      <trkpt lat="47.27007" lon="-2.27168">
        <ele>17.39999961853</ele>
        <time>2020-01-05T09:58:07.000Z</time>
      </trkpt>
      <trkpt lat="47.27006" lon="-2.27169">
        <ele>17.799999237061</ele>
        <time>2020-01-05T09:58:08.000Z</time>
      </trkpt>
      <trkpt lat="47.27006" lon="-2.2717">
        <ele>18.200000762939</ele>
        <time>2020-01-05T09:58:09.000Z</time>
      </trkpt>
      <trkpt lat="47.27005" lon="-2.27172">
        <ele>18.60000038147</ele>
        <time>2020-01-05T09:58:10.000Z</time>
      </trkpt>
      <trkpt lat="47.27001" lon="-2.27172">
        <ele>18.60000038147</ele>
        <time>2020-01-05T09:58:13.000Z</time>
      </trkpt>
      <trkpt lat="47.27" lon="-2.27171">
        <ele>18.60000038147</ele>
        <time>2020-01-05T09:58:14.000Z</time>
      </trkpt>
      <trkpt lat="47.26993" lon="-2.27173">
        <ele>18.60000038147</ele>
        <time>2020-01-05T09:58:18.000Z</time>
      </trkpt>
      <trkpt lat="47.26987" lon="-2.27181">
        <ele>18.60000038147</ele>
        <time>2020-01-05T09:58:23.000Z</time>
      </trkpt>
      <trkpt lat="47.26981" lon="-2.27188">
        <ele>18.60000038147</ele>
        <time>2020-01-05T09:58:27.000Z</time>
      </trkpt>
      <trkpt lat="47.26979" lon="-2.2719">
        <ele>18.60000038147</ele>
        <time>2020-01-05T09:58:28.000Z</time>
      </trkpt>
      <trkpt lat="47.26978" lon="-2.27195">
        <ele>18.60000038147</ele>
        <time>2020-01-05T09:58:30.000Z</time>
      </trkpt>
      <trkpt lat="47.2698" lon="-2.27202">
        <ele>18.60000038147</ele>
        <time>2020-01-05T09:58:32.000Z</time>
      </trkpt>
      <trkpt lat="47.26981" lon="-2.27223">
        <ele>18.60000038147</ele>
        <time>2020-01-05T09:58:37.000Z</time>
      </trkpt>
      <trkpt lat="47.2698" lon="-2.27227">
        <ele>18.60000038147</ele>
        <time>2020-01-05T09:58:38.000Z</time>
      </trkpt>
      <trkpt lat="47.26971" lon="-2.27244">
        <ele>18.60000038147</ele>
        <time>2020-01-05T09:58:42.000Z</time>
      </trkpt>
      <trkpt lat="47.26964" lon="-2.27248">
        <ele>18.60000038147</ele>
        <time>2020-01-05T09:58:45.000Z</time>
      </trkpt>
      <trkpt lat="47.2695" lon="-2.27251">
        <ele>18.60000038147</ele>
        <time>2020-01-05T09:58:50.000Z</time>
      </trkpt>
      <trkpt lat="47.2694" lon="-2.27261">
        <ele>18.60000038147</ele>
        <time>2020-01-05T09:58:55.000Z</time>
      </trkpt>
      <trkpt lat="47.26936" lon="-2.27271">
        <ele>18.60000038147</ele>
        <time>2020-01-05T09:58:59.000Z</time>
      </trkpt>
      <trkpt lat="47.26936" lon="-2.27278">
        <ele>18.60000038147</ele>
        <time>2020-01-05T09:59:03.000Z</time>
      </trkpt>
      <trkpt lat="47.26935" lon="-2.27285">
        <ele>18.60000038147</ele>
        <time>2020-01-05T09:59:06.000Z</time>
      </trkpt>
      <trkpt lat="47.26936" lon="-2.27289">
        <ele>18.60000038147</ele>
        <time>2020-01-05T09:59:08.000Z</time>
      </trkpt>
      <trkpt lat="47.26936" lon="-2.27296">
        <ele>18.60000038147</ele>
        <time>2020-01-05T09:59:11.000Z</time>
      </trkpt>
      <trkpt lat="47.26935" lon="-2.27302">
        <ele>18.60000038147</ele>
        <time>2020-01-05T09:59:13.000Z</time>
      </trkpt>
      <trkpt lat="47.26931" lon="-2.27315">
        <ele>18.60000038147</ele>
        <time>2020-01-05T09:59:17.000Z</time>
      </trkpt>
      <trkpt lat="47.2693" lon="-2.27317">
        <ele>18.60000038147</ele>
        <time>2020-01-05T09:59:18.000Z</time>
      </trkpt>
      <trkpt lat="47.26923" lon="-2.27346">
        <ele>18.60000038147</ele>
        <time>2020-01-05T09:59:25.000Z</time>
      </trkpt>
      <trkpt lat="47.2691" lon="-2.27367">
        <ele>18.60000038147</ele>
        <time>2020-01-05T09:59:31.000Z</time>
      </trkpt>
      <trkpt lat="47.26895" lon="-2.27381">
        <ele>18.60000038147</ele>
        <time>2020-01-05T09:59:36.000Z</time>
      </trkpt>
      <trkpt lat="47.26883" lon="-2.2739">
        <ele>18.60000038147</ele>
        <time>2020-01-05T09:59:41.000Z</time>
      </trkpt>
      <trkpt lat="47.2688" lon="-2.27391">
        <ele>19</ele>
        <time>2020-01-05T09:59:42.000Z</time>
      </trkpt>
      <trkpt lat="47.26878" lon="-2.27392">
        <ele>19.39999961853</ele>
        <time>2020-01-05T09:59:43.000Z</time>
      </trkpt>
      <trkpt lat="47.26875" lon="-2.27393">
        <ele>19.799999237061</ele>
        <time>2020-01-05T09:59:44.000Z</time>
      </trkpt>
      <trkpt lat="47.26872" lon="-2.27396">
        <ele>20.39999961853</ele>
        <time>2020-01-05T09:59:45.000Z</time>
      </trkpt>
      <trkpt lat="47.26869" lon="-2.27397">
        <ele>20.799999237061</ele>
        <time>2020-01-05T09:59:46.000Z</time>
      </trkpt>
      <trkpt lat="47.26865" lon="-2.27399">
        <ele>20.799999237061</ele>
        <time>2020-01-05T09:59:47.000Z</time>
      </trkpt>
      <trkpt lat="47.26841" lon="-2.27408">
        <ele>21.200000762939</ele>
        <time>2020-01-05T09:59:53.000Z</time>
      </trkpt>
      <trkpt lat="47.26837" lon="-2.27409">
        <ele>21.60000038147</ele>
        <time>2020-01-05T09:59:54.000Z</time>
      </trkpt>
      <trkpt lat="47.26833" lon="-2.2741">
        <ele>22</ele>
        <time>2020-01-05T09:59:55.000Z</time>
      </trkpt>
      <trkpt lat="47.26829" lon="-2.2741">
        <ele>22.39999961853</ele>
        <time>2020-01-05T09:59:56.000Z</time>
      </trkpt>
      <trkpt lat="47.26824" lon="-2.27411">
        <ele>22.799999237061</ele>
        <time>2020-01-05T09:59:57.000Z</time>
      </trkpt>
      <trkpt lat="47.2682" lon="-2.27411">
        <ele>22.799999237061</ele>
        <time>2020-01-05T09:59:58.000Z</time>
      </trkpt>
      <trkpt lat="47.268" lon="-2.27412">
        <ele>22.799999237061</ele>
        <time>2020-01-05T10:00:03.000Z</time>
      </trkpt>
      <trkpt lat="47.26781" lon="-2.27412">
        <ele>22.799999237061</ele>
        <time>2020-01-05T10:00:08.000Z</time>
      </trkpt>
      <trkpt lat="47.26769" lon="-2.27411">
        <ele>22.799999237061</ele>
        <time>2020-01-05T10:00:12.000Z</time>
      </trkpt>
      <trkpt lat="47.26763" lon="-2.27409">
        <ele>23.200000762939</ele>
        <time>2020-01-05T10:00:14.000Z</time>
      </trkpt>
      <trkpt lat="47.26759" lon="-2.27406">
        <ele>23.60000038147</ele>
        <time>2020-01-05T10:00:15.000Z</time>
      </trkpt>
      <trkpt lat="47.26756" lon="-2.27401">
        <ele>24</ele>
        <time>2020-01-05T10:00:16.000Z</time>
      </trkpt>
      <trkpt lat="47.26755" lon="-2.27396">
        <ele>24.39999961853</ele>
        <time>2020-01-05T10:00:17.000Z</time>
      </trkpt>
      <trkpt lat="47.26753" lon="-2.2739">
        <ele>24.799999237061</ele>
        <time>2020-01-05T10:00:18.000Z</time>
      </trkpt>
      <trkpt lat="47.26746" lon="-2.27359">
        <ele>24.799999237061</ele>
        <time>2020-01-05T10:00:23.000Z</time>
      </trkpt>
      <trkpt lat="47.26742" lon="-2.27322">
        <ele>24.799999237061</ele>
        <time>2020-01-05T10:00:29.000Z</time>
      </trkpt>
      <trkpt lat="47.26739" lon="-2.27304">
        <ele>24.799999237061</ele>
        <time>2020-01-05T10:00:32.000Z</time>
      </trkpt>
      <trkpt lat="47.26738" lon="-2.27291">
        <ele>24.799999237061</ele>
        <time>2020-01-05T10:00:34.000Z</time>
      </trkpt>
      <trkpt lat="47.26733" lon="-2.27261">
        <ele>25.200000762939</ele>
        <time>2020-01-05T10:00:39.000Z</time>
      </trkpt>
      <trkpt lat="47.26732" lon="-2.27256">
        <ele>25.799999237061</ele>
        <time>2020-01-05T10:00:40.000Z</time>
      </trkpt>
      <trkpt lat="47.26731" lon="-2.2725">
        <ele>26.200000762939</ele>
        <time>2020-01-05T10:00:41.000Z</time>
      </trkpt>
      <trkpt lat="47.26729" lon="-2.27245">
        <ele>26.60000038147</ele>
        <time>2020-01-05T10:00:42.000Z</time>
      </trkpt>
      <trkpt lat="47.26728" lon="-2.27239">
        <ele>27</ele>
        <time>2020-01-05T10:00:43.000Z</time>
      </trkpt>
      <trkpt lat="47.26725" lon="-2.2722">
        <ele>27</ele>
        <time>2020-01-05T10:00:46.000Z</time>
      </trkpt>
      <trkpt lat="47.26723" lon="-2.27214">
        <ele>27</ele>
        <time>2020-01-05T10:00:47.000Z</time>
      </trkpt>
      <trkpt lat="47.26723" lon="-2.27196">
        <ele>27</ele>
        <time>2020-01-05T10:00:51.000Z</time>
      </trkpt>
      <trkpt lat="47.26729" lon="-2.27187">
        <ele>27</ele>
        <time>2020-01-05T10:00:53.000Z</time>
      </trkpt>
      <trkpt lat="47.26733" lon="-2.27181">
        <ele>27</ele>
        <time>2020-01-05T10:00:54.000Z</time>
      </trkpt>
      <trkpt lat="47.26764" lon="-2.27151">
        <ele>27</ele>
        <time>2020-01-05T10:01:01.000Z</time>
      </trkpt>
      <trkpt lat="47.26769" lon="-2.27148">
        <ele>26.60000038147</ele>
        <time>2020-01-05T10:01:02.000Z</time>
      </trkpt>
      <trkpt lat="47.26773" lon="-2.27144">
        <ele>25.799999237061</ele>
        <time>2020-01-05T10:01:03.000Z</time>
      </trkpt>
      <trkpt lat="47.26778" lon="-2.27142">
        <ele>25.39999961853</ele>
        <time>2020-01-05T10:01:04.000Z</time>
      </trkpt>
      <trkpt lat="47.26783" lon="-2.2714">
        <ele>25</ele>
        <time>2020-01-05T10:01:05.000Z</time>
      </trkpt>
      <trkpt lat="47.26792" lon="-2.27136">
        <ele>25</ele>
        <time>2020-01-05T10:01:07.000Z</time>
      </trkpt>
      <trkpt lat="47.26801" lon="-2.27133">
        <ele>25</ele>
        <time>2020-01-05T10:01:09.000Z</time>
      </trkpt>
      <trkpt lat="47.26816" lon="-2.27127">
        <ele>25</ele>
        <time>2020-01-05T10:01:12.000Z</time>
      </trkpt>
      <trkpt lat="47.26843" lon="-2.2712">
        <ele>25</ele>
        <time>2020-01-05T10:01:17.000Z</time>
      </trkpt>
      <trkpt lat="47.26854" lon="-2.27115">
        <ele>25</ele>
        <time>2020-01-05T10:01:19.000Z</time>
      </trkpt>
      <trkpt lat="47.26864" lon="-2.27109">
        <ele>25</ele>
        <time>2020-01-05T10:01:21.000Z</time>
      </trkpt>
      <trkpt lat="47.26868" lon="-2.27105">
        <ele>24.39999961853</ele>
        <time>2020-01-05T10:01:22.000Z</time>
      </trkpt>
      <trkpt lat="47.26873" lon="-2.271">
        <ele>24</ele>
        <time>2020-01-05T10:01:23.000Z</time>
      </trkpt>
      <trkpt lat="47.26877" lon="-2.27096">
        <ele>23.60000038147</ele>
        <time>2020-01-05T10:01:24.000Z</time>
      </trkpt>
      <trkpt lat="47.26881" lon="-2.27091">
        <ele>23.200000762939</ele>
        <time>2020-01-05T10:01:25.000Z</time>
      </trkpt>
      <trkpt lat="47.26885" lon="-2.27086">
        <ele>22.799999237061</ele>
        <time>2020-01-05T10:01:26.000Z</time>
      </trkpt>
      <trkpt lat="47.26889" lon="-2.27081">
        <ele>22.799999237061</ele>
        <time>2020-01-05T10:01:27.000Z</time>
      </trkpt>
      <trkpt lat="47.269" lon="-2.27068">
        <ele>22.39999961853</ele>
        <time>2020-01-05T10:01:29.000Z</time>
      </trkpt>
      <trkpt lat="47.26906" lon="-2.27062">
        <ele>22</ele>
        <time>2020-01-05T10:01:30.000Z</time>
      </trkpt>
      <trkpt lat="47.26912" lon="-2.27055">
        <ele>21.39999961853</ele>
        <time>2020-01-05T10:01:31.000Z</time>
      </trkpt>
      <trkpt lat="47.26917" lon="-2.27049">
        <ele>21</ele>
        <time>2020-01-05T10:01:32.000Z</time>
      </trkpt>
      <trkpt lat="47.26933" lon="-2.27027">
        <ele>20.200000762939</ele>
        <time>2020-01-05T10:01:33.000Z</time>
      </trkpt>
      <trkpt lat="47.26937" lon="-2.2702">
        <ele>19.799999237061</ele>
        <time>2020-01-05T10:01:36.000Z</time>
      </trkpt>
      <trkpt lat="47.26941" lon="-2.27014">
        <ele>19.39999961853</ele>
        <time>2020-01-05T10:01:37.000Z</time>
      </trkpt>
      <trkpt lat="47.26944" lon="-2.27009">
        <ele>18.799999237061</ele>
        <time>2020-01-05T10:01:38.000Z</time>
      </trkpt>
      <trkpt lat="47.26946" lon="-2.27004">
        <ele>18.39999961853</ele>
        <time>2020-01-05T10:01:39.000Z</time>
      </trkpt>
      <trkpt lat="47.26952" lon="-2.26995">
        <ele>18</ele>
        <time>2020-01-05T10:01:41.000Z</time>
      </trkpt>
      <trkpt lat="47.26954" lon="-2.26991">
        <ele>17.60000038147</ele>
        <time>2020-01-05T10:01:42.000Z</time>
      </trkpt>
      <trkpt lat="47.26956" lon="-2.26987">
        <ele>17</ele>
        <time>2020-01-05T10:01:43.000Z</time>
      </trkpt>
      <trkpt lat="47.26957" lon="-2.26982">
        <ele>16.60000038147</ele>
        <time>2020-01-05T10:01:44.000Z</time>
      </trkpt>
      <trkpt lat="47.26959" lon="-2.26977">
        <ele>16.200000762939</ele>
        <time>2020-01-05T10:01:45.000Z</time>
      </trkpt>
      <trkpt lat="47.26961" lon="-2.26972">
        <ele>16.200000762939</ele>
        <time>2020-01-05T10:01:46.000Z</time>
      </trkpt>
      <trkpt lat="47.26961" lon="-2.26963">
        <ele>16.200000762939</ele>
        <time>2020-01-05T10:01:47.000Z</time>
      </trkpt>
      <trkpt lat="47.26963" lon="-2.26947">
        <ele>16.200000762939</ele>
        <time>2020-01-05T10:01:49.000Z</time>
      </trkpt>
      <trkpt lat="47.26966" lon="-2.26922">
        <ele>16.200000762939</ele>
        <time>2020-01-05T10:01:52.000Z</time>
      </trkpt>
      <trkpt lat="47.26967" lon="-2.26915">
        <ele>16.200000762939</ele>
        <time>2020-01-05T10:01:53.000Z</time>
      </trkpt>
      <trkpt lat="47.26966" lon="-2.26906">
        <ele>16.200000762939</ele>
        <time>2020-01-05T10:01:54.000Z</time>
      </trkpt>
      <trkpt lat="47.26962" lon="-2.26876">
        <ele>16.200000762939</ele>
        <time>2020-01-05T10:01:57.000Z</time>
      </trkpt>
      <trkpt lat="47.26959" lon="-2.26858">
        <ele>16.200000762939</ele>
        <time>2020-01-05T10:01:59.000Z</time>
      </trkpt>
      <trkpt lat="47.26953" lon="-2.26821">
        <ele>16.200000762939</ele>
        <time>2020-01-05T10:02:03.000Z</time>
      </trkpt>
      <trkpt lat="47.26947" lon="-2.26804">
        <ele>16.200000762939</ele>
        <time>2020-01-05T10:02:05.000Z</time>
      </trkpt>
      <trkpt lat="47.26932" lon="-2.26762">
        <ele>16.200000762939</ele>
        <time>2020-01-05T10:02:10.000Z</time>
      </trkpt>
      <trkpt lat="47.26925" lon="-2.26723">
        <ele>16.200000762939</ele>
        <time>2020-01-05T10:02:15.000Z</time>
      </trkpt>
      <trkpt lat="47.26918" lon="-2.26699">
        <ele>16.200000762939</ele>
        <time>2020-01-05T10:02:18.000Z</time>
      </trkpt>
      <trkpt lat="47.26912" lon="-2.26683">
        <ele>16.200000762939</ele>
        <time>2020-01-05T10:02:20.000Z</time>
      </trkpt>
      <trkpt lat="47.26909" lon="-2.26675">
        <ele>16.60000038147</ele>
        <time>2020-01-05T10:02:21.000Z</time>
      </trkpt>
      <trkpt lat="47.26907" lon="-2.26667">
        <ele>17</ele>
        <time>2020-01-05T10:02:22.000Z</time>
      </trkpt>
      <trkpt lat="47.26904" lon="-2.26659">
        <ele>17.39999961853</ele>
        <time>2020-01-05T10:02:23.000Z</time>
      </trkpt>
      <trkpt lat="47.26901" lon="-2.26651">
        <ele>17.799999237061</ele>
        <time>2020-01-05T10:02:24.000Z</time>
      </trkpt>
      <trkpt lat="47.26898" lon="-2.26643">
        <ele>18.200000762939</ele>
        <time>2020-01-05T10:02:25.000Z</time>
      </trkpt>
      <trkpt lat="47.26896" lon="-2.26633">
        <ele>18.200000762939</ele>
        <time>2020-01-05T10:02:26.000Z</time>
      </trkpt>
      <trkpt lat="47.2688" lon="-2.26588">
        <ele>18.200000762939</ele>
        <time>2020-01-05T10:02:32.000Z</time>
      </trkpt>
      <trkpt lat="47.26872" lon="-2.26561">
        <ele>18.200000762939</ele>
        <time>2020-01-05T10:02:37.000Z</time>
      </trkpt>
      <trkpt lat="47.26872" lon="-2.26552">
        <ele>18.200000762939</ele>
        <time>2020-01-05T10:02:39.000Z</time>
      </trkpt>
      <trkpt lat="47.26876" lon="-2.26544">
        <ele>18.200000762939</ele>
        <time>2020-01-05T10:02:41.000Z</time>
      </trkpt>
      <trkpt lat="47.26892" lon="-2.26532">
        <ele>18.200000762939</ele>
        <time>2020-01-05T10:02:45.000Z</time>
      </trkpt>
      <trkpt lat="47.26925" lon="-2.2652">
        <ele>18.200000762939</ele>
        <time>2020-01-05T10:02:51.000Z</time>
      </trkpt>
      <trkpt lat="47.26947" lon="-2.2651">
        <ele>18.200000762939</ele>
        <time>2020-01-05T10:02:55.000Z</time>
      </trkpt>
      <trkpt lat="47.26958" lon="-2.26504">
        <ele>18.200000762939</ele>
        <time>2020-01-05T10:02:57.000Z</time>
      </trkpt>
      <trkpt lat="47.26987" lon="-2.26481">
        <ele>18.200000762939</ele>
        <time>2020-01-05T10:03:03.000Z</time>
      </trkpt>
      <trkpt lat="47.27006" lon="-2.26454">
        <ele>18.200000762939</ele>
        <time>2020-01-05T10:03:09.000Z</time>
      </trkpt>
      <trkpt lat="47.27028" lon="-2.26422">
        <ele>18.200000762939</ele>
        <time>2020-01-05T10:03:16.000Z</time>
      </trkpt>
      <trkpt lat="47.27041" lon="-2.26404">
        <ele>18.200000762939</ele>
        <time>2020-01-05T10:03:22.000Z</time>
      </trkpt>
      <trkpt lat="47.2706" lon="-2.26378">
        <ele>18.200000762939</ele>
        <time>2020-01-05T10:03:29.000Z</time>
      </trkpt>
      <trkpt lat="47.27079" lon="-2.2635">
        <ele>18.200000762939</ele>
        <time>2020-01-05T10:03:35.000Z</time>
      </trkpt>
      <trkpt lat="47.27098" lon="-2.26318">
        <ele>18.200000762939</ele>
        <time>2020-01-05T10:03:42.000Z</time>
      </trkpt>
      <trkpt lat="47.27118" lon="-2.26292">
        <ele>18.200000762939</ele>
        <time>2020-01-05T10:03:50.000Z</time>
      </trkpt>
      <trkpt lat="47.27129" lon="-2.26275">
        <ele>17.799999237061</ele>
        <time>2020-01-05T10:03:55.000Z</time>
      </trkpt>
      <trkpt lat="47.27132" lon="-2.26271">
        <ele>17</ele>
        <time>2020-01-05T10:03:56.000Z</time>
      </trkpt>
      <trkpt lat="47.27135" lon="-2.26267">
        <ele>16.60000038147</ele>
        <time>2020-01-05T10:03:57.000Z</time>
      </trkpt>
      <trkpt lat="47.27138" lon="-2.26264">
        <ele>16.200000762939</ele>
        <time>2020-01-05T10:03:58.000Z</time>
      </trkpt>
      <trkpt lat="47.27157" lon="-2.26238">
        <ele>16.200000762939</ele>
        <time>2020-01-05T10:04:05.000Z</time>
      </trkpt>
      <trkpt lat="47.27186" lon="-2.26206">
        <ele>16.200000762939</ele>
        <time>2020-01-05T10:04:13.000Z</time>
      </trkpt>
      <trkpt lat="47.2719" lon="-2.26202">
        <ele>15.800000190735</ele>
        <time>2020-01-05T10:04:14.000Z</time>
      </trkpt>
      <trkpt lat="47.27194" lon="-2.26198">
        <ele>15.39999961853</ele>
        <time>2020-01-05T10:04:15.000Z</time>
      </trkpt>
      <trkpt lat="47.27198" lon="-2.26195">
        <ele>15</ele>
        <time>2020-01-05T10:04:16.000Z</time>
      </trkpt>
      <trkpt lat="47.27202" lon="-2.26191">
        <ele>14.60000038147</ele>
        <time>2020-01-05T10:04:17.000Z</time>
      </trkpt>
      <trkpt lat="47.27207" lon="-2.26188">
        <ele>14.199999809265</ele>
        <time>2020-01-05T10:04:18.000Z</time>
      </trkpt>
      <trkpt lat="47.27219" lon="-2.26178">
        <ele>14.199999809265</ele>
        <time>2020-01-05T10:04:21.000Z</time>
      </trkpt>
      <trkpt lat="47.27252" lon="-2.26156">
        <ele>14.199999809265</ele>
        <time>2020-01-05T10:04:28.000Z</time>
      </trkpt>
      <trkpt lat="47.27257" lon="-2.26154">
        <ele>14.199999809265</ele>
        <time>2020-01-05T10:04:29.000Z</time>
      </trkpt>
      <trkpt lat="47.27277" lon="-2.26146">
        <ele>14.199999809265</ele>
        <time>2020-01-05T10:04:33.000Z</time>
      </trkpt>
      <trkpt lat="47.27312" lon="-2.26132">
        <ele>14.199999809265</ele>
        <time>2020-01-05T10:04:41.000Z</time>
      </trkpt>
      <trkpt lat="47.27338" lon="-2.26124">
        <ele>14.199999809265</ele>
        <time>2020-01-05T10:04:48.000Z</time>
      </trkpt>
      <trkpt lat="47.27342" lon="-2.26123">
        <ele>13.800000190735</ele>
        <time>2020-01-05T10:04:49.000Z</time>
      </trkpt>
      <trkpt lat="47.27345" lon="-2.26121">
        <ele>13.199999809265</ele>
        <time>2020-01-05T10:04:50.000Z</time>
      </trkpt>
      <trkpt lat="47.27348" lon="-2.2612">
        <ele>12.800000190735</ele>
        <time>2020-01-05T10:04:51.000Z</time>
      </trkpt>
      <trkpt lat="47.27351" lon="-2.26119">
        <ele>12.39999961853</ele>
        <time>2020-01-05T10:04:52.000Z</time>
      </trkpt>
      <trkpt lat="47.27354" lon="-2.26121">
        <ele>12</ele>
        <time>2020-01-05T10:04:53.000Z</time>
      </trkpt>
      <trkpt lat="47.2736" lon="-2.26126">
        <ele>12</ele>
        <time>2020-01-05T10:04:55.000Z</time>
      </trkpt>
      <trkpt lat="47.27374" lon="-2.26145">
        <ele>12</ele>
        <time>2020-01-05T10:05:01.000Z</time>
      </trkpt>
      <trkpt lat="47.27394" lon="-2.26177">
        <ele>12</ele>
        <time>2020-01-05T10:05:08.000Z</time>
      </trkpt>
      <trkpt lat="47.27414" lon="-2.26208">
        <ele>12</ele>
        <time>2020-01-05T10:05:14.000Z</time>
      </trkpt>
      <trkpt lat="47.27427" lon="-2.26228">
        <ele>12</ele>
        <time>2020-01-05T10:05:18.000Z</time>
      </trkpt>
      <trkpt lat="47.27438" lon="-2.26243">
        <ele>12</ele>
        <time>2020-01-05T10:05:21.000Z</time>
      </trkpt>
      <trkpt lat="47.27471" lon="-2.26272">
        <ele>12</ele>
        <time>2020-01-05T10:05:28.000Z</time>
      </trkpt>
      <trkpt lat="47.27477" lon="-2.26276">
        <ele>11.60000038147</ele>
        <time>2020-01-05T10:05:29.000Z</time>
      </trkpt>
      <trkpt lat="47.27482" lon="-2.26279">
        <ele>11.199999809265</ele>
        <time>2020-01-05T10:05:30.000Z</time>
      </trkpt>
      <trkpt lat="47.27488" lon="-2.26281">
        <ele>10.800000190735</ele>
        <time>2020-01-05T10:05:31.000Z</time>
      </trkpt>
      <trkpt lat="47.27494" lon="-2.26284">
        <ele>10.39999961853</ele>
        <time>2020-01-05T10:05:32.000Z</time>
      </trkpt>
      <trkpt lat="47.27499" lon="-2.26285">
        <ele>10</ele>
        <time>2020-01-05T10:05:33.000Z</time>
      </trkpt>
      <trkpt lat="47.2751" lon="-2.26286">
        <ele>10</ele>
        <time>2020-01-05T10:05:35.000Z</time>
      </trkpt>
      <trkpt lat="47.27522" lon="-2.26288">
        <ele>10</ele>
        <time>2020-01-05T10:05:37.000Z</time>
      </trkpt>
      <trkpt lat="47.27533" lon="-2.26288">
        <ele>10</ele>
        <time>2020-01-05T10:05:39.000Z</time>
      </trkpt>
      <trkpt lat="47.27538" lon="-2.26287">
        <ele>10</ele>
        <time>2020-01-05T10:05:40.000Z</time>
      </trkpt>
      <trkpt lat="47.27574" lon="-2.26286">
        <ele>10</ele>
        <time>2020-01-05T10:05:46.000Z</time>
      </trkpt>
      <trkpt lat="47.27598" lon="-2.26288">
        <ele>10</ele>
        <time>2020-01-05T10:05:50.000Z</time>
      </trkpt>
      <trkpt lat="47.27609" lon="-2.26292">
        <ele>10</ele>
        <time>2020-01-05T10:05:52.000Z</time>
      </trkpt>
      <trkpt lat="47.2762" lon="-2.26298">
        <ele>9.6000003814697</ele>
        <time>2020-01-05T10:05:54.000Z</time>
      </trkpt>
      <trkpt lat="47.27625" lon="-2.26302">
        <ele>9.1999998092651</ele>
        <time>2020-01-05T10:05:55.000Z</time>
      </trkpt>
      <trkpt lat="47.27629" lon="-2.26306">
        <ele>8.8000001907349</ele>
        <time>2020-01-05T10:05:56.000Z</time>
      </trkpt>
      <trkpt lat="47.27635" lon="-2.26311">
        <ele>8.3999996185303</ele>
        <time>2020-01-05T10:05:57.000Z</time>
      </trkpt>
      <trkpt lat="47.27639" lon="-2.26316">
        <ele>8</ele>
        <time>2020-01-05T10:05:58.000Z</time>
      </trkpt>
      <trkpt lat="47.27648" lon="-2.26326">
        <ele>8</ele>
        <time>2020-01-05T10:06:00.000Z</time>
      </trkpt>
      <trkpt lat="47.27654" lon="-2.26337">
        <ele>8</ele>
        <time>2020-01-05T10:06:02.000Z</time>
      </trkpt>
      <trkpt lat="47.27661" lon="-2.2634">
        <ele>8</ele>
        <time>2020-01-05T10:06:04.000Z</time>
      </trkpt>
      <trkpt lat="47.27662" lon="-2.26323">
        <ele>8</ele>
        <time>2020-01-05T10:06:07.000Z</time>
      </trkpt>
      <trkpt lat="47.27658" lon="-2.26297">
        <ele>8</ele>
        <time>2020-01-05T10:06:11.000Z</time>
      </trkpt>
      <trkpt lat="47.27655" lon="-2.2629">
        <ele>8</ele>
        <time>2020-01-05T10:06:12.000Z</time>
      </trkpt>
      <trkpt lat="47.27654" lon="-2.26283">
        <ele>8</ele>
        <time>2020-01-05T10:06:13.000Z</time>
      </trkpt>
      <trkpt lat="47.2765" lon="-2.26266">
        <ele>8</ele>
        <time>2020-01-05T10:06:16.000Z</time>
      </trkpt>
      <trkpt lat="47.27643" lon="-2.26248">
        <ele>8</ele>
        <time>2020-01-05T10:06:20.000Z</time>
      </trkpt>
      <trkpt lat="47.27633" lon="-2.26229">
        <ele>8</ele>
        <time>2020-01-05T10:06:25.000Z</time>
      </trkpt>
      <trkpt lat="47.27627" lon="-2.26201">
        <ele>8</ele>
        <time>2020-01-05T10:06:30.000Z</time>
      </trkpt>
      <trkpt lat="47.27623" lon="-2.26185">
        <ele>8</ele>
        <time>2020-01-05T10:06:34.000Z</time>
      </trkpt>
      <trkpt lat="47.27626" lon="-2.26174">
        <ele>8</ele>
        <time>2020-01-05T10:06:37.000Z</time>
      </trkpt>
      <trkpt lat="47.27636" lon="-2.26167">
        <ele>8</ele>
        <time>2020-01-05T10:06:41.000Z</time>
      </trkpt>
      <trkpt lat="47.27645" lon="-2.26161">
        <ele>8</ele>
        <time>2020-01-05T10:06:44.000Z</time>
      </trkpt>
      <trkpt lat="47.27651" lon="-2.26157">
        <ele>8</ele>
        <time>2020-01-05T10:06:46.000Z</time>
      </trkpt>
      <trkpt lat="47.27665" lon="-2.2614">
        <ele>8</ele>
        <time>2020-01-05T10:06:51.000Z</time>
      </trkpt>
      <trkpt lat="47.27678" lon="-2.26123">
        <ele>8</ele>
        <time>2020-01-05T10:06:56.000Z</time>
      </trkpt>
      <trkpt lat="47.27692" lon="-2.26114">
        <ele>8</ele>
        <time>2020-01-05T10:06:59.000Z</time>
      </trkpt>
      <trkpt lat="47.27696" lon="-2.26107">
        <ele>8</ele>
        <time>2020-01-05T10:07:00.000Z</time>
      </trkpt>
      <trkpt lat="47.27708" lon="-2.26092">
        <ele>8</ele>
        <time>2020-01-05T10:07:03.000Z</time>
      </trkpt>
      <trkpt lat="47.27725" lon="-2.26085">
        <ele>8</ele>
        <time>2020-01-05T10:07:07.000Z</time>
      </trkpt>
      <trkpt lat="47.27735" lon="-2.26064">
        <ele>8</ele>
        <time>2020-01-05T10:07:11.000Z</time>
      </trkpt>
      <trkpt lat="47.27738" lon="-2.26057">
        <ele>8</ele>
        <time>2020-01-05T10:07:12.000Z</time>
      </trkpt>
      <trkpt lat="47.27753" lon="-2.26024">
        <ele>8</ele>
        <time>2020-01-05T10:07:18.000Z</time>
      </trkpt>
      <trkpt lat="47.27765" lon="-2.25992">
        <ele>8</ele>
        <time>2020-01-05T10:07:23.000Z</time>
      </trkpt>
      <trkpt lat="47.2777" lon="-2.25982">
        <ele>8</ele>
        <time>2020-01-05T10:07:25.000Z</time>
      </trkpt>
      <trkpt lat="47.27776" lon="-2.25977">
        <ele>8</ele>
        <time>2020-01-05T10:07:27.000Z</time>
      </trkpt>
      <trkpt lat="47.27784" lon="-2.25968">
        <ele>8</ele>
        <time>2020-01-05T10:07:30.000Z</time>
      </trkpt>
      <trkpt lat="47.27788" lon="-2.25947">
        <ele>8</ele>
        <time>2020-01-05T10:07:34.000Z</time>
      </trkpt>
      <trkpt lat="47.27789" lon="-2.25941">
        <ele>8</ele>
        <time>2020-01-05T10:07:35.000Z</time>
      </trkpt>
      <trkpt lat="47.27786" lon="-2.25921">
        <ele>8</ele>
        <time>2020-01-05T10:07:39.000Z</time>
      </trkpt>
      <trkpt lat="47.27771" lon="-2.25902">
        <ele>8</ele>
        <time>2020-01-05T10:07:44.000Z</time>
      </trkpt>
      <trkpt lat="47.27757" lon="-2.2587">
        <ele>8</ele>
        <time>2020-01-05T10:07:50.000Z</time>
      </trkpt>
      <trkpt lat="47.27742" lon="-2.25857">
        <ele>8</ele>
        <time>2020-01-05T10:07:54.000Z</time>
      </trkpt>
      <trkpt lat="47.27727" lon="-2.25854">
        <ele>8</ele>
        <time>2020-01-05T10:07:57.000Z</time>
      </trkpt>
      <trkpt lat="47.27717" lon="-2.25852">
        <ele>8</ele>
        <time>2020-01-05T10:07:59.000Z</time>
      </trkpt>
      <trkpt lat="47.27712" lon="-2.2585">
        <ele>8</ele>
        <time>2020-01-05T10:08:00.000Z</time>
      </trkpt>
      <trkpt lat="47.277" lon="-2.2584">
        <ele>8</ele>
        <time>2020-01-05T10:08:03.000Z</time>
      </trkpt>
      <trkpt lat="47.277" lon="-2.25822">
        <ele>8</ele>
        <time>2020-01-05T10:08:06.000Z</time>
      </trkpt>
      <trkpt lat="47.27701" lon="-2.25818">
        <ele>8</ele>
        <time>2020-01-05T10:08:07.000Z</time>
      </trkpt>
      <trkpt lat="47.27701" lon="-2.25813">
        <ele>7.5999999046326</ele>
        <time>2020-01-05T10:08:08.000Z</time>
      </trkpt>
      <trkpt lat="47.27702" lon="-2.25809">
        <ele>7</ele>
        <time>2020-01-05T10:08:09.000Z</time>
      </trkpt>
      <trkpt lat="47.27702" lon="-2.25806">
        <ele>6.5999999046326</ele>
        <time>2020-01-05T10:08:10.000Z</time>
      </trkpt>
      <trkpt lat="47.27701" lon="-2.25802">
        <ele>6.1999998092651</ele>
        <time>2020-01-05T10:08:11.000Z</time>
      </trkpt>
      <trkpt lat="47.277" lon="-2.25799">
        <ele>5.8000001907349</ele>
        <time>2020-01-05T10:08:12.000Z</time>
      </trkpt>
      <trkpt lat="47.27699" lon="-2.25796">
        <ele>5.8000001907349</ele>
        <time>2020-01-05T10:08:13.000Z</time>
      </trkpt>
      <trkpt lat="47.27691" lon="-2.25791">
        <ele>5.8000001907349</ele>
        <time>2020-01-05T10:08:17.000Z</time>
      </trkpt>
      <trkpt lat="47.27689" lon="-2.25793">
        <ele>5.8000001907349</ele>
        <time>2020-01-05T10:08:18.000Z</time>
      </trkpt>
      <trkpt lat="47.27685" lon="-2.258">
        <ele>5.8000001907349</ele>
        <time>2020-01-05T10:08:20.000Z</time>
      </trkpt>
      <trkpt lat="47.27689" lon="-2.25817">
        <ele>5.8000001907349</ele>
        <time>2020-01-05T10:08:24.000Z</time>
      </trkpt>
      <trkpt lat="47.27686" lon="-2.2583">
        <ele>5.8000001907349</ele>
        <time>2020-01-05T10:08:27.000Z</time>
      </trkpt>
      <trkpt lat="47.2768" lon="-2.25829">
        <ele>5.8000001907349</ele>
        <time>2020-01-05T10:08:30.000Z</time>
      </trkpt>
      <trkpt lat="47.27678" lon="-2.25821">
        <ele>5.8000001907349</ele>
        <time>2020-01-05T10:08:34.000Z</time>
      </trkpt>
      <trkpt lat="47.27678" lon="-2.25818">
        <ele>5.8000001907349</ele>
        <time>2020-01-05T10:08:35.000Z</time>
      </trkpt>
      <trkpt lat="47.27678" lon="-2.25817">
        <ele>5.8000001907349</ele>
        <time>2020-01-05T10:08:36.000Z</time>
      </trkpt>
      <trkpt lat="47.27676" lon="-2.25807">
        <ele>5.8000001907349</ele>
        <time>2020-01-05T10:08:42.000Z</time>
      </trkpt>
      <trkpt lat="47.27677" lon="-2.25805">
        <ele>5.8000001907349</ele>
        <time>2020-01-05T10:08:43.000Z</time>
      </trkpt>
      <trkpt lat="47.27675" lon="-2.258">
        <ele>5.8000001907349</ele>
        <time>2020-01-05T10:08:46.000Z</time>
      </trkpt>
      <trkpt lat="47.27674" lon="-2.25799">
        <ele>5.8000001907349</ele>
        <time>2020-01-05T10:08:47.000Z</time>
      </trkpt>
      <trkpt lat="47.27674" lon="-2.25796">
        <ele>5.8000001907349</ele>
        <time>2020-01-05T10:08:48.000Z</time>
      </trkpt>
      <trkpt lat="47.27674" lon="-2.25791">
        <ele>5.8000001907349</ele>
        <time>2020-01-05T10:08:51.000Z</time>
      </trkpt>
      <trkpt lat="47.27674" lon="-2.2579">
        <ele>5.8000001907349</ele>
        <time>2020-01-05T10:08:52.000Z</time>
      </trkpt>
      <trkpt lat="47.27667" lon="-2.25756">
        <ele>5.8000001907349</ele>
        <time>2020-01-05T10:09:30.000Z</time>
      </trkpt>
      <trkpt lat="47.27666" lon="-2.25751">
        <ele>5.8000001907349</ele>
        <time>2020-01-05T10:09:32.000Z</time>
      </trkpt>
      <trkpt lat="47.27661" lon="-2.25739">
        <ele>5.8000001907349</ele>
        <time>2020-01-05T10:09:37.000Z</time>
      </trkpt>
      <trkpt lat="47.27658" lon="-2.25729">
        <ele>5.8000001907349</ele>
        <time>2020-01-05T10:09:40.000Z</time>
      </trkpt>
      <trkpt lat="47.27657" lon="-2.25725">
        <ele>5.8000001907349</ele>
        <time>2020-01-05T10:09:41.000Z</time>
      </trkpt>
      <trkpt lat="47.27652" lon="-2.25694">
        <ele>5.8000001907349</ele>
        <time>2020-01-05T10:09:47.000Z</time>
      </trkpt>
      <trkpt lat="47.27651" lon="-2.25683">
        <ele>5.8000001907349</ele>
        <time>2020-01-05T10:09:50.000Z</time>
      </trkpt>
      <trkpt lat="47.27651" lon="-2.2568">
        <ele>5.8000001907349</ele>
        <time>2020-01-05T10:09:51.000Z</time>
      </trkpt>
      <trkpt lat="47.27649" lon="-2.25662">
        <ele>5.8000001907349</ele>
        <time>2020-01-05T10:09:56.000Z</time>
      </trkpt>
      <trkpt lat="47.27647" lon="-2.25658">
        <ele>5.8000001907349</ele>
        <time>2020-01-05T10:09:57.000Z</time>
      </trkpt>
      <trkpt lat="47.2763" lon="-2.25644">
        <ele>5.8000001907349</ele>
        <time>2020-01-05T10:10:03.000Z</time>
      </trkpt>
      <trkpt lat="47.27619" lon="-2.25637">
        <ele>5.8000001907349</ele>
        <time>2020-01-05T10:10:07.000Z</time>
      </trkpt>
      <trkpt lat="47.27607" lon="-2.25631">
        <ele>5.8000001907349</ele>
        <time>2020-01-05T10:10:12.000Z</time>
      </trkpt>
      <trkpt lat="47.27599" lon="-2.25624">
        <ele>5.8000001907349</ele>
        <time>2020-01-05T10:10:16.000Z</time>
      </trkpt>
      <trkpt lat="47.27597" lon="-2.25623">
        <ele>5.8000001907349</ele>
        <time>2020-01-05T10:10:17.000Z</time>
      </trkpt>
      <trkpt lat="47.27595" lon="-2.25621">
        <ele>5.8000001907349</ele>
        <time>2020-01-05T10:10:18.000Z</time>
      </trkpt>
      <trkpt lat="47.27588" lon="-2.25618">
        <ele>5.8000001907349</ele>
        <time>2020-01-05T10:10:21.000Z</time>
      </trkpt>
      <trkpt lat="47.27578" lon="-2.25607">
        <ele>5.8000001907349</ele>
        <time>2020-01-05T10:10:25.000Z</time>
      </trkpt>
      <trkpt lat="47.27572" lon="-2.2558">
        <ele>5.8000001907349</ele>
        <time>2020-01-05T10:10:29.000Z</time>
      </trkpt>
      <trkpt lat="47.27565" lon="-2.2556">
        <ele>5.8000001907349</ele>
        <time>2020-01-05T10:10:32.000Z</time>
      </trkpt>
      <trkpt lat="47.2756" lon="-2.2554">
        <ele>5.8000001907349</ele>
        <time>2020-01-05T10:10:35.000Z</time>
      </trkpt>
      <trkpt lat="47.2755" lon="-2.25511">
        <ele>5.8000001907349</ele>
        <time>2020-01-05T10:10:40.000Z</time>
      </trkpt>
      <trkpt lat="47.27536" lon="-2.25484">
        <ele>5.8000001907349</ele>
        <time>2020-01-05T10:10:46.000Z</time>
      </trkpt>
      <trkpt lat="47.27516" lon="-2.25463">
        <ele>5.8000001907349</ele>
        <time>2020-01-05T10:10:52.000Z</time>
      </trkpt>
      <trkpt lat="47.27505" lon="-2.25452">
        <ele>5.8000001907349</ele>
        <time>2020-01-05T10:10:56.000Z</time>
      </trkpt>
      <trkpt lat="47.27501" lon="-2.25451">
        <ele>5.8000001907349</ele>
        <time>2020-01-05T10:10:57.000Z</time>
      </trkpt>
      <trkpt lat="47.27485" lon="-2.2545">
        <ele>5.8000001907349</ele>
        <time>2020-01-05T10:11:01.000Z</time>
      </trkpt>
      <trkpt lat="47.2747" lon="-2.25451">
        <ele>5.8000001907349</ele>
        <time>2020-01-05T10:11:04.000Z</time>
      </trkpt>
      <trkpt lat="47.2746" lon="-2.25449">
        <ele>5.8000001907349</ele>
        <time>2020-01-05T10:11:06.000Z</time>
      </trkpt>
      <trkpt lat="47.27439" lon="-2.25436">
        <ele>5.8000001907349</ele>
        <time>2020-01-05T10:11:11.000Z</time>
      </trkpt>
      <trkpt lat="47.27426" lon="-2.25421">
        <ele>5.8000001907349</ele>
        <time>2020-01-05T10:11:16.000Z</time>
      </trkpt>
      <trkpt lat="47.27415" lon="-2.25403">
        <ele>5.8000001907349</ele>
        <time>2020-01-05T10:11:21.000Z</time>
      </trkpt>
      <trkpt lat="47.27411" lon="-2.25393">
        <ele>5.8000001907349</ele>
        <time>2020-01-05T10:11:24.000Z</time>
      </trkpt>
      <trkpt lat="47.27407" lon="-2.25387">
        <ele>6.1999998092651</ele>
        <time>2020-01-05T10:11:26.000Z</time>
      </trkpt>
      <trkpt lat="47.27406" lon="-2.25383">
        <ele>6.5999999046326</ele>
        <time>2020-01-05T10:11:27.000Z</time>
      </trkpt>
      <trkpt lat="47.27405" lon="-2.25379">
        <ele>7</ele>
        <time>2020-01-05T10:11:28.000Z</time>
      </trkpt>
      <trkpt lat="47.27405" lon="-2.25376">
        <ele>7.4000000953674</ele>
        <time>2020-01-05T10:11:29.000Z</time>
      </trkpt>
      <trkpt lat="47.27404" lon="-2.25372">
        <ele>7.8000001907349</ele>
        <time>2020-01-05T10:11:30.000Z</time>
      </trkpt>
      <trkpt lat="47.27404" lon="-2.25364">
        <ele>7.8000001907349</ele>
        <time>2020-01-05T10:11:32.000Z</time>
      </trkpt>
      <trkpt lat="47.27404" lon="-2.25357">
        <ele>7.8000001907349</ele>
        <time>2020-01-05T10:11:34.000Z</time>
      </trkpt>
      <trkpt lat="47.27405" lon="-2.25355">
        <ele>7.8000001907349</ele>
        <time>2020-01-05T10:11:35.000Z</time>
      </trkpt>
      <trkpt lat="47.27406" lon="-2.25355">
        <ele>7.8000001907349</ele>
        <time>2020-01-05T10:11:36.000Z</time>
      </trkpt>
      <trkpt lat="47.27406" lon="-2.25356">
        <ele>7.8000001907349</ele>
        <time>2020-01-05T10:11:37.000Z</time>
      </trkpt>
      <trkpt lat="47.27408" lon="-2.25363">
        <ele>7.8000001907349</ele>
        <time>2020-01-05T10:11:40.000Z</time>
      </trkpt>
      <trkpt lat="47.27411" lon="-2.25368">
        <ele>7.8000001907349</ele>
        <time>2020-01-05T10:11:43.000Z</time>
      </trkpt>
      <trkpt lat="47.27414" lon="-2.25374">
        <ele>7.8000001907349</ele>
        <time>2020-01-05T10:11:46.000Z</time>
      </trkpt>
      <trkpt lat="47.27419" lon="-2.25387">
        <ele>7.8000001907349</ele>
        <time>2020-01-05T10:11:52.000Z</time>
      </trkpt>
      <trkpt lat="47.27419" lon="-2.25389">
        <ele>7.8000001907349</ele>
        <time>2020-01-05T10:11:54.000Z</time>
      </trkpt>
      <trkpt lat="47.27422" lon="-2.25381">
        <ele>7.8000001907349</ele>
        <time>2020-01-05T10:12:01.000Z</time>
      </trkpt>
      <trkpt lat="47.27421" lon="-2.25377">
        <ele>7.8000001907349</ele>
        <time>2020-01-05T10:12:03.000Z</time>
      </trkpt>
      <trkpt lat="47.27416" lon="-2.25363">
        <ele>7.8000001907349</ele>
        <time>2020-01-05T10:12:09.000Z</time>
      </trkpt>
      <trkpt lat="47.27414" lon="-2.25359">
        <ele>7.8000001907349</ele>
        <time>2020-01-05T10:12:11.000Z</time>
      </trkpt>
      <trkpt lat="47.27413" lon="-2.2535">
        <ele>7.8000001907349</ele>
        <time>2020-01-05T10:12:13.000Z</time>
      </trkpt>
      <trkpt lat="47.27413" lon="-2.25329">
        <ele>7.8000001907349</ele>
        <time>2020-01-05T10:12:18.000Z</time>
      </trkpt>
      <trkpt lat="47.27416" lon="-2.25318">
        <ele>7.8000001907349</ele>
        <time>2020-01-05T10:12:23.000Z</time>
      </trkpt>
      <trkpt lat="47.27423" lon="-2.25332">
        <ele>7.8000001907349</ele>
        <time>2020-01-05T10:12:28.000Z</time>
      </trkpt>
      <trkpt lat="47.27426" lon="-2.25354">
        <ele>7.8000001907349</ele>
        <time>2020-01-05T10:12:33.000Z</time>
      </trkpt>
      <trkpt lat="47.27429" lon="-2.25371">
        <ele>7.8000001907349</ele>
        <time>2020-01-05T10:12:38.000Z</time>
      </trkpt>
      <trkpt lat="47.27432" lon="-2.25378">
        <ele>7.8000001907349</ele>
        <time>2020-01-05T10:12:42.000Z</time>
      </trkpt>
      <trkpt lat="47.27432" lon="-2.25377">
        <ele>7.8000001907349</ele>
        <time>2020-01-05T10:12:45.000Z</time>
      </trkpt>
      <trkpt lat="47.27432" lon="-2.25374">
        <ele>7.8000001907349</ele>
        <time>2020-01-05T10:12:47.000Z</time>
      </trkpt>
      <trkpt lat="47.27435" lon="-2.25371">
        <ele>7.8000001907349</ele>
        <time>2020-01-05T10:12:51.000Z</time>
      </trkpt>
      <trkpt lat="47.27437" lon="-2.25373">
        <ele>7.8000001907349</ele>
        <time>2020-01-05T10:12:54.000Z</time>
      </trkpt>
      <trkpt lat="47.27438" lon="-2.25368">
        <ele>7.8000001907349</ele>
        <time>2020-01-05T10:12:58.000Z</time>
      </trkpt>
      <trkpt lat="47.27439" lon="-2.25366">
        <ele>7.8000001907349</ele>
        <time>2020-01-05T10:12:59.000Z</time>
      </trkpt>
      <trkpt lat="47.27438" lon="-2.25361">
        <ele>7.8000001907349</ele>
        <time>2020-01-05T10:13:03.000Z</time>
      </trkpt>
      <trkpt lat="47.27436" lon="-2.25363">
        <ele>7.8000001907349</ele>
        <time>2020-01-05T10:13:06.000Z</time>
      </trkpt>
      <trkpt lat="47.27435" lon="-2.25355">
        <ele>7.8000001907349</ele>
        <time>2020-01-05T10:13:12.000Z</time>
      </trkpt>
      <trkpt lat="47.27434" lon="-2.2535">
        <ele>7.8000001907349</ele>
        <time>2020-01-05T10:13:14.000Z</time>
      </trkpt>
      <trkpt lat="47.27435" lon="-2.25341">
        <ele>7.8000001907349</ele>
        <time>2020-01-05T10:13:17.000Z</time>
      </trkpt>
      <trkpt lat="47.27435" lon="-2.25338">
        <ele>7.8000001907349</ele>
        <time>2020-01-05T10:13:18.000Z</time>
      </trkpt>
      <trkpt lat="47.27434" lon="-2.25332">
        <ele>7.8000001907349</ele>
        <time>2020-01-05T10:13:21.000Z</time>
      </trkpt>
      <trkpt lat="47.27433" lon="-2.25332">
        <ele>7.8000001907349</ele>
        <time>2020-01-05T10:13:22.000Z</time>
      </trkpt>
      <trkpt lat="47.2743" lon="-2.25332">
        <ele>7.8000001907349</ele>
        <time>2020-01-05T10:13:25.000Z</time>
      </trkpt>
      <trkpt lat="47.2743" lon="-2.2533">
        <ele>7.8000001907349</ele>
        <time>2020-01-05T10:13:26.000Z</time>
      </trkpt>
      <trkpt lat="47.27429" lon="-2.25325">
        <ele>7.8000001907349</ele>
        <time>2020-01-05T10:13:28.000Z</time>
      </trkpt>
      <trkpt lat="47.27428" lon="-2.25321">
        <ele>7.8000001907349</ele>
        <time>2020-01-05T10:13:30.000Z</time>
      </trkpt>
      <trkpt lat="47.27424" lon="-2.25312">
        <ele>7.8000001907349</ele>
        <time>2020-01-05T10:13:34.000Z</time>
      </trkpt>
      <trkpt lat="47.27422" lon="-2.25304">
        <ele>7.8000001907349</ele>
        <time>2020-01-05T10:13:37.000Z</time>
      </trkpt>
      <trkpt lat="47.27421" lon="-2.253">
        <ele>7.8000001907349</ele>
        <time>2020-01-05T10:13:38.000Z</time>
      </trkpt>
      <trkpt lat="47.27417" lon="-2.25292">
        <ele>7.8000001907349</ele>
        <time>2020-01-05T10:13:41.000Z</time>
      </trkpt>
      <trkpt lat="47.27415" lon="-2.2529">
        <ele>7.8000001907349</ele>
        <time>2020-01-05T10:13:42.000Z</time>
      </trkpt>
      <trkpt lat="47.27405" lon="-2.25291">
        <ele>7.8000001907349</ele>
        <time>2020-01-05T10:13:47.000Z</time>
      </trkpt>
      <trkpt lat="47.27403" lon="-2.25294">
        <ele>7.8000001907349</ele>
        <time>2020-01-05T10:13:48.000Z</time>
      </trkpt>
      <trkpt lat="47.27399" lon="-2.25303">
        <ele>7.8000001907349</ele>
        <time>2020-01-05T10:13:52.000Z</time>
      </trkpt>
      <trkpt lat="47.27399" lon="-2.25305">
        <ele>7.8000001907349</ele>
        <time>2020-01-05T10:13:53.000Z</time>
      </trkpt>
      <trkpt lat="47.27403" lon="-2.25321">
        <ele>7.8000001907349</ele>
        <time>2020-01-05T10:13:57.000Z</time>
      </trkpt>
      <trkpt lat="47.27405" lon="-2.25339">
        <ele>7.8000001907349</ele>
        <time>2020-01-05T10:14:01.000Z</time>
      </trkpt>
      <trkpt lat="47.27406" lon="-2.25343">
        <ele>7.8000001907349</ele>
        <time>2020-01-05T10:14:02.000Z</time>
      </trkpt>
      <trkpt lat="47.27408" lon="-2.25354">
        <ele>7.8000001907349</ele>
        <time>2020-01-05T10:14:05.000Z</time>
      </trkpt>
      <trkpt lat="47.27409" lon="-2.25357">
        <ele>7.8000001907349</ele>
        <time>2020-01-05T10:14:06.000Z</time>
      </trkpt>
      <trkpt lat="47.27415" lon="-2.25373">
        <ele>7.8000001907349</ele>
        <time>2020-01-05T10:14:11.000Z</time>
      </trkpt>
      <trkpt lat="47.27426" lon="-2.25397">
        <ele>7.8000001907349</ele>
        <time>2020-01-05T10:14:17.000Z</time>
      </trkpt>
      <trkpt lat="47.27429" lon="-2.25401">
        <ele>7.8000001907349</ele>
        <time>2020-01-05T10:14:18.000Z</time>
      </trkpt>
      <trkpt lat="47.27433" lon="-2.25403">
        <ele>7.8000001907349</ele>
        <time>2020-01-05T10:14:20.000Z</time>
      </trkpt>
      <trkpt lat="47.27443" lon="-2.25394">
        <ele>7.8000001907349</ele>
        <time>2020-01-05T10:14:24.000Z</time>
      </trkpt>
      <trkpt lat="47.27444" lon="-2.25389">
        <ele>7.8000001907349</ele>
        <time>2020-01-05T10:14:25.000Z</time>
      </trkpt>
      <trkpt lat="47.27445" lon="-2.25382">
        <ele>7.8000001907349</ele>
        <time>2020-01-05T10:14:26.000Z</time>
      </trkpt>
      <trkpt lat="47.27448" lon="-2.25361">
        <ele>7.8000001907349</ele>
        <time>2020-01-05T10:14:29.000Z</time>
      </trkpt>
      <trkpt lat="47.27448" lon="-2.25346">
        <ele>7.8000001907349</ele>
        <time>2020-01-05T10:14:31.000Z</time>
      </trkpt>
      <trkpt lat="47.27447" lon="-2.25324">
        <ele>7.8000001907349</ele>
        <time>2020-01-05T10:14:34.000Z</time>
      </trkpt>
      <trkpt lat="47.27438" lon="-2.25278">
        <ele>7.8000001907349</ele>
        <time>2020-01-05T10:14:40.000Z</time>
      </trkpt>
      <trkpt lat="47.2742" lon="-2.25225">
        <ele>7.8000001907349</ele>
        <time>2020-01-05T10:14:47.000Z</time>
      </trkpt>
      <trkpt lat="47.27403" lon="-2.25186">
        <ele>7.8000001907349</ele>
        <time>2020-01-05T10:14:53.000Z</time>
      </trkpt>
      <trkpt lat="47.2739" lon="-2.25155">
        <ele>7.8000001907349</ele>
        <time>2020-01-05T10:14:58.000Z</time>
      </trkpt>
      <trkpt lat="47.27387" lon="-2.2515">
        <ele>7.8000001907349</ele>
        <time>2020-01-05T10:14:59.000Z</time>
      </trkpt>
      <trkpt lat="47.27384" lon="-2.25143">
        <ele>7.8000001907349</ele>
        <time>2020-01-05T10:15:00.000Z</time>
      </trkpt>
      <trkpt lat="47.27369" lon="-2.25108">
        <ele>7.8000001907349</ele>
        <time>2020-01-05T10:15:05.000Z</time>
      </trkpt>
      <trkpt lat="47.27355" lon="-2.2507">
        <ele>7.8000001907349</ele>
        <time>2020-01-05T10:15:10.000Z</time>
      </trkpt>
      <trkpt lat="47.27352" lon="-2.25063">
        <ele>7.8000001907349</ele>
        <time>2020-01-05T10:15:11.000Z</time>
      </trkpt>
      <trkpt lat="47.27352" lon="-2.25039">
        <ele>7.8000001907349</ele>
        <time>2020-01-05T10:15:14.000Z</time>
      </trkpt>
      <trkpt lat="47.2736" lon="-2.25017">
        <ele>7.8000001907349</ele>
        <time>2020-01-05T10:15:17.000Z</time>
      </trkpt>
      <trkpt lat="47.27362" lon="-2.2501">
        <ele>7.8000001907349</ele>
        <time>2020-01-05T10:15:18.000Z</time>
      </trkpt>
      <trkpt lat="47.27365" lon="-2.25004">
        <ele>7.8000001907349</ele>
        <time>2020-01-05T10:15:19.000Z</time>
      </trkpt>
      <trkpt lat="47.27377" lon="-2.24985">
        <ele>7.8000001907349</ele>
        <time>2020-01-05T10:15:23.000Z</time>
      </trkpt>
      <trkpt lat="47.27392" lon="-2.2497">
        <ele>7.8000001907349</ele>
        <time>2020-01-05T10:15:29.000Z</time>
      </trkpt>
      <trkpt lat="47.27401" lon="-2.24965">
        <ele>7.8000001907349</ele>
        <time>2020-01-05T10:15:33.000Z</time>
      </trkpt>
      <trkpt lat="47.27402" lon="-2.24962">
        <ele>7.8000001907349</ele>
        <time>2020-01-05T10:15:34.000Z</time>
      </trkpt>
      <trkpt lat="47.27403" lon="-2.24952">
        <ele>7.8000001907349</ele>
        <time>2020-01-05T10:15:37.000Z</time>
      </trkpt>
      <trkpt lat="47.27402" lon="-2.24946">
        <ele>7.8000001907349</ele>
        <time>2020-01-05T10:15:39.000Z</time>
      </trkpt>
      <trkpt lat="47.27398" lon="-2.24934">
        <ele>7.8000001907349</ele>
        <time>2020-01-05T10:15:44.000Z</time>
      </trkpt>
      <trkpt lat="47.27392" lon="-2.24935">
        <ele>7.8000001907349</ele>
        <time>2020-01-05T10:15:48.000Z</time>
      </trkpt>
      <trkpt lat="47.27389" lon="-2.24937">
        <ele>7.8000001907349</ele>
        <time>2020-01-05T10:15:50.000Z</time>
      </trkpt>
      <trkpt lat="47.27382" lon="-2.24935">
        <ele>7.8000001907349</ele>
        <time>2020-01-05T10:15:54.000Z</time>
      </trkpt>
      <trkpt lat="47.27382" lon="-2.24923">
        <ele>7.8000001907349</ele>
        <time>2020-01-05T10:15:58.000Z</time>
      </trkpt>
      <trkpt lat="47.27383" lon="-2.24919">
        <ele>7.8000001907349</ele>
        <time>2020-01-05T10:15:59.000Z</time>
      </trkpt>
      <trkpt lat="47.27392" lon="-2.24904">
        <ele>7.8000001907349</ele>
        <time>2020-01-05T10:16:03.000Z</time>
      </trkpt>
      <trkpt lat="47.27404" lon="-2.24881">
        <ele>7.8000001907349</ele>
        <time>2020-01-05T10:16:09.000Z</time>
      </trkpt>
      <trkpt lat="47.27405" lon="-2.24878">
        <ele>7.8000001907349</ele>
        <time>2020-01-05T10:16:10.000Z</time>
      </trkpt>
      <trkpt lat="47.27409" lon="-2.24869">
        <ele>7.8000001907349</ele>
        <time>2020-01-05T10:16:13.000Z</time>
      </trkpt>
      <trkpt lat="47.27422" lon="-2.24838">
        <ele>7.8000001907349</ele>
        <time>2020-01-05T10:16:19.000Z</time>
      </trkpt>
      <trkpt lat="47.27429" lon="-2.2482">
        <ele>7.8000001907349</ele>
        <time>2020-01-05T10:16:21.000Z</time>
      </trkpt>
      <trkpt lat="47.27439" lon="-2.24808">
        <ele>7.8000001907349</ele>
        <time>2020-01-05T10:16:23.000Z</time>
      </trkpt>
      <trkpt lat="47.27453" lon="-2.24793">
        <ele>7.8000001907349</ele>
        <time>2020-01-05T10:16:26.000Z</time>
      </trkpt>
      <trkpt lat="47.27457" lon="-2.24789">
        <ele>7.8000001907349</ele>
        <time>2020-01-05T10:16:27.000Z</time>
      </trkpt>
      <trkpt lat="47.27461" lon="-2.24787">
        <ele>8.1999998092651</ele>
        <time>2020-01-05T10:16:28.000Z</time>
      </trkpt>
      <trkpt lat="47.27465" lon="-2.24786">
        <ele>8.8000001907349</ele>
        <time>2020-01-05T10:16:29.000Z</time>
      </trkpt>
      <trkpt lat="47.2747" lon="-2.24786">
        <ele>9.6000003814697</ele>
        <time>2020-01-05T10:16:30.000Z</time>
      </trkpt>
      <trkpt lat="47.27474" lon="-2.24787">
        <ele>10</ele>
        <time>2020-01-05T10:16:31.000Z</time>
      </trkpt>
      <trkpt lat="47.27482" lon="-2.24788">
        <ele>10.39999961853</ele>
        <time>2020-01-05T10:16:33.000Z</time>
      </trkpt>
      <trkpt lat="47.27486" lon="-2.24788">
        <ele>10.800000190735</ele>
        <time>2020-01-05T10:16:34.000Z</time>
      </trkpt>
      <trkpt lat="47.2749" lon="-2.24787">
        <ele>11.199999809265</ele>
        <time>2020-01-05T10:16:35.000Z</time>
      </trkpt>
      <trkpt lat="47.27494" lon="-2.24787">
        <ele>11.60000038147</ele>
        <time>2020-01-05T10:16:36.000Z</time>
      </trkpt>
      <trkpt lat="47.27499" lon="-2.24787">
        <ele>12.199999809265</ele>
        <time>2020-01-05T10:16:37.000Z</time>
      </trkpt>
      <trkpt lat="47.27508" lon="-2.24788">
        <ele>12.60000038147</ele>
        <time>2020-01-05T10:16:39.000Z</time>
      </trkpt>
      <trkpt lat="47.27513" lon="-2.24787">
        <ele>13</ele>
        <time>2020-01-05T10:16:40.000Z</time>
      </trkpt>
      <trkpt lat="47.27518" lon="-2.24787">
        <ele>13.39999961853</ele>
        <time>2020-01-05T10:16:41.000Z</time>
      </trkpt>
      <trkpt lat="47.27523" lon="-2.24787">
        <ele>13.800000190735</ele>
        <time>2020-01-05T10:16:42.000Z</time>
      </trkpt>
      <trkpt lat="47.27527" lon="-2.24786">
        <ele>14.199999809265</ele>
        <time>2020-01-05T10:16:43.000Z</time>
      </trkpt>
      <trkpt lat="47.27538" lon="-2.24786">
        <ele>14.199999809265</ele>
        <time>2020-01-05T10:16:45.000Z</time>
      </trkpt>
      <trkpt lat="47.27554" lon="-2.24785">
        <ele>14.199999809265</ele>
        <time>2020-01-05T10:16:48.000Z</time>
      </trkpt>
      <trkpt lat="47.27565" lon="-2.24784">
        <ele>14.199999809265</ele>
        <time>2020-01-05T10:16:50.000Z</time>
      </trkpt>
      <trkpt lat="47.27589" lon="-2.24785">
        <ele>14.199999809265</ele>
        <time>2020-01-05T10:16:55.000Z</time>
      </trkpt>
      <trkpt lat="47.27599" lon="-2.24786">
        <ele>14.60000038147</ele>
        <time>2020-01-05T10:16:57.000Z</time>
      </trkpt>
      <trkpt lat="47.27604" lon="-2.24786">
        <ele>15</ele>
        <time>2020-01-05T10:16:58.000Z</time>
      </trkpt>
      <trkpt lat="47.27608" lon="-2.24786">
        <ele>15.39999961853</ele>
        <time>2020-01-05T10:16:59.000Z</time>
      </trkpt>
      <trkpt lat="47.27613" lon="-2.24786">
        <ele>15.800000190735</ele>
        <time>2020-01-05T10:17:00.000Z</time>
      </trkpt>
      <trkpt lat="47.27618" lon="-2.24785">
        <ele>16.200000762939</ele>
        <time>2020-01-05T10:17:01.000Z</time>
      </trkpt>
      <trkpt lat="47.27623" lon="-2.24785">
        <ele>16.200000762939</ele>
        <time>2020-01-05T10:17:02.000Z</time>
      </trkpt>
      <trkpt lat="47.27633" lon="-2.24787">
        <ele>16.200000762939</ele>
        <time>2020-01-05T10:17:04.000Z</time>
      </trkpt>
      <trkpt lat="47.27638" lon="-2.24788">
        <ele>16.200000762939</ele>
        <time>2020-01-05T10:17:05.000Z</time>
      </trkpt>
      <trkpt lat="47.2766" lon="-2.24798">
        <ele>16.200000762939</ele>
        <time>2020-01-05T10:17:09.000Z</time>
      </trkpt>
      <trkpt lat="47.27679" lon="-2.24799">
        <ele>16.200000762939</ele>
        <time>2020-01-05T10:17:12.000Z</time>
      </trkpt>
      <trkpt lat="47.2772" lon="-2.24801">
        <ele>16.200000762939</ele>
        <time>2020-01-05T10:17:19.000Z</time>
      </trkpt>
      <trkpt lat="47.27758" lon="-2.24801">
        <ele>16.200000762939</ele>
        <time>2020-01-05T10:17:26.000Z</time>
      </trkpt>
      <trkpt lat="47.27801" lon="-2.24799">
        <ele>16.200000762939</ele>
        <time>2020-01-05T10:17:34.000Z</time>
      </trkpt>
      <trkpt lat="47.27842" lon="-2.24792">
        <ele>16.200000762939</ele>
        <time>2020-01-05T10:17:41.000Z</time>
      </trkpt>
      <trkpt lat="47.27855" lon="-2.24781">
        <ele>16.200000762939</ele>
        <time>2020-01-05T10:17:44.000Z</time>
      </trkpt>
      <trkpt lat="47.27861" lon="-2.2477">
        <ele>16.200000762939</ele>
        <time>2020-01-05T10:17:47.000Z</time>
      </trkpt>
      <trkpt lat="47.27877" lon="-2.24769">
        <ele>16.200000762939</ele>
        <time>2020-01-05T10:17:51.000Z</time>
      </trkpt>
      <trkpt lat="47.27889" lon="-2.24763">
        <ele>16.200000762939</ele>
        <time>2020-01-05T10:17:55.000Z</time>
      </trkpt>
      <trkpt lat="47.27894" lon="-2.24761">
        <ele>16.200000762939</ele>
        <time>2020-01-05T10:17:57.000Z</time>
      </trkpt>
      <trkpt lat="47.27901" lon="-2.2476">
        <ele>16.200000762939</ele>
        <time>2020-01-05T10:17:59.000Z</time>
      </trkpt>
      <trkpt lat="47.27907" lon="-2.24759">
        <ele>16.60000038147</ele>
        <time>2020-01-05T10:18:01.000Z</time>
      </trkpt>
      <trkpt lat="47.27911" lon="-2.24758">
        <ele>17</ele>
        <time>2020-01-05T10:18:02.000Z</time>
      </trkpt>
      <trkpt lat="47.27914" lon="-2.24758">
        <ele>17.39999961853</ele>
        <time>2020-01-05T10:18:03.000Z</time>
      </trkpt>
      <trkpt lat="47.27917" lon="-2.24757">
        <ele>17.799999237061</ele>
        <time>2020-01-05T10:18:04.000Z</time>
      </trkpt>
      <trkpt lat="47.27921" lon="-2.24757">
        <ele>18.200000762939</ele>
        <time>2020-01-05T10:18:05.000Z</time>
      </trkpt>
      <trkpt lat="47.27924" lon="-2.24756">
        <ele>18.200000762939</ele>
        <time>2020-01-05T10:18:06.000Z</time>
      </trkpt>
      <trkpt lat="47.27946" lon="-2.24753">
        <ele>18.200000762939</ele>
        <time>2020-01-05T10:18:12.000Z</time>
      </trkpt>
      <trkpt lat="47.27964" lon="-2.2475">
        <ele>18.200000762939</ele>
        <time>2020-01-05T10:18:17.000Z</time>
      </trkpt>
      <trkpt lat="47.27969" lon="-2.24738">
        <ele>18.799999237061</ele>
        <time>2020-01-05T10:18:20.000Z</time>
      </trkpt>
      <trkpt lat="47.2797" lon="-2.24735">
        <ele>19.200000762939</ele>
        <time>2020-01-05T10:18:21.000Z</time>
      </trkpt>
      <trkpt lat="47.27971" lon="-2.24732">
        <ele>19.60000038147</ele>
        <time>2020-01-05T10:18:22.000Z</time>
      </trkpt>
      <trkpt lat="47.27972" lon="-2.24729">
        <ele>20.200000762939</ele>
        <time>2020-01-05T10:18:23.000Z</time>
      </trkpt>
      <trkpt lat="47.27973" lon="-2.24726">
        <ele>20.60000038147</ele>
        <time>2020-01-05T10:18:24.000Z</time>
      </trkpt>
      <trkpt lat="47.27977" lon="-2.24722">
        <ele>21</ele>
        <time>2020-01-05T10:18:26.000Z</time>
      </trkpt>
      <trkpt lat="47.27979" lon="-2.24722">
        <ele>21.39999961853</ele>
        <time>2020-01-05T10:18:27.000Z</time>
      </trkpt>
      <trkpt lat="47.27981" lon="-2.24721">
        <ele>21.799999237061</ele>
        <time>2020-01-05T10:18:28.000Z</time>
      </trkpt>
      <trkpt lat="47.27984" lon="-2.24721">
        <ele>22.200000762939</ele>
        <time>2020-01-05T10:18:29.000Z</time>
      </trkpt>
      <trkpt lat="47.27987" lon="-2.24721">
        <ele>22.799999237061</ele>
        <time>2020-01-05T10:18:30.000Z</time>
      </trkpt>
      <trkpt lat="47.27995" lon="-2.24718">
        <ele>22.799999237061</ele>
        <time>2020-01-05T10:18:32.000Z</time>
      </trkpt>
      <trkpt lat="47.28002" lon="-2.24714">
        <ele>22.799999237061</ele>
        <time>2020-01-05T10:18:34.000Z</time>
      </trkpt>
      <trkpt lat="47.28014" lon="-2.24712">
        <ele>22.200000762939</ele>
        <time>2020-01-05T10:18:38.000Z</time>
      </trkpt>
      <trkpt lat="47.28016" lon="-2.24712">
        <ele>21.799999237061</ele>
        <time>2020-01-05T10:18:39.000Z</time>
      </trkpt>
      <trkpt lat="47.2802" lon="-2.24711">
        <ele>21.39999961853</ele>
        <time>2020-01-05T10:18:40.000Z</time>
      </trkpt>
      <trkpt lat="47.28026" lon="-2.24712">
        <ele>21</ele>
        <time>2020-01-05T10:18:41.000Z</time>
      </trkpt>
      <trkpt lat="47.2803" lon="-2.24711">
        <ele>20.60000038147</ele>
        <time>2020-01-05T10:18:42.000Z</time>
      </trkpt>
      <trkpt lat="47.28034" lon="-2.24712">
        <ele>20.60000038147</ele>
        <time>2020-01-05T10:18:43.000Z</time>
      </trkpt>
      <trkpt lat="47.28056" lon="-2.24716">
        <ele>20.60000038147</ele>
        <time>2020-01-05T10:18:48.000Z</time>
      </trkpt>
      <trkpt lat="47.28075" lon="-2.24719">
        <ele>20.60000038147</ele>
        <time>2020-01-05T10:18:53.000Z</time>
      </trkpt>
      <trkpt lat="47.28098" lon="-2.24727">
        <ele>20.60000038147</ele>
        <time>2020-01-05T10:18:59.000Z</time>
      </trkpt>
      <trkpt lat="47.28105" lon="-2.24731">
        <ele>20.60000038147</ele>
        <time>2020-01-05T10:19:01.000Z</time>
      </trkpt>
      <trkpt lat="47.2812" lon="-2.24734">
        <ele>20.60000038147</ele>
        <time>2020-01-05T10:19:04.000Z</time>
      </trkpt>
      <trkpt lat="47.28141" lon="-2.24738">
        <ele>20.200000762939</ele>
        <time>2020-01-05T10:19:08.000Z</time>
      </trkpt>
      <trkpt lat="47.28146" lon="-2.24738">
        <ele>19.60000038147</ele>
        <time>2020-01-05T10:19:09.000Z</time>
      </trkpt>
      <trkpt lat="47.28149" lon="-2.24739">
        <ele>19.200000762939</ele>
        <time>2020-01-05T10:19:10.000Z</time>
      </trkpt>
      <trkpt lat="47.28151" lon="-2.2474">
        <ele>18.799999237061</ele>
        <time>2020-01-05T10:19:11.000Z</time>
      </trkpt>
      <trkpt lat="47.28152" lon="-2.2474">
        <ele>18.39999961853</ele>
        <time>2020-01-05T10:19:12.000Z</time>
      </trkpt>
      <trkpt lat="47.28153" lon="-2.24739">
        <ele>17.799999237061</ele>
        <time>2020-01-05T10:19:13.000Z</time>
      </trkpt>
      <trkpt lat="47.28155" lon="-2.24738">
        <ele>17.200000762939</ele>
        <time>2020-01-05T10:19:14.000Z</time>
      </trkpt>
      <trkpt lat="47.28156" lon="-2.24739">
        <ele>16.60000038147</ele>
        <time>2020-01-05T10:19:15.000Z</time>
      </trkpt>
      <trkpt lat="47.28156" lon="-2.24741">
        <ele>16.200000762939</ele>
        <time>2020-01-05T10:19:16.000Z</time>
      </trkpt>
      <trkpt lat="47.28157" lon="-2.24743">
        <ele>16.200000762939</ele>
        <time>2020-01-05T10:19:17.000Z</time>
      </trkpt>
      <trkpt lat="47.28157" lon="-2.24748">
        <ele>16.200000762939</ele>
        <time>2020-01-05T10:19:20.000Z</time>
      </trkpt>
      <trkpt lat="47.28156" lon="-2.2475">
        <ele>16.200000762939</ele>
        <time>2020-01-05T10:19:23.000Z</time>
      </trkpt>
      <trkpt lat="47.28155" lon="-2.2475">
        <ele>16.200000762939</ele>
        <time>2020-01-05T10:19:25.000Z</time>
      </trkpt>
      <trkpt lat="47.28151" lon="-2.2476">
        <ele>16.200000762939</ele>
        <time>2020-01-05T10:20:07.000Z</time>
      </trkpt>
      <trkpt lat="47.28151" lon="-2.24762">
        <ele>16.200000762939</ele>
        <time>2020-01-05T10:20:08.000Z</time>
      </trkpt>
      <trkpt lat="47.2815" lon="-2.24773">
        <ele>16.200000762939</ele>
        <time>2020-01-05T10:20:13.000Z</time>
      </trkpt>
      <trkpt lat="47.28149" lon="-2.24794">
        <ele>16.200000762939</ele>
        <time>2020-01-05T10:20:18.000Z</time>
      </trkpt>
      <trkpt lat="47.28148" lon="-2.24796">
        <ele>16.200000762939</ele>
        <time>2020-01-05T10:20:20.000Z</time>
      </trkpt>
      <trkpt lat="47.28152" lon="-2.24802">
        <ele>14.199999809265</ele>
        <time>2020-01-05T10:20:34.000Z</time>
      </trkpt>
      <trkpt lat="47.28154" lon="-2.24803">
        <ele>14.199999809265</ele>
        <time>2020-01-05T10:20:35.000Z</time>
      </trkpt>
      <trkpt lat="47.28166" lon="-2.24808">
        <ele>13.800000190735</ele>
        <time>2020-01-05T10:20:40.000Z</time>
      </trkpt>
      <trkpt lat="47.2817" lon="-2.24809">
        <ele>13.39999961853</ele>
        <time>2020-01-05T10:20:41.000Z</time>
      </trkpt>
      <trkpt lat="47.28173" lon="-2.2481">
        <ele>12.800000190735</ele>
        <time>2020-01-05T10:20:42.000Z</time>
      </trkpt>
      <trkpt lat="47.28178" lon="-2.2481">
        <ele>12.39999961853</ele>
        <time>2020-01-05T10:20:43.000Z</time>
      </trkpt>
      <trkpt lat="47.28182" lon="-2.24811">
        <ele>12</ele>
        <time>2020-01-05T10:20:44.000Z</time>
      </trkpt>
      <trkpt lat="47.28187" lon="-2.24812">
        <ele>11.60000038147</ele>
        <time>2020-01-05T10:20:45.000Z</time>
      </trkpt>
      <trkpt lat="47.28192" lon="-2.24812">
        <ele>11.199999809265</ele>
        <time>2020-01-05T10:20:46.000Z</time>
      </trkpt>
      <trkpt lat="47.28197" lon="-2.24812">
        <ele>10.800000190735</ele>
        <time>2020-01-05T10:20:47.000Z</time>
      </trkpt>
      <trkpt lat="47.28203" lon="-2.24813">
        <ele>10.39999961853</ele>
        <time>2020-01-05T10:20:48.000Z</time>
      </trkpt>
      <trkpt lat="47.28208" lon="-2.24814">
        <ele>9.8000001907349</ele>
        <time>2020-01-05T10:20:49.000Z</time>
      </trkpt>
      <trkpt lat="47.28213" lon="-2.24815">
        <ele>9.1999998092651</ele>
        <time>2020-01-05T10:20:50.000Z</time>
      </trkpt>
      <trkpt lat="47.28219" lon="-2.24816">
        <ele>8.6000003814697</ele>
        <time>2020-01-05T10:20:51.000Z</time>
      </trkpt>
      <trkpt lat="47.28223" lon="-2.24816">
        <ele>8</ele>
        <time>2020-01-05T10:20:52.000Z</time>
      </trkpt>
      <trkpt lat="47.28228" lon="-2.24816">
        <ele>7.4000000953674</ele>
        <time>2020-01-05T10:20:53.000Z</time>
      </trkpt>
      <trkpt lat="47.28232" lon="-2.24816">
        <ele>6.5999999046326</ele>
        <time>2020-01-05T10:20:54.000Z</time>
      </trkpt>
      <trkpt lat="47.28235" lon="-2.24814">
        <ele>6</ele>
        <time>2020-01-05T10:20:55.000Z</time>
      </trkpt>
      <trkpt lat="47.28237" lon="-2.24812">
        <ele>5.4000000953674</ele>
        <time>2020-01-05T10:20:56.000Z</time>
      </trkpt>
      <trkpt lat="47.28244" lon="-2.24806">
        <ele>5.4000000953674</ele>
        <time>2020-01-05T10:20:58.000Z</time>
      </trkpt>
      <trkpt lat="47.28261" lon="-2.24796">
        <ele>5</ele>
        <time>2020-01-05T10:21:02.000Z</time>
      </trkpt>
      <trkpt lat="47.28265" lon="-2.24793">
        <ele>4.5999999046326</ele>
        <time>2020-01-05T10:21:03.000Z</time>
      </trkpt>
      <trkpt lat="47.28269" lon="-2.24791">
        <ele>4.1999998092651</ele>
        <time>2020-01-05T10:21:04.000Z</time>
      </trkpt>
      <trkpt lat="47.28274" lon="-2.24788">
        <ele>3.7999999523163</ele>
        <time>2020-01-05T10:21:05.000Z</time>
      </trkpt>
      <trkpt lat="47.28279" lon="-2.24786">
        <ele>3.4000000953674</ele>
        <time>2020-01-05T10:21:06.000Z</time>
      </trkpt>
      <trkpt lat="47.28294" lon="-2.24775">
        <ele>3.4000000953674</ele>
        <time>2020-01-05T10:21:09.000Z</time>
      </trkpt>
      <trkpt lat="47.28298" lon="-2.24772">
        <ele>3.4000000953674</ele>
        <time>2020-01-05T10:21:10.000Z</time>
      </trkpt>
      <trkpt lat="47.28312" lon="-2.24765">
        <ele>3</ele>
        <time>2020-01-05T10:21:13.000Z</time>
      </trkpt>
      <trkpt lat="47.28316" lon="-2.24763">
        <ele>2.5999999046326</ele>
        <time>2020-01-05T10:21:14.000Z</time>
      </trkpt>
      <trkpt lat="47.2832" lon="-2.24762">
        <ele>2.2000000476837</ele>
        <time>2020-01-05T10:21:15.000Z</time>
      </trkpt>
      <trkpt lat="47.28324" lon="-2.24761">
        <ele>1.6000000238419</ele>
        <time>2020-01-05T10:21:16.000Z</time>
      </trkpt>
      <trkpt lat="47.28327" lon="-2.24758">
        <ele>1.2000000476837</ele>
        <time>2020-01-05T10:21:17.000Z</time>
      </trkpt>
      <trkpt lat="47.2833" lon="-2.24756">
        <ele>1.2000000476837</ele>
        <time>2020-01-05T10:21:18.000Z</time>
      </trkpt>
      <trkpt lat="47.28344" lon="-2.24748">
        <ele>1.2000000476837</ele>
        <time>2020-01-05T10:21:22.000Z</time>
      </trkpt>
      <trkpt lat="47.28347" lon="-2.24746">
        <ele>1.2000000476837</ele>
        <time>2020-01-05T10:21:26.000Z</time>
      </trkpt>
      <trkpt lat="47.2835" lon="-2.24749">
        <ele>1.2000000476837</ele>
        <time>2020-01-05T10:21:35.000Z</time>
      </trkpt>
      <trkpt lat="47.28352" lon="-2.24757">
        <ele>1.2000000476837</ele>
        <time>2020-01-05T10:21:38.000Z</time>
      </trkpt>
      <trkpt lat="47.28355" lon="-2.24764">
        <ele>0.80000001192093</ele>
        <time>2020-01-05T10:21:41.000Z</time>
      </trkpt>
      <trkpt lat="47.28355" lon="-2.24766">
        <ele>0.40000000596046</ele>
        <time>2020-01-05T10:21:42.000Z</time>
      </trkpt>
      <trkpt lat="47.28355" lon="-2.24768">
        <ele>8.2</ele>
        <time>2020-01-05T10:21:43.000Z</time>
      </trkpt>
      <trkpt lat="47.28356" lon="-2.24769">
        <ele>-0.60000002384186</ele>
        <time>2020-01-05T10:21:44.000Z</time>
      </trkpt>
      <trkpt lat="47.28356" lon="-2.24771">
        <ele>-1</ele>
        <time>2020-01-05T10:21:45.000Z</time>
      </trkpt>
      <trkpt lat="47.28356" lon="-2.24771">
        <ele>-1</ele>
        <time>2020-01-05T10:21:46.000Z</time>
      </trkpt>
      <trkpt lat="47.28366" lon="-2.24789">
        <ele>-2.2000000476837</ele>
        <time>2020-01-05T10:22:28.000Z</time>
      </trkpt>
      <trkpt lat="47.28369" lon="-2.2479">
        <ele>-2.5999999046326</ele>
        <time>2020-01-05T10:22:29.000Z</time>
      </trkpt>
      <trkpt lat="47.28372" lon="-2.2479">
        <ele>-3</ele>
        <time>2020-01-05T10:22:30.000Z</time>
      </trkpt>
      <trkpt lat="47.28376" lon="-2.24785">
        <ele>-3</ele>
        <time>2020-01-05T10:22:33.000Z</time>
      </trkpt>
      <trkpt lat="47.28382" lon="-2.24774">
        <ele>-3</ele>
        <time>2020-01-05T10:22:37.000Z</time>
      </trkpt>
      <trkpt lat="47.28383" lon="-2.24771">
        <ele>-3</ele>
        <time>2020-01-05T10:22:38.000Z</time>
      </trkpt>
      <trkpt lat="47.28385" lon="-2.24768">
        <ele>-3</ele>
        <time>2020-01-05T10:22:41.000Z</time>
      </trkpt>
      <trkpt lat="47.28387" lon="-2.24767">
        <ele>-3</ele>
        <time>2020-01-05T10:22:45.000Z</time>
      </trkpt>
      <trkpt lat="47.28388" lon="-2.24766">
        <ele>-3</ele>
        <time>2020-01-05T10:22:46.000Z</time>
      </trkpt>
      <trkpt lat="47.28398" lon="-2.24761">
        <ele>-3</ele>
        <time>2020-01-05T10:22:52.000Z</time>
      </trkpt>
      <trkpt lat="47.28409" lon="-2.24754">
        <ele>-3</ele>
        <time>2020-01-05T10:22:56.000Z</time>
      </trkpt>
      <trkpt lat="47.28417" lon="-2.24749">
        <ele>-3</ele>
        <time>2020-01-05T10:22:58.000Z</time>
      </trkpt>
      <trkpt lat="47.28424" lon="-2.24742">
        <ele>-3</ele>
        <time>2020-01-05T10:23:00.000Z</time>
      </trkpt>
      <trkpt lat="47.28429" lon="-2.24738">
        <ele>-3</ele>
        <time>2020-01-05T10:23:01.000Z</time>
      </trkpt>
      <trkpt lat="47.28455" lon="-2.24719">
        <ele>-3</ele>
        <time>2020-01-05T10:23:06.000Z</time>
      </trkpt>
      <trkpt lat="47.28484" lon="-2.24698">
        <ele>-3</ele>
        <time>2020-01-05T10:23:11.000Z</time>
      </trkpt>
      <trkpt lat="47.28513" lon="-2.24679">
        <ele>-3</ele>
        <time>2020-01-05T10:23:16.000Z</time>
      </trkpt>
      <trkpt lat="47.28523" lon="-2.24671">
        <ele>-3</ele>
        <time>2020-01-05T10:23:18.000Z</time>
      </trkpt>
      <trkpt lat="47.28532" lon="-2.24662">
        <ele>-3</ele>
        <time>2020-01-05T10:23:20.000Z</time>
      </trkpt>
      <trkpt lat="47.28541" lon="-2.24653">
        <ele>-3</ele>
        <time>2020-01-05T10:23:22.000Z</time>
      </trkpt>
      <trkpt lat="47.28546" lon="-2.2465">
        <ele>-3</ele>
        <time>2020-01-05T10:23:23.000Z</time>
      </trkpt>
      <trkpt lat="47.28556" lon="-2.24643">
        <ele>-3</ele>
        <time>2020-01-05T10:23:25.000Z</time>
      </trkpt>
      <trkpt lat="47.28574" lon="-2.2463">
        <ele>-3</ele>
        <time>2020-01-05T10:23:29.000Z</time>
      </trkpt>
      <trkpt lat="47.28578" lon="-2.24628">
        <ele>-3</ele>
        <time>2020-01-05T10:23:30.000Z</time>
      </trkpt>
      <trkpt lat="47.28586" lon="-2.24619">
        <ele>-3</ele>
        <time>2020-01-05T10:23:34.000Z</time>
      </trkpt>
      <trkpt lat="47.28593" lon="-2.2461">
        <ele>-3</ele>
        <time>2020-01-05T10:23:39.000Z</time>
      </trkpt>
      <trkpt lat="47.28596" lon="-2.24605">
        <ele>-3</ele>
        <time>2020-01-05T10:23:43.000Z</time>
      </trkpt>
      <trkpt lat="47.28599" lon="-2.24602">
        <ele>-3</ele>
        <time>2020-01-05T10:23:45.000Z</time>
      </trkpt>
      <trkpt lat="47.28605" lon="-2.24593">
        <ele>-3</ele>
        <time>2020-01-05T10:23:48.000Z</time>
      </trkpt>
      <trkpt lat="47.28611" lon="-2.24561">
        <ele>-3</ele>
        <time>2020-01-05T10:23:53.000Z</time>
      </trkpt>
      <trkpt lat="47.28624" lon="-2.24511">
        <ele>-3</ele>
        <time>2020-01-05T10:24:00.000Z</time>
      </trkpt>
      <trkpt lat="47.28637" lon="-2.24457">
        <ele>-3</ele>
        <time>2020-01-05T10:24:06.000Z</time>
      </trkpt>
      <trkpt lat="47.2865" lon="-2.24402">
        <ele>-3</ele>
        <time>2020-01-05T10:24:12.000Z</time>
      </trkpt>
      <trkpt lat="47.28659" lon="-2.24369">
        <ele>-2.5999999046326</ele>
        <time>2020-01-05T10:24:16.000Z</time>
      </trkpt>
      <trkpt lat="47.28661" lon="-2.2436">
        <ele>-2.2000000476837</ele>
        <time>2020-01-05T10:24:17.000Z</time>
      </trkpt>
      <trkpt lat="47.28664" lon="-2.24351">
        <ele>-1.7999999523163</ele>
        <time>2020-01-05T10:24:18.000Z</time>
      </trkpt>
      <trkpt lat="47.28666" lon="-2.24343">
        <ele>-1.2000000476837</ele>
        <time>2020-01-05T10:24:19.000Z</time>
      </trkpt>
      <trkpt lat="47.28668" lon="-2.24334">
        <ele>-0.80000001192093</ele>
        <time>2020-01-05T10:24:20.000Z</time>
      </trkpt>
      <trkpt lat="47.28674" lon="-2.2431">
        <ele>-0.80000001192093</ele>
        <time>2020-01-05T10:24:23.000Z</time>
      </trkpt>
      <trkpt lat="47.28676" lon="-2.24302">
        <ele>-0.80000001192093</ele>
        <time>2020-01-05T10:24:24.000Z</time>
      </trkpt>
      <trkpt lat="47.28686" lon="-2.24268">
        <ele>-0.80000001192093</ele>
        <time>2020-01-05T10:24:29.000Z</time>
      </trkpt>
      <trkpt lat="47.28688" lon="-2.24265">
        <ele>-0.80000001192093</ele>
        <time>2020-01-05T10:24:30.000Z</time>
      </trkpt>
      <trkpt lat="47.28695" lon="-2.24259">
        <ele>-1.3999999761581</ele>
        <time>2020-01-05T10:24:32.000Z</time>
      </trkpt>
      <trkpt lat="47.28699" lon="-2.24258">
        <ele>-1.7999999523163</ele>
        <time>2020-01-05T10:24:33.000Z</time>
      </trkpt>
      <trkpt lat="47.28703" lon="-2.24258">
        <ele>-2.2000000476837</ele>
        <time>2020-01-05T10:24:34.000Z</time>
      </trkpt>
      <trkpt lat="47.28707" lon="-2.24257">
        <ele>-2.5999999046326</ele>
        <time>2020-01-05T10:24:35.000Z</time>
      </trkpt>
      <trkpt lat="47.28712" lon="-2.24257">
        <ele>-3.2000000476837</ele>
        <time>2020-01-05T10:24:36.000Z</time>
      </trkpt>
      <trkpt lat="47.28723" lon="-2.24258">
        <ele>-3.2000000476837</ele>
        <time>2020-01-05T10:24:38.000Z</time>
      </trkpt>
      <trkpt lat="47.28728" lon="-2.24259">
        <ele>-3.2000000476837</ele>
        <time>2020-01-05T10:24:39.000Z</time>
      </trkpt>
      <trkpt lat="47.28739" lon="-2.24259">
        <ele>-3.2000000476837</ele>
        <time>2020-01-05T10:24:41.000Z</time>
      </trkpt>
      <trkpt lat="47.28751" lon="-2.24259">
        <ele>-3.2000000476837</ele>
        <time>2020-01-05T10:24:43.000Z</time>
      </trkpt>
      <trkpt lat="47.28756" lon="-2.24259">
        <ele>-3.2000000476837</ele>
        <time>2020-01-05T10:24:44.000Z</time>
      </trkpt>
      <trkpt lat="47.28774" lon="-2.24258">
        <ele>-3.2000000476837</ele>
        <time>2020-01-05T10:24:47.000Z</time>
      </trkpt>
      <trkpt lat="47.28782" lon="-2.24249">
        <ele>-3.2000000476837</ele>
        <time>2020-01-05T10:24:49.000Z</time>
      </trkpt>
      <trkpt lat="47.28783" lon="-2.24226">
        <ele>-3.2000000476837</ele>
        <time>2020-01-05T10:24:52.000Z</time>
      </trkpt>
      <trkpt lat="47.28784" lon="-2.24211">
        <ele>-3.2000000476837</ele>
        <time>2020-01-05T10:24:54.000Z</time>
      </trkpt>
      <trkpt lat="47.28786" lon="-2.24194">
        <ele>-3.2000000476837</ele>
        <time>2020-01-05T10:24:56.000Z</time>
      </trkpt>
      <trkpt lat="47.28786" lon="-2.24186">
        <ele>-3.2000000476837</ele>
        <time>2020-01-05T10:24:57.000Z</time>
      </trkpt>
      <trkpt lat="47.28785" lon="-2.24162">
        <ele>-3.2000000476837</ele>
        <time>2020-01-05T10:25:00.000Z</time>
      </trkpt>
      <trkpt lat="47.28786" lon="-2.24153">
        <ele>-3.2000000476837</ele>
        <time>2020-01-05T10:25:01.000Z</time>
      </trkpt>
      <trkpt lat="47.28788" lon="-2.24114">
        <ele>-3.2000000476837</ele>
        <time>2020-01-05T10:25:05.000Z</time>
      </trkpt>
      <trkpt lat="47.28792" lon="-2.24044">
        <ele>-3.2000000476837</ele>
        <time>2020-01-05T10:25:12.000Z</time>
      </trkpt>
      <trkpt lat="47.28796" lon="-2.23999">
        <ele>-3.2000000476837</ele>
        <time>2020-01-05T10:25:17.000Z</time>
      </trkpt>
      <trkpt lat="47.28797" lon="-2.2399">
        <ele>-3.2000000476837</ele>
        <time>2020-01-05T10:25:18.000Z</time>
      </trkpt>
      <trkpt lat="47.28802" lon="-2.23945">
        <ele>-3.2000000476837</ele>
        <time>2020-01-05T10:25:23.000Z</time>
      </trkpt>
      <trkpt lat="47.28808" lon="-2.23884">
        <ele>-3.2000000476837</ele>
        <time>2020-01-05T10:25:30.000Z</time>
      </trkpt>
      <trkpt lat="47.28809" lon="-2.23874">
        <ele>-3.2000000476837</ele>
        <time>2020-01-05T10:25:31.000Z</time>
      </trkpt>
      <trkpt lat="47.28807" lon="-2.23847">
        <ele>-3.2000000476837</ele>
        <time>2020-01-05T10:25:34.000Z</time>
      </trkpt>
      <trkpt lat="47.28793" lon="-2.23816">
        <ele>-3.2000000476837</ele>
        <time>2020-01-05T10:25:38.000Z</time>
      </trkpt>
      <trkpt lat="47.28777" lon="-2.23787">
        <ele>-3.2000000476837</ele>
        <time>2020-01-05T10:25:42.000Z</time>
      </trkpt>
      <trkpt lat="47.28769" lon="-2.23774">
        <ele>-3.2000000476837</ele>
        <time>2020-01-05T10:25:44.000Z</time>
      </trkpt>
      <trkpt lat="47.2876" lon="-2.23757">
        <ele>-3.2000000476837</ele>
        <time>2020-01-05T10:25:47.000Z</time>
      </trkpt>
      <trkpt lat="47.28753" lon="-2.23744">
        <ele>-3.2000000476837</ele>
        <time>2020-01-05T10:25:49.000Z</time>
      </trkpt>
      <trkpt lat="47.28745" lon="-2.23732">
        <ele>-3.2000000476837</ele>
        <time>2020-01-05T10:25:51.000Z</time>
      </trkpt>
      <trkpt lat="47.28737" lon="-2.23719">
        <ele>-3.2000000476837</ele>
        <time>2020-01-05T10:25:53.000Z</time>
      </trkpt>
      <trkpt lat="47.28733" lon="-2.23713">
        <ele>-3.2000000476837</ele>
        <time>2020-01-05T10:25:54.000Z</time>
      </trkpt>
      <trkpt lat="47.28725" lon="-2.23702">
        <ele>-3.2000000476837</ele>
        <time>2020-01-05T10:25:56.000Z</time>
      </trkpt>
      <trkpt lat="47.28718" lon="-2.23689">
        <ele>-3.2000000476837</ele>
        <time>2020-01-05T10:25:58.000Z</time>
      </trkpt>
      <trkpt lat="47.28712" lon="-2.23677">
        <ele>-3.2000000476837</ele>
        <time>2020-01-05T10:26:00.000Z</time>
      </trkpt>
      <trkpt lat="47.28707" lon="-2.23667">
        <ele>-3.2000000476837</ele>
        <time>2020-01-05T10:26:02.000Z</time>
      </trkpt>
      <trkpt lat="47.28704" lon="-2.23662">
        <ele>-3.2000000476837</ele>
        <time>2020-01-05T10:26:03.000Z</time>
      </trkpt>
      <trkpt lat="47.28684" lon="-2.23625">
        <ele>-3.2000000476837</ele>
        <time>2020-01-05T10:26:10.000Z</time>
      </trkpt>
      <trkpt lat="47.2867" lon="-2.236">
        <ele>-3.2000000476837</ele>
        <time>2020-01-05T10:26:15.000Z</time>
      </trkpt>
      <trkpt lat="47.28662" lon="-2.23592">
        <ele>-3.2000000476837</ele>
        <time>2020-01-05T10:26:17.000Z</time>
      </trkpt>
      <trkpt lat="47.28645" lon="-2.23577">
        <ele>-3.5999999046326</ele>
        <time>2020-01-05T10:26:22.000Z</time>
      </trkpt>
      <trkpt lat="47.28642" lon="-2.23576">
        <ele>-4.4000000953674</ele>
        <time>2020-01-05T10:26:23.000Z</time>
      </trkpt>
      <trkpt lat="47.2864" lon="-2.23574">
        <ele>-4.8000001907349</ele>
        <time>2020-01-05T10:26:24.000Z</time>
      </trkpt>
      <trkpt lat="47.2864" lon="-2.2357">
        <ele>-5.1999998092651</ele>
        <time>2020-01-05T10:26:25.000Z</time>
      </trkpt>
      <trkpt lat="47.2864" lon="-2.23566">
        <ele>-5.1999998092651</ele>
        <time>2020-01-05T10:26:26.000Z</time>
      </trkpt>
      <trkpt lat="47.28647" lon="-2.2356">
        <ele>-5.1999998092651</ele>
        <time>2020-01-05T10:26:29.000Z</time>
      </trkpt>
      <trkpt lat="47.28649" lon="-2.23557">
        <ele>-5.1999998092651</ele>
        <time>2020-01-05T10:26:30.000Z</time>
      </trkpt>
      <trkpt lat="47.2865" lon="-2.23548">
        <ele>-5.1999998092651</ele>
        <time>2020-01-05T10:26:32.000Z</time>
      </trkpt>
      <trkpt lat="47.2865" lon="-2.23538">
        <ele>-5.1999998092651</ele>
        <time>2020-01-05T10:26:34.000Z</time>
      </trkpt>
      <trkpt lat="47.28651" lon="-2.23528">
        <ele>-5.1999998092651</ele>
        <time>2020-01-05T10:26:36.000Z</time>
      </trkpt>
      <trkpt lat="47.28654" lon="-2.235">
        <ele>-5.1999998092651</ele>
        <time>2020-01-05T10:26:41.000Z</time>
      </trkpt>
      <trkpt lat="47.28658" lon="-2.23474">
        <ele>-5.1999998092651</ele>
        <time>2020-01-05T10:26:45.000Z</time>
      </trkpt>
      <trkpt lat="47.28659" lon="-2.23467">
        <ele>-5.1999998092651</ele>
        <time>2020-01-05T10:26:46.000Z</time>
      </trkpt>
      <trkpt lat="47.28659" lon="-2.23454">
        <ele>-5.1999998092651</ele>
        <time>2020-01-05T10:26:48.000Z</time>
      </trkpt>
      <trkpt lat="47.28654" lon="-2.23435">
        <ele>-5.1999998092651</ele>
        <time>2020-01-05T10:26:51.000Z</time>
      </trkpt>
      <trkpt lat="47.28652" lon="-2.23429">
        <ele>-5.1999998092651</ele>
        <time>2020-01-05T10:26:52.000Z</time>
      </trkpt>
      <trkpt lat="47.2865" lon="-2.23421">
        <ele>-5.1999998092651</ele>
        <time>2020-01-05T10:26:53.000Z</time>
      </trkpt>
      <trkpt lat="47.28648" lon="-2.23404">
        <ele>-5.1999998092651</ele>
        <time>2020-01-05T10:26:55.000Z</time>
      </trkpt>
      <trkpt lat="47.2865" lon="-2.23387">
        <ele>-5.1999998092651</ele>
        <time>2020-01-05T10:26:57.000Z</time>
      </trkpt>
      <trkpt lat="47.28652" lon="-2.23372">
        <ele>-5.1999998092651</ele>
        <time>2020-01-05T10:26:59.000Z</time>
      </trkpt>
      <trkpt lat="47.28659" lon="-2.23359">
        <ele>-5.1999998092651</ele>
        <time>2020-01-05T10:27:03.000Z</time>
      </trkpt>
      <trkpt lat="47.28668" lon="-2.23363">
        <ele>-5.1999998092651</ele>
        <time>2020-01-05T10:27:07.000Z</time>
      </trkpt>
      <trkpt lat="47.28673" lon="-2.23354">
        <ele>-5.1999998092651</ele>
        <time>2020-01-05T10:27:11.000Z</time>
      </trkpt>
      <trkpt lat="47.28673" lon="-2.23343">
        <ele>-5.1999998092651</ele>
        <time>2020-01-05T10:27:13.000Z</time>
      </trkpt>
      <trkpt lat="47.28674" lon="-2.2333">
        <ele>-5.1999998092651</ele>
        <time>2020-01-05T10:27:16.000Z</time>
      </trkpt>
      <trkpt lat="47.28675" lon="-2.23314">
        <ele>-4.8000001907349</ele>
        <time>2020-01-05T10:27:20.000Z</time>
      </trkpt>
      <trkpt lat="47.28675" lon="-2.23311">
        <ele>-4.4000000953674</ele>
        <time>2020-01-05T10:27:21.000Z</time>
      </trkpt>
      <trkpt lat="47.28675" lon="-2.2331">
        <ele>-4</ele>
        <time>2020-01-05T10:27:22.000Z</time>
      </trkpt>
      <trkpt lat="47.28675" lon="-2.23308">
        <ele>-3.5999999046326</ele>
        <time>2020-01-05T10:27:23.000Z</time>
      </trkpt>
      <trkpt lat="47.28676" lon="-2.23306">
        <ele>-3.2000000476837</ele>
        <time>2020-01-05T10:27:24.000Z</time>
      </trkpt>
      <trkpt lat="47.28678" lon="-2.23301">
        <ele>-3.2000000476837</ele>
        <time>2020-01-05T10:27:26.000Z</time>
      </trkpt>
      <trkpt lat="47.2868" lon="-2.23294">
        <ele>-3.2000000476837</ele>
        <time>2020-01-05T10:27:28.000Z</time>
      </trkpt>
      <trkpt lat="47.2868" lon="-2.23285">
        <ele>-3.2000000476837</ele>
        <time>2020-01-05T10:27:30.000Z</time>
      </trkpt>
      <trkpt lat="47.28681" lon="-2.23282">
        <ele>-3.2000000476837</ele>
        <time>2020-01-05T10:27:31.000Z</time>
      </trkpt>
      <trkpt lat="47.28683" lon="-2.23274">
        <ele>-3.2000000476837</ele>
        <time>2020-01-05T10:27:33.000Z</time>
      </trkpt>
      <trkpt lat="47.28686" lon="-2.23253">
        <ele>-3.2000000476837</ele>
        <time>2020-01-05T10:27:37.000Z</time>
      </trkpt>
      <trkpt lat="47.28684" lon="-2.23241">
        <ele>-3.2000000476837</ele>
        <time>2020-01-05T10:27:39.000Z</time>
      </trkpt>
      <trkpt lat="47.28683" lon="-2.23221">
        <ele>-3.2000000476837</ele>
        <time>2020-01-05T10:27:42.000Z</time>
      </trkpt>
      <trkpt lat="47.28671" lon="-2.23199">
        <ele>-3.2000000476837</ele>
        <time>2020-01-05T10:27:45.000Z</time>
      </trkpt>
      <trkpt lat="47.28649" lon="-2.23182">
        <ele>-3.5999999046326</ele>
        <time>2020-01-05T10:27:49.000Z</time>
      </trkpt>
      <trkpt lat="47.28643" lon="-2.23181">
        <ele>-4</ele>
        <time>2020-01-05T10:27:50.000Z</time>
      </trkpt>
      <trkpt lat="47.28637" lon="-2.23183">
        <ele>-4.4000000953674</ele>
        <time>2020-01-05T10:27:51.000Z</time>
      </trkpt>
      <trkpt lat="47.28631" lon="-2.23186">
        <ele>-4.8000001907349</ele>
        <time>2020-01-05T10:27:52.000Z</time>
      </trkpt>
      <trkpt lat="47.28625" lon="-2.23189">
        <ele>-5.1999998092651</ele>
        <time>2020-01-05T10:27:53.000Z</time>
      </trkpt>
      <trkpt lat="47.28616" lon="-2.23196">
        <ele>-5.1999998092651</ele>
        <time>2020-01-05T10:27:55.000Z</time>
      </trkpt>
      <trkpt lat="47.28607" lon="-2.23203">
        <ele>-5.1999998092651</ele>
        <time>2020-01-05T10:27:57.000Z</time>
      </trkpt>
      <trkpt lat="47.28596" lon="-2.23217">
        <ele>-5.1999998092651</ele>
        <time>2020-01-05T10:28:00.000Z</time>
      </trkpt>
      <trkpt lat="47.28594" lon="-2.23224">
        <ele>-5.1999998092651</ele>
        <time>2020-01-05T10:28:01.000Z</time>
      </trkpt>
      <trkpt lat="47.2859" lon="-2.23248">
        <ele>-5.1999998092651</ele>
        <time>2020-01-05T10:28:05.000Z</time>
      </trkpt>
      <trkpt lat="47.28589" lon="-2.23255">
        <ele>-5.1999998092651</ele>
        <time>2020-01-05T10:28:06.000Z</time>
      </trkpt>
      <trkpt lat="47.28593" lon="-2.23271">
        <ele>-5.1999998092651</ele>
        <time>2020-01-05T10:28:08.000Z</time>
      </trkpt>
      <trkpt lat="47.28601" lon="-2.2329">
        <ele>-5.1999998092651</ele>
        <time>2020-01-05T10:28:11.000Z</time>
      </trkpt>
      <trkpt lat="47.28615" lon="-2.23297">
        <ele>-5.1999998092651</ele>
        <time>2020-01-05T10:28:14.000Z</time>
      </trkpt>
      <trkpt lat="47.28621" lon="-2.23298">
        <ele>-5.1999998092651</ele>
        <time>2020-01-05T10:28:15.000Z</time>
      </trkpt>
      <trkpt lat="47.28641" lon="-2.23297">
        <ele>-5.1999998092651</ele>
        <time>2020-01-05T10:28:19.000Z</time>
      </trkpt>
      <trkpt lat="47.28656" lon="-2.23299">
        <ele>-5.1999998092651</ele>
        <time>2020-01-05T10:28:23.000Z</time>
      </trkpt>
      <trkpt lat="47.28665" lon="-2.23298">
        <ele>-5.1999998092651</ele>
        <time>2020-01-05T10:28:27.000Z</time>
      </trkpt>
      <trkpt lat="47.28666" lon="-2.23297">
        <ele>-4.8000001907349</ele>
        <time>2020-01-05T10:28:28.000Z</time>
      </trkpt>
      <trkpt lat="47.28666" lon="-2.23295">
        <ele>-4.4000000953674</ele>
        <time>2020-01-05T10:28:29.000Z</time>
      </trkpt>
      <trkpt lat="47.28666" lon="-2.23293">
        <ele>-4</ele>
        <time>2020-01-05T10:28:30.000Z</time>
      </trkpt>
      <trkpt lat="47.28666" lon="-2.23292">
        <ele>-3.5999999046326</ele>
        <time>2020-01-05T10:28:31.000Z</time>
      </trkpt>
      <trkpt lat="47.28666" lon="-2.2329">
        <ele>-3.2000000476837</ele>
        <time>2020-01-05T10:28:32.000Z</time>
      </trkpt>
      <trkpt lat="47.28666" lon="-2.23291">
        <ele>-3.2000000476837</ele>
        <time>2020-01-05T10:28:33.000Z</time>
      </trkpt>
      <trkpt lat="47.28663" lon="-2.23293">
        <ele>-3.2000000476837</ele>
        <time>2020-01-05T10:28:51.000Z</time>
      </trkpt>
      <trkpt lat="47.28662" lon="-2.23299">
        <ele>-3.2000000476837</ele>
        <time>2020-01-05T10:28:52.000Z</time>
      </trkpt>
      <trkpt lat="47.28658" lon="-2.23317">
        <ele>-3.5999999046326</ele>
        <time>2020-01-05T10:28:55.000Z</time>
      </trkpt>
      <trkpt lat="47.28658" lon="-2.23321">
        <ele>-4</ele>
        <time>2020-01-05T10:28:56.000Z</time>
      </trkpt>
      <trkpt lat="47.28658" lon="-2.23325">
        <ele>-4.4000000953674</ele>
        <time>2020-01-05T10:28:57.000Z</time>
      </trkpt>
      <trkpt lat="47.28658" lon="-2.23329">
        <ele>-5</ele>
        <time>2020-01-05T10:28:58.000Z</time>
      </trkpt>
      <trkpt lat="47.28657" lon="-2.23334">
        <ele>-5.4000000953674</ele>
        <time>2020-01-05T10:28:59.000Z</time>
      </trkpt>
      <trkpt lat="47.28657" lon="-2.23347">
        <ele>-5.4000000953674</ele>
        <time>2020-01-05T10:29:01.000Z</time>
      </trkpt>
      <trkpt lat="47.28656" lon="-2.23361">
        <ele>-5.4000000953674</ele>
        <time>2020-01-05T10:29:03.000Z</time>
      </trkpt>
      <trkpt lat="47.28654" lon="-2.23381">
        <ele>-5.4000000953674</ele>
        <time>2020-01-05T10:29:06.000Z</time>
      </trkpt>
      <trkpt lat="47.28653" lon="-2.23396">
        <ele>-5.4000000953674</ele>
        <time>2020-01-05T10:29:08.000Z</time>
      </trkpt>
      <trkpt lat="47.28655" lon="-2.23417">
        <ele>-5.4000000953674</ele>
        <time>2020-01-05T10:29:11.000Z</time>
      </trkpt>
      <trkpt lat="47.28656" lon="-2.23422">
        <ele>-5.4000000953674</ele>
        <time>2020-01-05T10:29:12.000Z</time>
      </trkpt>
      <trkpt lat="47.2866" lon="-2.23437">
        <ele>-5.4000000953674</ele>
        <time>2020-01-05T10:29:15.000Z</time>
      </trkpt>
      <trkpt lat="47.2866" lon="-2.23443">
        <ele>-5.4000000953674</ele>
        <time>2020-01-05T10:29:16.000Z</time>
      </trkpt>
      <trkpt lat="47.2866" lon="-2.23449">
        <ele>-5</ele>
        <time>2020-01-05T10:29:17.000Z</time>
      </trkpt>
      <trkpt lat="47.2866" lon="-2.23456">
        <ele>-4.5999999046326</ele>
        <time>2020-01-05T10:29:18.000Z</time>
      </trkpt>
      <trkpt lat="47.2866" lon="-2.23463">
        <ele>-4.1999998092651</ele>
        <time>2020-01-05T10:29:19.000Z</time>
      </trkpt>
      <trkpt lat="47.28659" lon="-2.2347">
        <ele>-3.7999999523163</ele>
        <time>2020-01-05T10:29:20.000Z</time>
      </trkpt>
      <trkpt lat="47.28658" lon="-2.23478">
        <ele>-3.4000000953674</ele>
        <time>2020-01-05T10:29:21.000Z</time>
      </trkpt>
      <trkpt lat="47.28652" lon="-2.23521">
        <ele>-3.4000000953674</ele>
        <time>2020-01-05T10:29:27.000Z</time>
      </trkpt>
      <trkpt lat="47.28654" lon="-2.23548">
        <ele>-3.4000000953674</ele>
        <time>2020-01-05T10:29:31.000Z</time>
      </trkpt>
      <trkpt lat="47.28664" lon="-2.23556">
        <ele>-3.4000000953674</ele>
        <time>2020-01-05T10:29:34.000Z</time>
      </trkpt>
      <trkpt lat="47.28671" lon="-2.23562">
        <ele>-3.4000000953674</ele>
        <time>2020-01-05T10:29:36.000Z</time>
      </trkpt>
      <trkpt lat="47.28676" lon="-2.23566">
        <ele>-3.4000000953674</ele>
        <time>2020-01-05T10:29:37.000Z</time>
      </trkpt>
      <trkpt lat="47.28683" lon="-2.23576">
        <ele>-3.4000000953674</ele>
        <time>2020-01-05T10:29:39.000Z</time>
      </trkpt>
      <trkpt lat="47.28691" lon="-2.23587">
        <ele>-3.4000000953674</ele>
        <time>2020-01-05T10:29:41.000Z</time>
      </trkpt>
      <trkpt lat="47.287" lon="-2.23591">
        <ele>-3.4000000953674</ele>
        <time>2020-01-05T10:29:43.000Z</time>
      </trkpt>
      <trkpt lat="47.28716" lon="-2.23581">
        <ele>-3.4000000953674</ele>
        <time>2020-01-05T10:29:47.000Z</time>
      </trkpt>
      <trkpt lat="47.28722" lon="-2.23573">
        <ele>-3.4000000953674</ele>
        <time>2020-01-05T10:29:49.000Z</time>
      </trkpt>
      <trkpt lat="47.2873" lon="-2.23558">
        <ele>-3.4000000953674</ele>
        <time>2020-01-05T10:29:52.000Z</time>
      </trkpt>
      <trkpt lat="47.28741" lon="-2.2354">
        <ele>-3.4000000953674</ele>
        <time>2020-01-05T10:29:57.000Z</time>
      </trkpt>
      <trkpt lat="47.28756" lon="-2.2353">
        <ele>-3.4000000953674</ele>
        <time>2020-01-05T10:30:01.000Z</time>
      </trkpt>
      <trkpt lat="47.28768" lon="-2.23523">
        <ele>-3</ele>
        <time>2020-01-05T10:30:05.000Z</time>
      </trkpt>
      <trkpt lat="47.28771" lon="-2.23521">
        <ele>-2.5999999046326</ele>
        <time>2020-01-05T10:30:06.000Z</time>
      </trkpt>
      <trkpt lat="47.28775" lon="-2.2352">
        <ele>-2.2000000476837</ele>
        <time>2020-01-05T10:30:07.000Z</time>
      </trkpt>
      <trkpt lat="47.28779" lon="-2.23519">
        <ele>-1.7999999523163</ele>
        <time>2020-01-05T10:30:08.000Z</time>
      </trkpt>
      <trkpt lat="47.28783" lon="-2.23518">
        <ele>-1.2000000476837</ele>
        <time>2020-01-05T10:30:09.000Z</time>
      </trkpt>
      <trkpt lat="47.28788" lon="-2.23517">
        <ele>-1.2000000476837</ele>
        <time>2020-01-05T10:30:10.000Z</time>
      </trkpt>
      <trkpt lat="47.28817" lon="-2.23511">
        <ele>-1.2000000476837</ele>
        <time>2020-01-05T10:30:17.000Z</time>
      </trkpt>
      <trkpt lat="47.28821" lon="-2.23511">
        <ele>-0.80000001192093</ele>
        <time>2020-01-05T10:30:18.000Z</time>
      </trkpt>
      <trkpt lat="47.28825" lon="-2.23511">
        <ele>-0.40000000596046</ele>
        <time>2020-01-05T10:30:19.000Z</time>
      </trkpt>
      <trkpt lat="47.28829" lon="-2.2351">
        <ele>10.7</ele>
        <time>2020-01-05T10:30:20.000Z</time>
      </trkpt>
      <trkpt lat="47.28833" lon="-2.23509">
        <ele>0.40000000596046</ele>
        <time>2020-01-05T10:30:21.000Z</time>
      </trkpt>
      <trkpt lat="47.28836" lon="-2.23509">
        <ele>0.80000001192093</ele>
        <time>2020-01-05T10:30:22.000Z</time>
      </trkpt>
      <trkpt lat="47.28857" lon="-2.23507">
        <ele>0.80000001192093</ele>
        <time>2020-01-05T10:30:27.000Z</time>
      </trkpt>
      <trkpt lat="47.28881" lon="-2.23506">
        <ele>1.2000000476837</ele>
        <time>2020-01-05T10:30:33.000Z</time>
      </trkpt>
      <trkpt lat="47.28885" lon="-2.23506">
        <ele>1.7999999523163</ele>
        <time>2020-01-05T10:30:34.000Z</time>
      </trkpt>
      <trkpt lat="47.28889" lon="-2.23506">
        <ele>2.2000000476837</ele>
        <time>2020-01-05T10:30:35.000Z</time>
      </trkpt>
      <trkpt lat="47.28893" lon="-2.23506">
        <ele>2.5999999046326</ele>
        <time>2020-01-05T10:30:36.000Z</time>
      </trkpt>
      <trkpt lat="47.28897" lon="-2.23506">
        <ele>3</ele>
        <time>2020-01-05T10:30:37.000Z</time>
      </trkpt>
      <trkpt lat="47.28908" lon="-2.23505">
        <ele>3</ele>
        <time>2020-01-05T10:30:40.000Z</time>
      </trkpt>
      <trkpt lat="47.28931" lon="-2.23497">
        <ele>3</ele>
        <time>2020-01-05T10:30:46.000Z</time>
      </trkpt>
      <trkpt lat="47.28952" lon="-2.23492">
        <ele>3</ele>
        <time>2020-01-05T10:30:52.000Z</time>
      </trkpt>
      <trkpt lat="47.28959" lon="-2.23489">
        <ele>3</ele>
        <time>2020-01-05T10:30:54.000Z</time>
      </trkpt>
      <trkpt lat="47.2896" lon="-2.23479">
        <ele>3</ele>
        <time>2020-01-05T10:30:56.000Z</time>
      </trkpt>
      <trkpt lat="47.28961" lon="-2.23467">
        <ele>3</ele>
        <time>2020-01-05T10:30:58.000Z</time>
      </trkpt>
      <trkpt lat="47.28963" lon="-2.2344">
        <ele>3</ele>
        <time>2020-01-05T10:31:02.000Z</time>
      </trkpt>
      <trkpt lat="47.28969" lon="-2.23383">
        <ele>3</ele>
        <time>2020-01-05T10:31:10.000Z</time>
      </trkpt>
      <trkpt lat="47.28973" lon="-2.23344">
        <ele>3</ele>
        <time>2020-01-05T10:31:15.000Z</time>
      </trkpt>
      <trkpt lat="47.28975" lon="-2.23328">
        <ele>3</ele>
        <time>2020-01-05T10:31:17.000Z</time>
      </trkpt>
      <trkpt lat="47.28982" lon="-2.23258">
        <ele>3</ele>
        <time>2020-01-05T10:31:24.000Z</time>
      </trkpt>
      <trkpt lat="47.2899" lon="-2.23172">
        <ele>3</ele>
        <time>2020-01-05T10:31:32.000Z</time>
      </trkpt>
      <trkpt lat="47.28991" lon="-2.23161">
        <ele>3</ele>
        <time>2020-01-05T10:31:33.000Z</time>
      </trkpt>
      <trkpt lat="47.28993" lon="-2.2315">
        <ele>2.5999999046326</ele>
        <time>2020-01-05T10:31:34.000Z</time>
      </trkpt>
      <trkpt lat="47.28994" lon="-2.23139">
        <ele>2.2000000476837</ele>
        <time>2020-01-05T10:31:35.000Z</time>
      </trkpt>
      <trkpt lat="47.28996" lon="-2.23128">
        <ele>1.7999999523163</ele>
        <time>2020-01-05T10:31:36.000Z</time>
      </trkpt>
      <trkpt lat="47.28997" lon="-2.23117">
        <ele>1.3999999761581</ele>
        <time>2020-01-05T10:31:37.000Z</time>
      </trkpt>
      <trkpt lat="47.28999" lon="-2.23105">
        <ele>1</ele>
        <time>2020-01-05T10:31:38.000Z</time>
      </trkpt>
      <trkpt lat="47.29006" lon="-2.2306">
        <ele>1</ele>
        <time>2020-01-05T10:31:42.000Z</time>
      </trkpt>
      <trkpt lat="47.29009" lon="-2.23049">
        <ele>0.60000002384186</ele>
        <time>2020-01-05T10:31:43.000Z</time>
      </trkpt>
      <trkpt lat="47.29012" lon="-2.23039">
        <ele>-0.20000000298023</ele>
        <time>2020-01-05T10:31:44.000Z</time>
      </trkpt>
      <trkpt lat="47.29016" lon="-2.23028">
        <ele>-0.60000002384186</ele>
        <time>2020-01-05T10:31:45.000Z</time>
      </trkpt>
      <trkpt lat="47.29018" lon="-2.23018">
        <ele>-1</ele>
        <time>2020-01-05T10:31:46.000Z</time>
      </trkpt>
      <trkpt lat="47.2902" lon="-2.2301">
        <ele>-1.6000000238419</ele>
        <time>2020-01-05T10:31:47.000Z</time>
      </trkpt>
      <trkpt lat="47.29021" lon="-2.23003">
        <ele>-2.2000000476837</ele>
        <time>2020-01-05T10:31:48.000Z</time>
      </trkpt>
      <trkpt lat="47.29024" lon="-2.22998">
        <ele>-2.7999999523163</ele>
        <time>2020-01-05T10:31:49.000Z</time>
      </trkpt>
      <trkpt lat="47.29027" lon="-2.22992">
        <ele>-3.4000000953674</ele>
        <time>2020-01-05T10:31:50.000Z</time>
      </trkpt>
      <trkpt lat="47.29028" lon="-2.22985">
        <ele>-4</ele>
        <time>2020-01-05T10:31:51.000Z</time>
      </trkpt>
      <trkpt lat="47.29028" lon="-2.22978">
        <ele>-4.5999999046326</ele>
        <time>2020-01-05T10:31:52.000Z</time>
      </trkpt>
      <trkpt lat="47.2903" lon="-2.22972">
        <ele>-5.4000000953674</ele>
        <time>2020-01-05T10:31:53.000Z</time>
      </trkpt>
      <trkpt lat="47.29034" lon="-2.2297">
        <ele>-6</ele>
        <time>2020-01-05T10:31:54.000Z</time>
      </trkpt>
      <trkpt lat="47.29039" lon="-2.22971">
        <ele>-6</ele>
        <time>2020-01-05T10:31:55.000Z</time>
      </trkpt>
      <trkpt lat="47.29049" lon="-2.22991">
        <ele>-6</ele>
        <time>2020-01-05T10:31:58.000Z</time>
      </trkpt>
      <trkpt lat="47.29068" lon="-2.23014">
        <ele>-6</ele>
        <time>2020-01-05T10:32:02.000Z</time>
      </trkpt>
      <trkpt lat="47.29106" lon="-2.23062">
        <ele>-6</ele>
        <time>2020-01-05T10:32:10.000Z</time>
      </trkpt>
      <trkpt lat="47.29136" lon="-2.23102">
        <ele>-6</ele>
        <time>2020-01-05T10:32:16.000Z</time>
      </trkpt>
      <trkpt lat="47.29172" lon="-2.23146">
        <ele>-6</ele>
        <time>2020-01-05T10:32:23.000Z</time>
      </trkpt>
      <trkpt lat="47.29186" lon="-2.23167">
        <ele>-6</ele>
        <time>2020-01-05T10:32:26.000Z</time>
      </trkpt>
      <trkpt lat="47.29196" lon="-2.23183">
        <ele>-6</ele>
        <time>2020-01-05T10:32:28.000Z</time>
      </trkpt>
      <trkpt lat="47.29199" lon="-2.23191">
        <ele>-6</ele>
        <time>2020-01-05T10:32:29.000Z</time>
      </trkpt>
      <trkpt lat="47.29203" lon="-2.23211">
        <ele>-6</ele>
        <time>2020-01-05T10:32:31.000Z</time>
      </trkpt>
      <trkpt lat="47.2922" lon="-2.23244">
        <ele>-6</ele>
        <time>2020-01-05T10:32:35.000Z</time>
      </trkpt>
      <trkpt lat="47.29231" lon="-2.23258">
        <ele>-6</ele>
        <time>2020-01-05T10:32:37.000Z</time>
      </trkpt>
      <trkpt lat="47.29252" lon="-2.23284">
        <ele>-6</ele>
        <time>2020-01-05T10:32:41.000Z</time>
      </trkpt>
      <trkpt lat="47.29257" lon="-2.23291">
        <ele>-6</ele>
        <time>2020-01-05T10:32:42.000Z</time>
      </trkpt>
      <trkpt lat="47.29267" lon="-2.23318">
        <ele>-6</ele>
        <time>2020-01-05T10:32:45.000Z</time>
      </trkpt>
      <trkpt lat="47.29277" lon="-2.23364">
        <ele>-6</ele>
        <time>2020-01-05T10:32:50.000Z</time>
      </trkpt>
      <trkpt lat="47.29283" lon="-2.23397">
        <ele>-6</ele>
        <time>2020-01-05T10:32:54.000Z</time>
      </trkpt>
      <trkpt lat="47.29288" lon="-2.23412">
        <ele>-6</ele>
        <time>2020-01-05T10:32:56.000Z</time>
      </trkpt>
      <trkpt lat="47.29289" lon="-2.23419">
        <ele>-6</ele>
        <time>2020-01-05T10:32:57.000Z</time>
      </trkpt>
      <trkpt lat="47.29294" lon="-2.23444">
        <ele>-6</ele>
        <time>2020-01-05T10:33:01.000Z</time>
      </trkpt>
      <trkpt lat="47.29302" lon="-2.23481">
        <ele>-6</ele>
        <time>2020-01-05T10:33:07.000Z</time>
      </trkpt>
      <trkpt lat="47.29304" lon="-2.23489">
        <ele>-6</ele>
        <time>2020-01-05T10:33:08.000Z</time>
      </trkpt>
      <trkpt lat="47.29309" lon="-2.23518">
        <ele>-6</ele>
        <time>2020-01-05T10:33:12.000Z</time>
      </trkpt>
      <trkpt lat="47.29315" lon="-2.2357">
        <ele>-6</ele>
        <time>2020-01-05T10:33:19.000Z</time>
      </trkpt>
      <trkpt lat="47.29315" lon="-2.23614">
        <ele>-6</ele>
        <time>2020-01-05T10:33:25.000Z</time>
      </trkpt>
      <trkpt lat="47.29316" lon="-2.23644">
        <ele>-6</ele>
        <time>2020-01-05T10:33:29.000Z</time>
      </trkpt>
      <trkpt lat="47.29316" lon="-2.23657">
        <ele>-6</ele>
        <time>2020-01-05T10:33:31.000Z</time>
      </trkpt>
      <trkpt lat="47.29316" lon="-2.23693">
        <ele>-6</ele>
        <time>2020-01-05T10:33:36.000Z</time>
      </trkpt>
      <trkpt lat="47.29315" lon="-2.237">
        <ele>-6</ele>
        <time>2020-01-05T10:33:37.000Z</time>
      </trkpt>
      <trkpt lat="47.29315" lon="-2.23729">
        <ele>-6</ele>
        <time>2020-01-05T10:33:41.000Z</time>
      </trkpt>
      <trkpt lat="47.29316" lon="-2.23745">
        <ele>-6</ele>
        <time>2020-01-05T10:33:43.000Z</time>
      </trkpt>
      <trkpt lat="47.29316" lon="-2.23802">
        <ele>-6</ele>
        <time>2020-01-05T10:33:50.000Z</time>
      </trkpt>
      <trkpt lat="47.29321" lon="-2.23865">
        <ele>-6</ele>
        <time>2020-01-05T10:33:58.000Z</time>
      </trkpt>
      <trkpt lat="47.29323" lon="-2.23873">
        <ele>-6</ele>
        <time>2020-01-05T10:33:59.000Z</time>
      </trkpt>
      <trkpt lat="47.29332" lon="-2.23902">
        <ele>-6</ele>
        <time>2020-01-05T10:34:03.000Z</time>
      </trkpt>
      <trkpt lat="47.29335" lon="-2.23908">
        <ele>-6</ele>
        <time>2020-01-05T10:34:04.000Z</time>
      </trkpt>
      <trkpt lat="47.29344" lon="-2.23926">
        <ele>-6</ele>
        <time>2020-01-05T10:34:07.000Z</time>
      </trkpt>
      <trkpt lat="47.29354" lon="-2.23943">
        <ele>-6</ele>
        <time>2020-01-05T10:34:10.000Z</time>
      </trkpt>
      <trkpt lat="47.29361" lon="-2.23953">
        <ele>-6</ele>
        <time>2020-01-05T10:34:12.000Z</time>
      </trkpt>
      <trkpt lat="47.29362" lon="-2.23967">
        <ele>-6</ele>
        <time>2020-01-05T10:34:14.000Z</time>
      </trkpt>
      <trkpt lat="47.29353" lon="-2.23974">
        <ele>-6</ele>
        <time>2020-01-05T10:34:16.000Z</time>
      </trkpt>
      <trkpt lat="47.29333" lon="-2.23974">
        <ele>-6</ele>
        <time>2020-01-05T10:34:20.000Z</time>
      </trkpt>
      <trkpt lat="47.29308" lon="-2.23969">
        <ele>-6</ele>
        <time>2020-01-05T10:34:25.000Z</time>
      </trkpt>
      <trkpt lat="47.29304" lon="-2.23968">
        <ele>-6</ele>
        <time>2020-01-05T10:34:26.000Z</time>
      </trkpt>
      <trkpt lat="47.29297" lon="-2.23967">
        <ele>-6</ele>
        <time>2020-01-05T10:34:28.000Z</time>
      </trkpt>
      <trkpt lat="47.29286" lon="-2.23968">
        <ele>-6</ele>
        <time>2020-01-05T10:34:31.000Z</time>
      </trkpt>
      <trkpt lat="47.29279" lon="-2.23968">
        <ele>-6</ele>
        <time>2020-01-05T10:34:33.000Z</time>
      </trkpt>
      <trkpt lat="47.29258" lon="-2.23978">
        <ele>-6</ele>
        <time>2020-01-05T10:34:38.000Z</time>
      </trkpt>
      <trkpt lat="47.29254" lon="-2.23981">
        <ele>-6</ele>
        <time>2020-01-05T10:34:39.000Z</time>
      </trkpt>
      <trkpt lat="47.2924" lon="-2.23993">
        <ele>-6</ele>
        <time>2020-01-05T10:34:43.000Z</time>
      </trkpt>
      <trkpt lat="47.29218" lon="-2.24015">
        <ele>-6</ele>
        <time>2020-01-05T10:34:49.000Z</time>
      </trkpt>
      <trkpt lat="47.29196" lon="-2.24032">
        <ele>-6</ele>
        <time>2020-01-05T10:34:54.000Z</time>
      </trkpt>
      <trkpt lat="47.29192" lon="-2.24036">
        <ele>-5.5999999046326</ele>
        <time>2020-01-05T10:34:55.000Z</time>
      </trkpt>
      <trkpt lat="47.29188" lon="-2.24039">
        <ele>-5</ele>
        <time>2020-01-05T10:34:56.000Z</time>
      </trkpt>
      <trkpt lat="47.29184" lon="-2.24041">
        <ele>-4.5999999046326</ele>
        <time>2020-01-05T10:34:57.000Z</time>
      </trkpt>
      <trkpt lat="47.29179" lon="-2.24044">
        <ele>-4.1999998092651</ele>
        <time>2020-01-05T10:34:58.000Z</time>
      </trkpt>
      <trkpt lat="47.29175" lon="-2.24047">
        <ele>-3.7999999523163</ele>
        <time>2020-01-05T10:34:59.000Z</time>
      </trkpt>
      <trkpt lat="47.29171" lon="-2.24048">
        <ele>-3.7999999523163</ele>
        <time>2020-01-05T10:35:00.000Z</time>
      </trkpt>
      <trkpt lat="47.29148" lon="-2.2406">
        <ele>-3.4000000953674</ele>
        <time>2020-01-05T10:35:05.000Z</time>
      </trkpt>
      <trkpt lat="47.29144" lon="-2.24062">
        <ele>-3</ele>
        <time>2020-01-05T10:35:06.000Z</time>
      </trkpt>
      <trkpt lat="47.29138" lon="-2.24065">
        <ele>-2.4000000953674</ele>
        <time>2020-01-05T10:35:07.000Z</time>
      </trkpt>
      <trkpt lat="47.29133" lon="-2.24069">
        <ele>-2</ele>
        <time>2020-01-05T10:35:08.000Z</time>
      </trkpt>
      <trkpt lat="47.2913" lon="-2.24074">
        <ele>-1.6000000238419</ele>
        <time>2020-01-05T10:35:09.000Z</time>
      </trkpt>
      <trkpt lat="47.29129" lon="-2.24089">
        <ele>-1.6000000238419</ele>
        <time>2020-01-05T10:35:12.000Z</time>
      </trkpt>
      <trkpt lat="47.29134" lon="-2.24106">
        <ele>-1.2000000476837</ele>
        <time>2020-01-05T10:35:15.000Z</time>
      </trkpt>
      <trkpt lat="47.29135" lon="-2.24113">
        <ele>-0.80000001192093</ele>
        <time>2020-01-05T10:35:16.000Z</time>
      </trkpt>
      <trkpt lat="47.29136" lon="-2.24119">
        <ele>-0.40000000596046</ele>
        <time>2020-01-05T10:35:17.000Z</time>
      </trkpt>
      <trkpt lat="47.29138" lon="-2.24125">
        <ele>0.20000000298023</ele>
        <time>2020-01-05T10:35:18.000Z</time>
      </trkpt>
      <trkpt lat="47.29139" lon="-2.24132">
        <ele>0.60000002384186</ele>
        <time>2020-01-05T10:35:19.000Z</time>
      </trkpt>
      <trkpt lat="47.2914" lon="-2.24139">
        <ele>0.60000002384186</ele>
        <time>2020-01-05T10:35:20.000Z</time>
      </trkpt>
      <trkpt lat="47.29142" lon="-2.24154">
        <ele>0.60000002384186</ele>
        <time>2020-01-05T10:35:22.000Z</time>
      </trkpt>
      <trkpt lat="47.29146" lon="-2.24179">
        <ele>0.60000002384186</ele>
        <time>2020-01-05T10:35:26.000Z</time>
      </trkpt>
      <trkpt lat="47.29148" lon="-2.24188">
        <ele>0.60000002384186</ele>
        <time>2020-01-05T10:35:27.000Z</time>
      </trkpt>
      <trkpt lat="47.29153" lon="-2.24209">
        <ele>0.60000002384186</ele>
        <time>2020-01-05T10:35:30.000Z</time>
      </trkpt>
      <trkpt lat="47.29159" lon="-2.24229">
        <ele>0.60000002384186</ele>
        <time>2020-01-05T10:35:33.000Z</time>
      </trkpt>
      <trkpt lat="47.29169" lon="-2.24271">
        <ele>0.60000002384186</ele>
        <time>2020-01-05T10:35:38.000Z</time>
      </trkpt>
      <trkpt lat="47.29181" lon="-2.24308">
        <ele>0.60000002384186</ele>
        <time>2020-01-05T10:35:43.000Z</time>
      </trkpt>
      <trkpt lat="47.29198" lon="-2.24348">
        <ele>0.60000002384186</ele>
        <time>2020-01-05T10:35:48.000Z</time>
      </trkpt>
      <trkpt lat="47.29216" lon="-2.24394">
        <ele>0.60000002384186</ele>
        <time>2020-01-05T10:35:54.000Z</time>
      </trkpt>
      <trkpt lat="47.29224" lon="-2.24423">
        <ele>0.60000002384186</ele>
        <time>2020-01-05T10:35:58.000Z</time>
      </trkpt>
      <trkpt lat="47.29226" lon="-2.24431">
        <ele>0.60000002384186</ele>
        <time>2020-01-05T10:35:59.000Z</time>
      </trkpt>
      <trkpt lat="47.29235" lon="-2.24465">
        <ele>0.60000002384186</ele>
        <time>2020-01-05T10:36:05.000Z</time>
      </trkpt>
      <trkpt lat="47.2924" lon="-2.2447">
        <ele>0.60000002384186</ele>
        <time>2020-01-05T10:36:07.000Z</time>
      </trkpt>
      <trkpt lat="47.29246" lon="-2.2447">
        <ele>0.60000002384186</ele>
        <time>2020-01-05T10:36:09.000Z</time>
      </trkpt>
      <trkpt lat="47.29263" lon="-2.24463">
        <ele>0.60000002384186</ele>
        <time>2020-01-05T10:36:13.000Z</time>
      </trkpt>
      <trkpt lat="47.29276" lon="-2.24458">
        <ele>0.60000002384186</ele>
        <time>2020-01-05T10:36:16.000Z</time>
      </trkpt>
      <trkpt lat="47.29285" lon="-2.24455">
        <ele>0.60000002384186</ele>
        <time>2020-01-05T10:36:18.000Z</time>
      </trkpt>
      <trkpt lat="47.29291" lon="-2.24464">
        <ele>0.60000002384186</ele>
        <time>2020-01-05T10:36:20.000Z</time>
      </trkpt>
      <trkpt lat="47.29293" lon="-2.24484">
        <ele>0.60000002384186</ele>
        <time>2020-01-05T10:36:23.000Z</time>
      </trkpt>
      <trkpt lat="47.29294" lon="-2.24499">
        <ele>0.60000002384186</ele>
        <time>2020-01-05T10:36:25.000Z</time>
      </trkpt>
      <trkpt lat="47.29295" lon="-2.24519">
        <ele>0.60000002384186</ele>
        <time>2020-01-05T10:36:28.000Z</time>
      </trkpt>
      <trkpt lat="47.29298" lon="-2.24552">
        <ele>0.60000002384186</ele>
        <time>2020-01-05T10:36:32.000Z</time>
      </trkpt>
      <trkpt lat="47.29299" lon="-2.24561">
        <ele>0.60000002384186</ele>
        <time>2020-01-05T10:36:33.000Z</time>
      </trkpt>
      <trkpt lat="47.29301" lon="-2.24594">
        <ele>0.60000002384186</ele>
        <time>2020-01-05T10:36:37.000Z</time>
      </trkpt>
      <trkpt lat="47.29299" lon="-2.24624">
        <ele>0.60000002384186</ele>
        <time>2020-01-05T10:36:42.000Z</time>
      </trkpt>
      <trkpt lat="47.29297" lon="-2.24647">
        <ele>0.60000002384186</ele>
        <time>2020-01-05T10:36:46.000Z</time>
      </trkpt>
      <trkpt lat="47.29304" lon="-2.2468">
        <ele>0.60000002384186</ele>
        <time>2020-01-05T10:36:52.000Z</time>
      </trkpt>
      <trkpt lat="47.29305" lon="-2.24686">
        <ele>1</ele>
        <time>2020-01-05T10:36:53.000Z</time>
      </trkpt>
      <trkpt lat="47.29307" lon="-2.24692">
        <ele>1.3999999761581</ele>
        <time>2020-01-05T10:36:54.000Z</time>
      </trkpt>
      <trkpt lat="47.29309" lon="-2.24698">
        <ele>1.7999999523163</ele>
        <time>2020-01-05T10:36:55.000Z</time>
      </trkpt>
      <trkpt lat="47.2931" lon="-2.24705">
        <ele>2.2000000476837</ele>
        <time>2020-01-05T10:36:56.000Z</time>
      </trkpt>
      <trkpt lat="47.29312" lon="-2.24711">
        <ele>2.5999999046326</ele>
        <time>2020-01-05T10:36:57.000Z</time>
      </trkpt>
      <trkpt lat="47.29313" lon="-2.24719">
        <ele>2.5999999046326</ele>
        <time>2020-01-05T10:36:58.000Z</time>
      </trkpt>
      <trkpt lat="47.29316" lon="-2.24743">
        <ele>2.5999999046326</ele>
        <time>2020-01-05T10:37:02.000Z</time>
      </trkpt>
      <trkpt lat="47.29322" lon="-2.24758">
        <ele>2.5999999046326</ele>
        <time>2020-01-05T10:37:06.000Z</time>
      </trkpt>
      <trkpt lat="47.29325" lon="-2.24767">
        <ele>2.5999999046326</ele>
        <time>2020-01-05T10:37:10.000Z</time>
      </trkpt>
      <trkpt lat="47.29326" lon="-2.24785">
        <ele>2.5999999046326</ele>
        <time>2020-01-05T10:37:16.000Z</time>
      </trkpt>
      <trkpt lat="47.29332" lon="-2.24811">
        <ele>2.5999999046326</ele>
        <time>2020-01-05T10:37:20.000Z</time>
      </trkpt>
      <trkpt lat="47.29338" lon="-2.2484">
        <ele>2.5999999046326</ele>
        <time>2020-01-05T10:37:25.000Z</time>
      </trkpt>
      <trkpt lat="47.29341" lon="-2.24873">
        <ele>2.5999999046326</ele>
        <time>2020-01-05T10:37:30.000Z</time>
      </trkpt>
      <trkpt lat="47.29335" lon="-2.24899">
        <ele>2.5999999046326</ele>
        <time>2020-01-05T10:37:34.000Z</time>
      </trkpt>
      <trkpt lat="47.29323" lon="-2.24908">
        <ele>3</ele>
        <time>2020-01-05T10:37:37.000Z</time>
      </trkpt>
      <trkpt lat="47.29318" lon="-2.2491">
        <ele>3.4000000953674</ele>
        <time>2020-01-05T10:37:38.000Z</time>
      </trkpt>
      <trkpt lat="47.29312" lon="-2.24912">
        <ele>3.7999999523163</ele>
        <time>2020-01-05T10:37:39.000Z</time>
      </trkpt>
      <trkpt lat="47.29308" lon="-2.24914">
        <ele>4.1999998092651</ele>
        <time>2020-01-05T10:37:40.000Z</time>
      </trkpt>
      <trkpt lat="47.29303" lon="-2.24915">
        <ele>4.5999999046326</ele>
        <time>2020-01-05T10:37:41.000Z</time>
      </trkpt>
      <trkpt lat="47.29293" lon="-2.24916">
        <ele>4.5999999046326</ele>
        <time>2020-01-05T10:37:43.000Z</time>
      </trkpt>
      <trkpt lat="47.29275" lon="-2.24919">
        <ele>4.5999999046326</ele>
        <time>2020-01-05T10:37:47.000Z</time>
      </trkpt>
      <trkpt lat="47.29262" lon="-2.24921">
        <ele>4.5999999046326</ele>
        <time>2020-01-05T10:37:50.000Z</time>
      </trkpt>
      <trkpt lat="47.29252" lon="-2.24931">
        <ele>4.5999999046326</ele>
        <time>2020-01-05T10:37:53.000Z</time>
      </trkpt>
      <trkpt lat="47.29253" lon="-2.24949">
        <ele>4.5999999046326</ele>
        <time>2020-01-05T10:37:56.000Z</time>
      </trkpt>
      <trkpt lat="47.29255" lon="-2.24956">
        <ele>4.5999999046326</ele>
        <time>2020-01-05T10:37:57.000Z</time>
      </trkpt>
      <trkpt lat="47.29261" lon="-2.24973">
        <ele>4.5999999046326</ele>
        <time>2020-01-05T10:38:00.000Z</time>
      </trkpt>
      <trkpt lat="47.29274" lon="-2.25018">
        <ele>4.5999999046326</ele>
        <time>2020-01-05T10:38:06.000Z</time>
      </trkpt>
      <trkpt lat="47.29277" lon="-2.25033">
        <ele>4.5999999046326</ele>
        <time>2020-01-05T10:38:08.000Z</time>
      </trkpt>
      <trkpt lat="47.29287" lon="-2.2507">
        <ele>4.5999999046326</ele>
        <time>2020-01-05T10:38:13.000Z</time>
      </trkpt>
      <trkpt lat="47.29292" lon="-2.25093">
        <ele>4.5999999046326</ele>
        <time>2020-01-05T10:38:16.000Z</time>
      </trkpt>
      <trkpt lat="47.29293" lon="-2.25109">
        <ele>4.5999999046326</ele>
        <time>2020-01-05T10:38:18.000Z</time>
      </trkpt>
      <trkpt lat="47.293" lon="-2.25158">
        <ele>4.5999999046326</ele>
        <time>2020-01-05T10:38:23.000Z</time>
      </trkpt>
      <trkpt lat="47.29302" lon="-2.25168">
        <ele>4.1999998092651</ele>
        <time>2020-01-05T10:38:24.000Z</time>
      </trkpt>
      <trkpt lat="47.29304" lon="-2.25178">
        <ele>3.7999999523163</ele>
        <time>2020-01-05T10:38:25.000Z</time>
      </trkpt>
      <trkpt lat="47.29306" lon="-2.25186">
        <ele>3.4000000953674</ele>
        <time>2020-01-05T10:38:26.000Z</time>
      </trkpt>
      <trkpt lat="47.29309" lon="-2.25192">
        <ele>3</ele>
        <time>2020-01-05T10:38:27.000Z</time>
      </trkpt>
      <trkpt lat="47.29313" lon="-2.25193">
        <ele>2.5999999046326</ele>
        <time>2020-01-05T10:38:28.000Z</time>
      </trkpt>
      <trkpt lat="47.29327" lon="-2.25193">
        <ele>2.5999999046326</ele>
        <time>2020-01-05T10:38:31.000Z</time>
      </trkpt>
      <trkpt lat="47.2934" lon="-2.25193">
        <ele>2.5999999046326</ele>
        <time>2020-01-05T10:38:34.000Z</time>
      </trkpt>
      <trkpt lat="47.29351" lon="-2.25196">
        <ele>2.5999999046326</ele>
        <time>2020-01-05T10:38:36.000Z</time>
      </trkpt>
      <trkpt lat="47.29385" lon="-2.25206">
        <ele>2.5999999046326</ele>
        <time>2020-01-05T10:38:42.000Z</time>
      </trkpt>
      <trkpt lat="47.29407" lon="-2.25211">
        <ele>2.5999999046326</ele>
        <time>2020-01-05T10:38:46.000Z</time>
      </trkpt>
      <trkpt lat="47.29418" lon="-2.2521">
        <ele>2.5999999046326</ele>
        <time>2020-01-05T10:38:48.000Z</time>
      </trkpt>
      <trkpt lat="47.29428" lon="-2.25207">
        <ele>2.5999999046326</ele>
        <time>2020-01-05T10:38:50.000Z</time>
      </trkpt>
      <trkpt lat="47.29437" lon="-2.25204">
        <ele>2.5999999046326</ele>
        <time>2020-01-05T10:38:52.000Z</time>
      </trkpt>
      <trkpt lat="47.29448" lon="-2.25202">
        <ele>2.5999999046326</ele>
        <time>2020-01-05T10:38:54.000Z</time>
      </trkpt>
      <trkpt lat="47.29463" lon="-2.25199">
        <ele>2.5999999046326</ele>
        <time>2020-01-05T10:38:57.000Z</time>
      </trkpt>
      <trkpt lat="47.29483" lon="-2.25194">
        <ele>2.5999999046326</ele>
        <time>2020-01-05T10:39:01.000Z</time>
      </trkpt>
      <trkpt lat="47.29488" lon="-2.25193">
        <ele>3</ele>
        <time>2020-01-05T10:39:02.000Z</time>
      </trkpt>
      <trkpt lat="47.29493" lon="-2.25192">
        <ele>3.4000000953674</ele>
        <time>2020-01-05T10:39:03.000Z</time>
      </trkpt>
      <trkpt lat="47.29498" lon="-2.2519">
        <ele>3.7999999523163</ele>
        <time>2020-01-05T10:39:04.000Z</time>
      </trkpt>
      <trkpt lat="47.29503" lon="-2.25188">
        <ele>4.1999998092651</ele>
        <time>2020-01-05T10:39:05.000Z</time>
      </trkpt>
      <trkpt lat="47.29508" lon="-2.25186">
        <ele>4.5999999046326</ele>
        <time>2020-01-05T10:39:06.000Z</time>
      </trkpt>
      <trkpt lat="47.29521" lon="-2.25182">
        <ele>4.5999999046326</ele>
        <time>2020-01-05T10:39:09.000Z</time>
      </trkpt>
      <trkpt lat="47.29525" lon="-2.25181">
        <ele>4.5999999046326</ele>
        <time>2020-01-05T10:39:10.000Z</time>
      </trkpt>
      <trkpt lat="47.29537" lon="-2.25178">
        <ele>4.5999999046326</ele>
        <time>2020-01-05T10:39:14.000Z</time>
      </trkpt>
      <trkpt lat="47.29541" lon="-2.25177">
        <ele>4.5999999046326</ele>
        <time>2020-01-05T10:39:16.000Z</time>
      </trkpt>
      <trkpt lat="47.29544" lon="-2.25173">
        <ele>4.5999999046326</ele>
        <time>2020-01-05T10:39:18.000Z</time>
      </trkpt>
      <trkpt lat="47.29548" lon="-2.2517">
        <ele>4.5999999046326</ele>
        <time>2020-01-05T10:39:20.000Z</time>
      </trkpt>
      <trkpt lat="47.29551" lon="-2.2517">
        <ele>4.5999999046326</ele>
        <time>2020-01-05T10:39:22.000Z</time>
      </trkpt>
      <trkpt lat="47.29552" lon="-2.25171">
        <ele>4.5999999046326</ele>
        <time>2020-01-05T10:39:24.000Z</time>
      </trkpt>
      <trkpt lat="47.29556" lon="-2.25179">
        <ele>4.5999999046326</ele>
        <time>2020-01-05T10:41:07.000Z</time>
      </trkpt>
      <trkpt lat="47.29557" lon="-2.25181">
        <ele>4.5999999046326</ele>
        <time>2020-01-05T10:41:08.000Z</time>
      </trkpt>
      <trkpt lat="47.29556" lon="-2.25184">
        <ele>4.5999999046326</ele>
        <time>2020-01-05T10:41:09.000Z</time>
      </trkpt>
      <trkpt lat="47.29551" lon="-2.25195">
        <ele>4.5999999046326</ele>
        <time>2020-01-05T10:41:13.000Z</time>
      </trkpt>
      <trkpt lat="47.29549" lon="-2.25199">
        <ele>4.5999999046326</ele>
        <time>2020-01-05T10:41:14.000Z</time>
      </trkpt>
      <trkpt lat="47.29544" lon="-2.2522">
        <ele>4.5999999046326</ele>
        <time>2020-01-05T10:41:18.000Z</time>
      </trkpt>
      <trkpt lat="47.29541" lon="-2.25246">
        <ele>4.5999999046326</ele>
        <time>2020-01-05T10:41:22.000Z</time>
      </trkpt>
      <trkpt lat="47.29541" lon="-2.25253">
        <ele>4.5999999046326</ele>
        <time>2020-01-05T10:41:23.000Z</time>
      </trkpt>
      <trkpt lat="47.29543" lon="-2.25289">
        <ele>5</ele>
        <time>2020-01-05T10:41:28.000Z</time>
      </trkpt>
      <trkpt lat="47.29544" lon="-2.25295">
        <ele>5.4000000953674</ele>
        <time>2020-01-05T10:41:29.000Z</time>
      </trkpt>
      <trkpt lat="47.29546" lon="-2.25301">
        <ele>5.8000001907349</ele>
        <time>2020-01-05T10:41:30.000Z</time>
      </trkpt>
      <trkpt lat="47.29549" lon="-2.25307">
        <ele>6.4000000953674</ele>
        <time>2020-01-05T10:41:31.000Z</time>
      </trkpt>
      <trkpt lat="47.29551" lon="-2.25314">
        <ele>6.8000001907349</ele>
        <time>2020-01-05T10:41:32.000Z</time>
      </trkpt>
      <trkpt lat="47.29556" lon="-2.25326">
        <ele>6.8000001907349</ele>
        <time>2020-01-05T10:41:34.000Z</time>
      </trkpt>
      <trkpt lat="47.29574" lon="-2.25362">
        <ele>6.8000001907349</ele>
        <time>2020-01-05T10:41:40.000Z</time>
      </trkpt>
      <trkpt lat="47.29576" lon="-2.25368">
        <ele>7.1999998092651</ele>
        <time>2020-01-05T10:41:41.000Z</time>
      </trkpt>
      <trkpt lat="47.29578" lon="-2.25375">
        <ele>7.5999999046326</ele>
        <time>2020-01-05T10:41:42.000Z</time>
      </trkpt>
      <trkpt lat="47.29579" lon="-2.25381">
        <ele>8</ele>
        <time>2020-01-05T10:41:43.000Z</time>
      </trkpt>
      <trkpt lat="47.29581" lon="-2.25388">
        <ele>8.3999996185303</ele>
        <time>2020-01-05T10:41:44.000Z</time>
      </trkpt>
      <trkpt lat="47.29582" lon="-2.25395">
        <ele>8.8000001907349</ele>
        <time>2020-01-05T10:41:45.000Z</time>
      </trkpt>
      <trkpt lat="47.29585" lon="-2.25409">
        <ele>8.8000001907349</ele>
        <time>2020-01-05T10:41:47.000Z</time>
      </trkpt>
      <trkpt lat="47.29586" lon="-2.2543">
        <ele>8.8000001907349</ele>
        <time>2020-01-05T10:41:50.000Z</time>
      </trkpt>
      <trkpt lat="47.29588" lon="-2.25458">
        <ele>8.8000001907349</ele>
        <time>2020-01-05T10:41:54.000Z</time>
      </trkpt>
      <trkpt lat="47.29588" lon="-2.25494">
        <ele>9.1999998092651</ele>
        <time>2020-01-05T10:41:59.000Z</time>
      </trkpt>
      <trkpt lat="47.29587" lon="-2.25501">
        <ele>9.6000003814697</ele>
        <time>2020-01-05T10:42:00.000Z</time>
      </trkpt>
      <trkpt lat="47.29585" lon="-2.25509">
        <ele>10</ele>
        <time>2020-01-05T10:42:01.000Z</time>
      </trkpt>
      <trkpt lat="47.29583" lon="-2.25516">
        <ele>10.800000190735</ele>
        <time>2020-01-05T10:42:02.000Z</time>
      </trkpt>
      <trkpt lat="47.29577" lon="-2.25528">
        <ele>10.800000190735</ele>
        <time>2020-01-05T10:42:04.000Z</time>
      </trkpt>
      <trkpt lat="47.29556" lon="-2.25549">
        <ele>10.800000190735</ele>
        <time>2020-01-05T10:42:09.000Z</time>
      </trkpt>
      <trkpt lat="47.29528" lon="-2.25568">
        <ele>11.199999809265</ele>
        <time>2020-01-05T10:42:15.000Z</time>
      </trkpt>
      <trkpt lat="47.29523" lon="-2.25571">
        <ele>11.60000038147</ele>
        <time>2020-01-05T10:42:16.000Z</time>
      </trkpt>
      <trkpt lat="47.29519" lon="-2.25574">
        <ele>12</ele>
        <time>2020-01-05T10:42:17.000Z</time>
      </trkpt>
      <trkpt lat="47.29514" lon="-2.25577">
        <ele>12.39999961853</ele>
        <time>2020-01-05T10:42:18.000Z</time>
      </trkpt>
      <trkpt lat="47.2951" lon="-2.2558">
        <ele>12.800000190735</ele>
        <time>2020-01-05T10:42:19.000Z</time>
      </trkpt>
      <trkpt lat="47.29486" lon="-2.25595">
        <ele>12.800000190735</ele>
        <time>2020-01-05T10:42:24.000Z</time>
      </trkpt>
      <trkpt lat="47.29452" lon="-2.2561">
        <ele>12.800000190735</ele>
        <time>2020-01-05T10:42:31.000Z</time>
      </trkpt>
      <trkpt lat="47.29447" lon="-2.25612">
        <ele>13.199999809265</ele>
        <time>2020-01-05T10:42:32.000Z</time>
      </trkpt>
      <trkpt lat="47.29442" lon="-2.25613">
        <ele>13.800000190735</ele>
        <time>2020-01-05T10:42:33.000Z</time>
      </trkpt>
      <trkpt lat="47.29436" lon="-2.25616">
        <ele>14.199999809265</ele>
        <time>2020-01-05T10:42:34.000Z</time>
      </trkpt>
      <trkpt lat="47.29431" lon="-2.25618">
        <ele>14.60000038147</ele>
        <time>2020-01-05T10:42:35.000Z</time>
      </trkpt>
      <trkpt lat="47.29425" lon="-2.2562">
        <ele>15</ele>
        <time>2020-01-05T10:42:36.000Z</time>
      </trkpt>
      <trkpt lat="47.29414" lon="-2.25625">
        <ele>15</ele>
        <time>2020-01-05T10:42:38.000Z</time>
      </trkpt>
      <trkpt lat="47.29394" lon="-2.25641">
        <ele>15</ele>
        <time>2020-01-05T10:42:42.000Z</time>
      </trkpt>
      <trkpt lat="47.2939" lon="-2.25648">
        <ele>15</ele>
        <time>2020-01-05T10:42:43.000Z</time>
      </trkpt>
      <trkpt lat="47.29385" lon="-2.25676">
        <ele>15</ele>
        <time>2020-01-05T10:42:46.000Z</time>
      </trkpt>
      <trkpt lat="47.29384" lon="-2.25686">
        <ele>15</ele>
        <time>2020-01-05T10:42:47.000Z</time>
      </trkpt>
      <trkpt lat="47.29381" lon="-2.25705">
        <ele>15</ele>
        <time>2020-01-05T10:42:49.000Z</time>
      </trkpt>
      <trkpt lat="47.29373" lon="-2.2573">
        <ele>15</ele>
        <time>2020-01-05T10:42:52.000Z</time>
      </trkpt>
      <trkpt lat="47.29355" lon="-2.25753">
        <ele>15</ele>
        <time>2020-01-05T10:42:56.000Z</time>
      </trkpt>
      <trkpt lat="47.29351" lon="-2.25756">
        <ele>15</ele>
        <time>2020-01-05T10:42:57.000Z</time>
      </trkpt>
      <trkpt lat="47.29341" lon="-2.25763">
        <ele>15</ele>
        <time>2020-01-05T10:42:59.000Z</time>
      </trkpt>
      <trkpt lat="47.29337" lon="-2.25766">
        <ele>15</ele>
        <time>2020-01-05T10:43:00.000Z</time>
      </trkpt>
      <trkpt lat="47.29325" lon="-2.25779">
        <ele>15</ele>
        <time>2020-01-05T10:43:04.000Z</time>
      </trkpt>
      <trkpt lat="47.29325" lon="-2.25781">
        <ele>15</ele>
        <time>2020-01-05T10:43:06.000Z</time>
      </trkpt>
      <trkpt lat="47.29326" lon="-2.25782">
        <ele>14.60000038147</ele>
        <time>2020-01-05T10:43:07.000Z</time>
      </trkpt>
      <trkpt lat="47.29326" lon="-2.25782">
        <ele>14.199999809265</ele>
        <time>2020-01-05T10:43:08.000Z</time>
      </trkpt>
      <trkpt lat="47.29326" lon="-2.25783">
        <ele>13.800000190735</ele>
        <time>2020-01-05T10:43:09.000Z</time>
      </trkpt>
      <trkpt lat="47.29327" lon="-2.25784">
        <ele>13.39999961853</ele>
        <time>2020-01-05T10:43:10.000Z</time>
      </trkpt>
      <trkpt lat="47.29328" lon="-2.25785">
        <ele>13</ele>
        <time>2020-01-05T10:43:11.000Z</time>
      </trkpt>
      <trkpt lat="47.2933" lon="-2.25786">
        <ele>13</ele>
        <time>2020-01-05T10:43:12.000Z</time>
      </trkpt>
      <trkpt lat="47.29334" lon="-2.25788">
        <ele>13</ele>
        <time>2020-01-05T10:43:14.000Z</time>
      </trkpt>
      <trkpt lat="47.29339" lon="-2.25787">
        <ele>13</ele>
        <time>2020-01-05T10:43:16.000Z</time>
      </trkpt>
      <trkpt lat="47.29345" lon="-2.25787">
        <ele>12.60000038147</ele>
        <time>2020-01-05T10:43:20.000Z</time>
      </trkpt>
      <trkpt lat="47.29345" lon="-2.25786">
        <ele>12.199999809265</ele>
        <time>2020-01-05T10:43:21.000Z</time>
      </trkpt>
      <trkpt lat="47.29347" lon="-2.25784">
        <ele>11.800000190735</ele>
        <time>2020-01-05T10:43:22.000Z</time>
      </trkpt>
      <trkpt lat="47.2935" lon="-2.25783">
        <ele>11.199999809265</ele>
        <time>2020-01-05T10:43:23.000Z</time>
      </trkpt>
      <trkpt lat="47.2935" lon="-2.25781">
        <ele>10.800000190735</ele>
        <time>2020-01-05T10:43:24.000Z</time>
      </trkpt>
      <trkpt lat="47.2935" lon="-2.25774">
        <ele>10.800000190735</ele>
        <time>2020-01-05T10:43:27.000Z</time>
      </trkpt>
      <trkpt lat="47.2935" lon="-2.2577">
        <ele>10.800000190735</ele>
        <time>2020-01-05T10:43:28.000Z</time>
      </trkpt>
      <trkpt lat="47.29351" lon="-2.25764">
        <ele>10.800000190735</ele>
        <time>2020-01-05T10:43:30.000Z</time>
      </trkpt>
      <trkpt lat="47.29352" lon="-2.25763">
        <ele>10.800000190735</ele>
        <time>2020-01-05T10:43:31.000Z</time>
      </trkpt>
      <trkpt lat="47.29359" lon="-2.25762">
        <ele>10.800000190735</ele>
        <time>2020-01-05T10:43:36.000Z</time>
      </trkpt>
      <trkpt lat="47.29368" lon="-2.25758">
        <ele>10.800000190735</ele>
        <time>2020-01-05T10:43:39.000Z</time>
      </trkpt>
      <trkpt lat="47.29377" lon="-2.25752">
        <ele>10.800000190735</ele>
        <time>2020-01-05T10:43:43.000Z</time>
      </trkpt>
      <trkpt lat="47.29379" lon="-2.25752">
        <ele>10.800000190735</ele>
        <time>2020-01-05T10:43:44.000Z</time>
      </trkpt>
      <trkpt lat="47.29389" lon="-2.25755">
        <ele>10.800000190735</ele>
        <time>2020-01-05T10:43:48.000Z</time>
      </trkpt>
      <trkpt lat="47.29396" lon="-2.25758">
        <ele>10.800000190735</ele>
        <time>2020-01-05T10:43:50.000Z</time>
      </trkpt>
      <trkpt lat="47.29408" lon="-2.2577">
        <ele>10.39999961853</ele>
        <time>2020-01-05T10:43:54.000Z</time>
      </trkpt>
      <trkpt lat="47.2941" lon="-2.25772">
        <ele>9.8000001907349</ele>
        <time>2020-01-05T10:43:55.000Z</time>
      </trkpt>
      <trkpt lat="47.29413" lon="-2.25776">
        <ele>9.3999996185303</ele>
        <time>2020-01-05T10:43:56.000Z</time>
      </trkpt>
      <trkpt lat="47.29413" lon="-2.25778">
        <ele>9</ele>
        <time>2020-01-05T10:43:57.000Z</time>
      </trkpt>
      <trkpt lat="47.29415" lon="-2.25781">
        <ele>8.3999996185303</ele>
        <time>2020-01-05T10:43:58.000Z</time>
      </trkpt>
      <trkpt lat="47.29414" lon="-2.25783">
        <ele>8.3999996185303</ele>
        <time>2020-01-05T10:43:59.000Z</time>
      </trkpt>
      <trkpt lat="47.29415" lon="-2.25787">
        <ele>8.3999996185303</ele>
        <time>2020-01-05T10:44:00.000Z</time>
      </trkpt>
      <trkpt lat="47.29418" lon="-2.25796">
        <ele>8.3999996185303</ele>
        <time>2020-01-05T10:44:03.000Z</time>
      </trkpt>
      <trkpt lat="47.29423" lon="-2.25814">
        <ele>8.3999996185303</ele>
        <time>2020-01-05T10:44:07.000Z</time>
      </trkpt>
      <trkpt lat="47.29423" lon="-2.25841">
        <ele>8.3999996185303</ele>
        <time>2020-01-05T10:44:11.000Z</time>
      </trkpt>
      <trkpt lat="47.29431" lon="-2.2586">
        <ele>8.3999996185303</ele>
        <time>2020-01-05T10:44:14.000Z</time>
      </trkpt>
      <trkpt lat="47.29434" lon="-2.25867">
        <ele>8.3999996185303</ele>
        <time>2020-01-05T10:44:15.000Z</time>
      </trkpt>
      <trkpt lat="47.29445" lon="-2.259">
        <ele>8.3999996185303</ele>
        <time>2020-01-05T10:44:20.000Z</time>
      </trkpt>
      <trkpt lat="47.29449" lon="-2.25924">
        <ele>8.3999996185303</ele>
        <time>2020-01-05T10:44:25.000Z</time>
      </trkpt>
      <trkpt lat="47.29449" lon="-2.25927">
        <ele>8.3999996185303</ele>
        <time>2020-01-05T10:44:26.000Z</time>
      </trkpt>
      <trkpt lat="47.29448" lon="-2.25933">
        <ele>8.3999996185303</ele>
        <time>2020-01-05T10:44:28.000Z</time>
      </trkpt>
      <trkpt lat="47.29447" lon="-2.25936">
        <ele>8</ele>
        <time>2020-01-05T10:44:29.000Z</time>
      </trkpt>
      <trkpt lat="47.29446" lon="-2.2594">
        <ele>7.5999999046326</ele>
        <time>2020-01-05T10:44:30.000Z</time>
      </trkpt>
      <trkpt lat="47.29444" lon="-2.25942">
        <ele>7.1999998092651</ele>
        <time>2020-01-05T10:44:31.000Z</time>
      </trkpt>
      <trkpt lat="47.29441" lon="-2.25945">
        <ele>6.4000000953674</ele>
        <time>2020-01-05T10:44:32.000Z</time>
      </trkpt>
      <trkpt lat="47.29424" lon="-2.25954">
        <ele>6.4000000953674</ele>
        <time>2020-01-05T10:44:36.000Z</time>
      </trkpt>
      <trkpt lat="47.29418" lon="-2.25958">
        <ele>6.8000001907349</ele>
        <time>2020-01-05T10:44:38.000Z</time>
      </trkpt>
      <trkpt lat="47.29415" lon="-2.25959">
        <ele>7.1999998092651</ele>
        <time>2020-01-05T10:44:39.000Z</time>
      </trkpt>
      <trkpt lat="47.29412" lon="-2.25959">
        <ele>7.5999999046326</ele>
        <time>2020-01-05T10:44:40.000Z</time>
      </trkpt>
      <trkpt lat="47.29409" lon="-2.25956">
        <ele>8</ele>
        <time>2020-01-05T10:44:41.000Z</time>
      </trkpt>
      <trkpt lat="47.29406" lon="-2.25954">
        <ele>8.3999996185303</ele>
        <time>2020-01-05T10:44:42.000Z</time>
      </trkpt>
      <trkpt lat="47.29403" lon="-2.25953">
        <ele>8.3999996185303</ele>
        <time>2020-01-05T10:44:43.000Z</time>
      </trkpt>
      <trkpt lat="47.29401" lon="-2.25955">
        <ele>8.3999996185303</ele>
        <time>2020-01-05T10:44:44.000Z</time>
      </trkpt>
      <trkpt lat="47.29399" lon="-2.25966">
        <ele>8.3999996185303</ele>
        <time>2020-01-05T10:44:47.000Z</time>
      </trkpt>
      <trkpt lat="47.294" lon="-2.25976">
        <ele>8.3999996185303</ele>
        <time>2020-01-05T10:44:49.000Z</time>
      </trkpt>
      <trkpt lat="47.29398" lon="-2.25988">
        <ele>8.3999996185303</ele>
        <time>2020-01-05T10:44:52.000Z</time>
      </trkpt>
      <trkpt lat="47.29397" lon="-2.26012">
        <ele>8.3999996185303</ele>
        <time>2020-01-05T10:44:56.000Z</time>
      </trkpt>
      <trkpt lat="47.29394" lon="-2.26026">
        <ele>8.3999996185303</ele>
        <time>2020-01-05T10:45:00.000Z</time>
      </trkpt>
      <trkpt lat="47.29394" lon="-2.2603">
        <ele>8.3999996185303</ele>
        <time>2020-01-05T10:45:01.000Z</time>
      </trkpt>
      <trkpt lat="47.29397" lon="-2.26037">
        <ele>8.3999996185303</ele>
        <time>2020-01-05T10:45:03.000Z</time>
      </trkpt>
      <trkpt lat="47.29411" lon="-2.26062">
        <ele>8.3999996185303</ele>
        <time>2020-01-05T10:45:09.000Z</time>
      </trkpt>
      <trkpt lat="47.29421" lon="-2.2608">
        <ele>8.3999996185303</ele>
        <time>2020-01-05T10:45:15.000Z</time>
      </trkpt>
      <trkpt lat="47.29422" lon="-2.26087">
        <ele>8.3999996185303</ele>
        <time>2020-01-05T10:45:19.000Z</time>
      </trkpt>
      <trkpt lat="47.29423" lon="-2.26107">
        <ele>8.3999996185303</ele>
        <time>2020-01-05T10:45:24.000Z</time>
      </trkpt>
      <trkpt lat="47.29421" lon="-2.26115">
        <ele>8.3999996185303</ele>
        <time>2020-01-05T10:45:27.000Z</time>
      </trkpt>
      <trkpt lat="47.2942" lon="-2.26118">
        <ele>8.3999996185303</ele>
        <time>2020-01-05T10:45:28.000Z</time>
      </trkpt>
      <trkpt lat="47.29419" lon="-2.26122">
        <ele>8.3999996185303</ele>
        <time>2020-01-05T10:45:29.000Z</time>
      </trkpt>
      <trkpt lat="47.29417" lon="-2.26135">
        <ele>8.3999996185303</ele>
        <time>2020-01-05T10:45:32.000Z</time>
      </trkpt>
      <trkpt lat="47.29415" lon="-2.26149">
        <ele>8.3999996185303</ele>
        <time>2020-01-05T10:45:36.000Z</time>
      </trkpt>
      <trkpt lat="47.29409" lon="-2.26158">
        <ele>8.3999996185303</ele>
        <time>2020-01-05T10:45:40.000Z</time>
      </trkpt>
      <trkpt lat="47.29407" lon="-2.26159">
        <ele>8.3999996185303</ele>
        <time>2020-01-05T10:45:41.000Z</time>
      </trkpt>
      <trkpt lat="47.29404" lon="-2.26159">
        <ele>9</ele>
        <time>2020-01-05T10:45:42.000Z</time>
      </trkpt>
      <trkpt lat="47.29401" lon="-2.2616">
        <ele>9.3999996185303</ele>
        <time>2020-01-05T10:45:43.000Z</time>
      </trkpt>
      <trkpt lat="47.29399" lon="-2.2616">
        <ele>9.8000001907349</ele>
        <time>2020-01-05T10:45:44.000Z</time>
      </trkpt>
      <trkpt lat="47.29397" lon="-2.2616">
        <ele>10.199999809265</ele>
        <time>2020-01-05T10:45:45.000Z</time>
      </trkpt>
      <trkpt lat="47.29394" lon="-2.26159">
        <ele>10.60000038147</ele>
        <time>2020-01-05T10:45:46.000Z</time>
      </trkpt>
      <trkpt lat="47.29387" lon="-2.26158">
        <ele>10.60000038147</ele>
        <time>2020-01-05T10:45:49.000Z</time>
      </trkpt>
      <trkpt lat="47.29378" lon="-2.26158">
        <ele>11</ele>
        <time>2020-01-05T10:45:53.000Z</time>
      </trkpt>
      <trkpt lat="47.29375" lon="-2.2616">
        <ele>11.60000038147</ele>
        <time>2020-01-05T10:45:54.000Z</time>
      </trkpt>
      <trkpt lat="47.29372" lon="-2.26161">
        <ele>12</ele>
        <time>2020-01-05T10:45:55.000Z</time>
      </trkpt>
      <trkpt lat="47.29369" lon="-2.26163">
        <ele>12.39999961853</ele>
        <time>2020-01-05T10:45:56.000Z</time>
      </trkpt>
      <trkpt lat="47.29366" lon="-2.26163">
        <ele>12.800000190735</ele>
        <time>2020-01-05T10:45:57.000Z</time>
      </trkpt>
      <trkpt lat="47.29358" lon="-2.26165">
        <ele>12.800000190735</ele>
        <time>2020-01-05T10:46:00.000Z</time>
      </trkpt>
      <trkpt lat="47.29348" lon="-2.26165">
        <ele>12.800000190735</ele>
        <time>2020-01-05T10:46:05.000Z</time>
      </trkpt>
      <trkpt lat="47.29334" lon="-2.26171">
        <ele>12.800000190735</ele>
        <time>2020-01-05T10:46:11.000Z</time>
      </trkpt>
      <trkpt lat="47.29331" lon="-2.26172">
        <ele>13.199999809265</ele>
        <time>2020-01-05T10:46:12.000Z</time>
      </trkpt>
      <trkpt lat="47.2933" lon="-2.26173">
        <ele>13.60000038147</ele>
        <time>2020-01-05T10:46:13.000Z</time>
      </trkpt>
      <trkpt lat="47.29328" lon="-2.26174">
        <ele>14</ele>
        <time>2020-01-05T10:46:14.000Z</time>
      </trkpt>
      <trkpt lat="47.29326" lon="-2.26176">
        <ele>14.39999961853</ele>
        <time>2020-01-05T10:46:15.000Z</time>
      </trkpt>
      <trkpt lat="47.29324" lon="-2.26177">
        <ele>14.800000190735</ele>
        <time>2020-01-05T10:46:16.000Z</time>
      </trkpt>
      <trkpt lat="47.29323" lon="-2.2618">
        <ele>14.800000190735</ele>
        <time>2020-01-05T10:46:17.000Z</time>
      </trkpt>
      <trkpt lat="47.29321" lon="-2.26185">
        <ele>14.800000190735</ele>
        <time>2020-01-05T10:46:19.000Z</time>
      </trkpt>
      <trkpt lat="47.29314" lon="-2.26185">
        <ele>14.800000190735</ele>
        <time>2020-01-05T10:46:22.000Z</time>
      </trkpt>
      <trkpt lat="47.29308" lon="-2.26183">
        <ele>14.800000190735</ele>
        <time>2020-01-05T10:46:24.000Z</time>
      </trkpt>
      <trkpt lat="47.29298" lon="-2.26183">
        <ele>14.800000190735</ele>
        <time>2020-01-05T10:46:27.000Z</time>
      </trkpt>
      <trkpt lat="47.2928" lon="-2.26183">
        <ele>14.800000190735</ele>
        <time>2020-01-05T10:46:33.000Z</time>
      </trkpt>
      <trkpt lat="47.29272" lon="-2.2618">
        <ele>14.800000190735</ele>
        <time>2020-01-05T10:46:37.000Z</time>
      </trkpt>
      <trkpt lat="47.2927" lon="-2.26179">
        <ele>14.800000190735</ele>
        <time>2020-01-05T10:46:38.000Z</time>
      </trkpt>
      <trkpt lat="47.29266" lon="-2.2617">
        <ele>14.800000190735</ele>
        <time>2020-01-05T10:46:41.000Z</time>
      </trkpt>
      <trkpt lat="47.29262" lon="-2.26159">
        <ele>14.800000190735</ele>
        <time>2020-01-05T10:46:43.000Z</time>
      </trkpt>
      <trkpt lat="47.29259" lon="-2.26156">
        <ele>14.800000190735</ele>
        <time>2020-01-05T10:46:44.000Z</time>
      </trkpt>
      <trkpt lat="47.29249" lon="-2.26139">
        <ele>15.199999809265</ele>
        <time>2020-01-05T10:46:48.000Z</time>
      </trkpt>
      <trkpt lat="47.29247" lon="-2.26136">
        <ele>15.60000038147</ele>
        <time>2020-01-05T10:46:49.000Z</time>
      </trkpt>
      <trkpt lat="47.29245" lon="-2.26131">
        <ele>16.200000762939</ele>
        <time>2020-01-05T10:46:50.000Z</time>
      </trkpt>
      <trkpt lat="47.29243" lon="-2.26126">
        <ele>16.60000038147</ele>
        <time>2020-01-05T10:46:51.000Z</time>
      </trkpt>
      <trkpt lat="47.29241" lon="-2.26121">
        <ele>17</ele>
        <time>2020-01-05T10:46:52.000Z</time>
      </trkpt>
      <trkpt lat="47.29235" lon="-2.26107">
        <ele>17</ele>
        <time>2020-01-05T10:46:55.000Z</time>
      </trkpt>
      <trkpt lat="47.29223" lon="-2.26081">
        <ele>17</ele>
        <time>2020-01-05T10:47:00.000Z</time>
      </trkpt>
      <trkpt lat="47.29201" lon="-2.26046">
        <ele>17</ele>
        <time>2020-01-05T10:47:06.000Z</time>
      </trkpt>
      <trkpt lat="47.29198" lon="-2.2604">
        <ele>17</ele>
        <time>2020-01-05T10:47:07.000Z</time>
      </trkpt>
      <trkpt lat="47.29182" lon="-2.26003">
        <ele>17</ele>
        <time>2020-01-05T10:47:12.000Z</time>
      </trkpt>
      <trkpt lat="47.29176" lon="-2.2599">
        <ele>17</ele>
        <time>2020-01-05T10:47:14.000Z</time>
      </trkpt>
      <trkpt lat="47.29167" lon="-2.25982">
        <ele>17</ele>
        <time>2020-01-05T10:47:16.000Z</time>
      </trkpt>
      <trkpt lat="47.29143" lon="-2.25981">
        <ele>17</ele>
        <time>2020-01-05T10:47:20.000Z</time>
      </trkpt>
      <trkpt lat="47.29133" lon="-2.25979">
        <ele>17</ele>
        <time>2020-01-05T10:47:22.000Z</time>
      </trkpt>
      <trkpt lat="47.29122" lon="-2.25978">
        <ele>17</ele>
        <time>2020-01-05T10:47:24.000Z</time>
      </trkpt>
      <trkpt lat="47.29113" lon="-2.25978">
        <ele>17</ele>
        <time>2020-01-05T10:47:26.000Z</time>
      </trkpt>
      <trkpt lat="47.29105" lon="-2.2598">
        <ele>16.60000038147</ele>
        <time>2020-01-05T10:47:28.000Z</time>
      </trkpt>
      <trkpt lat="47.29101" lon="-2.25982">
        <ele>16.200000762939</ele>
        <time>2020-01-05T10:47:29.000Z</time>
      </trkpt>
      <trkpt lat="47.29098" lon="-2.25984">
        <ele>15.800000190735</ele>
        <time>2020-01-05T10:47:30.000Z</time>
      </trkpt>
      <trkpt lat="47.29096" lon="-2.25987">
        <ele>15.39999961853</ele>
        <time>2020-01-05T10:47:31.000Z</time>
      </trkpt>
      <trkpt lat="47.29093" lon="-2.25991">
        <ele>15</ele>
        <time>2020-01-05T10:47:32.000Z</time>
      </trkpt>
      <trkpt lat="47.29087" lon="-2.26007">
        <ele>15</ele>
        <time>2020-01-05T10:47:35.000Z</time>
      </trkpt>
      <trkpt lat="47.29091" lon="-2.26022">
        <ele>15</ele>
        <time>2020-01-05T10:47:38.000Z</time>
      </trkpt>
      <trkpt lat="47.29098" lon="-2.26042">
        <ele>15</ele>
        <time>2020-01-05T10:47:42.000Z</time>
      </trkpt>
      <trkpt lat="47.29099" lon="-2.26047">
        <ele>15</ele>
        <time>2020-01-05T10:47:43.000Z</time>
      </trkpt>
      <trkpt lat="47.29102" lon="-2.2606">
        <ele>15</ele>
        <time>2020-01-05T10:47:45.000Z</time>
      </trkpt>
      <trkpt lat="47.29109" lon="-2.26094">
        <ele>15</ele>
        <time>2020-01-05T10:47:51.000Z</time>
      </trkpt>
      <trkpt lat="47.29113" lon="-2.26115">
        <ele>15</ele>
        <time>2020-01-05T10:47:55.000Z</time>
      </trkpt>
      <trkpt lat="47.2911" lon="-2.2612">
        <ele>15</ele>
        <time>2020-01-05T10:47:56.000Z</time>
      </trkpt>
      <trkpt lat="47.29102" lon="-2.26136">
        <ele>15</ele>
        <time>2020-01-05T10:47:59.000Z</time>
      </trkpt>
      <trkpt lat="47.29102" lon="-2.26146">
        <ele>15</ele>
        <time>2020-01-05T10:48:01.000Z</time>
      </trkpt>
      <trkpt lat="47.291" lon="-2.2616">
        <ele>15</ele>
        <time>2020-01-05T10:48:04.000Z</time>
      </trkpt>
      <trkpt lat="47.29097" lon="-2.26179">
        <ele>15</ele>
        <time>2020-01-05T10:48:10.000Z</time>
      </trkpt>
      <trkpt lat="47.29093" lon="-2.26197">
        <ele>15</ele>
        <time>2020-01-05T10:48:17.000Z</time>
      </trkpt>
      <trkpt lat="47.29091" lon="-2.26209">
        <ele>15</ele>
        <time>2020-01-05T10:48:23.000Z</time>
      </trkpt>
      <trkpt lat="47.29089" lon="-2.26208">
        <ele>15</ele>
        <time>2020-01-05T10:48:44.000Z</time>
      </trkpt>
      <trkpt lat="47.2909" lon="-2.26195">
        <ele>15</ele>
        <time>2020-01-05T10:48:49.000Z</time>
      </trkpt>
      <trkpt lat="47.29093" lon="-2.26179">
        <ele>15</ele>
        <time>2020-01-05T10:48:55.000Z</time>
      </trkpt>
      <trkpt lat="47.29095" lon="-2.26164">
        <ele>15</ele>
        <time>2020-01-05T10:49:02.000Z</time>
      </trkpt>
      <trkpt lat="47.29097" lon="-2.26148">
        <ele>15</ele>
        <time>2020-01-05T10:49:09.000Z</time>
      </trkpt>
      <trkpt lat="47.29098" lon="-2.26137">
        <ele>15</ele>
        <time>2020-01-05T10:49:15.000Z</time>
      </trkpt>
      <trkpt lat="47.29103" lon="-2.26122">
        <ele>15</ele>
        <time>2020-01-05T10:49:21.000Z</time>
      </trkpt>
      <trkpt lat="47.29103" lon="-2.26119">
        <ele>15</ele>
        <time>2020-01-05T10:49:23.000Z</time>
      </trkpt>
      <trkpt lat="47.29103" lon="-2.26128">
        <ele>15</ele>
        <time>2020-01-05T10:52:20.000Z</time>
      </trkpt>
      <trkpt lat="47.29102" lon="-2.26131">
        <ele>15</ele>
        <time>2020-01-05T10:52:21.000Z</time>
      </trkpt>
      <trkpt lat="47.291" lon="-2.26142">
        <ele>15</ele>
        <time>2020-01-05T10:52:24.000Z</time>
      </trkpt>
      <trkpt lat="47.29098" lon="-2.26151">
        <ele>15</ele>
        <time>2020-01-05T10:52:26.000Z</time>
      </trkpt>
      <trkpt lat="47.29093" lon="-2.26182">
        <ele>15</ele>
        <time>2020-01-05T10:52:31.000Z</time>
      </trkpt>
      <trkpt lat="47.29089" lon="-2.26207">
        <ele>15</ele>
        <time>2020-01-05T10:52:35.000Z</time>
      </trkpt>
      <trkpt lat="47.29087" lon="-2.2622">
        <ele>15</ele>
        <time>2020-01-05T10:52:37.000Z</time>
      </trkpt>
      <trkpt lat="47.29082" lon="-2.26247">
        <ele>15</ele>
        <time>2020-01-05T10:52:41.000Z</time>
      </trkpt>
      <trkpt lat="47.2908" lon="-2.26261">
        <ele>15</ele>
        <time>2020-01-05T10:52:43.000Z</time>
      </trkpt>
      <trkpt lat="47.29074" lon="-2.26286">
        <ele>15.39999961853</ele>
        <time>2020-01-05T10:52:47.000Z</time>
      </trkpt>
      <trkpt lat="47.29072" lon="-2.26292">
        <ele>15.800000190735</ele>
        <time>2020-01-05T10:52:48.000Z</time>
      </trkpt>
      <trkpt lat="47.29071" lon="-2.26299">
        <ele>16.200000762939</ele>
        <time>2020-01-05T10:52:49.000Z</time>
      </trkpt>
      <trkpt lat="47.29069" lon="-2.26305">
        <ele>16.60000038147</ele>
        <time>2020-01-05T10:52:50.000Z</time>
      </trkpt>
      <trkpt lat="47.29067" lon="-2.26311">
        <ele>17</ele>
        <time>2020-01-05T10:52:51.000Z</time>
      </trkpt>
      <trkpt lat="47.29062" lon="-2.26323">
        <ele>17</ele>
        <time>2020-01-05T10:52:53.000Z</time>
      </trkpt>
      <trkpt lat="47.29052" lon="-2.26336">
        <ele>17</ele>
        <time>2020-01-05T10:52:56.000Z</time>
      </trkpt>
      <trkpt lat="47.29045" lon="-2.26344">
        <ele>17</ele>
        <time>2020-01-05T10:52:58.000Z</time>
      </trkpt>
      <trkpt lat="47.29029" lon="-2.26358">
        <ele>17</ele>
        <time>2020-01-05T10:53:02.000Z</time>
      </trkpt>
      <trkpt lat="47.29018" lon="-2.2637">
        <ele>17</ele>
        <time>2020-01-05T10:53:05.000Z</time>
      </trkpt>
      <trkpt lat="47.29015" lon="-2.26381">
        <ele>17</ele>
        <time>2020-01-05T10:53:07.000Z</time>
      </trkpt>
      <trkpt lat="47.29016" lon="-2.26413">
        <ele>17</ele>
        <time>2020-01-05T10:53:12.000Z</time>
      </trkpt>
      <trkpt lat="47.29017" lon="-2.26431">
        <ele>17</ele>
        <time>2020-01-05T10:53:14.000Z</time>
      </trkpt>
      <trkpt lat="47.29021" lon="-2.26459">
        <ele>17</ele>
        <time>2020-01-05T10:53:17.000Z</time>
      </trkpt>
      <trkpt lat="47.2903" lon="-2.26522">
        <ele>17</ele>
        <time>2020-01-05T10:53:23.000Z</time>
      </trkpt>
      <trkpt lat="47.29036" lon="-2.26542">
        <ele>16.60000038147</ele>
        <time>2020-01-05T10:53:25.000Z</time>
      </trkpt>
      <trkpt lat="47.29038" lon="-2.26552">
        <ele>16.200000762939</ele>
        <time>2020-01-05T10:53:26.000Z</time>
      </trkpt>
      <trkpt lat="47.29041" lon="-2.26562">
        <ele>15.60000038147</ele>
        <time>2020-01-05T10:53:27.000Z</time>
      </trkpt>
      <trkpt lat="47.29042" lon="-2.2657">
        <ele>15.199999809265</ele>
        <time>2020-01-05T10:53:28.000Z</time>
      </trkpt>
      <trkpt lat="47.29044" lon="-2.26577">
        <ele>14.800000190735</ele>
        <time>2020-01-05T10:53:29.000Z</time>
      </trkpt>
      <trkpt lat="47.29045" lon="-2.26584">
        <ele>14.800000190735</ele>
        <time>2020-01-05T10:53:30.000Z</time>
      </trkpt>
      <trkpt lat="47.29048" lon="-2.26616">
        <ele>14.800000190735</ele>
        <time>2020-01-05T10:53:34.000Z</time>
      </trkpt>
      <trkpt lat="47.29052" lon="-2.26684">
        <ele>14.800000190735</ele>
        <time>2020-01-05T10:53:41.000Z</time>
      </trkpt>
      <trkpt lat="47.29057" lon="-2.26731">
        <ele>14.199999809265</ele>
        <time>2020-01-05T10:53:45.000Z</time>
      </trkpt>
      <trkpt lat="47.29059" lon="-2.26743">
        <ele>13.800000190735</ele>
        <time>2020-01-05T10:53:46.000Z</time>
      </trkpt>
      <trkpt lat="47.29061" lon="-2.26756">
        <ele>13.199999809265</ele>
        <time>2020-01-05T10:53:47.000Z</time>
      </trkpt>
      <trkpt lat="47.29062" lon="-2.26768">
        <ele>12.800000190735</ele>
        <time>2020-01-05T10:53:48.000Z</time>
      </trkpt>
      <trkpt lat="47.29064" lon="-2.2678">
        <ele>12.39999961853</ele>
        <time>2020-01-05T10:53:49.000Z</time>
      </trkpt>
      <trkpt lat="47.29065" lon="-2.26793">
        <ele>11.800000190735</ele>
        <time>2020-01-05T10:53:50.000Z</time>
      </trkpt>
      <trkpt lat="47.29066" lon="-2.26806">
        <ele>11.39999961853</ele>
        <time>2020-01-05T10:53:51.000Z</time>
      </trkpt>
      <trkpt lat="47.29065" lon="-2.26819">
        <ele>11</ele>
        <time>2020-01-05T10:53:52.000Z</time>
      </trkpt>
      <trkpt lat="47.29065" lon="-2.26832">
        <ele>10.60000038147</ele>
        <time>2020-01-05T10:53:53.000Z</time>
      </trkpt>
      <trkpt lat="47.29064" lon="-2.26844">
        <ele>10.199999809265</ele>
        <time>2020-01-05T10:53:54.000Z</time>
      </trkpt>
      <trkpt lat="47.29064" lon="-2.26855">
        <ele>9.8000001907349</ele>
        <time>2020-01-05T10:53:55.000Z</time>
      </trkpt>
      <trkpt lat="47.29064" lon="-2.26866">
        <ele>9.3999996185303</ele>
        <time>2020-01-05T10:53:56.000Z</time>
      </trkpt>
      <trkpt lat="47.29063" lon="-2.26877">
        <ele>9</ele>
        <time>2020-01-05T10:53:57.000Z</time>
      </trkpt>
      <trkpt lat="47.29063" lon="-2.26888">
        <ele>8.6000003814697</ele>
        <time>2020-01-05T10:53:58.000Z</time>
      </trkpt>
      <trkpt lat="47.29063" lon="-2.26899">
        <ele>8.1999998092651</ele>
        <time>2020-01-05T10:53:59.000Z</time>
      </trkpt>
      <trkpt lat="47.29062" lon="-2.26984">
        <ele>8.1999998092651</ele>
        <time>2020-01-05T10:54:07.000Z</time>
      </trkpt>
      <trkpt lat="47.29059" lon="-2.27015">
        <ele>7.8000001907349</ele>
        <time>2020-01-05T10:54:11.000Z</time>
      </trkpt>
      <trkpt lat="47.29059" lon="-2.27022">
        <ele>7.4000000953674</ele>
        <time>2020-01-05T10:54:12.000Z</time>
      </trkpt>
      <trkpt lat="47.2906" lon="-2.27027">
        <ele>7</ele>
        <time>2020-01-05T10:54:13.000Z</time>
      </trkpt>
      <trkpt lat="47.29062" lon="-2.27032">
        <ele>6.5999999046326</ele>
        <time>2020-01-05T10:54:14.000Z</time>
      </trkpt>
      <trkpt lat="47.29063" lon="-2.27035">
        <ele>6.1999998092651</ele>
        <time>2020-01-05T10:54:15.000Z</time>
      </trkpt>
      <trkpt lat="47.29066" lon="-2.27047">
        <ele>6.1999998092651</ele>
        <time>2020-01-05T10:54:19.000Z</time>
      </trkpt>
      <trkpt lat="47.29065" lon="-2.2705">
        <ele>6.1999998092651</ele>
        <time>2020-01-05T10:54:20.000Z</time>
      </trkpt>
      <trkpt lat="47.29063" lon="-2.27067">
        <ele>6.1999998092651</ele>
        <time>2020-01-05T10:54:24.000Z</time>
      </trkpt>
      <trkpt lat="47.29061" lon="-2.27071">
        <ele>6.1999998092651</ele>
        <time>2020-01-05T10:54:25.000Z</time>
      </trkpt>
      <trkpt lat="47.29055" lon="-2.27082">
        <ele>6.1999998092651</ele>
        <time>2020-01-05T10:54:28.000Z</time>
      </trkpt>
      <trkpt lat="47.29043" lon="-2.27091">
        <ele>6.1999998092651</ele>
        <time>2020-01-05T10:54:32.000Z</time>
      </trkpt>
      <trkpt lat="47.29033" lon="-2.27105">
        <ele>6.1999998092651</ele>
        <time>2020-01-05T10:54:36.000Z</time>
      </trkpt>
      <trkpt lat="47.29033" lon="-2.27111">
        <ele>6.1999998092651</ele>
        <time>2020-01-05T10:54:37.000Z</time>
      </trkpt>
      <trkpt lat="47.29034" lon="-2.27116">
        <ele>6.1999998092651</ele>
        <time>2020-01-05T10:54:38.000Z</time>
      </trkpt>
      <trkpt lat="47.29038" lon="-2.27124">
        <ele>6.1999998092651</ele>
        <time>2020-01-05T10:54:40.000Z</time>
      </trkpt>
      <trkpt lat="47.29049" lon="-2.27135">
        <ele>6.5999999046326</ele>
        <time>2020-01-05T10:54:44.000Z</time>
      </trkpt>
      <trkpt lat="47.29052" lon="-2.27138">
        <ele>7</ele>
        <time>2020-01-05T10:54:45.000Z</time>
      </trkpt>
      <trkpt lat="47.29054" lon="-2.2714">
        <ele>7.4000000953674</ele>
        <time>2020-01-05T10:54:46.000Z</time>
      </trkpt>
      <trkpt lat="47.29056" lon="-2.27144">
        <ele>7.8000001907349</ele>
        <time>2020-01-05T10:54:47.000Z</time>
      </trkpt>
      <trkpt lat="47.29059" lon="-2.27147">
        <ele>8.1999998092651</ele>
        <time>2020-01-05T10:54:48.000Z</time>
      </trkpt>
      <trkpt lat="47.29067" lon="-2.27163">
        <ele>8.1999998092651</ele>
        <time>2020-01-05T10:54:51.000Z</time>
      </trkpt>
      <trkpt lat="47.29072" lon="-2.27179">
        <ele>8.1999998092651</ele>
        <time>2020-01-05T10:54:54.000Z</time>
      </trkpt>
      <trkpt lat="47.29082" lon="-2.27188">
        <ele>8.1999998092651</ele>
        <time>2020-01-05T10:54:56.000Z</time>
      </trkpt>
      <trkpt lat="47.29087" lon="-2.27192">
        <ele>8.1999998092651</ele>
        <time>2020-01-05T10:54:57.000Z</time>
      </trkpt>
      <trkpt lat="47.29091" lon="-2.27194">
        <ele>8.1999998092651</ele>
        <time>2020-01-05T10:54:58.000Z</time>
      </trkpt>
      <trkpt lat="47.29095" lon="-2.27195">
        <ele>7.8000001907349</ele>
        <time>2020-01-05T10:54:59.000Z</time>
      </trkpt>
      <trkpt lat="47.29099" lon="-2.27196">
        <ele>7.1999998092651</ele>
        <time>2020-01-05T10:55:00.000Z</time>
      </trkpt>
      <trkpt lat="47.29102" lon="-2.27196">
        <ele>6.8000001907349</ele>
        <time>2020-01-05T10:55:01.000Z</time>
      </trkpt>
      <trkpt lat="47.29104" lon="-2.27198">
        <ele>6.4000000953674</ele>
        <time>2020-01-05T10:55:02.000Z</time>
      </trkpt>
      <trkpt lat="47.29106" lon="-2.27199">
        <ele>6</ele>
        <time>2020-01-05T10:55:03.000Z</time>
      </trkpt>
      <trkpt lat="47.29107" lon="-2.27199">
        <ele>6</ele>
        <time>2020-01-05T10:55:04.000Z</time>
      </trkpt>
      <trkpt lat="47.29115" lon="-2.27201">
        <ele>6</ele>
        <time>2020-01-05T10:55:10.000Z</time>
      </trkpt>
      <trkpt lat="47.29116" lon="-2.27206">
        <ele>6</ele>
        <time>2020-01-05T10:55:15.000Z</time>
      </trkpt>
      <trkpt lat="47.29116" lon="-2.27207">
        <ele>6</ele>
        <time>2020-01-05T10:55:16.000Z</time>
      </trkpt>
      <trkpt lat="47.29115" lon="-2.27209">
        <ele>6</ele>
        <time>2020-01-05T10:55:18.000Z</time>
      </trkpt>
      <trkpt lat="47.29116" lon="-2.27216">
        <ele>6</ele>
        <time>2020-01-05T10:55:21.000Z</time>
      </trkpt>
      <trkpt lat="47.29113" lon="-2.27226">
        <ele>6</ele>
        <time>2020-01-05T10:55:24.000Z</time>
      </trkpt>
      <trkpt lat="47.29113" lon="-2.27235">
        <ele>6</ele>
        <time>2020-01-05T10:55:26.000Z</time>
      </trkpt>
      <trkpt lat="47.29112" lon="-2.2724">
        <ele>6</ele>
        <time>2020-01-05T10:55:27.000Z</time>
      </trkpt>
      <trkpt lat="47.29107" lon="-2.27261">
        <ele>6</ele>
        <time>2020-01-05T10:55:32.000Z</time>
      </trkpt>
      <trkpt lat="47.29106" lon="-2.27282">
        <ele>6</ele>
        <time>2020-01-05T10:55:37.000Z</time>
      </trkpt>
      <trkpt lat="47.29101" lon="-2.27307">
        <ele>6</ele>
        <time>2020-01-05T10:55:42.000Z</time>
      </trkpt>
      <trkpt lat="47.29097" lon="-2.27316">
        <ele>6</ele>
        <time>2020-01-05T10:55:44.000Z</time>
      </trkpt>
      <trkpt lat="47.29095" lon="-2.27319">
        <ele>6</ele>
        <time>2020-01-05T10:55:45.000Z</time>
      </trkpt>
      <trkpt lat="47.29094" lon="-2.27329">
        <ele>6</ele>
        <time>2020-01-05T10:55:48.000Z</time>
      </trkpt>
      <trkpt lat="47.29096" lon="-2.27333">
        <ele>6</ele>
        <time>2020-01-05T10:55:49.000Z</time>
      </trkpt>
      <trkpt lat="47.29096" lon="-2.27351">
        <ele>6</ele>
        <time>2020-01-05T10:55:53.000Z</time>
      </trkpt>
      <trkpt lat="47.29104" lon="-2.27379">
        <ele>6</ele>
        <time>2020-01-05T10:55:57.000Z</time>
      </trkpt>
      <trkpt lat="47.29106" lon="-2.27389">
        <ele>6</ele>
        <time>2020-01-05T10:55:58.000Z</time>
      </trkpt>
      <trkpt lat="47.29108" lon="-2.2743">
        <ele>6</ele>
        <time>2020-01-05T10:56:03.000Z</time>
      </trkpt>
      <trkpt lat="47.29107" lon="-2.27437">
        <ele>6</ele>
        <time>2020-01-05T10:56:04.000Z</time>
      </trkpt>
      <trkpt lat="47.29105" lon="-2.27464">
        <ele>6</ele>
        <time>2020-01-05T10:56:08.000Z</time>
      </trkpt>
      <trkpt lat="47.29106" lon="-2.27482">
        <ele>6</ele>
        <time>2020-01-05T10:56:11.000Z</time>
      </trkpt>
      <trkpt lat="47.29105" lon="-2.275">
        <ele>6</ele>
        <time>2020-01-05T10:56:14.000Z</time>
      </trkpt>
      <trkpt lat="47.29105" lon="-2.27517">
        <ele>6</ele>
        <time>2020-01-05T10:56:19.000Z</time>
      </trkpt>
      <trkpt lat="47.29105" lon="-2.27517">
        <ele>6</ele>
        <time>2020-01-05T10:56:20.000Z</time>
      </trkpt>
      <trkpt lat="47.29105" lon="-2.27525">
        <ele>6</ele>
        <time>2020-01-05T10:56:43.000Z</time>
      </trkpt>
      <trkpt lat="47.29104" lon="-2.27527">
        <ele>6</ele>
        <time>2020-01-05T10:56:44.000Z</time>
      </trkpt>
      <trkpt lat="47.29101" lon="-2.27529">
        <ele>6</ele>
        <time>2020-01-05T10:56:45.000Z</time>
      </trkpt>
      <trkpt lat="47.29094" lon="-2.27531">
        <ele>6</ele>
        <time>2020-01-05T10:56:47.000Z</time>
      </trkpt>
      <trkpt lat="47.2908" lon="-2.2753">
        <ele>6</ele>
        <time>2020-01-05T10:56:51.000Z</time>
      </trkpt>
      <trkpt lat="47.29076" lon="-2.2753">
        <ele>6</ele>
        <time>2020-01-05T10:56:52.000Z</time>
      </trkpt>
      <trkpt lat="47.29057" lon="-2.27529">
        <ele>6.4000000953674</ele>
        <time>2020-01-05T10:56:56.000Z</time>
      </trkpt>
      <trkpt lat="47.29052" lon="-2.27528">
        <ele>6.8000001907349</ele>
        <time>2020-01-05T10:56:57.000Z</time>
      </trkpt>
      <trkpt lat="47.29046" lon="-2.27527">
        <ele>7.1999998092651</ele>
        <time>2020-01-05T10:56:58.000Z</time>
      </trkpt>
      <trkpt lat="47.29041" lon="-2.27527">
        <ele>7.5999999046326</ele>
        <time>2020-01-05T10:56:59.000Z</time>
      </trkpt>
      <trkpt lat="47.29035" lon="-2.27526">
        <ele>8</ele>
        <time>2020-01-05T10:57:00.000Z</time>
      </trkpt>
      <trkpt lat="47.29024" lon="-2.27526">
        <ele>8</ele>
        <time>2020-01-05T10:57:02.000Z</time>
      </trkpt>
      <trkpt lat="47.29018" lon="-2.27526">
        <ele>8</ele>
        <time>2020-01-05T10:57:03.000Z</time>
      </trkpt>
      <trkpt lat="47.28983" lon="-2.27525">
        <ele>8</ele>
        <time>2020-01-05T10:57:09.000Z</time>
      </trkpt>
      <trkpt lat="47.28942" lon="-2.27527">
        <ele>8</ele>
        <time>2020-01-05T10:57:16.000Z</time>
      </trkpt>
      <trkpt lat="47.28898" lon="-2.2753">
        <ele>8</ele>
        <time>2020-01-05T10:57:23.000Z</time>
      </trkpt>
      <trkpt lat="47.28854" lon="-2.27536">
        <ele>8</ele>
        <time>2020-01-05T10:57:30.000Z</time>
      </trkpt>
      <trkpt lat="47.28836" lon="-2.2754">
        <ele>8</ele>
        <time>2020-01-05T10:57:33.000Z</time>
      </trkpt>
      <trkpt lat="47.28825" lon="-2.27542">
        <ele>8</ele>
        <time>2020-01-05T10:57:35.000Z</time>
      </trkpt>
      <trkpt lat="47.28807" lon="-2.2755">
        <ele>8</ele>
        <time>2020-01-05T10:57:38.000Z</time>
      </trkpt>
      <trkpt lat="47.28802" lon="-2.27555">
        <ele>8</ele>
        <time>2020-01-05T10:57:39.000Z</time>
      </trkpt>
      <trkpt lat="47.28774" lon="-2.27586">
        <ele>8</ele>
        <time>2020-01-05T10:57:45.000Z</time>
      </trkpt>
      <trkpt lat="47.2877" lon="-2.27592">
        <ele>8</ele>
        <time>2020-01-05T10:57:46.000Z</time>
      </trkpt>
      <trkpt lat="47.28757" lon="-2.2761">
        <ele>8</ele>
        <time>2020-01-05T10:57:49.000Z</time>
      </trkpt>
      <trkpt lat="47.28747" lon="-2.27622">
        <ele>8</ele>
        <time>2020-01-05T10:57:51.000Z</time>
      </trkpt>
      <trkpt lat="47.28734" lon="-2.27641">
        <ele>8</ele>
        <time>2020-01-05T10:57:54.000Z</time>
      </trkpt>
      <trkpt lat="47.28709" lon="-2.27681">
        <ele>8</ele>
        <time>2020-01-05T10:58:00.000Z</time>
      </trkpt>
      <trkpt lat="47.28686" lon="-2.27722">
        <ele>8</ele>
        <time>2020-01-05T10:58:06.000Z</time>
      </trkpt>
      <trkpt lat="47.28663" lon="-2.27761">
        <ele>8</ele>
        <time>2020-01-05T10:58:12.000Z</time>
      </trkpt>
      <trkpt lat="47.28661" lon="-2.27769">
        <ele>8</ele>
        <time>2020-01-05T10:58:13.000Z</time>
      </trkpt>
      <trkpt lat="47.28655" lon="-2.27791">
        <ele>8</ele>
        <time>2020-01-05T10:58:16.000Z</time>
      </trkpt>
      <trkpt lat="47.28653" lon="-2.27798">
        <ele>8</ele>
        <time>2020-01-05T10:58:17.000Z</time>
      </trkpt>
      <trkpt lat="47.28651" lon="-2.27806">
        <ele>8</ele>
        <time>2020-01-05T10:58:18.000Z</time>
      </trkpt>
      <trkpt lat="47.28646" lon="-2.27832">
        <ele>8</ele>
        <time>2020-01-05T10:58:21.000Z</time>
      </trkpt>
      <trkpt lat="47.28646" lon="-2.27841">
        <ele>8</ele>
        <time>2020-01-05T10:58:22.000Z</time>
      </trkpt>
      <trkpt lat="47.28644" lon="-2.27857">
        <ele>8</ele>
        <time>2020-01-05T10:58:24.000Z</time>
      </trkpt>
      <trkpt lat="47.28638" lon="-2.2789">
        <ele>8</ele>
        <time>2020-01-05T10:58:28.000Z</time>
      </trkpt>
      <trkpt lat="47.28634" lon="-2.27913">
        <ele>8.8000001907349</ele>
        <time>2020-01-05T10:58:31.000Z</time>
      </trkpt>
      <trkpt lat="47.28633" lon="-2.2792">
        <ele>9.1999998092651</ele>
        <time>2020-01-05T10:58:32.000Z</time>
      </trkpt>
      <trkpt lat="47.28633" lon="-2.27928">
        <ele>9.6000003814697</ele>
        <time>2020-01-05T10:58:33.000Z</time>
      </trkpt>
      <trkpt lat="47.28632" lon="-2.27934">
        <ele>10</ele>
        <time>2020-01-05T10:58:34.000Z</time>
      </trkpt>
      <trkpt lat="47.28625" lon="-2.27952">
        <ele>10</ele>
        <time>2020-01-05T10:58:38.000Z</time>
      </trkpt>
      <trkpt lat="47.28619" lon="-2.27976">
        <ele>10</ele>
        <time>2020-01-05T10:58:42.000Z</time>
      </trkpt>
      <trkpt lat="47.28618" lon="-2.27982">
        <ele>10</ele>
        <time>2020-01-05T10:58:43.000Z</time>
      </trkpt>
      <trkpt lat="47.2861" lon="-2.28007">
        <ele>10</ele>
        <time>2020-01-05T10:58:47.000Z</time>
      </trkpt>
      <trkpt lat="47.28601" lon="-2.28021">
        <ele>10</ele>
        <time>2020-01-05T10:58:51.000Z</time>
      </trkpt>
      <trkpt lat="47.28599" lon="-2.28023">
        <ele>10</ele>
        <time>2020-01-05T10:58:52.000Z</time>
      </trkpt>
      <trkpt lat="47.28592" lon="-2.28033">
        <ele>10</ele>
        <time>2020-01-05T10:58:56.000Z</time>
      </trkpt>
      <trkpt lat="47.28584" lon="-2.28044">
        <ele>10</ele>
        <time>2020-01-05T10:59:00.000Z</time>
      </trkpt>
      <trkpt lat="47.28581" lon="-2.28045">
        <ele>10</ele>
        <time>2020-01-05T10:59:01.000Z</time>
      </trkpt>
      <trkpt lat="47.28575" lon="-2.28048">
        <ele>10</ele>
        <time>2020-01-05T10:59:04.000Z</time>
      </trkpt>
      <trkpt lat="47.2857" lon="-2.28051">
        <ele>10</ele>
        <time>2020-01-05T10:59:06.000Z</time>
      </trkpt>
      <trkpt lat="47.28563" lon="-2.28052">
        <ele>10</ele>
        <time>2020-01-05T10:59:08.000Z</time>
      </trkpt>
      <trkpt lat="47.28554" lon="-2.2805">
        <ele>10</ele>
        <time>2020-01-05T10:59:12.000Z</time>
      </trkpt>
      <trkpt lat="47.28551" lon="-2.2805">
        <ele>10.39999961853</ele>
        <time>2020-01-05T10:59:13.000Z</time>
      </trkpt>
      <trkpt lat="47.28549" lon="-2.28051">
        <ele>10.800000190735</ele>
        <time>2020-01-05T10:59:14.000Z</time>
      </trkpt>
      <trkpt lat="47.28547" lon="-2.28051">
        <ele>11.199999809265</ele>
        <time>2020-01-05T10:59:15.000Z</time>
      </trkpt>
      <trkpt lat="47.28545" lon="-2.2805">
        <ele>11.60000038147</ele>
        <time>2020-01-05T10:59:16.000Z</time>
      </trkpt>
      <trkpt lat="47.28544" lon="-2.2805">
        <ele>12</ele>
        <time>2020-01-05T10:59:17.000Z</time>
      </trkpt>
      <trkpt lat="47.28543" lon="-2.28049">
        <ele>12</ele>
        <time>2020-01-05T10:59:18.000Z</time>
      </trkpt>
      <trkpt lat="47.28537" lon="-2.28049">
        <ele>12.39999961853</ele>
        <time>2020-01-05T10:59:22.000Z</time>
      </trkpt>
      <trkpt lat="47.28536" lon="-2.28049">
        <ele>12.800000190735</ele>
        <time>2020-01-05T10:59:23.000Z</time>
      </trkpt>
      <trkpt lat="47.28534" lon="-2.28049">
        <ele>13.39999961853</ele>
        <time>2020-01-05T10:59:24.000Z</time>
      </trkpt>
      <trkpt lat="47.28532" lon="-2.28049">
        <ele>13.800000190735</ele>
        <time>2020-01-05T10:59:25.000Z</time>
      </trkpt>
      <trkpt lat="47.28531" lon="-2.28049">
        <ele>14.199999809265</ele>
        <time>2020-01-05T10:59:26.000Z</time>
      </trkpt>
      <trkpt lat="47.28524" lon="-2.28047">
        <ele>14.199999809265</ele>
        <time>2020-01-05T10:59:30.000Z</time>
      </trkpt>
      <trkpt lat="47.28518" lon="-2.28048">
        <ele>14.60000038147</ele>
        <time>2020-01-05T10:59:33.000Z</time>
      </trkpt>
      <trkpt lat="47.28516" lon="-2.28047">
        <ele>15</ele>
        <time>2020-01-05T10:59:34.000Z</time>
      </trkpt>
      <trkpt lat="47.28514" lon="-2.28047">
        <ele>15.39999961853</ele>
        <time>2020-01-05T10:59:35.000Z</time>
      </trkpt>
      <trkpt lat="47.28512" lon="-2.28045">
        <ele>15.800000190735</ele>
        <time>2020-01-05T10:59:36.000Z</time>
      </trkpt>
      <trkpt lat="47.28511" lon="-2.28044">
        <ele>16.200000762939</ele>
        <time>2020-01-05T10:59:37.000Z</time>
      </trkpt>
      <trkpt lat="47.28509" lon="-2.28042">
        <ele>16.200000762939</ele>
        <time>2020-01-05T10:59:38.000Z</time>
      </trkpt>
      <trkpt lat="47.28505" lon="-2.28039">
        <ele>16.200000762939</ele>
        <time>2020-01-05T10:59:40.000Z</time>
      </trkpt>
      <trkpt lat="47.285" lon="-2.28035">
        <ele>16.200000762939</ele>
        <time>2020-01-05T10:59:43.000Z</time>
      </trkpt>
      <trkpt lat="47.28498" lon="-2.28035">
        <ele>16.60000038147</ele>
        <time>2020-01-05T10:59:44.000Z</time>
      </trkpt>
      <trkpt lat="47.28497" lon="-2.28036">
        <ele>17.39999961853</ele>
        <time>2020-01-05T10:59:45.000Z</time>
      </trkpt>
      <trkpt lat="47.28495" lon="-2.28037">
        <ele>17.799999237061</ele>
        <time>2020-01-05T10:59:46.000Z</time>
      </trkpt>
      <trkpt lat="47.28495" lon="-2.28039">
        <ele>18.200000762939</ele>
        <time>2020-01-05T10:59:47.000Z</time>
      </trkpt>
      <trkpt lat="47.28494" lon="-2.2804">
        <ele>18.200000762939</ele>
        <time>2020-01-05T10:59:48.000Z</time>
      </trkpt>
      <trkpt lat="47.28487" lon="-2.28045">
        <ele>18.200000762939</ele>
        <time>2020-01-05T10:59:51.000Z</time>
      </trkpt>
      <trkpt lat="47.28486" lon="-2.28047">
        <ele>18.200000762939</ele>
        <time>2020-01-05T10:59:52.000Z</time>
      </trkpt>
      <trkpt lat="47.28485" lon="-2.28057">
        <ele>18.200000762939</ele>
        <time>2020-01-05T10:59:55.000Z</time>
      </trkpt>
      <trkpt lat="47.28491" lon="-2.2807">
        <ele>18.200000762939</ele>
        <time>2020-01-05T10:59:59.000Z</time>
      </trkpt>
      <trkpt lat="47.28493" lon="-2.28079">
        <ele>18.200000762939</ele>
        <time>2020-01-05T11:00:02.000Z</time>
      </trkpt>
      <trkpt lat="47.28489" lon="-2.28084">
        <ele>18.200000762939</ele>
        <time>2020-01-05T11:00:04.000Z</time>
      </trkpt>
      <trkpt lat="47.28479" lon="-2.28093">
        <ele>18.200000762939</ele>
        <time>2020-01-05T11:00:07.000Z</time>
      </trkpt>
      <trkpt lat="47.28473" lon="-2.28095">
        <ele>17.799999237061</ele>
        <time>2020-01-05T11:00:08.000Z</time>
      </trkpt>
      <trkpt lat="47.28469" lon="-2.28097">
        <ele>17.39999961853</ele>
        <time>2020-01-05T11:00:09.000Z</time>
      </trkpt>
      <trkpt lat="47.28465" lon="-2.28096">
        <ele>16.60000038147</ele>
        <time>2020-01-05T11:00:10.000Z</time>
      </trkpt>
      <trkpt lat="47.28462" lon="-2.28094">
        <ele>16.200000762939</ele>
        <time>2020-01-05T11:00:11.000Z</time>
      </trkpt>
      <trkpt lat="47.28459" lon="-2.28092">
        <ele>16.200000762939</ele>
        <time>2020-01-05T11:00:12.000Z</time>
      </trkpt>
      <trkpt lat="47.28447" lon="-2.28088">
        <ele>16.200000762939</ele>
        <time>2020-01-05T11:00:16.000Z</time>
      </trkpt>
      <trkpt lat="47.28438" lon="-2.28085">
        <ele>16.200000762939</ele>
        <time>2020-01-05T11:00:20.000Z</time>
      </trkpt>
      <trkpt lat="47.28431" lon="-2.28085">
        <ele>16.200000762939</ele>
        <time>2020-01-05T11:00:23.000Z</time>
      </trkpt>
      <trkpt lat="47.28427" lon="-2.28084">
        <ele>16.200000762939</ele>
        <time>2020-01-05T11:00:25.000Z</time>
      </trkpt>
      <trkpt lat="47.28422" lon="-2.28086">
        <ele>16.200000762939</ele>
        <time>2020-01-05T11:00:27.000Z</time>
      </trkpt>
      <trkpt lat="47.28412" lon="-2.28082">
        <ele>16.200000762939</ele>
        <time>2020-01-05T11:00:31.000Z</time>
      </trkpt>
      <trkpt lat="47.28401" lon="-2.28077">
        <ele>16.200000762939</ele>
        <time>2020-01-05T11:00:36.000Z</time>
      </trkpt>
      <trkpt lat="47.28397" lon="-2.28077">
        <ele>16.200000762939</ele>
        <time>2020-01-05T11:00:38.000Z</time>
      </trkpt>
      <trkpt lat="47.28389" lon="-2.28075">
        <ele>16.200000762939</ele>
        <time>2020-01-05T11:00:41.000Z</time>
      </trkpt>
      <trkpt lat="47.2838" lon="-2.28075">
        <ele>16.200000762939</ele>
        <time>2020-01-05T11:00:46.000Z</time>
      </trkpt>
      <trkpt lat="47.28376" lon="-2.28069">
        <ele>16.200000762939</ele>
        <time>2020-01-05T11:00:51.000Z</time>
      </trkpt>
      <trkpt lat="47.28373" lon="-2.28058">
        <ele>16.200000762939</ele>
        <time>2020-01-05T11:01:01.000Z</time>
      </trkpt>
      <trkpt lat="47.28372" lon="-2.28056">
        <ele>13.800000190735</ele>
        <time>2020-01-05T11:01:03.000Z</time>
      </trkpt>
      <trkpt lat="47.28366" lon="-2.28056">
        <ele>15.800000190735</ele>
        <time>2020-01-05T11:01:18.000Z</time>
      </trkpt>
      <trkpt lat="47.28366" lon="-2.28068">
        <ele>15.800000190735</ele>
        <time>2020-01-05T11:01:22.000Z</time>
      </trkpt>
      <trkpt lat="47.28367" lon="-2.28071">
        <ele>15.800000190735</ele>
        <time>2020-01-05T11:01:23.000Z</time>
      </trkpt>
      <trkpt lat="47.28365" lon="-2.28075">
        <ele>15.800000190735</ele>
        <time>2020-01-05T11:01:24.000Z</time>
      </trkpt>
      <trkpt lat="47.28362" lon="-2.28083">
        <ele>15.800000190735</ele>
        <time>2020-01-05T11:01:26.000Z</time>
      </trkpt>
      <trkpt lat="47.2836" lon="-2.28085">
        <ele>15.39999961853</ele>
        <time>2020-01-05T11:01:27.000Z</time>
      </trkpt>
      <trkpt lat="47.28357" lon="-2.28086">
        <ele>15</ele>
        <time>2020-01-05T11:01:29.000Z</time>
      </trkpt>
      <trkpt lat="47.28354" lon="-2.28086">
        <ele>14.60000038147</ele>
        <time>2020-01-05T11:01:30.000Z</time>
      </trkpt>
      <trkpt lat="47.28351" lon="-2.28086">
        <ele>14.199999809265</ele>
        <time>2020-01-05T11:01:31.000Z</time>
      </trkpt>
      <trkpt lat="47.28348" lon="-2.28086">
        <ele>13.800000190735</ele>
        <time>2020-01-05T11:01:32.000Z</time>
      </trkpt>
      <trkpt lat="47.28326" lon="-2.28093">
        <ele>13.800000190735</ele>
        <time>2020-01-05T11:01:38.000Z</time>
      </trkpt>
      <trkpt lat="47.28326" lon="-2.28109">
        <ele>13.800000190735</ele>
        <time>2020-01-05T11:01:41.000Z</time>
      </trkpt>
      <trkpt lat="47.28326" lon="-2.28114">
        <ele>13.800000190735</ele>
        <time>2020-01-05T11:01:42.000Z</time>
      </trkpt>
      <trkpt lat="47.28327" lon="-2.28135">
        <ele>13.800000190735</ele>
        <time>2020-01-05T11:01:46.000Z</time>
      </trkpt>
      <trkpt lat="47.28327" lon="-2.28146">
        <ele>14.199999809265</ele>
        <time>2020-01-05T11:01:48.000Z</time>
      </trkpt>
      <trkpt lat="47.28327" lon="-2.28152">
        <ele>14.60000038147</ele>
        <time>2020-01-05T11:01:49.000Z</time>
      </trkpt>
      <trkpt lat="47.28327" lon="-2.28157">
        <ele>15</ele>
        <time>2020-01-05T11:01:50.000Z</time>
      </trkpt>
      <trkpt lat="47.28327" lon="-2.28162">
        <ele>15.800000190735</ele>
        <time>2020-01-05T11:01:51.000Z</time>
      </trkpt>
      <trkpt lat="47.28327" lon="-2.28167">
        <ele>15.800000190735</ele>
        <time>2020-01-05T11:01:52.000Z</time>
      </trkpt>
      <trkpt lat="47.28326" lon="-2.28182">
        <ele>16.200000762939</ele>
        <time>2020-01-05T11:01:55.000Z</time>
      </trkpt>
      <trkpt lat="47.28326" lon="-2.28187">
        <ele>16.60000038147</ele>
        <time>2020-01-05T11:01:56.000Z</time>
      </trkpt>
      <trkpt lat="47.28326" lon="-2.28193">
        <ele>17</ele>
        <time>2020-01-05T11:01:57.000Z</time>
      </trkpt>
      <trkpt lat="47.28325" lon="-2.28198">
        <ele>17.39999961853</ele>
        <time>2020-01-05T11:01:58.000Z</time>
      </trkpt>
      <trkpt lat="47.28325" lon="-2.28203">
        <ele>17.799999237061</ele>
        <time>2020-01-05T11:01:59.000Z</time>
      </trkpt>
      <trkpt lat="47.28324" lon="-2.28223">
        <ele>18.200000762939</ele>
        <time>2020-01-05T11:02:03.000Z</time>
      </trkpt>
      <trkpt lat="47.28324" lon="-2.28228">
        <ele>18.60000038147</ele>
        <time>2020-01-05T11:02:04.000Z</time>
      </trkpt>
      <trkpt lat="47.28324" lon="-2.28234">
        <ele>19</ele>
        <time>2020-01-05T11:02:05.000Z</time>
      </trkpt>
      <trkpt lat="47.28324" lon="-2.28239">
        <ele>19.39999961853</ele>
        <time>2020-01-05T11:02:06.000Z</time>
      </trkpt>
      <trkpt lat="47.28324" lon="-2.28244">
        <ele>19.799999237061</ele>
        <time>2020-01-05T11:02:07.000Z</time>
      </trkpt>
      <trkpt lat="47.28324" lon="-2.28271">
        <ele>19.799999237061</ele>
        <time>2020-01-05T11:02:12.000Z</time>
      </trkpt>
      <trkpt lat="47.28324" lon="-2.28285">
        <ele>20.200000762939</ele>
        <time>2020-01-05T11:02:15.000Z</time>
      </trkpt>
      <trkpt lat="47.28324" lon="-2.28289">
        <ele>21</ele>
        <time>2020-01-05T11:02:16.000Z</time>
      </trkpt>
      <trkpt lat="47.28324" lon="-2.28293">
        <ele>21.39999961853</ele>
        <time>2020-01-05T11:02:17.000Z</time>
      </trkpt>
      <trkpt lat="47.28323" lon="-2.28296">
        <ele>21.799999237061</ele>
        <time>2020-01-05T11:02:18.000Z</time>
      </trkpt>
      <trkpt lat="47.28324" lon="-2.28312">
        <ele>21.799999237061</ele>
        <time>2020-01-05T11:02:24.000Z</time>
      </trkpt>
      <trkpt lat="47.28325" lon="-2.2833">
        <ele>21.799999237061</ele>
        <time>2020-01-05T11:02:28.000Z</time>
      </trkpt>
      <trkpt lat="47.28325" lon="-2.28363">
        <ele>21.799999237061</ele>
        <time>2020-01-05T11:02:34.000Z</time>
      </trkpt>
      <trkpt lat="47.28323" lon="-2.28381">
        <ele>22.200000762939</ele>
        <time>2020-01-05T11:02:37.000Z</time>
      </trkpt>
      <trkpt lat="47.28323" lon="-2.28387">
        <ele>22.60000038147</ele>
        <time>2020-01-05T11:02:38.000Z</time>
      </trkpt>
      <trkpt lat="47.28322" lon="-2.28393">
        <ele>23</ele>
        <time>2020-01-05T11:02:39.000Z</time>
      </trkpt>
      <trkpt lat="47.2832" lon="-2.284">
        <ele>23.39999961853</ele>
        <time>2020-01-05T11:02:40.000Z</time>
      </trkpt>
      <trkpt lat="47.28319" lon="-2.28406">
        <ele>23.799999237061</ele>
        <time>2020-01-05T11:02:41.000Z</time>
      </trkpt>
      <trkpt lat="47.28307" lon="-2.28447">
        <ele>23.799999237061</ele>
        <time>2020-01-05T11:02:47.000Z</time>
      </trkpt>
      <trkpt lat="47.28297" lon="-2.28502">
        <ele>23.799999237061</ele>
        <time>2020-01-05T11:02:54.000Z</time>
      </trkpt>
      <trkpt lat="47.28289" lon="-2.28555">
        <ele>23.799999237061</ele>
        <time>2020-01-05T11:03:00.000Z</time>
      </trkpt>
      <trkpt lat="47.28277" lon="-2.28616">
        <ele>23.799999237061</ele>
        <time>2020-01-05T11:03:07.000Z</time>
      </trkpt>
      <trkpt lat="47.28264" lon="-2.28673">
        <ele>23.799999237061</ele>
        <time>2020-01-05T11:03:14.000Z</time>
      </trkpt>
      <trkpt lat="47.28254" lon="-2.28721">
        <ele>23.799999237061</ele>
        <time>2020-01-05T11:03:20.000Z</time>
      </trkpt>
      <trkpt lat="47.28245" lon="-2.28777">
        <ele>23.799999237061</ele>
        <time>2020-01-05T11:03:27.000Z</time>
      </trkpt>
      <trkpt lat="47.28235" lon="-2.28837">
        <ele>23.799999237061</ele>
        <time>2020-01-05T11:03:35.000Z</time>
      </trkpt>
      <trkpt lat="47.28228" lon="-2.28869">
        <ele>23.799999237061</ele>
        <time>2020-01-05T11:03:40.000Z</time>
      </trkpt>
      <trkpt lat="47.28225" lon="-2.28872">
        <ele>23.799999237061</ele>
        <time>2020-01-05T11:03:41.000Z</time>
      </trkpt>
      <trkpt lat="47.28211" lon="-2.28872">
        <ele>23.799999237061</ele>
        <time>2020-01-05T11:03:44.000Z</time>
      </trkpt>
      <trkpt lat="47.28191" lon="-2.28857">
        <ele>23.799999237061</ele>
        <time>2020-01-05T11:03:48.000Z</time>
      </trkpt>
      <trkpt lat="47.28187" lon="-2.28853">
        <ele>23.39999961853</ele>
        <time>2020-01-05T11:03:49.000Z</time>
      </trkpt>
      <trkpt lat="47.28182" lon="-2.28848">
        <ele>23</ele>
        <time>2020-01-05T11:03:50.000Z</time>
      </trkpt>
      <trkpt lat="47.28176" lon="-2.28844">
        <ele>22.60000038147</ele>
        <time>2020-01-05T11:03:51.000Z</time>
      </trkpt>
      <trkpt lat="47.28171" lon="-2.28839">
        <ele>22.200000762939</ele>
        <time>2020-01-05T11:03:52.000Z</time>
      </trkpt>
      <trkpt lat="47.28166" lon="-2.28834">
        <ele>21.799999237061</ele>
        <time>2020-01-05T11:03:53.000Z</time>
      </trkpt>
      <trkpt lat="47.28156" lon="-2.28826">
        <ele>21.799999237061</ele>
        <time>2020-01-05T11:03:55.000Z</time>
      </trkpt>
      <trkpt lat="47.2813" lon="-2.28804">
        <ele>21.799999237061</ele>
        <time>2020-01-05T11:04:00.000Z</time>
      </trkpt>
      <trkpt lat="47.28123" lon="-2.288">
        <ele>21.39999961853</ele>
        <time>2020-01-05T11:04:01.000Z</time>
      </trkpt>
      <trkpt lat="47.28117" lon="-2.28795">
        <ele>20.799999237061</ele>
        <time>2020-01-05T11:04:02.000Z</time>
      </trkpt>
      <trkpt lat="47.28111" lon="-2.28791">
        <ele>20.39999961853</ele>
        <time>2020-01-05T11:04:03.000Z</time>
      </trkpt>
      <trkpt lat="47.28105" lon="-2.28787">
        <ele>20</ele>
        <time>2020-01-05T11:04:04.000Z</time>
      </trkpt>
      <trkpt lat="47.28098" lon="-2.28783">
        <ele>19.39999961853</ele>
        <time>2020-01-05T11:04:05.000Z</time>
      </trkpt>
      <trkpt lat="47.28053" lon="-2.28761">
        <ele>19.39999961853</ele>
        <time>2020-01-05T11:04:12.000Z</time>
      </trkpt>
      <trkpt lat="47.28026" lon="-2.28755">
        <ele>19</ele>
        <time>2020-01-05T11:04:16.000Z</time>
      </trkpt>
      <trkpt lat="47.28019" lon="-2.28753">
        <ele>18.60000038147</ele>
        <time>2020-01-05T11:04:17.000Z</time>
      </trkpt>
      <trkpt lat="47.28012" lon="-2.28752">
        <ele>18.200000762939</ele>
        <time>2020-01-05T11:04:18.000Z</time>
      </trkpt>
      <trkpt lat="47.28005" lon="-2.28751">
        <ele>17.799999237061</ele>
        <time>2020-01-05T11:04:19.000Z</time>
      </trkpt>
      <trkpt lat="47.27999" lon="-2.2875">
        <ele>17.39999961853</ele>
        <time>2020-01-05T11:04:20.000Z</time>
      </trkpt>
      <trkpt lat="47.27993" lon="-2.28748">
        <ele>17.39999961853</ele>
        <time>2020-01-05T11:04:21.000Z</time>
      </trkpt>
      <trkpt lat="47.2798" lon="-2.28746">
        <ele>17.39999961853</ele>
        <time>2020-01-05T11:04:23.000Z</time>
      </trkpt>
      <trkpt lat="47.2794" lon="-2.2875">
        <ele>17.39999961853</ele>
        <time>2020-01-05T11:04:29.000Z</time>
      </trkpt>
      <trkpt lat="47.27911" lon="-2.28763">
        <ele>17.39999961853</ele>
        <time>2020-01-05T11:04:34.000Z</time>
      </trkpt>
      <trkpt lat="47.27884" lon="-2.28772">
        <ele>17.39999961853</ele>
        <time>2020-01-05T11:04:39.000Z</time>
      </trkpt>
      <trkpt lat="47.27881" lon="-2.28775">
        <ele>17.39999961853</ele>
        <time>2020-01-05T11:04:40.000Z</time>
      </trkpt>
      <trkpt lat="47.27874" lon="-2.28788">
        <ele>17.39999961853</ele>
        <time>2020-01-05T11:04:43.000Z</time>
      </trkpt>
      <trkpt lat="47.27872" lon="-2.28794">
        <ele>17.39999961853</ele>
        <time>2020-01-05T11:04:44.000Z</time>
      </trkpt>
      <trkpt lat="47.27865" lon="-2.28812">
        <ele>17.39999961853</ele>
        <time>2020-01-05T11:04:47.000Z</time>
      </trkpt>
      <trkpt lat="47.27861" lon="-2.28814">
        <ele>17.39999961853</ele>
        <time>2020-01-05T11:04:48.000Z</time>
      </trkpt>
      <trkpt lat="47.27846" lon="-2.28804">
        <ele>17.39999961853</ele>
        <time>2020-01-05T11:04:51.000Z</time>
      </trkpt>
      <trkpt lat="47.27836" lon="-2.28798">
        <ele>17.39999961853</ele>
        <time>2020-01-05T11:04:53.000Z</time>
      </trkpt>
      <trkpt lat="47.27831" lon="-2.28797">
        <ele>17.39999961853</ele>
        <time>2020-01-05T11:04:54.000Z</time>
      </trkpt>
      <trkpt lat="47.27826" lon="-2.28794">
        <ele>17.39999961853</ele>
        <time>2020-01-05T11:04:55.000Z</time>
      </trkpt>
      <trkpt lat="47.27805" lon="-2.28793">
        <ele>17.39999961853</ele>
        <time>2020-01-05T11:04:59.000Z</time>
      </trkpt>
      <trkpt lat="47.27795" lon="-2.28795">
        <ele>17.39999961853</ele>
        <time>2020-01-05T11:05:01.000Z</time>
      </trkpt>
      <trkpt lat="47.27789" lon="-2.28802">
        <ele>17.39999961853</ele>
        <time>2020-01-05T11:05:03.000Z</time>
      </trkpt>
      <trkpt lat="47.27786" lon="-2.28812">
        <ele>17.39999961853</ele>
        <time>2020-01-05T11:05:05.000Z</time>
      </trkpt>
      <trkpt lat="47.27782" lon="-2.28822">
        <ele>17.39999961853</ele>
        <time>2020-01-05T11:05:07.000Z</time>
      </trkpt>
      <trkpt lat="47.27771" lon="-2.28844">
        <ele>17.39999961853</ele>
        <time>2020-01-05T11:05:11.000Z</time>
      </trkpt>
      <trkpt lat="47.27764" lon="-2.28855">
        <ele>17.39999961853</ele>
        <time>2020-01-05T11:05:13.000Z</time>
      </trkpt>
      <trkpt lat="47.27753" lon="-2.28872">
        <ele>17.39999961853</ele>
        <time>2020-01-05T11:05:16.000Z</time>
      </trkpt>
      <trkpt lat="47.27734" lon="-2.28902">
        <ele>17.39999961853</ele>
        <time>2020-01-05T11:05:21.000Z</time>
      </trkpt>
      <trkpt lat="47.27721" lon="-2.2892">
        <ele>17.39999961853</ele>
        <time>2020-01-05T11:05:24.000Z</time>
      </trkpt>
      <trkpt lat="47.27713" lon="-2.28932">
        <ele>17.39999961853</ele>
        <time>2020-01-05T11:05:26.000Z</time>
      </trkpt>
      <trkpt lat="47.27705" lon="-2.28946">
        <ele>17.39999961853</ele>
        <time>2020-01-05T11:05:28.000Z</time>
      </trkpt>
      <trkpt lat="47.27699" lon="-2.28963">
        <ele>17.39999961853</ele>
        <time>2020-01-05T11:05:30.000Z</time>
      </trkpt>
      <trkpt lat="47.27698" lon="-2.28971">
        <ele>17.39999961853</ele>
        <time>2020-01-05T11:05:31.000Z</time>
      </trkpt>
      <trkpt lat="47.27693" lon="-2.28986">
        <ele>17.39999961853</ele>
        <time>2020-01-05T11:05:33.000Z</time>
      </trkpt>
      <trkpt lat="47.27686" lon="-2.29007">
        <ele>17.39999961853</ele>
        <time>2020-01-05T11:05:36.000Z</time>
      </trkpt>
      <trkpt lat="47.27679" lon="-2.29018">
        <ele>17.39999961853</ele>
        <time>2020-01-05T11:05:38.000Z</time>
      </trkpt>
      <trkpt lat="47.27671" lon="-2.29034">
        <ele>17.39999961853</ele>
        <time>2020-01-05T11:05:41.000Z</time>
      </trkpt>
      <trkpt lat="47.27654" lon="-2.29067">
        <ele>17.39999961853</ele>
        <time>2020-01-05T11:05:46.000Z</time>
      </trkpt>
      <trkpt lat="47.27648" lon="-2.2908">
        <ele>17.39999961853</ele>
        <time>2020-01-05T11:05:48.000Z</time>
      </trkpt>
      <trkpt lat="47.27636" lon="-2.29108">
        <ele>17.39999961853</ele>
        <time>2020-01-05T11:05:52.000Z</time>
      </trkpt>
      <trkpt lat="47.27623" lon="-2.29135">
        <ele>17.39999961853</ele>
        <time>2020-01-05T11:05:56.000Z</time>
      </trkpt>
      <trkpt lat="47.27618" lon="-2.29148">
        <ele>17.39999961853</ele>
        <time>2020-01-05T11:05:58.000Z</time>
      </trkpt>
      <trkpt lat="47.27614" lon="-2.29153">
        <ele>17.39999961853</ele>
        <time>2020-01-05T11:05:59.000Z</time>
      </trkpt>
      <trkpt lat="47.27603" lon="-2.29164">
        <ele>17.39999961853</ele>
        <time>2020-01-05T11:06:02.000Z</time>
      </trkpt>
      <trkpt lat="47.27587" lon="-2.29183">
        <ele>17.39999961853</ele>
        <time>2020-01-05T11:06:06.000Z</time>
      </trkpt>
      <trkpt lat="47.27582" lon="-2.29187">
        <ele>17.39999961853</ele>
        <time>2020-01-05T11:06:07.000Z</time>
      </trkpt>
      <trkpt lat="47.27562" lon="-2.29215">
        <ele>17.39999961853</ele>
        <time>2020-01-05T11:06:12.000Z</time>
      </trkpt>
      <trkpt lat="47.27558" lon="-2.2922">
        <ele>17.39999961853</ele>
        <time>2020-01-05T11:06:13.000Z</time>
      </trkpt>
      <trkpt lat="47.27526" lon="-2.29256">
        <ele>17.39999961853</ele>
        <time>2020-01-05T11:06:20.000Z</time>
      </trkpt>
      <trkpt lat="47.27518" lon="-2.29265">
        <ele>17.39999961853</ele>
        <time>2020-01-05T11:06:22.000Z</time>
      </trkpt>
      <trkpt lat="47.27506" lon="-2.29279">
        <ele>17.39999961853</ele>
        <time>2020-01-05T11:06:25.000Z</time>
      </trkpt>
      <trkpt lat="47.27488" lon="-2.29299">
        <ele>17.39999961853</ele>
        <time>2020-01-05T11:06:31.000Z</time>
      </trkpt>
      <trkpt lat="47.27469" lon="-2.29307">
        <ele>17.39999961853</ele>
        <time>2020-01-05T11:06:36.000Z</time>
      </trkpt>
      <trkpt lat="47.27464" lon="-2.2931">
        <ele>17.39999961853</ele>
        <time>2020-01-05T11:06:37.000Z</time>
      </trkpt>
      <trkpt lat="47.27456" lon="-2.29319">
        <ele>17.39999961853</ele>
        <time>2020-01-05T11:06:39.000Z</time>
      </trkpt>
      <trkpt lat="47.27447" lon="-2.29327">
        <ele>17.39999961853</ele>
        <time>2020-01-05T11:06:41.000Z</time>
      </trkpt>
      <trkpt lat="47.27429" lon="-2.29347">
        <ele>17.39999961853</ele>
        <time>2020-01-05T11:06:45.000Z</time>
      </trkpt>
      <trkpt lat="47.27424" lon="-2.29351">
        <ele>17.39999961853</ele>
        <time>2020-01-05T11:06:46.000Z</time>
      </trkpt>
      <trkpt lat="47.27414" lon="-2.29361">
        <ele>17.39999961853</ele>
        <time>2020-01-05T11:06:48.000Z</time>
      </trkpt>
      <trkpt lat="47.27395" lon="-2.2938">
        <ele>17.799999237061</ele>
        <time>2020-01-05T11:06:52.000Z</time>
      </trkpt>
      <trkpt lat="47.2739" lon="-2.29385">
        <ele>18.39999961853</ele>
        <time>2020-01-05T11:06:53.000Z</time>
      </trkpt>
      <trkpt lat="47.27386" lon="-2.2939">
        <ele>18.799999237061</ele>
        <time>2020-01-05T11:06:54.000Z</time>
      </trkpt>
      <trkpt lat="47.27381" lon="-2.29395">
        <ele>19.200000762939</ele>
        <time>2020-01-05T11:06:55.000Z</time>
      </trkpt>
      <trkpt lat="47.27377" lon="-2.29399">
        <ele>19.60000038147</ele>
        <time>2020-01-05T11:06:56.000Z</time>
      </trkpt>
      <trkpt lat="47.27353" lon="-2.29429">
        <ele>19.60000038147</ele>
        <time>2020-01-05T11:07:02.000Z</time>
      </trkpt>
      <trkpt lat="47.27349" lon="-2.29433">
        <ele>19.60000038147</ele>
        <time>2020-01-05T11:07:03.000Z</time>
      </trkpt>
      <trkpt lat="47.27337" lon="-2.29447">
        <ele>19.60000038147</ele>
        <time>2020-01-05T11:07:06.000Z</time>
      </trkpt>
      <trkpt lat="47.27329" lon="-2.29456">
        <ele>19.60000038147</ele>
        <time>2020-01-05T11:07:08.000Z</time>
      </trkpt>
      <trkpt lat="47.27304" lon="-2.29483">
        <ele>19.60000038147</ele>
        <time>2020-01-05T11:07:14.000Z</time>
      </trkpt>
      <trkpt lat="47.27275" lon="-2.29517">
        <ele>19.60000038147</ele>
        <time>2020-01-05T11:07:21.000Z</time>
      </trkpt>
      <trkpt lat="47.27271" lon="-2.29522">
        <ele>19.60000038147</ele>
        <time>2020-01-05T11:07:22.000Z</time>
      </trkpt>
      <trkpt lat="47.27263" lon="-2.29531">
        <ele>20</ele>
        <time>2020-01-05T11:07:24.000Z</time>
      </trkpt>
      <trkpt lat="47.2726" lon="-2.29535">
        <ele>20.39999961853</ele>
        <time>2020-01-05T11:07:25.000Z</time>
      </trkpt>
      <trkpt lat="47.27257" lon="-2.2954">
        <ele>20.799999237061</ele>
        <time>2020-01-05T11:07:26.000Z</time>
      </trkpt>
      <trkpt lat="47.27255" lon="-2.29546">
        <ele>21.200000762939</ele>
        <time>2020-01-05T11:07:27.000Z</time>
      </trkpt>
      <trkpt lat="47.27254" lon="-2.29552">
        <ele>21.60000038147</ele>
        <time>2020-01-05T11:07:28.000Z</time>
      </trkpt>
      <trkpt lat="47.27254" lon="-2.29559">
        <ele>21.60000038147</ele>
        <time>2020-01-05T11:07:29.000Z</time>
      </trkpt>
      <trkpt lat="47.27257" lon="-2.2957">
        <ele>21.60000038147</ele>
        <time>2020-01-05T11:07:31.000Z</time>
      </trkpt>
      <trkpt lat="47.27258" lon="-2.29578">
        <ele>21.60000038147</ele>
        <time>2020-01-05T11:07:32.000Z</time>
      </trkpt>
      <trkpt lat="47.27259" lon="-2.29585">
        <ele>21.60000038147</ele>
        <time>2020-01-05T11:07:33.000Z</time>
      </trkpt>
      <trkpt lat="47.27263" lon="-2.29614">
        <ele>21.60000038147</ele>
        <time>2020-01-05T11:07:37.000Z</time>
      </trkpt>
      <trkpt lat="47.27268" lon="-2.29643">
        <ele>21.60000038147</ele>
        <time>2020-01-05T11:07:42.000Z</time>
      </trkpt>
      <trkpt lat="47.27272" lon="-2.29664">
        <ele>21.60000038147</ele>
        <time>2020-01-05T11:07:46.000Z</time>
      </trkpt>
      <trkpt lat="47.27273" lon="-2.29671">
        <ele>21.60000038147</ele>
        <time>2020-01-05T11:07:47.000Z</time>
      </trkpt>
      <trkpt lat="47.27276" lon="-2.29691">
        <ele>21.60000038147</ele>
        <time>2020-01-05T11:07:50.000Z</time>
      </trkpt>
      <trkpt lat="47.2728" lon="-2.29703">
        <ele>21.60000038147</ele>
        <time>2020-01-05T11:07:52.000Z</time>
      </trkpt>
      <trkpt lat="47.27284" lon="-2.29715">
        <ele>21.60000038147</ele>
        <time>2020-01-05T11:07:54.000Z</time>
      </trkpt>
      <trkpt lat="47.27288" lon="-2.29729">
        <ele>21.60000038147</ele>
        <time>2020-01-05T11:07:56.000Z</time>
      </trkpt>
      <trkpt lat="47.273" lon="-2.29775">
        <ele>21.60000038147</ele>
        <time>2020-01-05T11:08:02.000Z</time>
      </trkpt>
      <trkpt lat="47.27311" lon="-2.29804">
        <ele>21.60000038147</ele>
        <time>2020-01-05T11:08:06.000Z</time>
      </trkpt>
      <trkpt lat="47.27315" lon="-2.2981">
        <ele>21.60000038147</ele>
        <time>2020-01-05T11:08:07.000Z</time>
      </trkpt>
      <trkpt lat="47.27319" lon="-2.29815">
        <ele>21.60000038147</ele>
        <time>2020-01-05T11:08:08.000Z</time>
      </trkpt>
      <trkpt lat="47.27327" lon="-2.29826">
        <ele>21.60000038147</ele>
        <time>2020-01-05T11:08:10.000Z</time>
      </trkpt>
      <trkpt lat="47.27331" lon="-2.29831">
        <ele>21.60000038147</ele>
        <time>2020-01-05T11:08:11.000Z</time>
      </trkpt>
      <trkpt lat="47.2734" lon="-2.29843">
        <ele>21.60000038147</ele>
        <time>2020-01-05T11:08:13.000Z</time>
      </trkpt>
      <trkpt lat="47.27346" lon="-2.29857">
        <ele>21.60000038147</ele>
        <time>2020-01-05T11:08:15.000Z</time>
      </trkpt>
      <trkpt lat="47.27368" lon="-2.299">
        <ele>21.60000038147</ele>
        <time>2020-01-05T11:08:21.000Z</time>
      </trkpt>
      <trkpt lat="47.2738" lon="-2.29928">
        <ele>21.60000038147</ele>
        <time>2020-01-05T11:08:26.000Z</time>
      </trkpt>
      <trkpt lat="47.27383" lon="-2.29933">
        <ele>21.60000038147</ele>
        <time>2020-01-05T11:08:27.000Z</time>
      </trkpt>
      <trkpt lat="47.2739" lon="-2.29948">
        <ele>21.60000038147</ele>
        <time>2020-01-05T11:08:29.000Z</time>
      </trkpt>
      <trkpt lat="47.27404" lon="-2.29988">
        <ele>21.60000038147</ele>
        <time>2020-01-05T11:08:34.000Z</time>
      </trkpt>
      <trkpt lat="47.27408" lon="-2.29996">
        <ele>21.60000038147</ele>
        <time>2020-01-05T11:08:35.000Z</time>
      </trkpt>
      <trkpt lat="47.27417" lon="-2.30027">
        <ele>21.60000038147</ele>
        <time>2020-01-05T11:08:39.000Z</time>
      </trkpt>
      <trkpt lat="47.27418" lon="-2.30035">
        <ele>21.60000038147</ele>
        <time>2020-01-05T11:08:40.000Z</time>
      </trkpt>
      <trkpt lat="47.27436" lon="-2.30083">
        <ele>21.60000038147</ele>
        <time>2020-01-05T11:08:46.000Z</time>
      </trkpt>
      <trkpt lat="47.27442" lon="-2.30107">
        <ele>21.200000762939</ele>
        <time>2020-01-05T11:08:49.000Z</time>
      </trkpt>
      <trkpt lat="47.27444" lon="-2.30115">
        <ele>20.799999237061</ele>
        <time>2020-01-05T11:08:50.000Z</time>
      </trkpt>
      <trkpt lat="47.27446" lon="-2.30124">
        <ele>20</ele>
        <time>2020-01-05T11:08:51.000Z</time>
      </trkpt>
      <trkpt lat="47.27448" lon="-2.30132">
        <ele>19.39999961853</ele>
        <time>2020-01-05T11:08:52.000Z</time>
      </trkpt>
      <trkpt lat="47.27456" lon="-2.3017">
        <ele>19.39999961853</ele>
        <time>2020-01-05T11:08:57.000Z</time>
      </trkpt>
      <trkpt lat="47.2746" lon="-2.30184">
        <ele>19</ele>
        <time>2020-01-05T11:08:59.000Z</time>
      </trkpt>
      <trkpt lat="47.27462" lon="-2.30191">
        <ele>18.60000038147</ele>
        <time>2020-01-05T11:09:00.000Z</time>
      </trkpt>
      <trkpt lat="47.27463" lon="-2.30198">
        <ele>18.200000762939</ele>
        <time>2020-01-05T11:09:01.000Z</time>
      </trkpt>
      <trkpt lat="47.27465" lon="-2.30205">
        <ele>17.799999237061</ele>
        <time>2020-01-05T11:09:02.000Z</time>
      </trkpt>
      <trkpt lat="47.27466" lon="-2.30213">
        <ele>17.39999961853</ele>
        <time>2020-01-05T11:09:03.000Z</time>
      </trkpt>
      <trkpt lat="47.27471" lon="-2.30236">
        <ele>17.39999961853</ele>
        <time>2020-01-05T11:09:06.000Z</time>
      </trkpt>
      <trkpt lat="47.27482" lon="-2.30276">
        <ele>17</ele>
        <time>2020-01-05T11:09:11.000Z</time>
      </trkpt>
      <trkpt lat="47.27484" lon="-2.30284">
        <ele>16.60000038147</ele>
        <time>2020-01-05T11:09:12.000Z</time>
      </trkpt>
      <trkpt lat="47.27486" lon="-2.30293">
        <ele>16.200000762939</ele>
        <time>2020-01-05T11:09:13.000Z</time>
      </trkpt>
      <trkpt lat="47.27488" lon="-2.30302">
        <ele>15.60000038147</ele>
        <time>2020-01-05T11:09:14.000Z</time>
      </trkpt>
      <trkpt lat="47.27489" lon="-2.30312">
        <ele>15.199999809265</ele>
        <time>2020-01-05T11:09:15.000Z</time>
      </trkpt>
      <trkpt lat="47.27492" lon="-2.30334">
        <ele>15.199999809265</ele>
        <time>2020-01-05T11:09:17.000Z</time>
      </trkpt>
      <trkpt lat="47.27499" lon="-2.30366">
        <ele>14.800000190735</ele>
        <time>2020-01-05T11:09:20.000Z</time>
      </trkpt>
      <trkpt lat="47.275" lon="-2.30377">
        <ele>14.39999961853</ele>
        <time>2020-01-05T11:09:21.000Z</time>
      </trkpt>
      <trkpt lat="47.27502" lon="-2.30387">
        <ele>13.800000190735</ele>
        <time>2020-01-05T11:09:22.000Z</time>
      </trkpt>
      <trkpt lat="47.27503" lon="-2.30397">
        <ele>13.39999961853</ele>
        <time>2020-01-05T11:09:23.000Z</time>
      </trkpt>
      <trkpt lat="47.27505" lon="-2.30406">
        <ele>13</ele>
        <time>2020-01-05T11:09:24.000Z</time>
      </trkpt>
      <trkpt lat="47.27507" lon="-2.30426">
        <ele>13</ele>
        <time>2020-01-05T11:09:26.000Z</time>
      </trkpt>
      <trkpt lat="47.27512" lon="-2.30448">
        <ele>13</ele>
        <time>2020-01-05T11:09:28.000Z</time>
      </trkpt>
      <trkpt lat="47.27513" lon="-2.30458">
        <ele>12.60000038147</ele>
        <time>2020-01-05T11:09:29.000Z</time>
      </trkpt>
      <trkpt lat="47.27516" lon="-2.30469">
        <ele>12.199999809265</ele>
        <time>2020-01-05T11:09:30.000Z</time>
      </trkpt>
      <trkpt lat="47.27518" lon="-2.3048">
        <ele>11.60000038147</ele>
        <time>2020-01-05T11:09:31.000Z</time>
      </trkpt>
      <trkpt lat="47.2752" lon="-2.30491">
        <ele>11.199999809265</ele>
        <time>2020-01-05T11:09:32.000Z</time>
      </trkpt>
      <trkpt lat="47.27522" lon="-2.30502">
        <ele>10.800000190735</ele>
        <time>2020-01-05T11:09:33.000Z</time>
      </trkpt>
      <trkpt lat="47.27524" lon="-2.30513">
        <ele>10.800000190735</ele>
        <time>2020-01-05T11:09:34.000Z</time>
      </trkpt>
      <trkpt lat="47.27537" lon="-2.30569">
        <ele>10.800000190735</ele>
        <time>2020-01-05T11:09:40.000Z</time>
      </trkpt>
      <trkpt lat="47.27544" lon="-2.30594">
        <ele>10.39999961853</ele>
        <time>2020-01-05T11:09:44.000Z</time>
      </trkpt>
      <trkpt lat="47.27545" lon="-2.30599">
        <ele>10</ele>
        <time>2020-01-05T11:09:45.000Z</time>
      </trkpt>
      <trkpt lat="47.27546" lon="-2.30604">
        <ele>9.6000003814697</ele>
        <time>2020-01-05T11:09:46.000Z</time>
      </trkpt>
      <trkpt lat="47.27548" lon="-2.30609">
        <ele>9.1999998092651</ele>
        <time>2020-01-05T11:09:47.000Z</time>
      </trkpt>
      <trkpt lat="47.27548" lon="-2.30613">
        <ele>8.8000001907349</ele>
        <time>2020-01-05T11:09:48.000Z</time>
      </trkpt>
      <trkpt lat="47.27549" lon="-2.30619">
        <ele>8.8000001907349</ele>
        <time>2020-01-05T11:09:50.000Z</time>
      </trkpt>
      <trkpt lat="47.27553" lon="-2.30625">
        <ele>8.8000001907349</ele>
        <time>2020-01-05T11:09:55.000Z</time>
      </trkpt>
      <trkpt lat="47.27558" lon="-2.3064">
        <ele>8.8000001907349</ele>
        <time>2020-01-05T11:09:58.000Z</time>
      </trkpt>
      <trkpt lat="47.27559" lon="-2.30646">
        <ele>8.8000001907349</ele>
        <time>2020-01-05T11:09:59.000Z</time>
      </trkpt>
      <trkpt lat="47.27568" lon="-2.30684">
        <ele>8.8000001907349</ele>
        <time>2020-01-05T11:10:05.000Z</time>
      </trkpt>
      <trkpt lat="47.27571" lon="-2.30699">
        <ele>8.8000001907349</ele>
        <time>2020-01-05T11:10:07.000Z</time>
      </trkpt>
      <trkpt lat="47.27577" lon="-2.3072">
        <ele>9.1999998092651</ele>
        <time>2020-01-05T11:10:10.000Z</time>
      </trkpt>
      <trkpt lat="47.27578" lon="-2.30727">
        <ele>9.6000003814697</ele>
        <time>2020-01-05T11:10:11.000Z</time>
      </trkpt>
      <trkpt lat="47.2758" lon="-2.30733">
        <ele>10</ele>
        <time>2020-01-05T11:10:12.000Z</time>
      </trkpt>
      <trkpt lat="47.27582" lon="-2.3074">
        <ele>10.39999961853</ele>
        <time>2020-01-05T11:10:13.000Z</time>
      </trkpt>
      <trkpt lat="47.27584" lon="-2.30747">
        <ele>10.800000190735</ele>
        <time>2020-01-05T11:10:14.000Z</time>
      </trkpt>
      <trkpt lat="47.27588" lon="-2.30761">
        <ele>10.800000190735</ele>
        <time>2020-01-05T11:10:16.000Z</time>
      </trkpt>
      <trkpt lat="47.27591" lon="-2.30768">
        <ele>10.800000190735</ele>
        <time>2020-01-05T11:10:17.000Z</time>
      </trkpt>
      <trkpt lat="47.27606" lon="-2.3081">
        <ele>10.800000190735</ele>
        <time>2020-01-05T11:10:23.000Z</time>
      </trkpt>
      <trkpt lat="47.27628" lon="-2.30863">
        <ele>10.800000190735</ele>
        <time>2020-01-05T11:10:30.000Z</time>
      </trkpt>
      <trkpt lat="47.27653" lon="-2.30917">
        <ele>10.800000190735</ele>
        <time>2020-01-05T11:10:37.000Z</time>
      </trkpt>
      <trkpt lat="47.27662" lon="-2.30939">
        <ele>10.800000190735</ele>
        <time>2020-01-05T11:10:40.000Z</time>
      </trkpt>
      <trkpt lat="47.27668" lon="-2.30954">
        <ele>10.800000190735</ele>
        <time>2020-01-05T11:10:42.000Z</time>
      </trkpt>
      <trkpt lat="47.27685" lon="-2.30998">
        <ele>10.800000190735</ele>
        <time>2020-01-05T11:10:48.000Z</time>
      </trkpt>
      <trkpt lat="47.27699" lon="-2.31032">
        <ele>10.800000190735</ele>
        <time>2020-01-05T11:10:53.000Z</time>
      </trkpt>
      <trkpt lat="47.27708" lon="-2.31053">
        <ele>10.800000190735</ele>
        <time>2020-01-05T11:10:58.000Z</time>
      </trkpt>
      <trkpt lat="47.27716" lon="-2.31075">
        <ele>10.800000190735</ele>
        <time>2020-01-05T11:11:03.000Z</time>
      </trkpt>
      <trkpt lat="47.27713" lon="-2.311">
        <ele>10.800000190735</ele>
        <time>2020-01-05T11:11:07.000Z</time>
      </trkpt>
      <trkpt lat="47.27704" lon="-2.3113">
        <ele>10.800000190735</ele>
        <time>2020-01-05T11:11:12.000Z</time>
      </trkpt>
      <trkpt lat="47.27696" lon="-2.31163">
        <ele>10.800000190735</ele>
        <time>2020-01-05T11:11:17.000Z</time>
      </trkpt>
      <trkpt lat="47.27694" lon="-2.31171">
        <ele>10.800000190735</ele>
        <time>2020-01-05T11:11:18.000Z</time>
      </trkpt>
      <trkpt lat="47.27687" lon="-2.312">
        <ele>10.800000190735</ele>
        <time>2020-01-05T11:11:22.000Z</time>
      </trkpt>
      <trkpt lat="47.27686" lon="-2.31207">
        <ele>10.39999961853</ele>
        <time>2020-01-05T11:11:23.000Z</time>
      </trkpt>
      <trkpt lat="47.27685" lon="-2.31214">
        <ele>10</ele>
        <time>2020-01-05T11:11:24.000Z</time>
      </trkpt>
      <trkpt lat="47.27684" lon="-2.31221">
        <ele>9.6000003814697</ele>
        <time>2020-01-05T11:11:25.000Z</time>
      </trkpt>
      <trkpt lat="47.27683" lon="-2.31228">
        <ele>9.1999998092651</ele>
        <time>2020-01-05T11:11:26.000Z</time>
      </trkpt>
      <trkpt lat="47.27681" lon="-2.31234">
        <ele>8.6000003814697</ele>
        <time>2020-01-05T11:11:27.000Z</time>
      </trkpt>
      <trkpt lat="47.2768" lon="-2.31241">
        <ele>8.6000003814697</ele>
        <time>2020-01-05T11:11:28.000Z</time>
      </trkpt>
      <trkpt lat="47.27678" lon="-2.31249">
        <ele>8.6000003814697</ele>
        <time>2020-01-05T11:11:29.000Z</time>
      </trkpt>
      <trkpt lat="47.27673" lon="-2.31272">
        <ele>8.6000003814697</ele>
        <time>2020-01-05T11:11:32.000Z</time>
      </trkpt>
      <trkpt lat="47.27671" lon="-2.3128">
        <ele>8.6000003814697</ele>
        <time>2020-01-05T11:11:33.000Z</time>
      </trkpt>
      <trkpt lat="47.27657" lon="-2.31323">
        <ele>8.6000003814697</ele>
        <time>2020-01-05T11:11:38.000Z</time>
      </trkpt>
      <trkpt lat="47.27653" lon="-2.31332">
        <ele>8.6000003814697</ele>
        <time>2020-01-05T11:11:39.000Z</time>
      </trkpt>
      <trkpt lat="47.27647" lon="-2.3135">
        <ele>8.1999998092651</ele>
        <time>2020-01-05T11:11:41.000Z</time>
      </trkpt>
      <trkpt lat="47.27643" lon="-2.31359">
        <ele>7.8000001907349</ele>
        <time>2020-01-05T11:11:42.000Z</time>
      </trkpt>
      <trkpt lat="47.2764" lon="-2.31369">
        <ele>7.4000000953674</ele>
        <time>2020-01-05T11:11:43.000Z</time>
      </trkpt>
      <trkpt lat="47.27637" lon="-2.3138">
        <ele>6.5999999046326</ele>
        <time>2020-01-05T11:11:44.000Z</time>
      </trkpt>
      <trkpt lat="47.27634" lon="-2.31391">
        <ele>6.5999999046326</ele>
        <time>2020-01-05T11:11:45.000Z</time>
      </trkpt>
      <trkpt lat="47.27618" lon="-2.31455">
        <ele>6.1999998092651</ele>
        <time>2020-01-05T11:11:51.000Z</time>
      </trkpt>
      <trkpt lat="47.27615" lon="-2.31466">
        <ele>5.8000001907349</ele>
        <time>2020-01-05T11:11:52.000Z</time>
      </trkpt>
      <trkpt lat="47.27613" lon="-2.31477">
        <ele>5.4000000953674</ele>
        <time>2020-01-05T11:11:53.000Z</time>
      </trkpt>
      <trkpt lat="47.2761" lon="-2.31487">
        <ele>5</ele>
        <time>2020-01-05T11:11:54.000Z</time>
      </trkpt>
      <trkpt lat="47.27608" lon="-2.31497">
        <ele>4.4000000953674</ele>
        <time>2020-01-05T11:11:55.000Z</time>
      </trkpt>
      <trkpt lat="47.27602" lon="-2.31518">
        <ele>4.4000000953674</ele>
        <time>2020-01-05T11:11:57.000Z</time>
      </trkpt>
      <trkpt lat="47.27586" lon="-2.3157">
        <ele>4.4000000953674</ele>
        <time>2020-01-05T11:12:02.000Z</time>
      </trkpt>
      <trkpt lat="47.27567" lon="-2.31619">
        <ele>4.4000000953674</ele>
        <time>2020-01-05T11:12:07.000Z</time>
      </trkpt>
      <trkpt lat="47.27565" lon="-2.31628">
        <ele>4.4000000953674</ele>
        <time>2020-01-05T11:12:08.000Z</time>
      </trkpt>
      <trkpt lat="47.27558" lon="-2.31655">
        <ele>4.4000000953674</ele>
        <time>2020-01-05T11:12:11.000Z</time>
      </trkpt>
      <trkpt lat="47.27555" lon="-2.31665">
        <ele>4.4000000953674</ele>
        <time>2020-01-05T11:12:12.000Z</time>
      </trkpt>
      <trkpt lat="47.27543" lon="-2.31708">
        <ele>4</ele>
        <time>2020-01-05T11:12:16.000Z</time>
      </trkpt>
      <trkpt lat="47.27541" lon="-2.3172">
        <ele>3.5999999046326</ele>
        <time>2020-01-05T11:12:17.000Z</time>
      </trkpt>
      <trkpt lat="47.27538" lon="-2.31732">
        <ele>3.2000000476837</ele>
        <time>2020-01-05T11:12:18.000Z</time>
      </trkpt>
      <trkpt lat="47.27536" lon="-2.31744">
        <ele>2.7999999523163</ele>
        <time>2020-01-05T11:12:19.000Z</time>
      </trkpt>
      <trkpt lat="47.27534" lon="-2.31756">
        <ele>2.4000000953674</ele>
        <time>2020-01-05T11:12:20.000Z</time>
      </trkpt>
      <trkpt lat="47.27525" lon="-2.31792">
        <ele>2.4000000953674</ele>
        <time>2020-01-05T11:12:23.000Z</time>
      </trkpt>
      <trkpt lat="47.27522" lon="-2.31803">
        <ele>1.7999999523163</ele>
        <time>2020-01-05T11:12:24.000Z</time>
      </trkpt>
      <trkpt lat="47.27519" lon="-2.31814">
        <ele>1.3999999761581</ele>
        <time>2020-01-05T11:12:25.000Z</time>
      </trkpt>
      <trkpt lat="47.27515" lon="-2.31824">
        <ele>1</ele>
        <time>2020-01-05T11:12:26.000Z</time>
      </trkpt>
      <trkpt lat="47.27512" lon="-2.31835">
        <ele>0.60000002384186</ele>
        <time>2020-01-05T11:12:27.000Z</time>
      </trkpt>
      <trkpt lat="47.27508" lon="-2.31846">
        <ele>0.20000000298023</ele>
        <time>2020-01-05T11:12:28.000Z</time>
      </trkpt>
      <trkpt lat="47.27504" lon="-2.31857">
        <ele>0.20000000298023</ele>
        <time>2020-01-05T11:12:29.000Z</time>
      </trkpt>
      <trkpt lat="47.27479" lon="-2.31921">
        <ele>-0.20000000298023</ele>
        <time>2020-01-05T11:12:35.000Z</time>
      </trkpt>
      <trkpt lat="47.27475" lon="-2.31931">
        <ele>-0.60000002384186</ele>
        <time>2020-01-05T11:12:36.000Z</time>
      </trkpt>
      <trkpt lat="47.27471" lon="-2.31941">
        <ele>-1</ele>
        <time>2020-01-05T11:12:37.000Z</time>
      </trkpt>
      <trkpt lat="47.27466" lon="-2.31952">
        <ele>-1.3999999761581</ele>
        <time>2020-01-05T11:12:38.000Z</time>
      </trkpt>
      <trkpt lat="47.27462" lon="-2.31962">
        <ele>-2</ele>
        <time>2020-01-05T11:12:39.000Z</time>
      </trkpt>
      <trkpt lat="47.27449" lon="-2.3199">
        <ele>-2</ele>
        <time>2020-01-05T11:12:42.000Z</time>
      </trkpt>
      <trkpt lat="47.27432" lon="-2.32033">
        <ele>-2</ele>
        <time>2020-01-05T11:12:47.000Z</time>
      </trkpt>
      <trkpt lat="47.27427" lon="-2.32038">
        <ele>-2</ele>
        <time>2020-01-05T11:12:48.000Z</time>
      </trkpt>
      <trkpt lat="47.27411" lon="-2.32042">
        <ele>-2</ele>
        <time>2020-01-05T11:12:51.000Z</time>
      </trkpt>
      <trkpt lat="47.27407" lon="-2.32042">
        <ele>-2</ele>
        <time>2020-01-05T11:12:52.000Z</time>
      </trkpt>
      <trkpt lat="47.27397" lon="-2.32031">
        <ele>-2</ele>
        <time>2020-01-05T11:12:54.000Z</time>
      </trkpt>
      <trkpt lat="47.27387" lon="-2.32022">
        <ele>-2</ele>
        <time>2020-01-05T11:12:56.000Z</time>
      </trkpt>
      <trkpt lat="47.27376" lon="-2.32015">
        <ele>-2</ele>
        <time>2020-01-05T11:12:58.000Z</time>
      </trkpt>
      <trkpt lat="47.27372" lon="-2.32011">
        <ele>-2</ele>
        <time>2020-01-05T11:12:59.000Z</time>
      </trkpt>
      <trkpt lat="47.27351" lon="-2.3199">
        <ele>-2</ele>
        <time>2020-01-05T11:13:04.000Z</time>
      </trkpt>
      <trkpt lat="47.27339" lon="-2.31988">
        <ele>-2</ele>
        <time>2020-01-05T11:13:08.000Z</time>
      </trkpt>
      <trkpt lat="47.27338" lon="-2.31991">
        <ele>-2</ele>
        <time>2020-01-05T11:13:09.000Z</time>
      </trkpt>
      <trkpt lat="47.27339" lon="-2.32">
        <ele>-2</ele>
        <time>2020-01-05T11:13:11.000Z</time>
      </trkpt>
      <trkpt lat="47.27347" lon="-2.32015">
        <ele>-2</ele>
        <time>2020-01-05T11:13:14.000Z</time>
      </trkpt>
      <trkpt lat="47.27355" lon="-2.32025">
        <ele>-2</ele>
        <time>2020-01-05T11:13:16.000Z</time>
      </trkpt>
      <trkpt lat="47.27369" lon="-2.32039">
        <ele>-2</ele>
        <time>2020-01-05T11:13:19.000Z</time>
      </trkpt>
      <trkpt lat="47.27392" lon="-2.32063">
        <ele>-2</ele>
        <time>2020-01-05T11:13:24.000Z</time>
      </trkpt>
      <trkpt lat="47.27396" lon="-2.32069">
        <ele>-2</ele>
        <time>2020-01-05T11:13:25.000Z</time>
      </trkpt>
      <trkpt lat="47.27408" lon="-2.32086">
        <ele>-2</ele>
        <time>2020-01-05T11:13:28.000Z</time>
      </trkpt>
      <trkpt lat="47.27412" lon="-2.32103">
        <ele>-2</ele>
        <time>2020-01-05T11:13:30.000Z</time>
      </trkpt>
      <trkpt lat="47.27413" lon="-2.32121">
        <ele>-2</ele>
        <time>2020-01-05T11:13:32.000Z</time>
      </trkpt>
      <trkpt lat="47.27412" lon="-2.32129">
        <ele>-2</ele>
        <time>2020-01-05T11:13:33.000Z</time>
      </trkpt>
      <trkpt lat="47.27411" lon="-2.32137">
        <ele>-2</ele>
        <time>2020-01-05T11:13:34.000Z</time>
      </trkpt>
      <trkpt lat="47.27409" lon="-2.32144">
        <ele>-2</ele>
        <time>2020-01-05T11:13:35.000Z</time>
      </trkpt>
      <trkpt lat="47.27405" lon="-2.32169">
        <ele>-2</ele>
        <time>2020-01-05T11:13:38.000Z</time>
      </trkpt>
      <trkpt lat="47.27397" lon="-2.32222">
        <ele>-2</ele>
        <time>2020-01-05T11:13:44.000Z</time>
      </trkpt>
      <trkpt lat="47.27391" lon="-2.32254">
        <ele>-2</ele>
        <time>2020-01-05T11:13:48.000Z</time>
      </trkpt>
      <trkpt lat="47.27385" lon="-2.32269">
        <ele>-2</ele>
        <time>2020-01-05T11:13:50.000Z</time>
      </trkpt>
      <trkpt lat="47.27382" lon="-2.32285">
        <ele>-2</ele>
        <time>2020-01-05T11:13:52.000Z</time>
      </trkpt>
      <trkpt lat="47.27379" lon="-2.32299">
        <ele>-2</ele>
        <time>2020-01-05T11:13:54.000Z</time>
      </trkpt>
      <trkpt lat="47.2737" lon="-2.32353">
        <ele>-2</ele>
        <time>2020-01-05T11:14:01.000Z</time>
      </trkpt>
      <trkpt lat="47.2736" lon="-2.32393">
        <ele>-2</ele>
        <time>2020-01-05T11:14:05.000Z</time>
      </trkpt>
      <trkpt lat="47.27337" lon="-2.32456">
        <ele>-2</ele>
        <time>2020-01-05T11:14:12.000Z</time>
      </trkpt>
      <trkpt lat="47.27325" lon="-2.32477">
        <ele>-2</ele>
        <time>2020-01-05T11:14:15.000Z</time>
      </trkpt>
      <trkpt lat="47.27318" lon="-2.3249">
        <ele>-2</ele>
        <time>2020-01-05T11:14:17.000Z</time>
      </trkpt>
      <trkpt lat="47.27301" lon="-2.32518">
        <ele>-2</ele>
        <time>2020-01-05T11:14:22.000Z</time>
      </trkpt>
      <trkpt lat="47.2728" lon="-2.32547">
        <ele>-2</ele>
        <time>2020-01-05T11:14:27.000Z</time>
      </trkpt>
      <trkpt lat="47.27253" lon="-2.32579">
        <ele>-2</ele>
        <time>2020-01-05T11:14:33.000Z</time>
      </trkpt>
      <trkpt lat="47.27225" lon="-2.32609">
        <ele>-2</ele>
        <time>2020-01-05T11:14:39.000Z</time>
      </trkpt>
      <trkpt lat="47.2722" lon="-2.32613">
        <ele>-2</ele>
        <time>2020-01-05T11:14:40.000Z</time>
      </trkpt>
      <trkpt lat="47.272" lon="-2.32631">
        <ele>-2</ele>
        <time>2020-01-05T11:14:44.000Z</time>
      </trkpt>
      <trkpt lat="47.27171" lon="-2.32659">
        <ele>-2</ele>
        <time>2020-01-05T11:14:50.000Z</time>
      </trkpt>
      <trkpt lat="47.27167" lon="-2.32664">
        <ele>-2</ele>
        <time>2020-01-05T11:14:51.000Z</time>
      </trkpt>
      <trkpt lat="47.27147" lon="-2.32681">
        <ele>-2</ele>
        <time>2020-01-05T11:14:55.000Z</time>
      </trkpt>
      <trkpt lat="47.27138" lon="-2.3269">
        <ele>-2</ele>
        <time>2020-01-05T11:14:57.000Z</time>
      </trkpt>
      <trkpt lat="47.27132" lon="-2.327">
        <ele>-2</ele>
        <time>2020-01-05T11:14:59.000Z</time>
      </trkpt>
      <trkpt lat="47.2713" lon="-2.32704">
        <ele>-2</ele>
        <time>2020-01-05T11:15:00.000Z</time>
      </trkpt>
      <trkpt lat="47.27122" lon="-2.32712">
        <ele>-2</ele>
        <time>2020-01-05T11:15:03.000Z</time>
      </trkpt>
      <trkpt lat="47.27117" lon="-2.32715">
        <ele>-2</ele>
        <time>2020-01-05T11:15:04.000Z</time>
      </trkpt>
      <trkpt lat="47.27095" lon="-2.32736">
        <ele>-2</ele>
        <time>2020-01-05T11:15:09.000Z</time>
      </trkpt>
      <trkpt lat="47.2709" lon="-2.32741">
        <ele>-2</ele>
        <time>2020-01-05T11:15:10.000Z</time>
      </trkpt>
      <trkpt lat="47.27066" lon="-2.32764">
        <ele>-2</ele>
        <time>2020-01-05T11:15:15.000Z</time>
      </trkpt>
      <trkpt lat="47.27021" lon="-2.32807">
        <ele>-2</ele>
        <time>2020-01-05T11:15:24.000Z</time>
      </trkpt>
      <trkpt lat="47.2699" lon="-2.32835">
        <ele>-2</ele>
        <time>2020-01-05T11:15:30.000Z</time>
      </trkpt>
      <trkpt lat="47.26961" lon="-2.32862">
        <ele>-2</ele>
        <time>2020-01-05T11:15:36.000Z</time>
      </trkpt>
      <trkpt lat="47.26956" lon="-2.32866">
        <ele>-2</ele>
        <time>2020-01-05T11:15:37.000Z</time>
      </trkpt>
      <trkpt lat="47.26937" lon="-2.32884">
        <ele>-2</ele>
        <time>2020-01-05T11:15:41.000Z</time>
      </trkpt>
      <trkpt lat="47.26923" lon="-2.32897">
        <ele>-2</ele>
        <time>2020-01-05T11:15:44.000Z</time>
      </trkpt>
      <trkpt lat="47.26914" lon="-2.32905">
        <ele>-2</ele>
        <time>2020-01-05T11:15:46.000Z</time>
      </trkpt>
      <trkpt lat="47.26895" lon="-2.32924">
        <ele>-2</ele>
        <time>2020-01-05T11:15:50.000Z</time>
      </trkpt>
      <trkpt lat="47.26866" lon="-2.3295">
        <ele>-2</ele>
        <time>2020-01-05T11:15:56.000Z</time>
      </trkpt>
      <trkpt lat="47.2683" lon="-2.32982">
        <ele>-2</ele>
        <time>2020-01-05T11:16:03.000Z</time>
      </trkpt>
      <trkpt lat="47.2682" lon="-2.32993">
        <ele>-2</ele>
        <time>2020-01-05T11:16:05.000Z</time>
      </trkpt>
      <trkpt lat="47.26805" lon="-2.33007">
        <ele>-2</ele>
        <time>2020-01-05T11:16:08.000Z</time>
      </trkpt>
      <trkpt lat="47.26795" lon="-2.33017">
        <ele>-2</ele>
        <time>2020-01-05T11:16:10.000Z</time>
      </trkpt>
      <trkpt lat="47.26791" lon="-2.33022">
        <ele>-2.4000000953674</ele>
        <time>2020-01-05T11:16:11.000Z</time>
      </trkpt>
      <trkpt lat="47.26786" lon="-2.33027">
        <ele>-2.7999999523163</ele>
        <time>2020-01-05T11:16:12.000Z</time>
      </trkpt>
      <trkpt lat="47.26781" lon="-2.33032">
        <ele>-3.2000000476837</ele>
        <time>2020-01-05T11:16:13.000Z</time>
      </trkpt>
      <trkpt lat="47.26776" lon="-2.33036">
        <ele>-3.5999999046326</ele>
        <time>2020-01-05T11:16:14.000Z</time>
      </trkpt>
      <trkpt lat="47.26772" lon="-2.3304">
        <ele>-4</ele>
        <time>2020-01-05T11:16:15.000Z</time>
      </trkpt>
      <trkpt lat="47.26751" lon="-2.3306">
        <ele>-4</ele>
        <time>2020-01-05T11:16:20.000Z</time>
      </trkpt>
      <trkpt lat="47.26743" lon="-2.33066">
        <ele>-4</ele>
        <time>2020-01-05T11:16:23.000Z</time>
      </trkpt>
      <trkpt lat="47.26741" lon="-2.33066">
        <ele>-4</ele>
        <time>2020-01-05T11:16:24.000Z</time>
      </trkpt>
      <trkpt lat="47.26728" lon="-2.33061">
        <ele>-4.4000000953674</ele>
        <time>2020-01-05T11:16:28.000Z</time>
      </trkpt>
      <trkpt lat="47.26723" lon="-2.33066">
        <ele>-4.8000001907349</ele>
        <time>2020-01-05T11:16:29.000Z</time>
      </trkpt>
      <trkpt lat="47.2672" lon="-2.3307">
        <ele>-5.1999998092651</ele>
        <time>2020-01-05T11:16:30.000Z</time>
      </trkpt>
      <trkpt lat="47.26716" lon="-2.33076">
        <ele>-5.8000001907349</ele>
        <time>2020-01-05T11:16:31.000Z</time>
      </trkpt>
      <trkpt lat="47.26713" lon="-2.33082">
        <ele>-6.1999998092651</ele>
        <time>2020-01-05T11:16:32.000Z</time>
      </trkpt>
      <trkpt lat="47.26708" lon="-2.33087">
        <ele>-6.1999998092651</ele>
        <time>2020-01-05T11:16:33.000Z</time>
      </trkpt>
      <trkpt lat="47.26691" lon="-2.33108">
        <ele>-6.1999998092651</ele>
        <time>2020-01-05T11:16:37.000Z</time>
      </trkpt>
      <trkpt lat="47.26662" lon="-2.33131">
        <ele>-6.1999998092651</ele>
        <time>2020-01-05T11:16:43.000Z</time>
      </trkpt>
      <trkpt lat="47.26632" lon="-2.33151">
        <ele>-6.1999998092651</ele>
        <time>2020-01-05T11:16:49.000Z</time>
      </trkpt>
      <trkpt lat="47.26613" lon="-2.33147">
        <ele>-6.1999998092651</ele>
        <time>2020-01-05T11:16:53.000Z</time>
      </trkpt>
      <trkpt lat="47.26594" lon="-2.33146">
        <ele>-6.1999998092651</ele>
        <time>2020-01-05T11:16:57.000Z</time>
      </trkpt>
      <trkpt lat="47.26587" lon="-2.33167">
        <ele>-6.1999998092651</ele>
        <time>2020-01-05T11:17:00.000Z</time>
      </trkpt>
      <trkpt lat="47.26579" lon="-2.33187">
        <ele>-6.1999998092651</ele>
        <time>2020-01-05T11:17:03.000Z</time>
      </trkpt>
      <trkpt lat="47.26571" lon="-2.33196">
        <ele>-6.1999998092651</ele>
        <time>2020-01-05T11:17:05.000Z</time>
      </trkpt>
      <trkpt lat="47.26559" lon="-2.33205">
        <ele>-6.1999998092651</ele>
        <time>2020-01-05T11:17:07.000Z</time>
      </trkpt>
      <trkpt lat="47.26554" lon="-2.33208">
        <ele>-6.1999998092651</ele>
        <time>2020-01-05T11:17:08.000Z</time>
      </trkpt>
      <trkpt lat="47.26548" lon="-2.3321">
        <ele>-6.1999998092651</ele>
        <time>2020-01-05T11:17:09.000Z</time>
      </trkpt>
      <trkpt lat="47.26531" lon="-2.33217">
        <ele>-6.1999998092651</ele>
        <time>2020-01-05T11:17:12.000Z</time>
      </trkpt>
      <trkpt lat="47.26517" lon="-2.33229">
        <ele>-6.1999998092651</ele>
        <time>2020-01-05T11:17:15.000Z</time>
      </trkpt>
      <trkpt lat="47.26501" lon="-2.3325">
        <ele>-6.1999998092651</ele>
        <time>2020-01-05T11:17:19.000Z</time>
      </trkpt>
      <trkpt lat="47.26496" lon="-2.33266">
        <ele>-6.1999998092651</ele>
        <time>2020-01-05T11:17:21.000Z</time>
      </trkpt>
      <trkpt lat="47.26491" lon="-2.33279">
        <ele>-6.1999998092651</ele>
        <time>2020-01-05T11:17:23.000Z</time>
      </trkpt>
      <trkpt lat="47.26483" lon="-2.33285">
        <ele>-6.1999998092651</ele>
        <time>2020-01-05T11:17:25.000Z</time>
      </trkpt>
      <trkpt lat="47.26476" lon="-2.3329">
        <ele>-6.1999998092651</ele>
        <time>2020-01-05T11:17:29.000Z</time>
      </trkpt>
      <trkpt lat="47.26478" lon="-2.33284">
        <ele>-6.1999998092651</ele>
        <time>2020-01-05T11:17:33.000Z</time>
      </trkpt>
      <trkpt lat="47.26482" lon="-2.33291">
        <ele>-6.1999998092651</ele>
        <time>2020-01-05T11:17:37.000Z</time>
      </trkpt>
      <trkpt lat="47.26482" lon="-2.33294">
        <ele>-6.1999998092651</ele>
        <time>2020-01-05T11:17:39.000Z</time>
      </trkpt>
      <trkpt lat="47.26482" lon="-2.33294">
        <ele>-6.1999998092651</ele>
        <time>2020-01-05T11:17:41.000Z</time>
      </trkpt>
      <trkpt lat="47.2648" lon="-2.33296">
        <ele>-6.1999998092651</ele>
        <time>2020-01-05T11:17:46.000Z</time>
      </trkpt>
      <trkpt lat="47.26468" lon="-2.33309">
        <ele>-6.1999998092651</ele>
        <time>2020-01-05T11:17:50.000Z</time>
      </trkpt>
      <trkpt lat="47.2646" lon="-2.33316">
        <ele>-6.1999998092651</ele>
        <time>2020-01-05T11:17:52.000Z</time>
      </trkpt>
      <trkpt lat="47.26446" lon="-2.33328">
        <ele>-6.1999998092651</ele>
        <time>2020-01-05T11:17:55.000Z</time>
      </trkpt>
      <trkpt lat="47.26409" lon="-2.33354">
        <ele>-6.1999998092651</ele>
        <time>2020-01-05T11:18:02.000Z</time>
      </trkpt>
      <trkpt lat="47.26397" lon="-2.33363">
        <ele>-6.1999998092651</ele>
        <time>2020-01-05T11:18:04.000Z</time>
      </trkpt>
      <trkpt lat="47.26378" lon="-2.33373">
        <ele>-6.1999998092651</ele>
        <time>2020-01-05T11:18:07.000Z</time>
      </trkpt>
      <trkpt lat="47.26349" lon="-2.3339">
        <ele>-6.1999998092651</ele>
        <time>2020-01-05T11:18:12.000Z</time>
      </trkpt>
      <trkpt lat="47.26337" lon="-2.33396">
        <ele>-6.1999998092651</ele>
        <time>2020-01-05T11:18:14.000Z</time>
      </trkpt>
      <trkpt lat="47.26319" lon="-2.33407">
        <ele>-6.1999998092651</ele>
        <time>2020-01-05T11:18:17.000Z</time>
      </trkpt>
      <trkpt lat="47.26315" lon="-2.33413">
        <ele>-6.1999998092651</ele>
        <time>2020-01-05T11:18:18.000Z</time>
      </trkpt>
      <trkpt lat="47.26306" lon="-2.3342">
        <ele>-6.1999998092651</ele>
        <time>2020-01-05T11:18:20.000Z</time>
      </trkpt>
      <trkpt lat="47.26286" lon="-2.3342">
        <ele>-6.1999998092651</ele>
        <time>2020-01-05T11:18:23.000Z</time>
      </trkpt>
      <trkpt lat="47.26256" lon="-2.33428">
        <ele>-6.1999998092651</ele>
        <time>2020-01-05T11:18:28.000Z</time>
      </trkpt>
      <trkpt lat="47.26215" lon="-2.33439">
        <ele>-6.1999998092651</ele>
        <time>2020-01-05T11:18:35.000Z</time>
      </trkpt>
      <trkpt lat="47.26187" lon="-2.33444">
        <ele>-6.1999998092651</ele>
        <time>2020-01-05T11:18:40.000Z</time>
      </trkpt>
      <trkpt lat="47.26182" lon="-2.33444">
        <ele>-6.1999998092651</ele>
        <time>2020-01-05T11:18:41.000Z</time>
      </trkpt>
      <trkpt lat="47.26169" lon="-2.33441">
        <ele>-6.1999998092651</ele>
        <time>2020-01-05T11:18:44.000Z</time>
      </trkpt>
      <trkpt lat="47.26167" lon="-2.3344">
        <ele>-6.1999998092651</ele>
        <time>2020-01-05T11:18:45.000Z</time>
      </trkpt>
      <trkpt lat="47.2615" lon="-2.33433">
        <ele>-6.1999998092651</ele>
        <time>2020-01-05T11:18:50.000Z</time>
      </trkpt>
      <trkpt lat="47.26143" lon="-2.33434">
        <ele>-6.1999998092651</ele>
        <time>2020-01-05T11:18:52.000Z</time>
      </trkpt>
      <trkpt lat="47.26141" lon="-2.33435">
        <ele>-6.1999998092651</ele>
        <time>2020-01-05T11:18:53.000Z</time>
      </trkpt>
      <trkpt lat="47.26138" lon="-2.33442">
        <ele>-6.1999998092651</ele>
        <time>2020-01-05T11:18:56.000Z</time>
      </trkpt>
      <trkpt lat="47.26137" lon="-2.33446">
        <ele>-6.1999998092651</ele>
        <time>2020-01-05T11:18:57.000Z</time>
      </trkpt>
      <trkpt lat="47.26123" lon="-2.33454">
        <ele>-6.1999998092651</ele>
        <time>2020-01-05T11:19:01.000Z</time>
      </trkpt>
      <trkpt lat="47.26106" lon="-2.33466">
        <ele>-6.1999998092651</ele>
        <time>2020-01-05T11:19:05.000Z</time>
      </trkpt>
      <trkpt lat="47.26096" lon="-2.33473">
        <ele>-6.1999998092651</ele>
        <time>2020-01-05T11:19:07.000Z</time>
      </trkpt>
      <trkpt lat="47.26084" lon="-2.33472">
        <ele>-6.1999998092651</ele>
        <time>2020-01-05T11:19:09.000Z</time>
      </trkpt>
      <trkpt lat="47.26078" lon="-2.33469">
        <ele>-6.1999998092651</ele>
        <time>2020-01-05T11:19:10.000Z</time>
      </trkpt>
      <trkpt lat="47.26064" lon="-2.33457">
        <ele>-6.1999998092651</ele>
        <time>2020-01-05T11:19:13.000Z</time>
      </trkpt>
      <trkpt lat="47.26049" lon="-2.33462">
        <ele>-6.1999998092651</ele>
        <time>2020-01-05T11:19:16.000Z</time>
      </trkpt>
      <trkpt lat="47.26039" lon="-2.33481">
        <ele>-6.1999998092651</ele>
        <time>2020-01-05T11:19:19.000Z</time>
      </trkpt>
      <trkpt lat="47.26017" lon="-2.33493">
        <ele>-6.1999998092651</ele>
        <time>2020-01-05T11:19:23.000Z</time>
      </trkpt>
      <trkpt lat="47.26011" lon="-2.33494">
        <ele>-6.1999998092651</ele>
        <time>2020-01-05T11:19:24.000Z</time>
      </trkpt>
      <trkpt lat="47.26" lon="-2.33497">
        <ele>-6.1999998092651</ele>
        <time>2020-01-05T11:19:26.000Z</time>
      </trkpt>
      <trkpt lat="47.25993" lon="-2.33497">
        <ele>-6.1999998092651</ele>
        <time>2020-01-05T11:19:28.000Z</time>
      </trkpt>
      <trkpt lat="47.25991" lon="-2.33495">
        <ele>-6.1999998092651</ele>
        <time>2020-01-05T11:19:31.000Z</time>
      </trkpt>
      <trkpt lat="47.25989" lon="-2.33497">
        <ele>-6.1999998092651</ele>
        <time>2020-01-05T11:19:32.000Z</time>
      </trkpt>
      <trkpt lat="47.25982" lon="-2.33507">
        <ele>-6.1999998092651</ele>
        <time>2020-01-05T11:19:35.000Z</time>
      </trkpt>
      <trkpt lat="47.25975" lon="-2.33513">
        <ele>-6.1999998092651</ele>
        <time>2020-01-05T11:19:37.000Z</time>
      </trkpt>
      <trkpt lat="47.25966" lon="-2.33512">
        <ele>-6.1999998092651</ele>
        <time>2020-01-05T11:19:39.000Z</time>
      </trkpt>
      <trkpt lat="47.25955" lon="-2.33514">
        <ele>-6.1999998092651</ele>
        <time>2020-01-05T11:19:41.000Z</time>
      </trkpt>
      <trkpt lat="47.25947" lon="-2.33524">
        <ele>-6.1999998092651</ele>
        <time>2020-01-05T11:19:43.000Z</time>
      </trkpt>
      <trkpt lat="47.25933" lon="-2.33535">
        <ele>-6.1999998092651</ele>
        <time>2020-01-05T11:19:46.000Z</time>
      </trkpt>
      <trkpt lat="47.25929" lon="-2.33539">
        <ele>-6.1999998092651</ele>
        <time>2020-01-05T11:19:47.000Z</time>
      </trkpt>
      <trkpt lat="47.25925" lon="-2.33542">
        <ele>-6.1999998092651</ele>
        <time>2020-01-05T11:19:48.000Z</time>
      </trkpt>
      <trkpt lat="47.25907" lon="-2.33557">
        <ele>-5.8000001907349</ele>
        <time>2020-01-05T11:19:52.000Z</time>
      </trkpt>
      <trkpt lat="47.25902" lon="-2.33561">
        <ele>-5.4000000953674</ele>
        <time>2020-01-05T11:19:53.000Z</time>
      </trkpt>
      <trkpt lat="47.25897" lon="-2.33565">
        <ele>-5</ele>
        <time>2020-01-05T11:19:54.000Z</time>
      </trkpt>
      <trkpt lat="47.25893" lon="-2.33569">
        <ele>-4.5999999046326</ele>
        <time>2020-01-05T11:19:55.000Z</time>
      </trkpt>
      <trkpt lat="47.25889" lon="-2.33573">
        <ele>-4.1999998092651</ele>
        <time>2020-01-05T11:19:56.000Z</time>
      </trkpt>
      <trkpt lat="47.2588" lon="-2.33579">
        <ele>-4.1999998092651</ele>
        <time>2020-01-05T11:19:58.000Z</time>
      </trkpt>
      <trkpt lat="47.25874" lon="-2.3358">
        <ele>-4.1999998092651</ele>
        <time>2020-01-05T11:19:59.000Z</time>
      </trkpt>
      <trkpt lat="47.25863" lon="-2.33581">
        <ele>-4.1999998092651</ele>
        <time>2020-01-05T11:20:01.000Z</time>
      </trkpt>
      <trkpt lat="47.2584" lon="-2.33582">
        <ele>-4.1999998092651</ele>
        <time>2020-01-05T11:20:05.000Z</time>
      </trkpt>
      <trkpt lat="47.25823" lon="-2.33582">
        <ele>-3.7999999523163</ele>
        <time>2020-01-05T11:20:08.000Z</time>
      </trkpt>
      <trkpt lat="47.25818" lon="-2.33582">
        <ele>-3.4000000953674</ele>
        <time>2020-01-05T11:20:09.000Z</time>
      </trkpt>
      <trkpt lat="47.25812" lon="-2.33582">
        <ele>-3</ele>
        <time>2020-01-05T11:20:10.000Z</time>
      </trkpt>
      <trkpt lat="47.25806" lon="-2.33582">
        <ele>-2.5999999046326</ele>
        <time>2020-01-05T11:20:11.000Z</time>
      </trkpt>
      <trkpt lat="47.25801" lon="-2.33582">
        <ele>-2.2000000476837</ele>
        <time>2020-01-05T11:20:12.000Z</time>
      </trkpt>
      <trkpt lat="47.25795" lon="-2.33583">
        <ele>-2.2000000476837</ele>
        <time>2020-01-05T11:20:13.000Z</time>
      </trkpt>
      <trkpt lat="47.25755" lon="-2.33585">
        <ele>-2.2000000476837</ele>
        <time>2020-01-05T11:20:20.000Z</time>
      </trkpt>
      <trkpt lat="47.2575" lon="-2.33588">
        <ele>-2.2000000476837</ele>
        <time>2020-01-05T11:20:21.000Z</time>
      </trkpt>
      <trkpt lat="47.25739" lon="-2.33588">
        <ele>-2.2000000476837</ele>
        <time>2020-01-05T11:20:23.000Z</time>
      </trkpt>
      <trkpt lat="47.25728" lon="-2.33585">
        <ele>-2.2000000476837</ele>
        <time>2020-01-05T11:20:25.000Z</time>
      </trkpt>
      <trkpt lat="47.25706" lon="-2.33585">
        <ele>-2.2000000476837</ele>
        <time>2020-01-05T11:20:29.000Z</time>
      </trkpt>
      <trkpt lat="47.25683" lon="-2.33586">
        <ele>-2.2000000476837</ele>
        <time>2020-01-05T11:20:33.000Z</time>
      </trkpt>
      <trkpt lat="47.25661" lon="-2.3358">
        <ele>-2.2000000476837</ele>
        <time>2020-01-05T11:20:37.000Z</time>
      </trkpt>
      <trkpt lat="47.25656" lon="-2.33578">
        <ele>-2.2000000476837</ele>
        <time>2020-01-05T11:20:38.000Z</time>
      </trkpt>
      <trkpt lat="47.25624" lon="-2.33559">
        <ele>-2.2000000476837</ele>
        <time>2020-01-05T11:20:44.000Z</time>
      </trkpt>
      <trkpt lat="47.25592" lon="-2.33527">
        <ele>-2.2000000476837</ele>
        <time>2020-01-05T11:20:51.000Z</time>
      </trkpt>
      <trkpt lat="47.25584" lon="-2.33515">
        <ele>-2.2000000476837</ele>
        <time>2020-01-05T11:20:53.000Z</time>
      </trkpt>
      <trkpt lat="47.25571" lon="-2.33495">
        <ele>-2.2000000476837</ele>
        <time>2020-01-05T11:20:57.000Z</time>
      </trkpt>
      <trkpt lat="47.2556" lon="-2.33476">
        <ele>-2.2000000476837</ele>
        <time>2020-01-05T11:21:01.000Z</time>
      </trkpt>
      <trkpt lat="47.25551" lon="-2.33451">
        <ele>-2.2000000476837</ele>
        <time>2020-01-05T11:21:08.000Z</time>
      </trkpt>
      <trkpt lat="47.25553" lon="-2.33447">
        <ele>-2.2000000476837</ele>
        <time>2020-01-05T11:21:10.000Z</time>
      </trkpt>
      <trkpt lat="47.25559" lon="-2.33455">
        <ele>-2.2000000476837</ele>
        <time>2020-01-05T11:21:12.000Z</time>
      </trkpt>
      <trkpt lat="47.25566" lon="-2.33474">
        <ele>-2.2000000476837</ele>
        <time>2020-01-05T11:21:17.000Z</time>
      </trkpt>
      <trkpt lat="47.25578" lon="-2.33492">
        <ele>-2.2000000476837</ele>
        <time>2020-01-05T11:21:23.000Z</time>
      </trkpt>
      <trkpt lat="47.25591" lon="-2.33513">
        <ele>-2.2000000476837</ele>
        <time>2020-01-05T11:21:29.000Z</time>
      </trkpt>
      <trkpt lat="47.25605" lon="-2.33528">
        <ele>-2.2000000476837</ele>
        <time>2020-01-05T11:21:35.000Z</time>
      </trkpt>
      <trkpt lat="47.25614" lon="-2.33538">
        <ele>-2.2000000476837</ele>
        <time>2020-01-05T11:21:41.000Z</time>
      </trkpt>
      <trkpt lat="47.25615" lon="-2.3354">
        <ele>-2.2000000476837</ele>
        <time>2020-01-05T11:21:42.000Z</time>
      </trkpt>
      <trkpt lat="47.25615" lon="-2.33548">
        <ele>-2.2000000476837</ele>
        <time>2020-01-05T11:21:46.000Z</time>
      </trkpt>
      <trkpt lat="47.25615" lon="-2.33549">
        <ele>-2.2000000476837</ele>
        <time>2020-01-05T11:21:47.000Z</time>
      </trkpt>
      <trkpt lat="47.25612" lon="-2.33552">
        <ele>-2.2000000476837</ele>
        <time>2020-01-05T11:21:51.000Z</time>
      </trkpt>
      <trkpt lat="47.25607" lon="-2.33549">
        <ele>-2.2000000476837</ele>
        <time>2020-01-05T11:22:00.000Z</time>
      </trkpt>
      <trkpt lat="47.25601" lon="-2.33543">
        <ele>-2.2000000476837</ele>
        <time>2020-01-05T11:22:02.000Z</time>
      </trkpt>
      <trkpt lat="47.25594" lon="-2.33534">
        <ele>-2.2000000476837</ele>
        <time>2020-01-05T11:22:04.000Z</time>
      </trkpt>
      <trkpt lat="47.25589" lon="-2.33521">
        <ele>-2.2000000476837</ele>
        <time>2020-01-05T11:22:06.000Z</time>
      </trkpt>
      <trkpt lat="47.25582" lon="-2.33509">
        <ele>-2.2000000476837</ele>
        <time>2020-01-05T11:22:08.000Z</time>
      </trkpt>
      <trkpt lat="47.25569" lon="-2.3349">
        <ele>-2.2000000476837</ele>
        <time>2020-01-05T11:22:11.000Z</time>
      </trkpt>
      <trkpt lat="47.25549" lon="-2.33445">
        <ele>-2.2000000476837</ele>
        <time>2020-01-05T11:22:17.000Z</time>
      </trkpt>
      <trkpt lat="47.25539" lon="-2.33414">
        <ele>-1.6000000238419</ele>
        <time>2020-01-05T11:22:21.000Z</time>
      </trkpt>
      <trkpt lat="47.25537" lon="-2.33405">
        <ele>-1.2000000476837</ele>
        <time>2020-01-05T11:22:22.000Z</time>
      </trkpt>
      <trkpt lat="47.25535" lon="-2.33396">
        <ele>-0.80000001192093</ele>
        <time>2020-01-05T11:22:23.000Z</time>
      </trkpt>
      <trkpt lat="47.25533" lon="-2.33387">
        <ele>-0.40000000596046</ele>
        <time>2020-01-05T11:22:24.000Z</time>
      </trkpt>
      <trkpt lat="47.25532" lon="-2.33378">
        <ele>8</ele>
        <time>2020-01-05T11:22:25.000Z</time>
      </trkpt>
      <trkpt lat="47.25525" lon="-2.33333">
        <ele>7.9</ele>
        <time>2020-01-05T11:22:30.000Z</time>
      </trkpt>
      <trkpt lat="47.25516" lon="-2.33262">
        <ele>7.6</ele>
        <time>2020-01-05T11:22:38.000Z</time>
      </trkpt>
      <trkpt lat="47.25511" lon="-2.33227">
        <ele>7.9</ele>
        <time>2020-01-05T11:22:42.000Z</time>
      </trkpt>
      <trkpt lat="47.25507" lon="-2.33201">
        <ele>8</ele>
        <time>2020-01-05T11:22:45.000Z</time>
      </trkpt>
      <trkpt lat="47.25498" lon="-2.33139">
        <ele>7.9</ele>
        <time>2020-01-05T11:22:52.000Z</time>
      </trkpt>
      <trkpt lat="47.25491" lon="-2.33094">
        <ele>7.3</ele>
        <time>2020-01-05T11:22:58.000Z</time>
      </trkpt>
      <trkpt lat="47.25484" lon="-2.33092">
        <ele>7.1</ele>
        <time>2020-01-05T11:23:01.000Z</time>
      </trkpt>
      <trkpt lat="47.25479" lon="-2.33095">
        <ele>-0.40000000596046</ele>
        <time>2020-01-05T11:23:02.000Z</time>
      </trkpt>
      <trkpt lat="47.25473" lon="-2.33098">
        <ele>-0.80000001192093</ele>
        <time>2020-01-05T11:23:03.000Z</time>
      </trkpt>
      <trkpt lat="47.25468" lon="-2.33102">
        <ele>-1.2000000476837</ele>
        <time>2020-01-05T11:23:04.000Z</time>
      </trkpt>
      <trkpt lat="47.25462" lon="-2.33104">
        <ele>-1.6000000238419</ele>
        <time>2020-01-05T11:23:05.000Z</time>
      </trkpt>
      <trkpt lat="47.25456" lon="-2.33107">
        <ele>-2.2000000476837</ele>
        <time>2020-01-05T11:23:06.000Z</time>
      </trkpt>
      <trkpt lat="47.25434" lon="-2.33117">
        <ele>-2.2000000476837</ele>
        <time>2020-01-05T11:23:10.000Z</time>
      </trkpt>
      <trkpt lat="47.25414" lon="-2.33126">
        <ele>-2.2000000476837</ele>
        <time>2020-01-05T11:23:14.000Z</time>
      </trkpt>
      <trkpt lat="47.25406" lon="-2.33131">
        <ele>-2.2000000476837</ele>
        <time>2020-01-05T11:23:16.000Z</time>
      </trkpt>
      <trkpt lat="47.25402" lon="-2.33134">
        <ele>-2.2000000476837</ele>
        <time>2020-01-05T11:23:17.000Z</time>
      </trkpt>
      <trkpt lat="47.25386" lon="-2.33139">
        <ele>-2.2000000476837</ele>
        <time>2020-01-05T11:23:21.000Z</time>
      </trkpt>
      <trkpt lat="47.25379" lon="-2.33128">
        <ele>-2.2000000476837</ele>
        <time>2020-01-05T11:23:24.000Z</time>
      </trkpt>
      <trkpt lat="47.25376" lon="-2.33122">
        <ele>-2.2000000476837</ele>
        <time>2020-01-05T11:23:27.000Z</time>
      </trkpt>
      <trkpt lat="47.25376" lon="-2.33122">
        <ele>-2.2000000476837</ele>
        <time>2020-01-05T11:23:28.000Z</time>
      </trkpt>
      <trkpt lat="47.25371" lon="-2.33106">
        <ele>-2.2000000476837</ele>
        <time>2020-01-05T11:38:41.000Z</time>
      </trkpt>
      <trkpt lat="47.2537" lon="-2.33101">
        <ele>-2.2000000476837</ele>
        <time>2020-01-05T11:38:43.000Z</time>
      </trkpt>
      <trkpt lat="47.25363" lon="-2.3308">
        <ele>-2.2000000476837</ele>
        <time>2020-01-05T11:38:48.000Z</time>
      </trkpt>
      <trkpt lat="47.25355" lon="-2.33062">
        <ele>-1.6000000238419</ele>
        <time>2020-01-05T11:38:52.000Z</time>
      </trkpt>
      <trkpt lat="47.25353" lon="-2.33057">
        <ele>-1.2000000476837</ele>
        <time>2020-01-05T11:38:53.000Z</time>
      </trkpt>
      <trkpt lat="47.25351" lon="-2.33051">
        <ele>-0.80000001192093</ele>
        <time>2020-01-05T11:38:54.000Z</time>
      </trkpt>
      <trkpt lat="47.2535" lon="-2.33046">
        <ele>-0.40000000596046</ele>
        <time>2020-01-05T11:38:55.000Z</time>
      </trkpt>
      <trkpt lat="47.25348" lon="-2.33041">
        <ele>8</ele>
        <time>2020-01-05T11:38:56.000Z</time>
      </trkpt>
      <trkpt lat="47.25338" lon="-2.33016">
        <ele>8.8</ele>
        <time>2020-01-05T11:39:01.000Z</time>
      </trkpt>
      <trkpt lat="47.25323" lon="-2.32977">
        <ele>8.9</ele>
        <time>2020-01-05T11:39:08.000Z</time>
      </trkpt>
      <trkpt lat="47.2531" lon="-2.32943">
        <ele>9</ele>
        <time>2020-01-05T11:39:14.000Z</time>
      </trkpt>
      <trkpt lat="47.25309" lon="-2.32936">
        <ele>9</ele>
        <time>2020-01-05T11:39:15.000Z</time>
      </trkpt>
      <trkpt lat="47.25314" lon="-2.32918">
        <ele>9</ele>
        <time>2020-01-05T11:39:18.000Z</time>
      </trkpt>
      <trkpt lat="47.25326" lon="-2.32905">
        <ele>8.9</ele>
        <time>2020-01-05T11:39:21.000Z</time>
      </trkpt>
      <trkpt lat="47.2533" lon="-2.32901">
        <ele>8.9</ele>
        <time>2020-01-05T11:39:22.000Z</time>
      </trkpt>
      <trkpt lat="47.25364" lon="-2.32866">
        <ele>9.7</ele>
        <time>2020-01-05T11:39:30.000Z</time>
      </trkpt>
      <trkpt lat="47.25389" lon="-2.32839">
        <ele>9.8</ele>
        <time>2020-01-05T11:39:36.000Z</time>
      </trkpt>
      <trkpt lat="47.25393" lon="-2.32834">
        <ele>0.60000002384186</ele>
        <time>2020-01-05T11:39:37.000Z</time>
      </trkpt>
      <trkpt lat="47.25397" lon="-2.32829">
        <ele>1</ele>
        <time>2020-01-05T11:39:38.000Z</time>
      </trkpt>
      <trkpt lat="47.25401" lon="-2.32824">
        <ele>1.3999999761581</ele>
        <time>2020-01-05T11:39:39.000Z</time>
      </trkpt>
      <trkpt lat="47.25405" lon="-2.32818">
        <ele>1.7999999523163</ele>
        <time>2020-01-05T11:39:40.000Z</time>
      </trkpt>
      <trkpt lat="47.25409" lon="-2.32813">
        <ele>2.2000000476837</ele>
        <time>2020-01-05T11:39:41.000Z</time>
      </trkpt>
      <trkpt lat="47.25418" lon="-2.32799">
        <ele>2.2000000476837</ele>
        <time>2020-01-05T11:39:44.000Z</time>
      </trkpt>
      <trkpt lat="47.25425" lon="-2.32784">
        <ele>2.2000000476837</ele>
        <time>2020-01-05T11:39:47.000Z</time>
      </trkpt>
      <trkpt lat="47.25427" lon="-2.32778">
        <ele>2.2000000476837</ele>
        <time>2020-01-05T11:39:48.000Z</time>
      </trkpt>
      <trkpt lat="47.25435" lon="-2.32766">
        <ele>2.2000000476837</ele>
        <time>2020-01-05T11:39:51.000Z</time>
      </trkpt>
      <trkpt lat="47.25438" lon="-2.32761">
        <ele>2.2000000476837</ele>
        <time>2020-01-05T11:39:52.000Z</time>
      </trkpt>
      <trkpt lat="47.25457" lon="-2.32732">
        <ele>2.2000000476837</ele>
        <time>2020-01-05T11:39:58.000Z</time>
      </trkpt>
      <trkpt lat="47.25463" lon="-2.32723">
        <ele>2.2000000476837</ele>
        <time>2020-01-05T11:40:00.000Z</time>
      </trkpt>
      <trkpt lat="47.25466" lon="-2.32718">
        <ele>2.2000000476837</ele>
        <time>2020-01-05T11:40:01.000Z</time>
      </trkpt>
      <trkpt lat="47.25475" lon="-2.32705">
        <ele>2.2000000476837</ele>
        <time>2020-01-05T11:40:04.000Z</time>
      </trkpt>
      <trkpt lat="47.25479" lon="-2.327">
        <ele>2.2000000476837</ele>
        <time>2020-01-05T11:40:05.000Z</time>
      </trkpt>
      <trkpt lat="47.25482" lon="-2.32695">
        <ele>2.2000000476837</ele>
        <time>2020-01-05T11:40:06.000Z</time>
      </trkpt>
      <trkpt lat="47.25486" lon="-2.32677">
        <ele>2.2000000476837</ele>
        <time>2020-01-05T11:40:09.000Z</time>
      </trkpt>
      <trkpt lat="47.25485" lon="-2.32657">
        <ele>2.5999999046326</ele>
        <time>2020-01-05T11:40:12.000Z</time>
      </trkpt>
      <trkpt lat="47.25485" lon="-2.32651">
        <ele>3</ele>
        <time>2020-01-05T11:40:13.000Z</time>
      </trkpt>
      <trkpt lat="47.25484" lon="-2.32645">
        <ele>3.4000000953674</ele>
        <time>2020-01-05T11:40:14.000Z</time>
      </trkpt>
      <trkpt lat="47.25483" lon="-2.32639">
        <ele>3.7999999523163</ele>
        <time>2020-01-05T11:40:15.000Z</time>
      </trkpt>
      <trkpt lat="47.25481" lon="-2.32633">
        <ele>4.1999998092651</ele>
        <time>2020-01-05T11:40:16.000Z</time>
      </trkpt>
      <trkpt lat="47.25477" lon="-2.32607">
        <ele>4.1999998092651</ele>
        <time>2020-01-05T11:40:20.000Z</time>
      </trkpt>
      <trkpt lat="47.25475" lon="-2.32575">
        <ele>4.1999998092651</ele>
        <time>2020-01-05T11:40:25.000Z</time>
      </trkpt>
      <trkpt lat="47.25476" lon="-2.32569">
        <ele>4.1999998092651</ele>
        <time>2020-01-05T11:40:26.000Z</time>
      </trkpt>
      <trkpt lat="47.25488" lon="-2.32552">
        <ele>4.1999998092651</ele>
        <time>2020-01-05T11:40:30.000Z</time>
      </trkpt>
      <trkpt lat="47.25498" lon="-2.32543">
        <ele>4.1999998092651</ele>
        <time>2020-01-05T11:40:32.000Z</time>
      </trkpt>
      <trkpt lat="47.25515" lon="-2.32526">
        <ele>4.1999998092651</ele>
        <time>2020-01-05T11:40:36.000Z</time>
      </trkpt>
      <trkpt lat="47.2555" lon="-2.32493">
        <ele>4.1999998092651</ele>
        <time>2020-01-05T11:40:43.000Z</time>
      </trkpt>
      <trkpt lat="47.25555" lon="-2.32489">
        <ele>4.1999998092651</ele>
        <time>2020-01-05T11:40:44.000Z</time>
      </trkpt>
      <trkpt lat="47.25567" lon="-2.32479">
        <ele>3.7999999523163</ele>
        <time>2020-01-05T11:40:46.000Z</time>
      </trkpt>
      <trkpt lat="47.25573" lon="-2.32473">
        <ele>3.4000000953674</ele>
        <time>2020-01-05T11:40:47.000Z</time>
      </trkpt>
      <trkpt lat="47.25579" lon="-2.32468">
        <ele>3</ele>
        <time>2020-01-05T11:40:48.000Z</time>
      </trkpt>
      <trkpt lat="47.25585" lon="-2.32462">
        <ele>2.4000000953674</ele>
        <time>2020-01-05T11:40:49.000Z</time>
      </trkpt>
      <trkpt lat="47.2559" lon="-2.32456">
        <ele>2</ele>
        <time>2020-01-05T11:40:50.000Z</time>
      </trkpt>
      <trkpt lat="47.25602" lon="-2.32444">
        <ele>1.6000000238419</ele>
        <time>2020-01-05T11:40:52.000Z</time>
      </trkpt>
      <trkpt lat="47.25608" lon="-2.32438">
        <ele>1.2000000476837</ele>
        <time>2020-01-05T11:40:53.000Z</time>
      </trkpt>
      <trkpt lat="47.25614" lon="-2.32432">
        <ele>0.80000001192093</ele>
        <time>2020-01-05T11:40:54.000Z</time>
      </trkpt>
      <trkpt lat="47.25621" lon="-2.32425">
        <ele>0.40000000596046</ele>
        <time>2020-01-05T11:40:55.000Z</time>
      </trkpt>
      <trkpt lat="47.25627" lon="-2.32419">
        <ele>5.5</ele>
        <time>2020-01-05T11:40:56.000Z</time>
      </trkpt>
      <trkpt lat="47.25639" lon="-2.32406">
        <ele>-0.40000000596046</ele>
        <time>2020-01-05T11:40:58.000Z</time>
      </trkpt>
      <trkpt lat="47.25645" lon="-2.32403">
        <ele>-0.80000001192093</ele>
        <time>2020-01-05T11:40:59.000Z</time>
      </trkpt>
      <trkpt lat="47.25649" lon="-2.32399">
        <ele>-1.2000000476837</ele>
        <time>2020-01-05T11:41:00.000Z</time>
      </trkpt>
      <trkpt lat="47.25653" lon="-2.32394">
        <ele>-2.2000000476837</ele>
        <time>2020-01-05T11:41:01.000Z</time>
      </trkpt>
      <trkpt lat="47.25661" lon="-2.32396">
        <ele>-2.2000000476837</ele>
        <time>2020-01-05T11:41:03.000Z</time>
      </trkpt>
      <trkpt lat="47.25677" lon="-2.32407">
        <ele>-2.2000000476837</ele>
        <time>2020-01-05T11:41:06.000Z</time>
      </trkpt>
      <trkpt lat="47.25684" lon="-2.32409">
        <ele>-2.2000000476837</ele>
        <time>2020-01-05T11:41:07.000Z</time>
      </trkpt>
      <trkpt lat="47.25716" lon="-2.32416">
        <ele>-2.5999999046326</ele>
        <time>2020-01-05T11:41:12.000Z</time>
      </trkpt>
      <trkpt lat="47.25722" lon="-2.32416">
        <ele>-3</ele>
        <time>2020-01-05T11:41:13.000Z</time>
      </trkpt>
      <trkpt lat="47.25728" lon="-2.32416">
        <ele>-3.4000000953674</ele>
        <time>2020-01-05T11:41:14.000Z</time>
      </trkpt>
      <trkpt lat="47.25734" lon="-2.32416">
        <ele>-3.7999999523163</ele>
        <time>2020-01-05T11:41:15.000Z</time>
      </trkpt>
      <trkpt lat="47.2574" lon="-2.32416">
        <ele>-4.1999998092651</ele>
        <time>2020-01-05T11:41:16.000Z</time>
      </trkpt>
      <trkpt lat="47.25757" lon="-2.32415">
        <ele>-4.1999998092651</ele>
        <time>2020-01-05T11:41:19.000Z</time>
      </trkpt>
      <trkpt lat="47.25762" lon="-2.32414">
        <ele>-4.1999998092651</ele>
        <time>2020-01-05T11:41:20.000Z</time>
      </trkpt>
      <trkpt lat="47.25764" lon="-2.32414">
        <ele>-4.1999998092651</ele>
        <time>2020-01-05T11:41:22.000Z</time>
      </trkpt>
      <trkpt lat="47.25767" lon="-2.32414">
        <ele>-4.1999998092651</ele>
        <time>2020-01-05T11:41:24.000Z</time>
      </trkpt>
      <trkpt lat="47.25774" lon="-2.32411">
        <ele>-4.1999998092651</ele>
        <time>2020-01-05T11:41:27.000Z</time>
      </trkpt>
      <trkpt lat="47.25789" lon="-2.32426">
        <ele>-4.1999998092651</ele>
        <time>2020-01-05T11:41:31.000Z</time>
      </trkpt>
      <trkpt lat="47.25806" lon="-2.32451">
        <ele>-4.1999998092651</ele>
        <time>2020-01-05T11:41:35.000Z</time>
      </trkpt>
      <trkpt lat="47.25823" lon="-2.32462">
        <ele>-4.1999998092651</ele>
        <time>2020-01-05T11:41:38.000Z</time>
      </trkpt>
      <trkpt lat="47.25835" lon="-2.32468">
        <ele>-4.1999998092651</ele>
        <time>2020-01-05T11:41:40.000Z</time>
      </trkpt>
      <trkpt lat="47.25842" lon="-2.3247">
        <ele>-4.1999998092651</ele>
        <time>2020-01-05T11:41:41.000Z</time>
      </trkpt>
      <trkpt lat="47.2586" lon="-2.32472">
        <ele>-4.1999998092651</ele>
        <time>2020-01-05T11:41:44.000Z</time>
      </trkpt>
      <trkpt lat="47.25866" lon="-2.32471">
        <ele>-4.1999998092651</ele>
        <time>2020-01-05T11:41:45.000Z</time>
      </trkpt>
      <trkpt lat="47.25889" lon="-2.32465">
        <ele>-4.1999998092651</ele>
        <time>2020-01-05T11:41:49.000Z</time>
      </trkpt>
      <trkpt lat="47.25894" lon="-2.3246">
        <ele>-4.1999998092651</ele>
        <time>2020-01-05T11:41:50.000Z</time>
      </trkpt>
      <trkpt lat="47.25914" lon="-2.32438">
        <ele>-4.1999998092651</ele>
        <time>2020-01-05T11:41:54.000Z</time>
      </trkpt>
      <trkpt lat="47.25919" lon="-2.32432">
        <ele>-4.1999998092651</ele>
        <time>2020-01-05T11:41:55.000Z</time>
      </trkpt>
      <trkpt lat="47.2595" lon="-2.32389">
        <ele>-4.1999998092651</ele>
        <time>2020-01-05T11:42:02.000Z</time>
      </trkpt>
      <trkpt lat="47.25983" lon="-2.32349">
        <ele>-4.1999998092651</ele>
        <time>2020-01-05T11:42:09.000Z</time>
      </trkpt>
      <trkpt lat="47.26014" lon="-2.32309">
        <ele>-4.1999998092651</ele>
        <time>2020-01-05T11:42:16.000Z</time>
      </trkpt>
      <trkpt lat="47.26046" lon="-2.32272">
        <ele>-4.1999998092651</ele>
        <time>2020-01-05T11:42:23.000Z</time>
      </trkpt>
      <trkpt lat="47.26074" lon="-2.32242">
        <ele>-4.1999998092651</ele>
        <time>2020-01-05T11:42:29.000Z</time>
      </trkpt>
      <trkpt lat="47.26079" lon="-2.32237">
        <ele>-4.1999998092651</ele>
        <time>2020-01-05T11:42:30.000Z</time>
      </trkpt>
      <trkpt lat="47.26102" lon="-2.32201">
        <ele>-4.1999998092651</ele>
        <time>2020-01-05T11:42:36.000Z</time>
      </trkpt>
      <trkpt lat="47.26123" lon="-2.32151">
        <ele>-4.1999998092651</ele>
        <time>2020-01-05T11:42:43.000Z</time>
      </trkpt>
      <trkpt lat="47.26125" lon="-2.32145">
        <ele>-4.1999998092651</ele>
        <time>2020-01-05T11:42:44.000Z</time>
      </trkpt>
      <trkpt lat="47.26134" lon="-2.32115">
        <ele>-4.1999998092651</ele>
        <time>2020-01-05T11:42:48.000Z</time>
      </trkpt>
      <trkpt lat="47.26147" lon="-2.32073">
        <ele>-4.1999998092651</ele>
        <time>2020-01-05T11:42:54.000Z</time>
      </trkpt>
      <trkpt lat="47.26162" lon="-2.32015">
        <ele>-4.1999998092651</ele>
        <time>2020-01-05T11:43:02.000Z</time>
      </trkpt>
      <trkpt lat="47.26162" lon="-2.31977">
        <ele>-4.1999998092651</ele>
        <time>2020-01-05T11:43:07.000Z</time>
      </trkpt>
      <trkpt lat="47.2616" lon="-2.3197">
        <ele>-4.1999998092651</ele>
        <time>2020-01-05T11:43:08.000Z</time>
      </trkpt>
      <trkpt lat="47.26156" lon="-2.31947">
        <ele>-4.1999998092651</ele>
        <time>2020-01-05T11:43:11.000Z</time>
      </trkpt>
      <trkpt lat="47.2615" lon="-2.31901">
        <ele>-4.1999998092651</ele>
        <time>2020-01-05T11:43:17.000Z</time>
      </trkpt>
      <trkpt lat="47.26148" lon="-2.31878">
        <ele>-4.1999998092651</ele>
        <time>2020-01-05T11:43:20.000Z</time>
      </trkpt>
      <trkpt lat="47.26145" lon="-2.31854">
        <ele>-4.1999998092651</ele>
        <time>2020-01-05T11:43:23.000Z</time>
      </trkpt>
      <trkpt lat="47.26137" lon="-2.31798">
        <ele>-4.1999998092651</ele>
        <time>2020-01-05T11:43:30.000Z</time>
      </trkpt>
      <trkpt lat="47.26136" lon="-2.3179">
        <ele>-4.1999998092651</ele>
        <time>2020-01-05T11:43:31.000Z</time>
      </trkpt>
      <trkpt lat="47.26131" lon="-2.31738">
        <ele>-4.1999998092651</ele>
        <time>2020-01-05T11:43:38.000Z</time>
      </trkpt>
      <trkpt lat="47.26127" lon="-2.31692">
        <ele>-4.1999998092651</ele>
        <time>2020-01-05T11:43:44.000Z</time>
      </trkpt>
      <trkpt lat="47.2612" lon="-2.31642">
        <ele>-4.1999998092651</ele>
        <time>2020-01-05T11:43:51.000Z</time>
      </trkpt>
      <trkpt lat="47.2612" lon="-2.31635">
        <ele>-4.1999998092651</ele>
        <time>2020-01-05T11:43:52.000Z</time>
      </trkpt>
      <trkpt lat="47.26123" lon="-2.31617">
        <ele>-4.1999998092651</ele>
        <time>2020-01-05T11:43:55.000Z</time>
      </trkpt>
      <trkpt lat="47.26133" lon="-2.31612">
        <ele>-4.1999998092651</ele>
        <time>2020-01-05T11:43:58.000Z</time>
      </trkpt>
      <trkpt lat="47.26137" lon="-2.31611">
        <ele>-4.1999998092651</ele>
        <time>2020-01-05T11:43:59.000Z</time>
      </trkpt>
      <trkpt lat="47.26161" lon="-2.31604">
        <ele>-4.1999998092651</ele>
        <time>2020-01-05T11:44:04.000Z</time>
      </trkpt>
      <trkpt lat="47.26194" lon="-2.31591">
        <ele>-4.1999998092651</ele>
        <time>2020-01-05T11:44:11.000Z</time>
      </trkpt>
      <trkpt lat="47.26213" lon="-2.31586">
        <ele>-4.1999998092651</ele>
        <time>2020-01-05T11:44:15.000Z</time>
      </trkpt>
      <trkpt lat="47.26224" lon="-2.3159">
        <ele>-4.1999998092651</ele>
        <time>2020-01-05T11:44:17.000Z</time>
      </trkpt>
      <trkpt lat="47.26231" lon="-2.31594">
        <ele>-4.1999998092651</ele>
        <time>2020-01-05T11:44:19.000Z</time>
      </trkpt>
      <trkpt lat="47.26235" lon="-2.31597">
        <ele>-4.1999998092651</ele>
        <time>2020-01-05T11:44:20.000Z</time>
      </trkpt>
      <trkpt lat="47.26238" lon="-2.316">
        <ele>-4.1999998092651</ele>
        <time>2020-01-05T11:44:21.000Z</time>
      </trkpt>
      <trkpt lat="47.26242" lon="-2.31604">
        <ele>-4.1999998092651</ele>
        <time>2020-01-05T11:44:22.000Z</time>
      </trkpt>
      <trkpt lat="47.26252" lon="-2.31619">
        <ele>-4.1999998092651</ele>
        <time>2020-01-05T11:44:25.000Z</time>
      </trkpt>
      <trkpt lat="47.26267" lon="-2.31642">
        <ele>-4.1999998092651</ele>
        <time>2020-01-05T11:44:29.000Z</time>
      </trkpt>
      <trkpt lat="47.26274" lon="-2.31653">
        <ele>-4.1999998092651</ele>
        <time>2020-01-05T11:44:31.000Z</time>
      </trkpt>
      <trkpt lat="47.26293" lon="-2.31688">
        <ele>-4.1999998092651</ele>
        <time>2020-01-05T11:44:37.000Z</time>
      </trkpt>
      <trkpt lat="47.26302" lon="-2.31704">
        <ele>-4.1999998092651</ele>
        <time>2020-01-05T11:44:40.000Z</time>
      </trkpt>
      <trkpt lat="47.26308" lon="-2.31709">
        <ele>-4.1999998092651</ele>
        <time>2020-01-05T11:44:42.000Z</time>
      </trkpt>
      <trkpt lat="47.26319" lon="-2.31705">
        <ele>-4.1999998092651</ele>
        <time>2020-01-05T11:44:45.000Z</time>
      </trkpt>
      <trkpt lat="47.26336" lon="-2.31688">
        <ele>-4.1999998092651</ele>
        <time>2020-01-05T11:44:51.000Z</time>
      </trkpt>
      <trkpt lat="47.26339" lon="-2.31685">
        <ele>-4.1999998092651</ele>
        <time>2020-01-05T11:44:52.000Z</time>
      </trkpt>
      <trkpt lat="47.26345" lon="-2.31684">
        <ele>-4.1999998092651</ele>
        <time>2020-01-05T11:44:54.000Z</time>
      </trkpt>
      <trkpt lat="47.26351" lon="-2.31681">
        <ele>-3.7999999523163</ele>
        <time>2020-01-05T11:44:56.000Z</time>
      </trkpt>
      <trkpt lat="47.26354" lon="-2.3168">
        <ele>-3.4000000953674</ele>
        <time>2020-01-05T11:44:57.000Z</time>
      </trkpt>
      <trkpt lat="47.26357" lon="-2.31678">
        <ele>-3</ele>
        <time>2020-01-05T11:44:58.000Z</time>
      </trkpt>
      <trkpt lat="47.2636" lon="-2.31676">
        <ele>-2.5999999046326</ele>
        <time>2020-01-05T11:44:59.000Z</time>
      </trkpt>
      <trkpt lat="47.26364" lon="-2.31674">
        <ele>-2.2000000476837</ele>
        <time>2020-01-05T11:45:00.000Z</time>
      </trkpt>
      <trkpt lat="47.26368" lon="-2.31673">
        <ele>-2.2000000476837</ele>
        <time>2020-01-05T11:45:01.000Z</time>
      </trkpt>
      <trkpt lat="47.26378" lon="-2.3167">
        <ele>-2.2000000476837</ele>
        <time>2020-01-05T11:45:04.000Z</time>
      </trkpt>
      <trkpt lat="47.26391" lon="-2.31661">
        <ele>-1.6000000238419</ele>
        <time>2020-01-05T11:45:08.000Z</time>
      </trkpt>
      <trkpt lat="47.26394" lon="-2.3166">
        <ele>-1.2000000476837</ele>
        <time>2020-01-05T11:45:09.000Z</time>
      </trkpt>
      <trkpt lat="47.26397" lon="-2.31659">
        <ele>-0.80000001192093</ele>
        <time>2020-01-05T11:45:10.000Z</time>
      </trkpt>
      <trkpt lat="47.264" lon="-2.31658">
        <ele>-0.40000000596046</ele>
        <time>2020-01-05T11:45:11.000Z</time>
      </trkpt>
      <trkpt lat="47.26403" lon="-2.31656">
        <ele>8.4</ele>
        <time>2020-01-05T11:45:12.000Z</time>
      </trkpt>
      <trkpt lat="47.26411" lon="-2.3165">
        <ele>8.6</ele>
        <time>2020-01-05T11:45:15.000Z</time>
      </trkpt>
      <trkpt lat="47.26412" lon="-2.31646">
        <ele>8.7</ele>
        <time>2020-01-05T11:45:16.000Z</time>
      </trkpt>
      <trkpt lat="47.26412" lon="-2.3164">
        <ele>9</ele>
        <time>2020-01-05T11:45:18.000Z</time>
      </trkpt>
      <trkpt lat="47.26412" lon="-2.3162">
        <ele>9.6</ele>
        <time>2020-01-05T11:45:22.000Z</time>
      </trkpt>
      <trkpt lat="47.26412" lon="-2.31605">
        <ele>9.8</ele>
        <time>2020-01-05T11:45:25.000Z</time>
      </trkpt>
      <trkpt lat="47.26413" lon="-2.31592">
        <ele>9.9</ele>
        <time>2020-01-05T11:45:28.000Z</time>
      </trkpt>
      <trkpt lat="47.26412" lon="-2.31566">
        <ele>9.8</ele>
        <time>2020-01-05T11:45:33.000Z</time>
      </trkpt>
      <trkpt lat="47.26415" lon="-2.31556">
        <ele>9.9</ele>
        <time>2020-01-05T11:45:36.000Z</time>
      </trkpt>
      <trkpt lat="47.26417" lon="-2.31554">
        <ele>10.1</ele>
        <time>2020-01-05T11:45:37.000Z</time>
      </trkpt>
      <trkpt lat="47.26421" lon="-2.31554">
        <ele>10.4</ele>
        <time>2020-01-05T11:45:40.000Z</time>
      </trkpt>
      <trkpt lat="47.26421" lon="-2.31554">
        <ele>10.3</ele>
        <time>2020-01-05T11:45:41.000Z</time>
      </trkpt>
    </trkseg>
  </trk>
</gpx>